<?xml version="1.0" encoding="UTF-8" ?>
<gpx version="1.1" 
creator="Memory-Map 6.4.3.1278 https://memory-map.com"
 xmlns:xsi="http://www.w3.org/2001/XMLSchema-instance"
 xmlns="http://www.topografix.com/GPX/1/1"
 xmlns:xstyle="http://www.topografix.com/GPX/gpx_style/0/2"
 xmlns:xgarmin="http://www.garmin.com/xmlschemas/GpxExtensions/v3"
 xsi:schemaLocation="http://www.topografix.com/GPX/1/1 http://www.topografix.com/GPX/1/1/gpx.xsd http://www.topografix.com/GPX/gpx_style/0/2 http://www.topografix.com/GPX/gpx_style/0/2/gpx_style.xsd http://www.garmin.com/xmlschemas/GpxExtensions/v3 https://www8.garmin.com/xmlschemas/GpxExtensionsv3.xsd">
<trk>
<name>1453 Stiouère</name>
<src>mmid:5BFAC5533083607A</src>
<type>Track</type>
<extensions> <xstyle:line>
<xstyle:color>0000ff</xstyle:color>
<xstyle:opacity>1.0</xstyle:opacity>
<xstyle:width>2.0</xstyle:width>
<xstyle:pattern>Solid</xstyle:pattern>
</xstyle:line></extensions>
<trkseg>
<trkpt lat="43.0416320000" lon="0.2590550000"><ele>585</ele><time>2026-03-23T07:30:57Z</time></trkpt>
<trkpt lat="43.0416120000" lon="0.2590670000"><ele>585</ele><time>2026-03-23T07:30:59Z</time></trkpt>
<trkpt lat="43.0415950000" lon="0.2590820000"><ele>585</ele><time>2026-03-23T07:31:01Z</time></trkpt>
<trkpt lat="43.0415820000" lon="0.2591070000"><ele>585</ele><time>2026-03-23T07:31:04Z</time></trkpt>
<trkpt lat="43.0415670000" lon="0.2591270000"><ele>585</ele><time>2026-03-23T07:31:10Z</time></trkpt>
<trkpt lat="43.0415500000" lon="0.2591470000"><ele>585</ele><time>2026-03-23T07:31:13Z</time></trkpt>
<trkpt lat="43.0415420000" lon="0.2591720000"><ele>585</ele><time>2026-03-23T07:31:15Z</time></trkpt>
<trkpt lat="43.0415520000" lon="0.2592020000"><ele>585</ele><time>2026-03-23T07:31:26Z</time></trkpt>
<trkpt lat="43.0415720000" lon="0.2592070000"><ele>585</ele><time>2026-03-23T07:31:28Z</time></trkpt>
<trkpt lat="43.0415920000" lon="0.2592070000"><ele>585</ele><time>2026-03-23T07:31:30Z</time></trkpt>
<trkpt lat="43.0416150000" lon="0.2592120000"><ele>585</ele><time>2026-03-23T07:31:32Z</time></trkpt>
<trkpt lat="43.0416350000" lon="0.2592220000"><ele>585</ele><time>2026-03-23T07:31:34Z</time></trkpt>
<trkpt lat="43.0416570000" lon="0.2592320000"><ele>586</ele><time>2026-03-23T07:31:36Z</time></trkpt>
<trkpt lat="43.0416670000" lon="0.2592520000"><ele>586</ele><time>2026-03-23T07:31:39Z</time></trkpt>
<trkpt lat="43.0416670000" lon="0.2592870000"><ele>586</ele><time>2026-03-23T07:31:42Z</time></trkpt>
<trkpt lat="43.0416670000" lon="0.2593170000"><ele>586</ele><time>2026-03-23T07:31:44Z</time></trkpt>
<trkpt lat="43.0416620000" lon="0.2593450000"><ele>586</ele><time>2026-03-23T07:31:46Z</time></trkpt>
<trkpt lat="43.0416620000" lon="0.2593720000"><ele>587</ele><time>2026-03-23T07:31:48Z</time></trkpt>
<trkpt lat="43.0416570000" lon="0.2594000000"><ele>588</ele><time>2026-03-23T07:31:54Z</time></trkpt>
<trkpt lat="43.0416480000" lon="0.2594300000"><ele>588</ele><time>2026-03-23T07:32:30Z</time></trkpt>
<trkpt lat="43.0416480000" lon="0.2594570000"><ele>589</ele><time>2026-03-23T07:32:42Z</time></trkpt>
<trkpt lat="43.0416470000" lon="0.2594820000"><ele>589</ele><time>2026-03-23T07:32:43Z</time></trkpt>
<trkpt lat="43.0416470000" lon="0.2595120000"><ele>589</ele><time>2026-03-23T07:32:44Z</time></trkpt>
<trkpt lat="43.0416420000" lon="0.2595370000"><ele>589</ele><time>2026-03-23T07:32:45Z</time></trkpt>
<trkpt lat="43.0416370000" lon="0.2595750000"><ele>589</ele><time>2026-03-23T07:32:47Z</time></trkpt>
<trkpt lat="43.0416320000" lon="0.2596020000"><ele>589</ele><time>2026-03-23T07:32:49Z</time></trkpt>
<trkpt lat="43.0416300000" lon="0.2596420000"><ele>590</ele><time>2026-03-23T07:32:52Z</time></trkpt>
<trkpt lat="43.0416270000" lon="0.2596670000"><ele>591</ele><time>2026-03-23T07:32:54Z</time></trkpt>
<trkpt lat="43.0416220000" lon="0.2597000000"><ele>591</ele><time>2026-03-23T07:32:57Z</time></trkpt>
<trkpt lat="43.0416100000" lon="0.2597320000"><ele>592</ele><time>2026-03-23T07:33:00Z</time></trkpt>
<trkpt lat="43.0415970000" lon="0.2597520000"><ele>592</ele><time>2026-03-23T07:33:02Z</time></trkpt>
<trkpt lat="43.0415800000" lon="0.2597770000"><ele>592</ele><time>2026-03-23T07:33:05Z</time></trkpt>
<trkpt lat="43.0415670000" lon="0.2597970000"><ele>592</ele><time>2026-03-23T07:33:07Z</time></trkpt>
<trkpt lat="43.0415620000" lon="0.2598230000"><ele>593</ele><time>2026-03-23T07:33:10Z</time></trkpt>
<trkpt lat="43.0415570000" lon="0.2598570000"><ele>593</ele><time>2026-03-23T07:33:13Z</time></trkpt>
<trkpt lat="43.0415620000" lon="0.2598820000"><ele>593</ele><time>2026-03-23T07:33:15Z</time></trkpt>
<trkpt lat="43.0415720000" lon="0.2599050000"><ele>594</ele><time>2026-03-23T07:33:17Z</time></trkpt>
<trkpt lat="43.0415850000" lon="0.2599320000"><ele>594</ele><time>2026-03-23T07:33:19Z</time></trkpt>
<trkpt lat="43.0415870000" lon="0.2599620000"><ele>594</ele><time>2026-03-23T07:33:21Z</time></trkpt>
<trkpt lat="43.0415870000" lon="0.2599870000"><ele>595</ele><time>2026-03-23T07:33:23Z</time></trkpt>
<trkpt lat="43.0415950000" lon="0.2600220000"><ele>595</ele><time>2026-03-23T07:33:26Z</time></trkpt>
<trkpt lat="43.0415870000" lon="0.2600520000"><ele>596</ele><time>2026-03-23T07:33:29Z</time></trkpt>
<trkpt lat="43.0415770000" lon="0.2600820000"><ele>596</ele><time>2026-03-23T07:33:32Z</time></trkpt>
<trkpt lat="43.0415700000" lon="0.2601120000"><ele>596</ele><time>2026-03-23T07:33:35Z</time></trkpt>
<trkpt lat="43.0415670000" lon="0.2601420000"><ele>597</ele><time>2026-03-23T07:33:38Z</time></trkpt>
<trkpt lat="43.0415670000" lon="0.2601720000"><ele>597</ele><time>2026-03-23T07:33:41Z</time></trkpt>
<trkpt lat="43.0415700000" lon="0.2602050000"><ele>598</ele><time>2026-03-23T07:33:44Z</time></trkpt>
<trkpt lat="43.0415720000" lon="0.2602400000"><ele>598</ele><time>2026-03-23T07:33:47Z</time></trkpt>
<trkpt lat="43.0415700000" lon="0.2602720000"><ele>598</ele><time>2026-03-23T07:33:50Z</time></trkpt>
<trkpt lat="43.0415700000" lon="0.2603000000"><ele>598</ele><time>2026-03-23T07:33:53Z</time></trkpt>
<trkpt lat="43.0415570000" lon="0.2603220000"><ele>599</ele><time>2026-03-23T07:34:03Z</time></trkpt>
<trkpt lat="43.0415520000" lon="0.2603470000"><ele>599</ele><time>2026-03-23T07:34:05Z</time></trkpt>
<trkpt lat="43.0415450000" lon="0.2603830000"><ele>600</ele><time>2026-03-23T07:34:12Z</time></trkpt>
<trkpt lat="43.0415400000" lon="0.2604250000"><ele>600</ele><time>2026-03-23T07:34:14Z</time></trkpt>
<trkpt lat="43.0415400000" lon="0.2604600000"><ele>601</ele><time>2026-03-23T07:34:16Z</time></trkpt>
<trkpt lat="43.0415370000" lon="0.2604850000"><ele>601</ele><time>2026-03-23T07:34:18Z</time></trkpt>
<trkpt lat="43.0415350000" lon="0.2605170000"><ele>601</ele><time>2026-03-23T07:34:21Z</time></trkpt>
<trkpt lat="43.0415350000" lon="0.2605470000"><ele>602</ele><time>2026-03-23T07:34:24Z</time></trkpt>
<trkpt lat="43.0415350000" lon="0.2605770000"><ele>602</ele><time>2026-03-23T07:34:27Z</time></trkpt>
<trkpt lat="43.0415520000" lon="0.2605770000"><ele>602</ele><time>2026-03-23T07:34:30Z</time></trkpt>
<trkpt lat="43.0415630000" lon="0.2606120000"><ele>602</ele><time>2026-03-23T07:34:32Z</time></trkpt>
<trkpt lat="43.0415630000" lon="0.2606400000"><ele>603</ele><time>2026-03-23T07:34:38Z</time></trkpt>
<trkpt lat="43.0415600000" lon="0.2606670000"><ele>603</ele><time>2026-03-23T07:34:40Z</time></trkpt>
<trkpt lat="43.0415550000" lon="0.2607050000"><ele>603</ele><time>2026-03-23T07:34:42Z</time></trkpt>
<trkpt lat="43.0415470000" lon="0.2607370000"><ele>603</ele><time>2026-03-23T07:34:44Z</time></trkpt>
<trkpt lat="43.0415420000" lon="0.2607650000"><ele>604</ele><time>2026-03-23T07:34:46Z</time></trkpt>
<trkpt lat="43.0415350000" lon="0.2607980000"><ele>604</ele><time>2026-03-23T07:34:49Z</time></trkpt>
<trkpt lat="43.0415300000" lon="0.2608230000"><ele>604</ele><time>2026-03-23T07:34:51Z</time></trkpt>
<trkpt lat="43.0415270000" lon="0.2608520000"><ele>604</ele><time>2026-03-23T07:34:54Z</time></trkpt>
<trkpt lat="43.0415270000" lon="0.2608830000"><ele>605</ele><time>2026-03-23T07:34:57Z</time></trkpt>
<trkpt lat="43.0415300000" lon="0.2609170000"><ele>606</ele><time>2026-03-23T07:35:14Z</time></trkpt>
<trkpt lat="43.0415320000" lon="0.2609520000"><ele>606</ele><time>2026-03-23T07:35:22Z</time></trkpt>
<trkpt lat="43.0415370000" lon="0.2609920000"><ele>606</ele><time>2026-03-23T07:35:24Z</time></trkpt>
<trkpt lat="43.0415370000" lon="0.2610320000"><ele>606</ele><time>2026-03-23T07:35:26Z</time></trkpt>
<trkpt lat="43.0415420000" lon="0.2610670000"><ele>606</ele><time>2026-03-23T07:35:28Z</time></trkpt>
<trkpt lat="43.0415400000" lon="0.2610920000"><ele>606</ele><time>2026-03-23T07:35:30Z</time></trkpt>
<trkpt lat="43.0415350000" lon="0.2611200000"><ele>607</ele><time>2026-03-23T07:35:32Z</time></trkpt>
<trkpt lat="43.0415320000" lon="0.2611550000"><ele>607</ele><time>2026-03-23T07:35:35Z</time></trkpt>
<trkpt lat="43.0415320000" lon="0.2611800000"><ele>607</ele><time>2026-03-23T07:35:37Z</time></trkpt>
<trkpt lat="43.0415320000" lon="0.2612070000"><ele>608</ele><time>2026-03-23T07:35:39Z</time></trkpt>
<trkpt lat="43.0415350000" lon="0.2612350000"><ele>608</ele><time>2026-03-23T07:35:41Z</time></trkpt>
<trkpt lat="43.0415400000" lon="0.2612680000"><ele>608</ele><time>2026-03-23T07:35:44Z</time></trkpt>
<trkpt lat="43.0415370000" lon="0.2612970000"><ele>609</ele><time>2026-03-23T07:35:46Z</time></trkpt>
<trkpt lat="43.0415300000" lon="0.2613320000"><ele>609</ele><time>2026-03-23T07:35:49Z</time></trkpt>
<trkpt lat="43.0415220000" lon="0.2613570000"><ele>609</ele><time>2026-03-23T07:35:51Z</time></trkpt>
<trkpt lat="43.0415220000" lon="0.2613820000"><ele>609</ele><time>2026-03-23T07:35:53Z</time></trkpt>
<trkpt lat="43.0415170000" lon="0.2614170000"><ele>610</ele><time>2026-03-23T07:35:56Z</time></trkpt>
<trkpt lat="43.0415170000" lon="0.2614520000"><ele>610</ele><time>2026-03-23T07:35:59Z</time></trkpt>
<trkpt lat="43.0415170000" lon="0.2614870000"><ele>611</ele><time>2026-03-23T07:36:02Z</time></trkpt>
<trkpt lat="43.0415170000" lon="0.2615120000"><ele>611</ele><time>2026-03-23T07:36:04Z</time></trkpt>
<trkpt lat="43.0415170000" lon="0.2615470000"><ele>611</ele><time>2026-03-23T07:36:07Z</time></trkpt>
<trkpt lat="43.0415200000" lon="0.2615720000"><ele>611</ele><time>2026-03-23T07:36:09Z</time></trkpt>
<trkpt lat="43.0415200000" lon="0.2616070000"><ele>612</ele><time>2026-03-23T07:36:12Z</time></trkpt>
<trkpt lat="43.0415220000" lon="0.2616420000"><ele>612</ele><time>2026-03-23T07:36:15Z</time></trkpt>
<trkpt lat="43.0415220000" lon="0.2616670000"><ele>612</ele><time>2026-03-23T07:36:17Z</time></trkpt>
<trkpt lat="43.0415220000" lon="0.2616920000"><ele>612</ele><time>2026-03-23T07:36:19Z</time></trkpt>
<trkpt lat="43.0415220000" lon="0.2617170000"><ele>613</ele><time>2026-03-23T07:36:21Z</time></trkpt>
<trkpt lat="43.0415220000" lon="0.2617550000"><ele>613</ele><time>2026-03-23T07:36:24Z</time></trkpt>
<trkpt lat="43.0415170000" lon="0.2617820000"><ele>613</ele><time>2026-03-23T07:36:26Z</time></trkpt>
<trkpt lat="43.0415200000" lon="0.2618070000"><ele>613</ele><time>2026-03-23T07:36:28Z</time></trkpt>
<trkpt lat="43.0415170000" lon="0.2618320000"><ele>613</ele><time>2026-03-23T07:36:30Z</time></trkpt>
<trkpt lat="43.0415170000" lon="0.2618670000"><ele>614</ele><time>2026-03-23T07:36:33Z</time></trkpt>
<trkpt lat="43.0415170000" lon="0.2619020000"><ele>614</ele><time>2026-03-23T07:36:36Z</time></trkpt>
<trkpt lat="43.0415150000" lon="0.2619370000"><ele>614</ele><time>2026-03-23T07:36:39Z</time></trkpt>
<trkpt lat="43.0415120000" lon="0.2619720000"><ele>615</ele><time>2026-03-23T07:36:42Z</time></trkpt>
<trkpt lat="43.0415100000" lon="0.2620020000"><ele>615</ele><time>2026-03-23T07:36:45Z</time></trkpt>
<trkpt lat="43.0415120000" lon="0.2620370000"><ele>615</ele><time>2026-03-23T07:36:48Z</time></trkpt>
<trkpt lat="43.0415120000" lon="0.2620620000"><ele>616</ele><time>2026-03-23T07:36:50Z</time></trkpt>
<trkpt lat="43.0415170000" lon="0.2620880000"><ele>616</ele><time>2026-03-23T07:36:52Z</time></trkpt>
<trkpt lat="43.0415270000" lon="0.2621170000"><ele>616</ele><time>2026-03-23T07:36:54Z</time></trkpt>
<trkpt lat="43.0415320000" lon="0.2621450000"><ele>616</ele><time>2026-03-23T07:36:56Z</time></trkpt>
<trkpt lat="43.0415420000" lon="0.2621720000"><ele>616</ele><time>2026-03-23T07:36:58Z</time></trkpt>
<trkpt lat="43.0415470000" lon="0.2621970000"><ele>616</ele><time>2026-03-23T07:37:00Z</time></trkpt>
<trkpt lat="43.0415450000" lon="0.2622320000"><ele>617</ele><time>2026-03-23T07:37:03Z</time></trkpt>
<trkpt lat="43.0415520000" lon="0.2622570000"><ele>617</ele><time>2026-03-23T07:37:05Z</time></trkpt>
<trkpt lat="43.0415500000" lon="0.2622900000"><ele>617</ele><time>2026-03-23T07:37:08Z</time></trkpt>
<trkpt lat="43.0415470000" lon="0.2623220000"><ele>617</ele><time>2026-03-23T07:37:11Z</time></trkpt>
<trkpt lat="43.0415450000" lon="0.2623470000"><ele>617</ele><time>2026-03-23T07:37:13Z</time></trkpt>
<trkpt lat="43.0415470000" lon="0.2623770000"><ele>618</ele><time>2026-03-23T07:37:15Z</time></trkpt>
<trkpt lat="43.0415470000" lon="0.2624070000"><ele>618</ele><time>2026-03-23T07:37:17Z</time></trkpt>
<trkpt lat="43.0415570000" lon="0.2624350000"><ele>618</ele><time>2026-03-23T07:37:20Z</time></trkpt>
<trkpt lat="43.0415600000" lon="0.2624620000"><ele>618</ele><time>2026-03-23T07:37:23Z</time></trkpt>
<trkpt lat="43.0415620000" lon="0.2624870000"><ele>619</ele><time>2026-03-23T07:37:26Z</time></trkpt>
<trkpt lat="43.0415700000" lon="0.2625120000"><ele>619</ele><time>2026-03-23T07:37:29Z</time></trkpt>
<trkpt lat="43.0415770000" lon="0.2625350000"><ele>619</ele><time>2026-03-23T07:37:32Z</time></trkpt>
<trkpt lat="43.0415820000" lon="0.2625630000"><ele>619</ele><time>2026-03-23T07:37:35Z</time></trkpt>
<trkpt lat="43.0415850000" lon="0.2625950000"><ele>620</ele><time>2026-03-23T07:37:38Z</time></trkpt>
<trkpt lat="43.0415850000" lon="0.2626220000"><ele>620</ele><time>2026-03-23T07:37:41Z</time></trkpt>
<trkpt lat="43.0415900000" lon="0.2626480000"><ele>620</ele><time>2026-03-23T07:37:44Z</time></trkpt>
<trkpt lat="43.0416000000" lon="0.2626750000"><ele>621</ele><time>2026-03-23T07:37:47Z</time></trkpt>
<trkpt lat="43.0415970000" lon="0.2627020000"><ele>621</ele><time>2026-03-23T07:37:50Z</time></trkpt>
<trkpt lat="43.0415900000" lon="0.2627370000"><ele>621</ele><time>2026-03-23T07:37:53Z</time></trkpt>
<trkpt lat="43.0415920000" lon="0.2627620000"><ele>622</ele><time>2026-03-23T07:37:56Z</time></trkpt>
<trkpt lat="43.0415920000" lon="0.2627870000"><ele>622</ele><time>2026-03-23T07:37:59Z</time></trkpt>
<trkpt lat="43.0415920000" lon="0.2628150000"><ele>623</ele><time>2026-03-23T07:38:02Z</time></trkpt>
<trkpt lat="43.0415920000" lon="0.2628420000"><ele>623</ele><time>2026-03-23T07:38:05Z</time></trkpt>
<trkpt lat="43.0415950000" lon="0.2628670000"><ele>623</ele><time>2026-03-23T07:38:08Z</time></trkpt>
<trkpt lat="43.0415920000" lon="0.2629000000"><ele>624</ele><time>2026-03-23T07:38:12Z</time></trkpt>
<trkpt lat="43.0415900000" lon="0.2629270000"><ele>624</ele><time>2026-03-23T07:38:15Z</time></trkpt>
<trkpt lat="43.0416000000" lon="0.2629570000"><ele>624</ele><time>2026-03-23T07:38:18Z</time></trkpt>
<trkpt lat="43.0416020000" lon="0.2629820000"><ele>625</ele><time>2026-03-23T07:38:21Z</time></trkpt>
<trkpt lat="43.0416020000" lon="0.2630120000"><ele>625</ele><time>2026-03-23T07:38:24Z</time></trkpt>
<trkpt lat="43.0416020000" lon="0.2630370000"><ele>625</ele><time>2026-03-23T07:38:27Z</time></trkpt>
<trkpt lat="43.0416070000" lon="0.2630630000"><ele>626</ele><time>2026-03-23T07:38:30Z</time></trkpt>
<trkpt lat="43.0416120000" lon="0.2630900000"><ele>626</ele><time>2026-03-23T07:38:33Z</time></trkpt>
<trkpt lat="43.0416150000" lon="0.2631170000"><ele>626</ele><time>2026-03-23T07:38:36Z</time></trkpt>
<trkpt lat="43.0416170000" lon="0.2631470000"><ele>627</ele><time>2026-03-23T07:38:39Z</time></trkpt>
<trkpt lat="43.0416170000" lon="0.2631750000"><ele>627</ele><time>2026-03-23T07:38:42Z</time></trkpt>
<trkpt lat="43.0416170000" lon="0.2632050000"><ele>627</ele><time>2026-03-23T07:38:45Z</time></trkpt>
<trkpt lat="43.0416220000" lon="0.2632370000"><ele>628</ele><time>2026-03-23T07:38:48Z</time></trkpt>
<trkpt lat="43.0416170000" lon="0.2632620000"><ele>628</ele><time>2026-03-23T07:38:51Z</time></trkpt>
<trkpt lat="43.0416150000" lon="0.2632870000"><ele>628</ele><time>2026-03-23T07:38:54Z</time></trkpt>
<trkpt lat="43.0416270000" lon="0.2633150000"><ele>629</ele><time>2026-03-23T07:38:58Z</time></trkpt>
<trkpt lat="43.0416350000" lon="0.2633370000"><ele>629</ele><time>2026-03-23T07:39:02Z</time></trkpt>
<trkpt lat="43.0416400000" lon="0.2633650000"><ele>630</ele><time>2026-03-23T07:39:05Z</time></trkpt>
<trkpt lat="43.0416470000" lon="0.2633970000"><ele>630</ele><time>2026-03-23T07:39:08Z</time></trkpt>
<trkpt lat="43.0416450000" lon="0.2634270000"><ele>630</ele><time>2026-03-23T07:39:11Z</time></trkpt>
<trkpt lat="43.0416480000" lon="0.2634570000"><ele>631</ele><time>2026-03-23T07:39:14Z</time></trkpt>
<trkpt lat="43.0416520000" lon="0.2634820000"><ele>631</ele><time>2026-03-23T07:39:17Z</time></trkpt>
<trkpt lat="43.0416520000" lon="0.2635120000"><ele>631</ele><time>2026-03-23T07:39:20Z</time></trkpt>
<trkpt lat="43.0416550000" lon="0.2635420000"><ele>632</ele><time>2026-03-23T07:39:23Z</time></trkpt>
<trkpt lat="43.0416480000" lon="0.2635720000"><ele>632</ele><time>2026-03-23T07:39:26Z</time></trkpt>
<trkpt lat="43.0416520000" lon="0.2636000000"><ele>632</ele><time>2026-03-23T07:39:29Z</time></trkpt>
<trkpt lat="43.0416700000" lon="0.2636200000"><ele>633</ele><time>2026-03-23T07:39:31Z</time></trkpt>
<trkpt lat="43.0416870000" lon="0.2636130000"><ele>633</ele><time>2026-03-23T07:39:33Z</time></trkpt>
<trkpt lat="43.0417050000" lon="0.2636350000"><ele>633</ele><time>2026-03-23T07:39:36Z</time></trkpt>
<trkpt lat="43.0417100000" lon="0.2636670000"><ele>633</ele><time>2026-03-23T07:39:39Z</time></trkpt>
<trkpt lat="43.0417120000" lon="0.2637020000"><ele>634</ele><time>2026-03-23T07:39:42Z</time></trkpt>
<trkpt lat="43.0417150000" lon="0.2637270000"><ele>634</ele><time>2026-03-23T07:39:44Z</time></trkpt>
<trkpt lat="43.0417150000" lon="0.2637580000"><ele>634</ele><time>2026-03-23T07:39:47Z</time></trkpt>
<trkpt lat="43.0417220000" lon="0.2637870000"><ele>635</ele><time>2026-03-23T07:39:50Z</time></trkpt>
<trkpt lat="43.0417350000" lon="0.2638150000"><ele>635</ele><time>2026-03-23T07:39:53Z</time></trkpt>
<trkpt lat="43.0417420000" lon="0.2638370000"><ele>635</ele><time>2026-03-23T07:39:56Z</time></trkpt>
<trkpt lat="43.0417420000" lon="0.2638670000"><ele>636</ele><time>2026-03-23T07:39:59Z</time></trkpt>
<trkpt lat="43.0417520000" lon="0.2638930000"><ele>636</ele><time>2026-03-23T07:40:02Z</time></trkpt>
<trkpt lat="43.0417570000" lon="0.2639220000"><ele>637</ele><time>2026-03-23T07:40:05Z</time></trkpt>
<trkpt lat="43.0417620000" lon="0.2639500000"><ele>637</ele><time>2026-03-23T07:40:08Z</time></trkpt>
<trkpt lat="43.0417700000" lon="0.2639800000"><ele>637</ele><time>2026-03-23T07:40:11Z</time></trkpt>
<trkpt lat="43.0417800000" lon="0.2640100000"><ele>638</ele><time>2026-03-23T07:40:15Z</time></trkpt>
<trkpt lat="43.0417870000" lon="0.2640370000"><ele>638</ele><time>2026-03-23T07:40:18Z</time></trkpt>
<trkpt lat="43.0417920000" lon="0.2640620000"><ele>638</ele><time>2026-03-23T07:40:21Z</time></trkpt>
<trkpt lat="43.0417970000" lon="0.2640920000"><ele>639</ele><time>2026-03-23T07:40:24Z</time></trkpt>
<trkpt lat="43.0418070000" lon="0.2641170000"><ele>639</ele><time>2026-03-23T07:40:27Z</time></trkpt>
<trkpt lat="43.0417970000" lon="0.2641400000"><ele>640</ele><time>2026-03-23T07:40:32Z</time></trkpt>
<trkpt lat="43.0418020000" lon="0.2641700000"><ele>640</ele><time>2026-03-23T07:40:39Z</time></trkpt>
<trkpt lat="43.0418150000" lon="0.2641970000"><ele>641</ele><time>2026-03-23T07:40:45Z</time></trkpt>
<trkpt lat="43.0418400000" lon="0.2642130000"><ele>641</ele><time>2026-03-23T07:40:47Z</time></trkpt>
<trkpt lat="43.0418650000" lon="0.2642370000"><ele>641</ele><time>2026-03-23T07:40:49Z</time></trkpt>
<trkpt lat="43.0418820000" lon="0.2642520000"><ele>641</ele><time>2026-03-23T07:40:51Z</time></trkpt>
<trkpt lat="43.0419020000" lon="0.2642620000"><ele>642</ele><time>2026-03-23T07:40:56Z</time></trkpt>
<trkpt lat="43.0419220000" lon="0.2642720000"><ele>642</ele><time>2026-03-23T07:40:59Z</time></trkpt>
<trkpt lat="43.0419470000" lon="0.2642820000"><ele>642</ele><time>2026-03-23T07:41:02Z</time></trkpt>
<trkpt lat="43.0419670000" lon="0.2642970000"><ele>643</ele><time>2026-03-23T07:41:13Z</time></trkpt>
<trkpt lat="43.0419870000" lon="0.2643170000"><ele>642</ele><time>2026-03-23T07:41:15Z</time></trkpt>
<trkpt lat="43.0420070000" lon="0.2643420000"><ele>642</ele><time>2026-03-23T07:41:17Z</time></trkpt>
<trkpt lat="43.0420200000" lon="0.2643620000"><ele>643</ele><time>2026-03-23T07:41:19Z</time></trkpt>
<trkpt lat="43.0420320000" lon="0.2643820000"><ele>643</ele><time>2026-03-23T07:41:22Z</time></trkpt>
<trkpt lat="43.0420470000" lon="0.2644070000"><ele>643</ele><time>2026-03-23T07:41:30Z</time></trkpt>
<trkpt lat="43.0420720000" lon="0.2644220000"><ele>643</ele><time>2026-03-23T07:41:32Z</time></trkpt>
<trkpt lat="43.0420950000" lon="0.2644320000"><ele>643</ele><time>2026-03-23T07:41:34Z</time></trkpt>
<trkpt lat="43.0421170000" lon="0.2644420000"><ele>643</ele><time>2026-03-23T07:41:36Z</time></trkpt>
<trkpt lat="43.0421400000" lon="0.2644500000"><ele>644</ele><time>2026-03-23T07:41:39Z</time></trkpt>
<trkpt lat="43.0421570000" lon="0.2644530000"><ele>644</ele><time>2026-03-23T07:41:41Z</time></trkpt>
<trkpt lat="43.0421820000" lon="0.2644770000"><ele>644</ele><time>2026-03-23T07:41:44Z</time></trkpt>
<trkpt lat="43.0422020000" lon="0.2644930000"><ele>645</ele><time>2026-03-23T07:41:47Z</time></trkpt>
<trkpt lat="43.0422200000" lon="0.2645100000"><ele>645</ele><time>2026-03-23T07:41:49Z</time></trkpt>
<trkpt lat="43.0422400000" lon="0.2645250000"><ele>645</ele><time>2026-03-23T07:41:51Z</time></trkpt>
<trkpt lat="43.0422570000" lon="0.2645370000"><ele>645</ele><time>2026-03-23T07:41:53Z</time></trkpt>
<trkpt lat="43.0422770000" lon="0.2645470000"><ele>645</ele><time>2026-03-23T07:41:55Z</time></trkpt>
<trkpt lat="43.0423020000" lon="0.2645570000"><ele>645</ele><time>2026-03-23T07:41:57Z</time></trkpt>
<trkpt lat="43.0423220000" lon="0.2645650000"><ele>646</ele><time>2026-03-23T07:41:59Z</time></trkpt>
<trkpt lat="43.0423420000" lon="0.2645820000"><ele>646</ele><time>2026-03-23T07:42:01Z</time></trkpt>
<trkpt lat="43.0423620000" lon="0.2645820000"><ele>646</ele><time>2026-03-23T07:42:04Z</time></trkpt>
<trkpt lat="43.0423850000" lon="0.2646120000"><ele>646</ele><time>2026-03-23T07:42:26Z</time></trkpt>
<trkpt lat="43.0424080000" lon="0.2646350000"><ele>646</ele><time>2026-03-23T07:42:28Z</time></trkpt>
<trkpt lat="43.0424320000" lon="0.2646520000"><ele>646</ele><time>2026-03-23T07:42:30Z</time></trkpt>
<trkpt lat="43.0424520000" lon="0.2646720000"><ele>646</ele><time>2026-03-23T07:42:32Z</time></trkpt>
<trkpt lat="43.0424720000" lon="0.2646950000"><ele>646</ele><time>2026-03-23T07:42:34Z</time></trkpt>
<trkpt lat="43.0424920000" lon="0.2647120000"><ele>646</ele><time>2026-03-23T07:42:36Z</time></trkpt>
<trkpt lat="43.0425100000" lon="0.2647270000"><ele>646</ele><time>2026-03-23T07:42:38Z</time></trkpt>
<trkpt lat="43.0425300000" lon="0.2647470000"><ele>646</ele><time>2026-03-23T07:42:40Z</time></trkpt>
<trkpt lat="43.0425520000" lon="0.2647670000"><ele>646</ele><time>2026-03-23T07:42:42Z</time></trkpt>
<trkpt lat="43.0425700000" lon="0.2647830000"><ele>646</ele><time>2026-03-23T07:42:44Z</time></trkpt>
<trkpt lat="43.0425820000" lon="0.2648020000"><ele>646</ele><time>2026-03-23T07:42:46Z</time></trkpt>
<trkpt lat="43.0426000000" lon="0.2648220000"><ele>646</ele><time>2026-03-23T07:42:48Z</time></trkpt>
<trkpt lat="43.0426170000" lon="0.2648370000"><ele>647</ele><time>2026-03-23T07:42:50Z</time></trkpt>
<trkpt lat="43.0426320000" lon="0.2648480000"><ele>647</ele><time>2026-03-23T07:42:52Z</time></trkpt>
<trkpt lat="43.0426520000" lon="0.2648650000"><ele>647</ele><time>2026-03-23T07:42:54Z</time></trkpt>
<trkpt lat="43.0426770000" lon="0.2648850000"><ele>647</ele><time>2026-03-23T07:42:56Z</time></trkpt>
<trkpt lat="43.0426920000" lon="0.2649020000"><ele>647</ele><time>2026-03-23T07:42:58Z</time></trkpt>
<trkpt lat="43.0427170000" lon="0.2649250000"><ele>648</ele><time>2026-03-23T07:43:01Z</time></trkpt>
<trkpt lat="43.0427370000" lon="0.2649370000"><ele>648</ele><time>2026-03-23T07:43:03Z</time></trkpt>
<trkpt lat="43.0427570000" lon="0.2649470000"><ele>648</ele><time>2026-03-23T07:43:05Z</time></trkpt>
<trkpt lat="43.0427800000" lon="0.2649520000"><ele>648</ele><time>2026-03-23T07:43:07Z</time></trkpt>
<trkpt lat="43.0427970000" lon="0.2649570000"><ele>648</ele><time>2026-03-23T07:43:09Z</time></trkpt>
<trkpt lat="43.0428220000" lon="0.2649650000"><ele>648</ele><time>2026-03-23T07:43:11Z</time></trkpt>
<trkpt lat="43.0428420000" lon="0.2649750000"><ele>648</ele><time>2026-03-23T07:43:13Z</time></trkpt>
<trkpt lat="43.0428620000" lon="0.2649820000"><ele>648</ele><time>2026-03-23T07:43:15Z</time></trkpt>
<trkpt lat="43.0428870000" lon="0.2649870000"><ele>648</ele><time>2026-03-23T07:43:17Z</time></trkpt>
<trkpt lat="43.0429120000" lon="0.2649770000"><ele>648</ele><time>2026-03-23T07:43:19Z</time></trkpt>
<trkpt lat="43.0429370000" lon="0.2649620000"><ele>648</ele><time>2026-03-23T07:43:21Z</time></trkpt>
<trkpt lat="43.0429600000" lon="0.2649520000"><ele>648</ele><time>2026-03-23T07:43:23Z</time></trkpt>
<trkpt lat="43.0429870000" lon="0.2649500000"><ele>647</ele><time>2026-03-23T07:43:25Z</time></trkpt>
<trkpt lat="43.0430120000" lon="0.2649520000"><ele>647</ele><time>2026-03-23T07:43:27Z</time></trkpt>
<trkpt lat="43.0430420000" lon="0.2649650000"><ele>647</ele><time>2026-03-23T07:43:29Z</time></trkpt>
<trkpt lat="43.0430620000" lon="0.2649720000"><ele>647</ele><time>2026-03-23T07:43:31Z</time></trkpt>
<trkpt lat="43.0430770000" lon="0.2649920000"><ele>647</ele><time>2026-03-23T07:43:33Z</time></trkpt>
<trkpt lat="43.0430970000" lon="0.2650100000"><ele>647</ele><time>2026-03-23T07:43:35Z</time></trkpt>
<trkpt lat="43.0431220000" lon="0.2650170000"><ele>647</ele><time>2026-03-23T07:43:37Z</time></trkpt>
<trkpt lat="43.0431450000" lon="0.2650420000"><ele>648</ele><time>2026-03-23T07:43:39Z</time></trkpt>
<trkpt lat="43.0431720000" lon="0.2650570000"><ele>648</ele><time>2026-03-23T07:43:42Z</time></trkpt>
<trkpt lat="43.0431920000" lon="0.2650720000"><ele>648</ele><time>2026-03-23T07:43:45Z</time></trkpt>
<trkpt lat="43.0432120000" lon="0.2650800000"><ele>648</ele><time>2026-03-23T07:43:48Z</time></trkpt>
<trkpt lat="43.0432350000" lon="0.2650900000"><ele>648</ele><time>2026-03-23T07:43:51Z</time></trkpt>
<trkpt lat="43.0432570000" lon="0.2650920000"><ele>649</ele><time>2026-03-23T07:43:54Z</time></trkpt>
<trkpt lat="43.0432800000" lon="0.2650770000"><ele>649</ele><time>2026-03-23T07:43:56Z</time></trkpt>
<trkpt lat="43.0433020000" lon="0.2650620000"><ele>649</ele><time>2026-03-23T07:43:58Z</time></trkpt>
<trkpt lat="43.0433250000" lon="0.2650520000"><ele>649</ele><time>2026-03-23T07:44:00Z</time></trkpt>
<trkpt lat="43.0433420000" lon="0.2650420000"><ele>649</ele><time>2026-03-23T07:44:02Z</time></trkpt>
<trkpt lat="43.0433700000" lon="0.2650250000"><ele>649</ele><time>2026-03-23T07:44:05Z</time></trkpt>
<trkpt lat="43.0433820000" lon="0.2650070000"><ele>649</ele><time>2026-03-23T07:44:07Z</time></trkpt>
<trkpt lat="43.0433970000" lon="0.2649870000"><ele>649</ele><time>2026-03-23T07:44:09Z</time></trkpt>
<trkpt lat="43.0434150000" lon="0.2649670000"><ele>649</ele><time>2026-03-23T07:44:11Z</time></trkpt>
<trkpt lat="43.0434300000" lon="0.2649420000"><ele>649</ele><time>2026-03-23T07:44:13Z</time></trkpt>
<trkpt lat="43.0434470000" lon="0.2649170000"><ele>649</ele><time>2026-03-23T07:44:15Z</time></trkpt>
<trkpt lat="43.0434620000" lon="0.2648950000"><ele>649</ele><time>2026-03-23T07:44:17Z</time></trkpt>
<trkpt lat="43.0434720000" lon="0.2648720000"><ele>649</ele><time>2026-03-23T07:44:19Z</time></trkpt>
<trkpt lat="43.0434870000" lon="0.2648470000"><ele>649</ele><time>2026-03-23T07:44:22Z</time></trkpt>
<trkpt lat="43.0435050000" lon="0.2648270000"><ele>650</ele><time>2026-03-23T07:44:25Z</time></trkpt>
<trkpt lat="43.0435170000" lon="0.2648000000"><ele>650</ele><time>2026-03-23T07:44:28Z</time></trkpt>
<trkpt lat="43.0435200000" lon="0.2647670000"><ele>650</ele><time>2026-03-23T07:44:31Z</time></trkpt>
<trkpt lat="43.0435120000" lon="0.2647330000"><ele>650</ele><time>2026-03-23T07:44:35Z</time></trkpt>
<trkpt lat="43.0435220000" lon="0.2647070000"><ele>650</ele><time>2026-03-23T07:44:38Z</time></trkpt>
<trkpt lat="43.0435350000" lon="0.2646850000"><ele>650</ele><time>2026-03-23T07:44:40Z</time></trkpt>
<trkpt lat="43.0435450000" lon="0.2646620000"><ele>650</ele><time>2026-03-23T07:44:42Z</time></trkpt>
<trkpt lat="43.0435550000" lon="0.2646320000"><ele>651</ele><time>2026-03-23T07:44:45Z</time></trkpt>
<trkpt lat="43.0435670000" lon="0.2646070000"><ele>651</ele><time>2026-03-23T07:44:47Z</time></trkpt>
<trkpt lat="43.0435770000" lon="0.2645850000"><ele>651</ele><time>2026-03-23T07:44:49Z</time></trkpt>
<trkpt lat="43.0435900000" lon="0.2645620000"><ele>651</ele><time>2026-03-23T07:44:51Z</time></trkpt>
<trkpt lat="43.0436020000" lon="0.2645400000"><ele>651</ele><time>2026-03-23T07:44:53Z</time></trkpt>
<trkpt lat="43.0436120000" lon="0.2645070000"><ele>651</ele><time>2026-03-23T07:44:56Z</time></trkpt>
<trkpt lat="43.0436220000" lon="0.2644820000"><ele>652</ele><time>2026-03-23T07:44:58Z</time></trkpt>
<trkpt lat="43.0436350000" lon="0.2644570000"><ele>652</ele><time>2026-03-23T07:45:00Z</time></trkpt>
<trkpt lat="43.0436470000" lon="0.2644330000"><ele>652</ele><time>2026-03-23T07:45:02Z</time></trkpt>
<trkpt lat="43.0436620000" lon="0.2644120000"><ele>652</ele><time>2026-03-23T07:45:04Z</time></trkpt>
<trkpt lat="43.0436800000" lon="0.2643920000"><ele>652</ele><time>2026-03-23T07:45:06Z</time></trkpt>
<trkpt lat="43.0437020000" lon="0.2643720000"><ele>652</ele><time>2026-03-23T07:45:09Z</time></trkpt>
<trkpt lat="43.0437170000" lon="0.2643620000"><ele>653</ele><time>2026-03-23T07:45:11Z</time></trkpt>
<trkpt lat="43.0437400000" lon="0.2643420000"><ele>653</ele><time>2026-03-23T07:45:14Z</time></trkpt>
<trkpt lat="43.0437570000" lon="0.2643220000"><ele>653</ele><time>2026-03-23T07:45:16Z</time></trkpt>
<trkpt lat="43.0437730000" lon="0.2643070000"><ele>653</ele><time>2026-03-23T07:45:18Z</time></trkpt>
<trkpt lat="43.0437900000" lon="0.2642920000"><ele>653</ele><time>2026-03-23T07:45:20Z</time></trkpt>
<trkpt lat="43.0438070000" lon="0.2642730000"><ele>653</ele><time>2026-03-23T07:45:22Z</time></trkpt>
<trkpt lat="43.0438220000" lon="0.2642600000"><ele>653</ele><time>2026-03-23T07:45:24Z</time></trkpt>
<trkpt lat="43.0438370000" lon="0.2642450000"><ele>653</ele><time>2026-03-23T07:45:26Z</time></trkpt>
<trkpt lat="43.0438550000" lon="0.2642300000"><ele>654</ele><time>2026-03-23T07:45:28Z</time></trkpt>
<trkpt lat="43.0438720000" lon="0.2642120000"><ele>654</ele><time>2026-03-23T07:45:30Z</time></trkpt>
<trkpt lat="43.0438900000" lon="0.2642000000"><ele>654</ele><time>2026-03-23T07:45:32Z</time></trkpt>
<trkpt lat="43.0439170000" lon="0.2641870000"><ele>654</ele><time>2026-03-23T07:45:35Z</time></trkpt>
<trkpt lat="43.0439320000" lon="0.2641770000"><ele>654</ele><time>2026-03-23T07:45:37Z</time></trkpt>
<trkpt lat="43.0439520000" lon="0.2641720000"><ele>654</ele><time>2026-03-23T07:45:39Z</time></trkpt>
<trkpt lat="43.0439770000" lon="0.2641570000"><ele>655</ele><time>2026-03-23T07:45:42Z</time></trkpt>
<trkpt lat="43.0439970000" lon="0.2641420000"><ele>655</ele><time>2026-03-23T07:45:44Z</time></trkpt>
<trkpt lat="43.0440120000" lon="0.2641270000"><ele>655</ele><time>2026-03-23T07:45:46Z</time></trkpt>
<trkpt lat="43.0440300000" lon="0.2641150000"><ele>655</ele><time>2026-03-23T07:45:48Z</time></trkpt>
<trkpt lat="43.0440470000" lon="0.2641070000"><ele>655</ele><time>2026-03-23T07:45:50Z</time></trkpt>
<trkpt lat="43.0440720000" lon="0.2640970000"><ele>656</ele><time>2026-03-23T07:45:53Z</time></trkpt>
<trkpt lat="43.0440950000" lon="0.2640920000"><ele>656</ele><time>2026-03-23T07:45:55Z</time></trkpt>
<trkpt lat="43.0441120000" lon="0.2640870000"><ele>656</ele><time>2026-03-23T07:45:57Z</time></trkpt>
<trkpt lat="43.0441320000" lon="0.2640850000"><ele>657</ele><time>2026-03-23T07:45:59Z</time></trkpt>
<trkpt lat="43.0441550000" lon="0.2640770000"><ele>657</ele><time>2026-03-23T07:46:12Z</time></trkpt>
<trkpt lat="43.0441800000" lon="0.2640700000"><ele>657</ele><time>2026-03-23T07:46:14Z</time></trkpt>
<trkpt lat="43.0442100000" lon="0.2640670000"><ele>658</ele><time>2026-03-23T07:46:16Z</time></trkpt>
<trkpt lat="43.0442320000" lon="0.2640670000"><ele>658</ele><time>2026-03-23T07:46:18Z</time></trkpt>
<trkpt lat="43.0442500000" lon="0.2640650000"><ele>658</ele><time>2026-03-23T07:46:20Z</time></trkpt>
<trkpt lat="43.0442670000" lon="0.2640620000"><ele>658</ele><time>2026-03-23T07:46:22Z</time></trkpt>
<trkpt lat="43.0442920000" lon="0.2640620000"><ele>659</ele><time>2026-03-23T07:46:25Z</time></trkpt>
<trkpt lat="43.0443120000" lon="0.2640570000"><ele>659</ele><time>2026-03-23T07:46:27Z</time></trkpt>
<trkpt lat="43.0443300000" lon="0.2640520000"><ele>659</ele><time>2026-03-23T07:46:29Z</time></trkpt>
<trkpt lat="43.0443470000" lon="0.2640470000"><ele>659</ele><time>2026-03-23T07:46:31Z</time></trkpt>
<trkpt lat="43.0443700000" lon="0.2640430000"><ele>659</ele><time>2026-03-23T07:46:33Z</time></trkpt>
<trkpt lat="43.0443970000" lon="0.2640370000"><ele>660</ele><time>2026-03-23T07:46:36Z</time></trkpt>
<trkpt lat="43.0444170000" lon="0.2640350000"><ele>660</ele><time>2026-03-23T07:46:38Z</time></trkpt>
<trkpt lat="43.0444400000" lon="0.2640270000"><ele>660</ele><time>2026-03-23T07:46:41Z</time></trkpt>
<trkpt lat="43.0444670000" lon="0.2640270000"><ele>661</ele><time>2026-03-23T07:46:44Z</time></trkpt>
<trkpt lat="43.0444850000" lon="0.2640280000"><ele>661</ele><time>2026-03-23T07:46:46Z</time></trkpt>
<trkpt lat="43.0445100000" lon="0.2640420000"><ele>661</ele><time>2026-03-23T07:46:49Z</time></trkpt>
<trkpt lat="43.0445270000" lon="0.2640420000"><ele>661</ele><time>2026-03-23T07:46:51Z</time></trkpt>
<trkpt lat="43.0445470000" lon="0.2640470000"><ele>661</ele><time>2026-03-23T07:46:53Z</time></trkpt>
<trkpt lat="43.0445650000" lon="0.2640470000"><ele>662</ele><time>2026-03-23T07:46:55Z</time></trkpt>
<trkpt lat="43.0445900000" lon="0.2640430000"><ele>662</ele><time>2026-03-23T07:46:58Z</time></trkpt>
<trkpt lat="43.0446150000" lon="0.2640520000"><ele>662</ele><time>2026-03-23T07:47:01Z</time></trkpt>
<trkpt lat="43.0446350000" lon="0.2640500000"><ele>663</ele><time>2026-03-23T07:47:04Z</time></trkpt>
<trkpt lat="43.0446570000" lon="0.2640520000"><ele>663</ele><time>2026-03-23T07:47:06Z</time></trkpt>
<trkpt lat="43.0446800000" lon="0.2640620000"><ele>663</ele><time>2026-03-23T07:47:09Z</time></trkpt>
<trkpt lat="43.0446950000" lon="0.2640820000"><ele>664</ele><time>2026-03-23T07:47:11Z</time></trkpt>
<trkpt lat="43.0447070000" lon="0.2641100000"><ele>664</ele><time>2026-03-23T07:47:14Z</time></trkpt>
<trkpt lat="43.0447150000" lon="0.2641320000"><ele>664</ele><time>2026-03-23T07:47:16Z</time></trkpt>
<trkpt lat="43.0447270000" lon="0.2641520000"><ele>665</ele><time>2026-03-23T07:47:35Z</time></trkpt>
<trkpt lat="43.0447420000" lon="0.2641820000"><ele>665</ele><time>2026-03-23T07:47:38Z</time></trkpt>
<trkpt lat="43.0447570000" lon="0.2642050000"><ele>665</ele><time>2026-03-23T07:47:43Z</time></trkpt>
<trkpt lat="43.0447700000" lon="0.2642270000"><ele>665</ele><time>2026-03-23T07:47:46Z</time></trkpt>
<trkpt lat="43.0447820000" lon="0.2642520000"><ele>665</ele><time>2026-03-23T07:47:48Z</time></trkpt>
<trkpt lat="43.0447970000" lon="0.2642720000"><ele>665</ele><time>2026-03-23T07:47:50Z</time></trkpt>
<trkpt lat="43.0448120000" lon="0.2642870000"><ele>666</ele><time>2026-03-23T07:47:52Z</time></trkpt>
<trkpt lat="43.0448270000" lon="0.2643070000"><ele>666</ele><time>2026-03-23T07:47:54Z</time></trkpt>
<trkpt lat="43.0448420000" lon="0.2643250000"><ele>666</ele><time>2026-03-23T07:47:56Z</time></trkpt>
<trkpt lat="43.0448450000" lon="0.2643480000"><ele>666</ele><time>2026-03-23T07:47:58Z</time></trkpt>
<trkpt lat="43.0448570000" lon="0.2643820000"><ele>667</ele><time>2026-03-23T07:48:01Z</time></trkpt>
<trkpt lat="43.0448700000" lon="0.2644020000"><ele>667</ele><time>2026-03-23T07:48:03Z</time></trkpt>
<trkpt lat="43.0448800000" lon="0.2644270000"><ele>667</ele><time>2026-03-23T07:48:06Z</time></trkpt>
<trkpt lat="43.0448820000" lon="0.2644530000"><ele>667</ele><time>2026-03-23T07:48:09Z</time></trkpt>
<trkpt lat="43.0449070000" lon="0.2644770000"><ele>668</ele><time>2026-03-23T07:48:12Z</time></trkpt>
<trkpt lat="43.0449170000" lon="0.2645020000"><ele>668</ele><time>2026-03-23T07:48:15Z</time></trkpt>
<trkpt lat="43.0449370000" lon="0.2645170000"><ele>669</ele><time>2026-03-23T07:48:17Z</time></trkpt>
<trkpt lat="43.0449600000" lon="0.2645320000"><ele>669</ele><time>2026-03-23T07:48:19Z</time></trkpt>
<trkpt lat="43.0449800000" lon="0.2645500000"><ele>669</ele><time>2026-03-23T07:48:21Z</time></trkpt>
<trkpt lat="43.0449970000" lon="0.2645650000"><ele>669</ele><time>2026-03-23T07:48:23Z</time></trkpt>
<trkpt lat="43.0450150000" lon="0.2645920000"><ele>669</ele><time>2026-03-23T07:48:26Z</time></trkpt>
<trkpt lat="43.0450320000" lon="0.2646220000"><ele>669</ele><time>2026-03-23T07:48:29Z</time></trkpt>
<trkpt lat="43.0450470000" lon="0.2646380000"><ele>670</ele><time>2026-03-23T07:48:31Z</time></trkpt>
<trkpt lat="43.0450620000" lon="0.2646570000"><ele>670</ele><time>2026-03-23T07:48:33Z</time></trkpt>
<trkpt lat="43.0450750000" lon="0.2646750000"><ele>670</ele><time>2026-03-23T07:48:35Z</time></trkpt>
<trkpt lat="43.0450900000" lon="0.2647020000"><ele>670</ele><time>2026-03-23T07:48:38Z</time></trkpt>
<trkpt lat="43.0451020000" lon="0.2647230000"><ele>671</ele><time>2026-03-23T07:48:40Z</time></trkpt>
<trkpt lat="43.0451250000" lon="0.2647420000"><ele>671</ele><time>2026-03-23T07:48:43Z</time></trkpt>
<trkpt lat="43.0451420000" lon="0.2647550000"><ele>671</ele><time>2026-03-23T07:48:45Z</time></trkpt>
<trkpt lat="43.0451570000" lon="0.2647720000"><ele>671</ele><time>2026-03-23T07:48:47Z</time></trkpt>
<trkpt lat="43.0451700000" lon="0.2647920000"><ele>672</ele><time>2026-03-23T07:48:49Z</time></trkpt>
<trkpt lat="43.0451850000" lon="0.2648100000"><ele>672</ele><time>2026-03-23T07:48:51Z</time></trkpt>
<trkpt lat="43.0452000000" lon="0.2648270000"><ele>672</ele><time>2026-03-23T07:48:53Z</time></trkpt>
<trkpt lat="43.0452170000" lon="0.2648520000"><ele>672</ele><time>2026-03-23T07:48:56Z</time></trkpt>
<trkpt lat="43.0452300000" lon="0.2648680000"><ele>673</ele><time>2026-03-23T07:48:58Z</time></trkpt>
<trkpt lat="43.0452470000" lon="0.2648920000"><ele>673</ele><time>2026-03-23T07:49:01Z</time></trkpt>
<trkpt lat="43.0452600000" lon="0.2649170000"><ele>673</ele><time>2026-03-23T07:49:04Z</time></trkpt>
<trkpt lat="43.0452770000" lon="0.2649300000"><ele>673</ele><time>2026-03-23T07:49:06Z</time></trkpt>
<trkpt lat="43.0452970000" lon="0.2649550000"><ele>674</ele><time>2026-03-23T07:49:09Z</time></trkpt>
<trkpt lat="43.0453120000" lon="0.2649720000"><ele>674</ele><time>2026-03-23T07:49:11Z</time></trkpt>
<trkpt lat="43.0453270000" lon="0.2649870000"><ele>674</ele><time>2026-03-23T07:49:13Z</time></trkpt>
<trkpt lat="43.0453470000" lon="0.2650000000"><ele>674</ele><time>2026-03-23T07:49:15Z</time></trkpt>
<trkpt lat="43.0453620000" lon="0.2650120000"><ele>674</ele><time>2026-03-23T07:49:17Z</time></trkpt>
<trkpt lat="43.0453800000" lon="0.2650370000"><ele>675</ele><time>2026-03-23T07:49:20Z</time></trkpt>
<trkpt lat="43.0453920000" lon="0.2650530000"><ele>675</ele><time>2026-03-23T07:49:22Z</time></trkpt>
<trkpt lat="43.0454100000" lon="0.2650820000"><ele>675</ele><time>2026-03-23T07:49:25Z</time></trkpt>
<trkpt lat="43.0454270000" lon="0.2650950000"><ele>675</ele><time>2026-03-23T07:49:27Z</time></trkpt>
<trkpt lat="43.0454520000" lon="0.2651020000"><ele>676</ele><time>2026-03-23T07:49:29Z</time></trkpt>
<trkpt lat="43.0454750000" lon="0.2651200000"><ele>676</ele><time>2026-03-23T07:49:31Z</time></trkpt>
<trkpt lat="43.0454900000" lon="0.2651350000"><ele>676</ele><time>2026-03-23T07:49:33Z</time></trkpt>
<trkpt lat="43.0455050000" lon="0.2651480000"><ele>676</ele><time>2026-03-23T07:49:35Z</time></trkpt>
<trkpt lat="43.0455250000" lon="0.2651670000"><ele>677</ele><time>2026-03-23T07:49:38Z</time></trkpt>
<trkpt lat="43.0455400000" lon="0.2651920000"><ele>677</ele><time>2026-03-23T07:49:41Z</time></trkpt>
<trkpt lat="43.0455600000" lon="0.2652100000"><ele>677</ele><time>2026-03-23T07:49:44Z</time></trkpt>
<trkpt lat="43.0455850000" lon="0.2652220000"><ele>677</ele><time>2026-03-23T07:49:47Z</time></trkpt>
<trkpt lat="43.0456020000" lon="0.2652420000"><ele>677</ele><time>2026-03-23T07:49:50Z</time></trkpt>
<trkpt lat="43.0456220000" lon="0.2652570000"><ele>678</ele><time>2026-03-23T07:49:52Z</time></trkpt>
<trkpt lat="43.0456470000" lon="0.2652770000"><ele>678</ele><time>2026-03-23T07:49:55Z</time></trkpt>
<trkpt lat="43.0456650000" lon="0.2652900000"><ele>678</ele><time>2026-03-23T07:49:57Z</time></trkpt>
<trkpt lat="43.0456870000" lon="0.2653020000"><ele>679</ele><time>2026-03-23T07:50:00Z</time></trkpt>
<trkpt lat="43.0457020000" lon="0.2653270000"><ele>679</ele><time>2026-03-23T07:50:03Z</time></trkpt>
<trkpt lat="43.0457220000" lon="0.2653370000"><ele>679</ele><time>2026-03-23T07:50:05Z</time></trkpt>
<trkpt lat="43.0457420000" lon="0.2653500000"><ele>680</ele><time>2026-03-23T07:50:07Z</time></trkpt>
<trkpt lat="43.0457570000" lon="0.2653700000"><ele>680</ele><time>2026-03-23T07:50:09Z</time></trkpt>
<trkpt lat="43.0457820000" lon="0.2653900000"><ele>680</ele><time>2026-03-23T07:50:12Z</time></trkpt>
<trkpt lat="43.0458020000" lon="0.2654080000"><ele>680</ele><time>2026-03-23T07:50:15Z</time></trkpt>
<trkpt lat="43.0458220000" lon="0.2654180000"><ele>681</ele><time>2026-03-23T07:50:17Z</time></trkpt>
<trkpt lat="43.0458400000" lon="0.2654280000"><ele>681</ele><time>2026-03-23T07:50:19Z</time></trkpt>
<trkpt lat="43.0458570000" lon="0.2654420000"><ele>681</ele><time>2026-03-23T07:50:21Z</time></trkpt>
<trkpt lat="43.0458720000" lon="0.2654620000"><ele>681</ele><time>2026-03-23T07:50:23Z</time></trkpt>
<trkpt lat="43.0458870000" lon="0.2654870000"><ele>681</ele><time>2026-03-23T07:50:26Z</time></trkpt>
<trkpt lat="43.0459020000" lon="0.2655020000"><ele>682</ele><time>2026-03-23T07:50:28Z</time></trkpt>
<trkpt lat="43.0459170000" lon="0.2655270000"><ele>682</ele><time>2026-03-23T07:50:31Z</time></trkpt>
<trkpt lat="43.0459270000" lon="0.2655520000"><ele>682</ele><time>2026-03-23T07:50:34Z</time></trkpt>
<trkpt lat="43.0459420000" lon="0.2655750000"><ele>682</ele><time>2026-03-23T07:50:36Z</time></trkpt>
<trkpt lat="43.0459600000" lon="0.2655870000"><ele>683</ele><time>2026-03-23T07:50:38Z</time></trkpt>
<trkpt lat="43.0459870000" lon="0.2655900000"><ele>683</ele><time>2026-03-23T07:50:40Z</time></trkpt>
<trkpt lat="43.0460070000" lon="0.2655920000"><ele>683</ele><time>2026-03-23T07:50:42Z</time></trkpt>
<trkpt lat="43.0460300000" lon="0.2656020000"><ele>683</ele><time>2026-03-23T07:50:44Z</time></trkpt>
<trkpt lat="43.0460470000" lon="0.2656120000"><ele>683</ele><time>2026-03-23T07:50:46Z</time></trkpt>
<trkpt lat="43.0460670000" lon="0.2656300000"><ele>684</ele><time>2026-03-23T07:50:49Z</time></trkpt>
<trkpt lat="43.0460820000" lon="0.2656400000"><ele>684</ele><time>2026-03-23T07:50:51Z</time></trkpt>
<trkpt lat="43.0461020000" lon="0.2656520000"><ele>684</ele><time>2026-03-23T07:50:53Z</time></trkpt>
<trkpt lat="43.0461250000" lon="0.2656630000"><ele>684</ele><time>2026-03-23T07:50:56Z</time></trkpt>
<trkpt lat="43.0461500000" lon="0.2656720000"><ele>684</ele><time>2026-03-23T07:50:59Z</time></trkpt>
<trkpt lat="43.0461670000" lon="0.2656850000"><ele>684</ele><time>2026-03-23T07:51:01Z</time></trkpt>
<trkpt lat="43.0461800000" lon="0.2657020000"><ele>684</ele><time>2026-03-23T07:51:03Z</time></trkpt>
<trkpt lat="43.0461970000" lon="0.2657270000"><ele>684</ele><time>2026-03-23T07:51:06Z</time></trkpt>
<trkpt lat="43.0461800000" lon="0.2657600000"><ele>685</ele><time>2026-03-23T07:52:04Z</time></trkpt>
<trkpt lat="43.0461600000" lon="0.2657950000"><ele>686</ele><time>2026-03-23T07:52:06Z</time></trkpt>
<trkpt lat="43.0461420000" lon="0.2658200000"><ele>686</ele><time>2026-03-23T07:52:08Z</time></trkpt>
<trkpt lat="43.0461270000" lon="0.2658420000"><ele>687</ele><time>2026-03-23T07:52:13Z</time></trkpt>
<trkpt lat="43.0461550000" lon="0.2658920000"><ele>693</ele><time>2026-03-23T07:53:00Z</time></trkpt>
<trkpt lat="43.0461820000" lon="0.2659270000"><ele>693</ele><time>2026-03-23T07:53:01Z</time></trkpt>
<trkpt lat="43.0462150000" lon="0.2659680000"><ele>693</ele><time>2026-03-23T07:53:02Z</time></trkpt>
<trkpt lat="43.0462420000" lon="0.2660100000"><ele>693</ele><time>2026-03-23T07:53:03Z</time></trkpt>
<trkpt lat="43.0462630000" lon="0.2660470000"><ele>694</ele><time>2026-03-23T07:53:04Z</time></trkpt>
<trkpt lat="43.0462770000" lon="0.2660720000"><ele>694</ele><time>2026-03-23T07:53:05Z</time></trkpt>
<trkpt lat="43.0462870000" lon="0.2661020000"><ele>694</ele><time>2026-03-23T07:53:07Z</time></trkpt>
<trkpt lat="43.0462820000" lon="0.2661270000"><ele>695</ele><time>2026-03-23T07:53:12Z</time></trkpt>
<trkpt lat="43.0462720000" lon="0.2661500000"><ele>695</ele><time>2026-03-23T07:53:16Z</time></trkpt>
<trkpt lat="43.0462720000" lon="0.2661750000"><ele>696</ele><time>2026-03-23T07:53:19Z</time></trkpt>
<trkpt lat="43.0462600000" lon="0.2661970000"><ele>696</ele><time>2026-03-23T07:53:22Z</time></trkpt>
<trkpt lat="43.0462450000" lon="0.2662120000"><ele>697</ele><time>2026-03-23T07:53:26Z</time></trkpt>
<trkpt lat="43.0462370000" lon="0.2662370000"><ele>697</ele><time>2026-03-23T07:53:31Z</time></trkpt>
<trkpt lat="43.0462270000" lon="0.2662570000"><ele>698</ele><time>2026-03-23T07:53:37Z</time></trkpt>
<trkpt lat="43.0462170000" lon="0.2663020000"><ele>706</ele><time>2026-03-23T07:54:53Z</time></trkpt>
<trkpt lat="43.0462070000" lon="0.2663480000"><ele>706</ele><time>2026-03-23T07:54:54Z</time></trkpt>
<trkpt lat="43.0461970000" lon="0.2664070000"><ele>706</ele><time>2026-03-23T07:54:55Z</time></trkpt>
<trkpt lat="43.0461900000" lon="0.2664670000"><ele>706</ele><time>2026-03-23T07:54:56Z</time></trkpt>
<trkpt lat="43.0461820000" lon="0.2665120000"><ele>706</ele><time>2026-03-23T07:54:57Z</time></trkpt>
<trkpt lat="43.0461800000" lon="0.2665420000"><ele>706</ele><time>2026-03-23T07:54:58Z</time></trkpt>
<trkpt lat="43.0461770000" lon="0.2665670000"><ele>707</ele><time>2026-03-23T07:55:00Z</time></trkpt>
<trkpt lat="43.0461820000" lon="0.2665920000"><ele>707</ele><time>2026-03-23T07:55:04Z</time></trkpt>
<trkpt lat="43.0461770000" lon="0.2666270000"><ele>713</ele><time>2026-03-23T07:55:41Z</time></trkpt>
<trkpt lat="43.0461800000" lon="0.2666620000"><ele>713</ele><time>2026-03-23T07:55:42Z</time></trkpt>
<trkpt lat="43.0461850000" lon="0.2667020000"><ele>713</ele><time>2026-03-23T07:55:43Z</time></trkpt>
<trkpt lat="43.0461900000" lon="0.2667470000"><ele>713</ele><time>2026-03-23T07:55:44Z</time></trkpt>
<trkpt lat="43.0461920000" lon="0.2667800000"><ele>713</ele><time>2026-03-23T07:55:45Z</time></trkpt>
<trkpt lat="43.0461920000" lon="0.2668050000"><ele>713</ele><time>2026-03-23T07:55:46Z</time></trkpt>
<trkpt lat="43.0461930000" lon="0.2668320000"><ele>714</ele><time>2026-03-23T07:55:48Z</time></trkpt>
<trkpt lat="43.0461900000" lon="0.2668570000"><ele>714</ele><time>2026-03-23T07:55:53Z</time></trkpt>
<trkpt lat="43.0461870000" lon="0.2668820000"><ele>715</ele><time>2026-03-23T07:55:58Z</time></trkpt>
<trkpt lat="43.0461850000" lon="0.2669300000"><ele>723</ele><time>2026-03-23T07:56:53Z</time></trkpt>
<trkpt lat="43.0461770000" lon="0.2669800000"><ele>723</ele><time>2026-03-23T07:56:54Z</time></trkpt>
<trkpt lat="43.0461700000" lon="0.2670400000"><ele>723</ele><time>2026-03-23T07:56:55Z</time></trkpt>
<trkpt lat="43.0461600000" lon="0.2671000000"><ele>723</ele><time>2026-03-23T07:56:56Z</time></trkpt>
<trkpt lat="43.0461520000" lon="0.2671470000"><ele>723</ele><time>2026-03-23T07:56:57Z</time></trkpt>
<trkpt lat="43.0461470000" lon="0.2671770000"><ele>723</ele><time>2026-03-23T07:56:58Z</time></trkpt>
<trkpt lat="43.0461450000" lon="0.2672020000"><ele>723</ele><time>2026-03-23T07:57:00Z</time></trkpt>
<trkpt lat="43.0461620000" lon="0.2672230000"><ele>724</ele><time>2026-03-23T07:57:04Z</time></trkpt>
<trkpt lat="43.0461770000" lon="0.2672330000"><ele>724</ele><time>2026-03-23T07:57:06Z</time></trkpt>
<trkpt lat="43.0461820000" lon="0.2672720000"><ele>730</ele><time>2026-03-23T07:58:08Z</time></trkpt>
<trkpt lat="43.0461770000" lon="0.2673120000"><ele>730</ele><time>2026-03-23T07:58:09Z</time></trkpt>
<trkpt lat="43.0461700000" lon="0.2673670000"><ele>730</ele><time>2026-03-23T07:58:10Z</time></trkpt>
<trkpt lat="43.0461650000" lon="0.2674170000"><ele>731</ele><time>2026-03-23T07:58:11Z</time></trkpt>
<trkpt lat="43.0461620000" lon="0.2674570000"><ele>731</ele><time>2026-03-23T07:58:12Z</time></trkpt>
<trkpt lat="43.0461600000" lon="0.2674830000"><ele>731</ele><time>2026-03-23T07:58:13Z</time></trkpt>
<trkpt lat="43.0461620000" lon="0.2675120000"><ele>731</ele><time>2026-03-23T07:58:15Z</time></trkpt>
<trkpt lat="43.0461700000" lon="0.2675370000"><ele>732</ele><time>2026-03-23T07:58:18Z</time></trkpt>
<trkpt lat="43.0461750000" lon="0.2675650000"><ele>732</ele><time>2026-03-23T07:58:22Z</time></trkpt>
<trkpt lat="43.0461670000" lon="0.2675870000"><ele>733</ele><time>2026-03-23T07:58:26Z</time></trkpt>
<trkpt lat="43.0461620000" lon="0.2676170000"><ele>733</ele><time>2026-03-23T07:58:30Z</time></trkpt>
<trkpt lat="43.0461520000" lon="0.2676470000"><ele>734</ele><time>2026-03-23T07:58:34Z</time></trkpt>
<trkpt lat="43.0461470000" lon="0.2676770000"><ele>735</ele><time>2026-03-23T07:58:39Z</time></trkpt>
<trkpt lat="43.0461400000" lon="0.2677050000"><ele>735</ele><time>2026-03-23T07:58:44Z</time></trkpt>
<trkpt lat="43.0461370000" lon="0.2677320000"><ele>736</ele><time>2026-03-23T07:58:48Z</time></trkpt>
<trkpt lat="43.0461300000" lon="0.2677570000"><ele>737</ele><time>2026-03-23T07:58:52Z</time></trkpt>
<trkpt lat="43.0461270000" lon="0.2677830000"><ele>737</ele><time>2026-03-23T07:58:56Z</time></trkpt>
<trkpt lat="43.0461170000" lon="0.2678120000"><ele>738</ele><time>2026-03-23T07:58:59Z</time></trkpt>
<trkpt lat="43.0461120000" lon="0.2678370000"><ele>738</ele><time>2026-03-23T07:59:02Z</time></trkpt>
<trkpt lat="43.0461070000" lon="0.2678670000"><ele>739</ele><time>2026-03-23T07:59:06Z</time></trkpt>
<trkpt lat="43.0461020000" lon="0.2678920000"><ele>740</ele><time>2026-03-23T07:59:10Z</time></trkpt>
<trkpt lat="43.0460970000" lon="0.2679170000"><ele>741</ele><time>2026-03-23T07:59:14Z</time></trkpt>
<trkpt lat="43.0460920000" lon="0.2679420000"><ele>741</ele><time>2026-03-23T07:59:18Z</time></trkpt>
<trkpt lat="43.0460800000" lon="0.2679670000"><ele>742</ele><time>2026-03-23T07:59:24Z</time></trkpt>
<trkpt lat="43.0460800000" lon="0.2679920000"><ele>742</ele><time>2026-03-23T07:59:27Z</time></trkpt>
<trkpt lat="43.0460720000" lon="0.2680180000"><ele>743</ele><time>2026-03-23T07:59:30Z</time></trkpt>
<trkpt lat="43.0460700000" lon="0.2680470000"><ele>743</ele><time>2026-03-23T07:59:32Z</time></trkpt>
<trkpt lat="43.0460620000" lon="0.2680750000"><ele>744</ele><time>2026-03-23T07:59:35Z</time></trkpt>
<trkpt lat="43.0460550000" lon="0.2681000000"><ele>744</ele><time>2026-03-23T07:59:38Z</time></trkpt>
<trkpt lat="43.0460470000" lon="0.2681250000"><ele>745</ele><time>2026-03-23T07:59:42Z</time></trkpt>
<trkpt lat="43.0460420000" lon="0.2681500000"><ele>745</ele><time>2026-03-23T07:59:48Z</time></trkpt>
<trkpt lat="43.0460300000" lon="0.2681750000"><ele>746</ele><time>2026-03-23T07:59:53Z</time></trkpt>
<trkpt lat="43.0460200000" lon="0.2682020000"><ele>747</ele><time>2026-03-23T07:59:58Z</time></trkpt>
<trkpt lat="43.0460220000" lon="0.2682370000"><ele>748</ele><time>2026-03-23T08:00:13Z</time></trkpt>
<trkpt lat="43.0460170000" lon="0.2682750000"><ele>748</ele><time>2026-03-23T08:00:15Z</time></trkpt>
<trkpt lat="43.0460120000" lon="0.2683120000"><ele>749</ele><time>2026-03-23T08:00:17Z</time></trkpt>
<trkpt lat="43.0460120000" lon="0.2683420000"><ele>749</ele><time>2026-03-23T08:00:19Z</time></trkpt>
<trkpt lat="43.0460100000" lon="0.2683720000"><ele>749</ele><time>2026-03-23T08:00:22Z</time></trkpt>
<trkpt lat="43.0460000000" lon="0.2683970000"><ele>750</ele><time>2026-03-23T08:00:25Z</time></trkpt>
<trkpt lat="43.0459950000" lon="0.2684270000"><ele>750</ele><time>2026-03-23T08:00:29Z</time></trkpt>
<trkpt lat="43.0459920000" lon="0.2684580000"><ele>751</ele><time>2026-03-23T08:00:32Z</time></trkpt>
<trkpt lat="43.0459870000" lon="0.2684870000"><ele>751</ele><time>2026-03-23T08:00:35Z</time></trkpt>
<trkpt lat="43.0459820000" lon="0.2685150000"><ele>751</ele><time>2026-03-23T08:00:39Z</time></trkpt>
<trkpt lat="43.0459620000" lon="0.2685250000"><ele>751</ele><time>2026-03-23T08:00:43Z</time></trkpt>
<trkpt lat="43.0459520000" lon="0.2685470000"><ele>752</ele><time>2026-03-23T08:00:46Z</time></trkpt>
<trkpt lat="43.0459450000" lon="0.2685720000"><ele>752</ele><time>2026-03-23T08:00:48Z</time></trkpt>
<trkpt lat="43.0459400000" lon="0.2686020000"><ele>752</ele><time>2026-03-23T08:00:50Z</time></trkpt>
<trkpt lat="43.0459270000" lon="0.2686320000"><ele>753</ele><time>2026-03-23T08:00:53Z</time></trkpt>
<trkpt lat="43.0459220000" lon="0.2686570000"><ele>753</ele><time>2026-03-23T08:00:55Z</time></trkpt>
<trkpt lat="43.0459170000" lon="0.2686850000"><ele>753</ele><time>2026-03-23T08:00:57Z</time></trkpt>
<trkpt lat="43.0459120000" lon="0.2687100000"><ele>753</ele><time>2026-03-23T08:00:59Z</time></trkpt>
<trkpt lat="43.0459100000" lon="0.2687370000"><ele>753</ele><time>2026-03-23T08:01:01Z</time></trkpt>
<trkpt lat="43.0459120000" lon="0.2687670000"><ele>753</ele><time>2026-03-23T08:01:03Z</time></trkpt>
<trkpt lat="43.0459100000" lon="0.2687970000"><ele>753</ele><time>2026-03-23T08:01:05Z</time></trkpt>
<trkpt lat="43.0459070000" lon="0.2688270000"><ele>754</ele><time>2026-03-23T08:01:08Z</time></trkpt>
<trkpt lat="43.0459020000" lon="0.2688570000"><ele>754</ele><time>2026-03-23T08:01:11Z</time></trkpt>
<trkpt lat="43.0459000000" lon="0.2688870000"><ele>754</ele><time>2026-03-23T08:01:15Z</time></trkpt>
<trkpt lat="43.0458970000" lon="0.2689170000"><ele>755</ele><time>2026-03-23T08:01:18Z</time></trkpt>
<trkpt lat="43.0458920000" lon="0.2689470000"><ele>755</ele><time>2026-03-23T08:01:21Z</time></trkpt>
<trkpt lat="43.0458870000" lon="0.2689770000"><ele>755</ele><time>2026-03-23T08:01:24Z</time></trkpt>
<trkpt lat="43.0458770000" lon="0.2690070000"><ele>756</ele><time>2026-03-23T08:01:27Z</time></trkpt>
<trkpt lat="43.0458670000" lon="0.2690380000"><ele>756</ele><time>2026-03-23T08:01:30Z</time></trkpt>
<trkpt lat="43.0458600000" lon="0.2690720000"><ele>757</ele><time>2026-03-23T08:01:33Z</time></trkpt>
<trkpt lat="43.0458570000" lon="0.2691070000"><ele>757</ele><time>2026-03-23T08:01:36Z</time></trkpt>
<trkpt lat="43.0458520000" lon="0.2691320000"><ele>757</ele><time>2026-03-23T08:01:38Z</time></trkpt>
<trkpt lat="43.0458450000" lon="0.2691720000"><ele>757</ele><time>2026-03-23T08:01:41Z</time></trkpt>
<trkpt lat="43.0458450000" lon="0.2691970000"><ele>758</ele><time>2026-03-23T08:01:43Z</time></trkpt>
<trkpt lat="43.0458470000" lon="0.2692270000"><ele>758</ele><time>2026-03-23T08:01:46Z</time></trkpt>
<trkpt lat="43.0458500000" lon="0.2692570000"><ele>758</ele><time>2026-03-23T08:01:49Z</time></trkpt>
<trkpt lat="43.0458470000" lon="0.2692850000"><ele>758</ele><time>2026-03-23T08:01:52Z</time></trkpt>
<trkpt lat="43.0458370000" lon="0.2693120000"><ele>759</ele><time>2026-03-23T08:01:55Z</time></trkpt>
<trkpt lat="43.0458320000" lon="0.2693420000"><ele>759</ele><time>2026-03-23T08:01:58Z</time></trkpt>
<trkpt lat="43.0458320000" lon="0.2693670000"><ele>759</ele><time>2026-03-23T08:02:00Z</time></trkpt>
<trkpt lat="43.0458270000" lon="0.2694020000"><ele>759</ele><time>2026-03-23T08:02:03Z</time></trkpt>
<trkpt lat="43.0458220000" lon="0.2694320000"><ele>760</ele><time>2026-03-23T08:02:06Z</time></trkpt>
<trkpt lat="43.0458200000" lon="0.2694670000"><ele>760</ele><time>2026-03-23T08:02:09Z</time></trkpt>
<trkpt lat="43.0458130000" lon="0.2694970000"><ele>761</ele><time>2026-03-23T08:02:12Z</time></trkpt>
<trkpt lat="43.0458100000" lon="0.2695270000"><ele>761</ele><time>2026-03-23T08:02:15Z</time></trkpt>
<trkpt lat="43.0458020000" lon="0.2695550000"><ele>762</ele><time>2026-03-23T08:02:18Z</time></trkpt>
<trkpt lat="43.0457970000" lon="0.2695870000"><ele>762</ele><time>2026-03-23T08:02:21Z</time></trkpt>
<trkpt lat="43.0457920000" lon="0.2696170000"><ele>762</ele><time>2026-03-23T08:02:24Z</time></trkpt>
<trkpt lat="43.0457920000" lon="0.2696470000"><ele>763</ele><time>2026-03-23T08:02:27Z</time></trkpt>
<trkpt lat="43.0457920000" lon="0.2696820000"><ele>763</ele><time>2026-03-23T08:02:30Z</time></trkpt>
<trkpt lat="43.0457920000" lon="0.2697170000"><ele>764</ele><time>2026-03-23T08:02:33Z</time></trkpt>
<trkpt lat="43.0457870000" lon="0.2697500000"><ele>764</ele><time>2026-03-23T08:02:36Z</time></trkpt>
<trkpt lat="43.0457800000" lon="0.2697770000"><ele>764</ele><time>2026-03-23T08:02:39Z</time></trkpt>
<trkpt lat="43.0457770000" lon="0.2698050000"><ele>765</ele><time>2026-03-23T08:02:42Z</time></trkpt>
<trkpt lat="43.0457720000" lon="0.2698320000"><ele>765</ele><time>2026-03-23T08:02:45Z</time></trkpt>
<trkpt lat="43.0457650000" lon="0.2698670000"><ele>765</ele><time>2026-03-23T08:02:48Z</time></trkpt>
<trkpt lat="43.0457600000" lon="0.2698970000"><ele>765</ele><time>2026-03-23T08:02:50Z</time></trkpt>
<trkpt lat="43.0457600000" lon="0.2699250000"><ele>766</ele><time>2026-03-23T08:02:52Z</time></trkpt>
<trkpt lat="43.0457620000" lon="0.2699550000"><ele>766</ele><time>2026-03-23T08:02:54Z</time></trkpt>
<trkpt lat="43.0457620000" lon="0.2699820000"><ele>766</ele><time>2026-03-23T08:02:56Z</time></trkpt>
<trkpt lat="43.0457550000" lon="0.2700120000"><ele>766</ele><time>2026-03-23T08:02:59Z</time></trkpt>
<trkpt lat="43.0457520000" lon="0.2700400000"><ele>766</ele><time>2026-03-23T08:03:03Z</time></trkpt>
<trkpt lat="43.0457520000" lon="0.2700670000"><ele>767</ele><time>2026-03-23T08:03:06Z</time></trkpt>
<trkpt lat="43.0457370000" lon="0.2701120000"><ele>769</ele><time>2026-03-23T08:03:42Z</time></trkpt>
<trkpt lat="43.0457250000" lon="0.2701420000"><ele>769</ele><time>2026-03-23T08:03:43Z</time></trkpt>
<trkpt lat="43.0457100000" lon="0.2701770000"><ele>769</ele><time>2026-03-23T08:03:44Z</time></trkpt>
<trkpt lat="43.0456950000" lon="0.2702020000"><ele>769</ele><time>2026-03-23T08:03:45Z</time></trkpt>
<trkpt lat="43.0456800000" lon="0.2702220000"><ele>769</ele><time>2026-03-23T08:03:46Z</time></trkpt>
<trkpt lat="43.0456580000" lon="0.2702380000"><ele>769</ele><time>2026-03-23T08:03:48Z</time></trkpt>
<trkpt lat="43.0456370000" lon="0.2702520000"><ele>769</ele><time>2026-03-23T08:03:51Z</time></trkpt>
<trkpt lat="43.0456220000" lon="0.2702670000"><ele>769</ele><time>2026-03-23T08:03:53Z</time></trkpt>
<trkpt lat="43.0456020000" lon="0.2702770000"><ele>769</ele><time>2026-03-23T08:03:55Z</time></trkpt>
<trkpt lat="43.0455870000" lon="0.2703050000"><ele>770</ele><time>2026-03-23T08:03:58Z</time></trkpt>
<trkpt lat="43.0455870000" lon="0.2703370000"><ele>770</ele><time>2026-03-23T08:04:01Z</time></trkpt>
<trkpt lat="43.0455880000" lon="0.2703620000"><ele>770</ele><time>2026-03-23T08:04:03Z</time></trkpt>
<trkpt lat="43.0455870000" lon="0.2703900000"><ele>770</ele><time>2026-03-23T08:04:05Z</time></trkpt>
<trkpt lat="43.0455720000" lon="0.2704120000"><ele>770</ele><time>2026-03-23T08:04:07Z</time></trkpt>
<trkpt lat="43.0455570000" lon="0.2704350000"><ele>771</ele><time>2026-03-23T08:04:10Z</time></trkpt>
<trkpt lat="43.0455400000" lon="0.2704520000"><ele>771</ele><time>2026-03-23T08:04:13Z</time></trkpt>
<trkpt lat="43.0455270000" lon="0.2704770000"><ele>771</ele><time>2026-03-23T08:04:16Z</time></trkpt>
<trkpt lat="43.0455220000" lon="0.2705020000"><ele>771</ele><time>2026-03-23T08:04:19Z</time></trkpt>
<trkpt lat="43.0455170000" lon="0.2705270000"><ele>771</ele><time>2026-03-23T08:04:22Z</time></trkpt>
<trkpt lat="43.0455150000" lon="0.2705570000"><ele>772</ele><time>2026-03-23T08:04:25Z</time></trkpt>
<trkpt lat="43.0455070000" lon="0.2705800000"><ele>772</ele><time>2026-03-23T08:04:28Z</time></trkpt>
<trkpt lat="43.0455000000" lon="0.2706120000"><ele>772</ele><time>2026-03-23T08:04:48Z</time></trkpt>
<trkpt lat="43.0455020000" lon="0.2706420000"><ele>772</ele><time>2026-03-23T08:04:50Z</time></trkpt>
<trkpt lat="43.0455020000" lon="0.2706720000"><ele>772</ele><time>2026-03-23T08:04:52Z</time></trkpt>
<trkpt lat="43.0455020000" lon="0.2707030000"><ele>772</ele><time>2026-03-23T08:04:55Z</time></trkpt>
<trkpt lat="43.0455120000" lon="0.2707270000"><ele>772</ele><time>2026-03-23T08:04:58Z</time></trkpt>
<trkpt lat="43.0455270000" lon="0.2707450000"><ele>772</ele><time>2026-03-23T08:05:03Z</time></trkpt>
<trkpt lat="43.0455420000" lon="0.2707700000"><ele>772</ele><time>2026-03-23T08:05:06Z</time></trkpt>
<trkpt lat="43.0455550000" lon="0.2707870000"><ele>772</ele><time>2026-03-23T08:05:08Z</time></trkpt>
<trkpt lat="43.0455650000" lon="0.2708130000"><ele>773</ele><time>2026-03-23T08:05:11Z</time></trkpt>
<trkpt lat="43.0455770000" lon="0.2708320000"><ele>773</ele><time>2026-03-23T08:05:16Z</time></trkpt>
<trkpt lat="43.0455970000" lon="0.2708470000"><ele>773</ele><time>2026-03-23T08:05:19Z</time></trkpt>
<trkpt lat="43.0456100000" lon="0.2708670000"><ele>773</ele><time>2026-03-23T08:05:22Z</time></trkpt>
<trkpt lat="43.0456220000" lon="0.2708870000"><ele>773</ele><time>2026-03-23T08:05:24Z</time></trkpt>
<trkpt lat="43.0456400000" lon="0.2708970000"><ele>773</ele><time>2026-03-23T08:05:27Z</time></trkpt>
<trkpt lat="43.0456570000" lon="0.2709100000"><ele>773</ele><time>2026-03-23T08:05:34Z</time></trkpt>
<trkpt lat="43.0456700000" lon="0.2709270000"><ele>773</ele><time>2026-03-23T08:05:37Z</time></trkpt>
<trkpt lat="43.0456770000" lon="0.2709520000"><ele>774</ele><time>2026-03-23T08:06:33Z</time></trkpt>
<trkpt lat="43.0456720000" lon="0.2709820000"><ele>774</ele><time>2026-03-23T08:07:47Z</time></trkpt>
<trkpt lat="43.0456520000" lon="0.2709720000"><ele>774</ele><time>2026-03-23T08:09:00Z</time></trkpt>
<trkpt lat="43.0456420000" lon="0.2709470000"><ele>774</ele><time>2026-03-23T08:09:02Z</time></trkpt>
<trkpt lat="43.0456320000" lon="0.2709220000"><ele>774</ele><time>2026-03-23T08:09:04Z</time></trkpt>
<trkpt lat="43.0456170000" lon="0.2708970000"><ele>774</ele><time>2026-03-23T08:09:06Z</time></trkpt>
<trkpt lat="43.0456050000" lon="0.2708770000"><ele>774</ele><time>2026-03-23T08:09:08Z</time></trkpt>
<trkpt lat="43.0455950000" lon="0.2708570000"><ele>774</ele><time>2026-03-23T08:09:10Z</time></trkpt>
<trkpt lat="43.0455770000" lon="0.2708330000"><ele>774</ele><time>2026-03-23T08:09:13Z</time></trkpt>
<trkpt lat="43.0455550000" lon="0.2708120000"><ele>774</ele><time>2026-03-23T08:09:16Z</time></trkpt>
<trkpt lat="43.0455400000" lon="0.2707970000"><ele>773</ele><time>2026-03-23T08:09:18Z</time></trkpt>
<trkpt lat="43.0455270000" lon="0.2707700000"><ele>773</ele><time>2026-03-23T08:09:30Z</time></trkpt>
<trkpt lat="43.0455150000" lon="0.2707450000"><ele>773</ele><time>2026-03-23T08:09:32Z</time></trkpt>
<trkpt lat="43.0455070000" lon="0.2707120000"><ele>773</ele><time>2026-03-23T08:09:34Z</time></trkpt>
<trkpt lat="43.0455000000" lon="0.2706820000"><ele>773</ele><time>2026-03-23T08:09:36Z</time></trkpt>
<trkpt lat="43.0454870000" lon="0.2706620000"><ele>773</ele><time>2026-03-23T08:09:38Z</time></trkpt>
<trkpt lat="43.0454670000" lon="0.2706400000"><ele>773</ele><time>2026-03-23T08:09:41Z</time></trkpt>
<trkpt lat="43.0454450000" lon="0.2706200000"><ele>773</ele><time>2026-03-23T08:09:44Z</time></trkpt>
<trkpt lat="43.0454370000" lon="0.2705970000"><ele>773</ele><time>2026-03-23T08:09:46Z</time></trkpt>
<trkpt lat="43.0454170000" lon="0.2705770000"><ele>773</ele><time>2026-03-23T08:09:49Z</time></trkpt>
<trkpt lat="43.0454000000" lon="0.2705620000"><ele>773</ele><time>2026-03-23T08:09:51Z</time></trkpt>
<trkpt lat="43.0453820000" lon="0.2705520000"><ele>773</ele><time>2026-03-23T08:09:54Z</time></trkpt>
<trkpt lat="43.0453600000" lon="0.2705370000"><ele>774</ele><time>2026-03-23T08:09:57Z</time></trkpt>
<trkpt lat="43.0453420000" lon="0.2705250000"><ele>774</ele><time>2026-03-23T08:10:00Z</time></trkpt>
<trkpt lat="43.0453170000" lon="0.2705180000"><ele>775</ele><time>2026-03-23T08:10:03Z</time></trkpt>
<trkpt lat="43.0452950000" lon="0.2705080000"><ele>775</ele><time>2026-03-23T08:10:06Z</time></trkpt>
<trkpt lat="43.0452720000" lon="0.2704970000"><ele>775</ele><time>2026-03-23T08:10:09Z</time></trkpt>
<trkpt lat="43.0452520000" lon="0.2704970000"><ele>776</ele><time>2026-03-23T08:10:12Z</time></trkpt>
<trkpt lat="43.0452270000" lon="0.2704920000"><ele>776</ele><time>2026-03-23T08:10:15Z</time></trkpt>
<trkpt lat="43.0452020000" lon="0.2704850000"><ele>777</ele><time>2026-03-23T08:10:18Z</time></trkpt>
<trkpt lat="43.0451800000" lon="0.2704850000"><ele>777</ele><time>2026-03-23T08:10:21Z</time></trkpt>
<trkpt lat="43.0451570000" lon="0.2704820000"><ele>778</ele><time>2026-03-23T08:10:24Z</time></trkpt>
<trkpt lat="43.0451370000" lon="0.2704720000"><ele>778</ele><time>2026-03-23T08:10:27Z</time></trkpt>
<trkpt lat="43.0451150000" lon="0.2704720000"><ele>778</ele><time>2026-03-23T08:10:29Z</time></trkpt>
<trkpt lat="43.0450920000" lon="0.2704670000"><ele>779</ele><time>2026-03-23T08:10:31Z</time></trkpt>
<trkpt lat="43.0450750000" lon="0.2704470000"><ele>779</ele><time>2026-03-23T08:10:34Z</time></trkpt>
<trkpt lat="43.0450620000" lon="0.2704270000"><ele>779</ele><time>2026-03-23T08:10:37Z</time></trkpt>
<trkpt lat="43.0450530000" lon="0.2704020000"><ele>780</ele><time>2026-03-23T08:10:40Z</time></trkpt>
<trkpt lat="43.0450530000" lon="0.2703770000"><ele>780</ele><time>2026-03-23T08:10:43Z</time></trkpt>
<trkpt lat="43.0450470000" lon="0.2703520000"><ele>781</ele><time>2026-03-23T08:10:47Z</time></trkpt>
<trkpt lat="43.0450320000" lon="0.2703270000"><ele>782</ele><time>2026-03-23T08:10:51Z</time></trkpt>
<trkpt lat="43.0450220000" lon="0.2703050000"><ele>782</ele><time>2026-03-23T08:10:54Z</time></trkpt>
<trkpt lat="43.0450120000" lon="0.2702820000"><ele>782</ele><time>2026-03-23T08:10:57Z</time></trkpt>
<trkpt lat="43.0449970000" lon="0.2702620000"><ele>783</ele><time>2026-03-23T08:11:01Z</time></trkpt>
<trkpt lat="43.0449800000" lon="0.2702420000"><ele>783</ele><time>2026-03-23T08:11:05Z</time></trkpt>
<trkpt lat="43.0449670000" lon="0.2702200000"><ele>784</ele><time>2026-03-23T08:11:08Z</time></trkpt>
<trkpt lat="43.0449550000" lon="0.2702000000"><ele>784</ele><time>2026-03-23T08:11:12Z</time></trkpt>
<trkpt lat="43.0449470000" lon="0.2701770000"><ele>785</ele><time>2026-03-23T08:11:16Z</time></trkpt>
<trkpt lat="43.0449300000" lon="0.2701570000"><ele>785</ele><time>2026-03-23T08:11:21Z</time></trkpt>
<trkpt lat="43.0449150000" lon="0.2701320000"><ele>786</ele><time>2026-03-23T08:11:25Z</time></trkpt>
<trkpt lat="43.0449050000" lon="0.2701100000"><ele>786</ele><time>2026-03-23T08:11:29Z</time></trkpt>
<trkpt lat="43.0448920000" lon="0.2700870000"><ele>787</ele><time>2026-03-23T08:11:33Z</time></trkpt>
<trkpt lat="43.0448800000" lon="0.2700620000"><ele>787</ele><time>2026-03-23T08:11:37Z</time></trkpt>
<trkpt lat="43.0448620000" lon="0.2700420000"><ele>788</ele><time>2026-03-23T08:11:41Z</time></trkpt>
<trkpt lat="43.0448470000" lon="0.2700220000"><ele>788</ele><time>2026-03-23T08:11:45Z</time></trkpt>
<trkpt lat="43.0448420000" lon="0.2699970000"><ele>789</ele><time>2026-03-23T08:11:51Z</time></trkpt>
<trkpt lat="43.0448220000" lon="0.2699580000"><ele>797</ele><time>2026-03-23T08:12:56Z</time></trkpt>
<trkpt lat="43.0448070000" lon="0.2699420000"><ele>797</ele><time>2026-03-23T08:12:57Z</time></trkpt>
<trkpt lat="43.0447870000" lon="0.2699220000"><ele>797</ele><time>2026-03-23T08:12:58Z</time></trkpt>
<trkpt lat="43.0447700000" lon="0.2698970000"><ele>797</ele><time>2026-03-23T08:12:59Z</time></trkpt>
<trkpt lat="43.0447550000" lon="0.2698800000"><ele>797</ele><time>2026-03-23T08:13:00Z</time></trkpt>
<trkpt lat="43.0447370000" lon="0.2698520000"><ele>797</ele><time>2026-03-23T08:13:02Z</time></trkpt>
<trkpt lat="43.0447270000" lon="0.2698270000"><ele>804</ele><time>2026-03-23T08:14:06Z</time></trkpt>
<trkpt lat="43.0447100000" lon="0.2698170000"><ele>804</ele><time>2026-03-23T08:14:07Z</time></trkpt>
<trkpt lat="43.0446850000" lon="0.2698100000"><ele>804</ele><time>2026-03-23T08:14:08Z</time></trkpt>
<trkpt lat="43.0446620000" lon="0.2698020000"><ele>805</ele><time>2026-03-23T08:14:09Z</time></trkpt>
<trkpt lat="43.0446420000" lon="0.2697920000"><ele>805</ele><time>2026-03-23T08:14:10Z</time></trkpt>
<trkpt lat="43.0446200000" lon="0.2697700000"><ele>805</ele><time>2026-03-23T08:14:12Z</time></trkpt>
<trkpt lat="43.0446100000" lon="0.2697470000"><ele>805</ele><time>2026-03-23T08:14:14Z</time></trkpt>
<trkpt lat="43.0445820000" lon="0.2697670000"><ele>810</ele><time>2026-03-23T08:15:19Z</time></trkpt>
<trkpt lat="43.0445570000" lon="0.2697970000"><ele>810</ele><time>2026-03-23T08:15:20Z</time></trkpt>
<trkpt lat="43.0445250000" lon="0.2698350000"><ele>810</ele><time>2026-03-23T08:15:21Z</time></trkpt>
<trkpt lat="43.0444950000" lon="0.2698680000"><ele>811</ele><time>2026-03-23T08:15:22Z</time></trkpt>
<trkpt lat="43.0444700000" lon="0.2698970000"><ele>811</ele><time>2026-03-23T08:15:23Z</time></trkpt>
<trkpt lat="43.0444480000" lon="0.2699120000"><ele>811</ele><time>2026-03-23T08:15:24Z</time></trkpt>
<trkpt lat="43.0444300000" lon="0.2699170000"><ele>811</ele><time>2026-03-23T08:15:26Z</time></trkpt>
<trkpt lat="43.0444320000" lon="0.2699470000"><ele>812</ele><time>2026-03-23T08:15:31Z</time></trkpt>
<trkpt lat="43.0444250000" lon="0.2699750000"><ele>815</ele><time>2026-03-23T08:16:03Z</time></trkpt>
<trkpt lat="43.0443920000" lon="0.2699970000"><ele>815</ele><time>2026-03-23T08:16:05Z</time></trkpt>
<trkpt lat="43.0443720000" lon="0.2700080000"><ele>815</ele><time>2026-03-23T08:16:06Z</time></trkpt>
<trkpt lat="43.0443470000" lon="0.2700250000"><ele>815</ele><time>2026-03-23T08:16:08Z</time></trkpt>
<trkpt lat="43.0443300000" lon="0.2700150000"><ele>816</ele><time>2026-03-23T08:16:11Z</time></trkpt>
<trkpt lat="43.0443100000" lon="0.2700020000"><ele>818</ele><time>2026-03-23T08:16:29Z</time></trkpt>
<trkpt lat="43.0442850000" lon="0.2700030000"><ele>818</ele><time>2026-03-23T08:16:31Z</time></trkpt>
<trkpt lat="43.0442670000" lon="0.2700120000"><ele>818</ele><time>2026-03-23T08:16:33Z</time></trkpt>
<trkpt lat="43.0442500000" lon="0.2700250000"><ele>818</ele><time>2026-03-23T08:16:38Z</time></trkpt>
<trkpt lat="43.0442520000" lon="0.2700520000"><ele>818</ele><time>2026-03-23T08:16:42Z</time></trkpt>
<trkpt lat="43.0442620000" lon="0.2700770000"><ele>818</ele><time>2026-03-23T08:16:44Z</time></trkpt>
<trkpt lat="43.0442820000" lon="0.2701070000"><ele>818</ele><time>2026-03-23T08:16:46Z</time></trkpt>
<trkpt lat="43.0442900000" lon="0.2701320000"><ele>818</ele><time>2026-03-23T08:16:48Z</time></trkpt>
<trkpt lat="43.0442670000" lon="0.2701520000"><ele>818</ele><time>2026-03-23T08:17:58Z</time></trkpt>
<trkpt lat="43.0442770000" lon="0.2701770000"><ele>818</ele><time>2026-03-23T08:18:01Z</time></trkpt>
<trkpt lat="43.0442970000" lon="0.2701780000"><ele>818</ele><time>2026-03-23T08:18:04Z</time></trkpt>
<trkpt lat="43.0443020000" lon="0.2701550000"><ele>818</ele><time>2026-03-23T08:19:02Z</time></trkpt>
<trkpt lat="43.0443000000" lon="0.2701280000"><ele>818</ele><time>2026-03-23T08:19:04Z</time></trkpt>
<trkpt lat="43.0442800000" lon="0.2701120000"><ele>818</ele><time>2026-03-23T08:19:07Z</time></trkpt>
<trkpt lat="43.0442600000" lon="0.2701020000"><ele>818</ele><time>2026-03-23T08:19:10Z</time></trkpt>
<trkpt lat="43.0442720000" lon="0.2701320000"><ele>818</ele><time>2026-03-23T08:19:50Z</time></trkpt>
<trkpt lat="43.0442900000" lon="0.2701420000"><ele>818</ele><time>2026-03-23T08:20:34Z</time></trkpt>
<trkpt lat="43.0442670000" lon="0.2701520000"><ele>819</ele><time>2026-03-23T08:22:53Z</time></trkpt>
<trkpt lat="43.0442900000" lon="0.2701520000"><ele>818</ele><time>2026-03-23T08:25:39Z</time></trkpt>
<trkpt lat="43.0442750000" lon="0.2701320000"><ele>818</ele><time>2026-03-23T08:30:49Z</time></trkpt>
<trkpt lat="43.0442550000" lon="0.2701170000"><ele>818</ele><time>2026-03-23T08:30:51Z</time></trkpt>
<trkpt lat="43.0442300000" lon="0.2701020000"><ele>818</ele><time>2026-03-23T08:30:53Z</time></trkpt>
<trkpt lat="43.0442070000" lon="0.2701030000"><ele>818</ele><time>2026-03-23T08:30:55Z</time></trkpt>
<trkpt lat="43.0441850000" lon="0.2701030000"><ele>818</ele><time>2026-03-23T08:30:57Z</time></trkpt>
<trkpt lat="43.0441650000" lon="0.2701000000"><ele>818</ele><time>2026-03-23T08:31:00Z</time></trkpt>
<trkpt lat="43.0441420000" lon="0.2701070000"><ele>818</ele><time>2026-03-23T08:31:03Z</time></trkpt>
<trkpt lat="43.0441220000" lon="0.2701100000"><ele>818</ele><time>2026-03-23T08:31:05Z</time></trkpt>
<trkpt lat="43.0440950000" lon="0.2701220000"><ele>818</ele><time>2026-03-23T08:31:08Z</time></trkpt>
<trkpt lat="43.0440770000" lon="0.2701220000"><ele>817</ele><time>2026-03-23T08:31:10Z</time></trkpt>
<trkpt lat="43.0440570000" lon="0.2701270000"><ele>817</ele><time>2026-03-23T08:31:12Z</time></trkpt>
<trkpt lat="43.0440400000" lon="0.2701270000"><ele>817</ele><time>2026-03-23T08:31:14Z</time></trkpt>
<trkpt lat="43.0440120000" lon="0.2701200000"><ele>817</ele><time>2026-03-23T08:31:17Z</time></trkpt>
<trkpt lat="43.0439870000" lon="0.2701170000"><ele>816</ele><time>2026-03-23T08:31:20Z</time></trkpt>
<trkpt lat="43.0439720000" lon="0.2701070000"><ele>816</ele><time>2026-03-23T08:31:23Z</time></trkpt>
<trkpt lat="43.0439420000" lon="0.2701070000"><ele>814</ele><time>2026-03-23T08:31:37Z</time></trkpt>
<trkpt lat="43.0439120000" lon="0.2701030000"><ele>814</ele><time>2026-03-23T08:31:39Z</time></trkpt>
<trkpt lat="43.0438870000" lon="0.2700970000"><ele>814</ele><time>2026-03-23T08:31:41Z</time></trkpt>
<trkpt lat="43.0438670000" lon="0.2700870000"><ele>814</ele><time>2026-03-23T08:31:43Z</time></trkpt>
<trkpt lat="43.0438500000" lon="0.2700820000"><ele>813</ele><time>2026-03-23T08:31:45Z</time></trkpt>
<trkpt lat="43.0438300000" lon="0.2700820000"><ele>813</ele><time>2026-03-23T08:31:47Z</time></trkpt>
<trkpt lat="43.0438070000" lon="0.2700820000"><ele>813</ele><time>2026-03-23T08:31:49Z</time></trkpt>
<trkpt lat="43.0437870000" lon="0.2700920000"><ele>812</ele><time>2026-03-23T08:31:51Z</time></trkpt>
<trkpt lat="43.0437720000" lon="0.2701070000"><ele>812</ele><time>2026-03-23T08:31:53Z</time></trkpt>
<trkpt lat="43.0437520000" lon="0.2701120000"><ele>812</ele><time>2026-03-23T08:31:55Z</time></trkpt>
<trkpt lat="43.0437320000" lon="0.2701070000"><ele>812</ele><time>2026-03-23T08:31:57Z</time></trkpt>
<trkpt lat="43.0437120000" lon="0.2701020000"><ele>811</ele><time>2026-03-23T08:32:00Z</time></trkpt>
<trkpt lat="43.0436880000" lon="0.2701020000"><ele>811</ele><time>2026-03-23T08:32:04Z</time></trkpt>
<trkpt lat="43.0436670000" lon="0.2700820000"><ele>810</ele><time>2026-03-23T08:32:07Z</time></trkpt>
<trkpt lat="43.0436450000" lon="0.2700670000"><ele>810</ele><time>2026-03-23T08:32:10Z</time></trkpt>
<trkpt lat="43.0436300000" lon="0.2700420000"><ele>809</ele><time>2026-03-23T08:32:22Z</time></trkpt>
<trkpt lat="43.0436170000" lon="0.2700170000"><ele>809</ele><time>2026-03-23T08:32:24Z</time></trkpt>
<trkpt lat="43.0436070000" lon="0.2699870000"><ele>809</ele><time>2026-03-23T08:32:26Z</time></trkpt>
<trkpt lat="43.0435970000" lon="0.2699620000"><ele>809</ele><time>2026-03-23T08:32:28Z</time></trkpt>
<trkpt lat="43.0435820000" lon="0.2699450000"><ele>809</ele><time>2026-03-23T08:32:30Z</time></trkpt>
<trkpt lat="43.0435600000" lon="0.2699350000"><ele>809</ele><time>2026-03-23T08:32:32Z</time></trkpt>
<trkpt lat="43.0435320000" lon="0.2699250000"><ele>808</ele><time>2026-03-23T08:32:35Z</time></trkpt>
<trkpt lat="43.0435120000" lon="0.2699150000"><ele>808</ele><time>2026-03-23T08:32:37Z</time></trkpt>
<trkpt lat="43.0434920000" lon="0.2699020000"><ele>808</ele><time>2026-03-23T08:32:39Z</time></trkpt>
<trkpt lat="43.0434720000" lon="0.2698820000"><ele>807</ele><time>2026-03-23T08:32:42Z</time></trkpt>
<trkpt lat="43.0434470000" lon="0.2698680000"><ele>807</ele><time>2026-03-23T08:32:45Z</time></trkpt>
<trkpt lat="43.0434270000" lon="0.2698650000"><ele>806</ele><time>2026-03-23T08:32:47Z</time></trkpt>
<trkpt lat="43.0434070000" lon="0.2698480000"><ele>806</ele><time>2026-03-23T08:32:49Z</time></trkpt>
<trkpt lat="43.0433870000" lon="0.2698370000"><ele>806</ele><time>2026-03-23T08:32:51Z</time></trkpt>
<trkpt lat="43.0433720000" lon="0.2698200000"><ele>805</ele><time>2026-03-23T08:32:53Z</time></trkpt>
<trkpt lat="43.0433570000" lon="0.2697900000"><ele>805</ele><time>2026-03-23T08:32:56Z</time></trkpt>
<trkpt lat="43.0433470000" lon="0.2697670000"><ele>804</ele><time>2026-03-23T08:33:06Z</time></trkpt>
<trkpt lat="43.0433470000" lon="0.2697300000"><ele>804</ele><time>2026-03-23T08:33:09Z</time></trkpt>
<trkpt lat="43.0433270000" lon="0.2697030000"><ele>803</ele><time>2026-03-23T08:33:37Z</time></trkpt>
<trkpt lat="43.0433070000" lon="0.2696770000"><ele>803</ele><time>2026-03-23T08:33:39Z</time></trkpt>
<trkpt lat="43.0432950000" lon="0.2696470000"><ele>803</ele><time>2026-03-23T08:33:41Z</time></trkpt>
<trkpt lat="43.0432820000" lon="0.2696200000"><ele>803</ele><time>2026-03-23T08:33:43Z</time></trkpt>
<trkpt lat="43.0432620000" lon="0.2695930000"><ele>803</ele><time>2026-03-23T08:33:46Z</time></trkpt>
<trkpt lat="43.0432470000" lon="0.2695770000"><ele>803</ele><time>2026-03-23T08:33:48Z</time></trkpt>
<trkpt lat="43.0432370000" lon="0.2695570000"><ele>802</ele><time>2026-03-23T08:33:50Z</time></trkpt>
<trkpt lat="43.0432170000" lon="0.2695320000"><ele>802</ele><time>2026-03-23T08:33:53Z</time></trkpt>
<trkpt lat="43.0431970000" lon="0.2695150000"><ele>802</ele><time>2026-03-23T08:33:56Z</time></trkpt>
<trkpt lat="43.0431800000" lon="0.2694870000"><ele>801</ele><time>2026-03-23T08:33:59Z</time></trkpt>
<trkpt lat="43.0431670000" lon="0.2694650000"><ele>801</ele><time>2026-03-23T08:34:01Z</time></trkpt>
<trkpt lat="43.0431620000" lon="0.2694320000"><ele>800</ele><time>2026-03-23T08:34:04Z</time></trkpt>
<trkpt lat="43.0431470000" lon="0.2694150000"><ele>799</ele><time>2026-03-23T08:34:21Z</time></trkpt>
<trkpt lat="43.0431370000" lon="0.2693920000"><ele>799</ele><time>2026-03-23T08:34:23Z</time></trkpt>
<trkpt lat="43.0431220000" lon="0.2693580000"><ele>798</ele><time>2026-03-23T08:34:26Z</time></trkpt>
<trkpt lat="43.0431300000" lon="0.2693850000"><ele>797</ele><time>2026-03-23T08:34:34Z</time></trkpt>
<trkpt lat="43.0431400000" lon="0.2694120000"><ele>798</ele><time>2026-03-23T08:35:16Z</time></trkpt>
<trkpt lat="43.0431470000" lon="0.2694420000"><ele>798</ele><time>2026-03-23T08:35:18Z</time></trkpt>
<trkpt lat="43.0431470000" lon="0.2694120000"><ele>798</ele><time>2026-03-23T08:36:11Z</time></trkpt>
<trkpt lat="43.0431370000" lon="0.2693820000"><ele>798</ele><time>2026-03-23T08:36:14Z</time></trkpt>
<trkpt lat="43.0431200000" lon="0.2693620000"><ele>798</ele><time>2026-03-23T08:36:19Z</time></trkpt>
<trkpt lat="43.0431070000" lon="0.2693370000"><ele>797</ele><time>2026-03-23T08:36:22Z</time></trkpt>
<trkpt lat="43.0430870000" lon="0.2693220000"><ele>797</ele><time>2026-03-23T08:36:24Z</time></trkpt>
<trkpt lat="43.0430620000" lon="0.2693170000"><ele>797</ele><time>2026-03-23T08:36:26Z</time></trkpt>
<trkpt lat="43.0430370000" lon="0.2693070000"><ele>797</ele><time>2026-03-23T08:36:28Z</time></trkpt>
<trkpt lat="43.0430170000" lon="0.2692970000"><ele>796</ele><time>2026-03-23T08:36:30Z</time></trkpt>
<trkpt lat="43.0429920000" lon="0.2692820000"><ele>796</ele><time>2026-03-23T08:36:33Z</time></trkpt>
<trkpt lat="43.0429770000" lon="0.2692570000"><ele>795</ele><time>2026-03-23T08:36:36Z</time></trkpt>
<trkpt lat="43.0429620000" lon="0.2692350000"><ele>794</ele><time>2026-03-23T08:36:39Z</time></trkpt>
<trkpt lat="43.0429470000" lon="0.2692020000"><ele>794</ele><time>2026-03-23T08:36:42Z</time></trkpt>
<trkpt lat="43.0429370000" lon="0.2691820000"><ele>794</ele><time>2026-03-23T08:36:44Z</time></trkpt>
<trkpt lat="43.0429270000" lon="0.2691520000"><ele>793</ele><time>2026-03-23T08:36:47Z</time></trkpt>
<trkpt lat="43.0429070000" lon="0.2691350000"><ele>793</ele><time>2026-03-23T08:36:50Z</time></trkpt>
<trkpt lat="43.0428950000" lon="0.2691150000"><ele>792</ele><time>2026-03-23T08:36:52Z</time></trkpt>
<trkpt lat="43.0428820000" lon="0.2690850000"><ele>792</ele><time>2026-03-23T08:36:55Z</time></trkpt>
<trkpt lat="43.0428720000" lon="0.2690570000"><ele>792</ele><time>2026-03-23T08:36:57Z</time></trkpt>
<trkpt lat="43.0428550000" lon="0.2690270000"><ele>791</ele><time>2026-03-23T08:37:00Z</time></trkpt>
<trkpt lat="43.0428400000" lon="0.2690020000"><ele>791</ele><time>2026-03-23T08:37:03Z</time></trkpt>
<trkpt lat="43.0428250000" lon="0.2689750000"><ele>791</ele><time>2026-03-23T08:37:06Z</time></trkpt>
<trkpt lat="43.0428120000" lon="0.2689420000"><ele>790</ele><time>2026-03-23T08:37:09Z</time></trkpt>
<trkpt lat="43.0428120000" lon="0.2689170000"><ele>790</ele><time>2026-03-23T08:37:11Z</time></trkpt>
<trkpt lat="43.0427970000" lon="0.2688830000"><ele>789</ele><time>2026-03-23T08:37:14Z</time></trkpt>
<trkpt lat="43.0427870000" lon="0.2688600000"><ele>789</ele><time>2026-03-23T08:37:16Z</time></trkpt>
<trkpt lat="43.0427770000" lon="0.2688370000"><ele>789</ele><time>2026-03-23T08:37:18Z</time></trkpt>
<trkpt lat="43.0427620000" lon="0.2688120000"><ele>788</ele><time>2026-03-23T08:37:21Z</time></trkpt>
<trkpt lat="43.0427470000" lon="0.2687820000"><ele>787</ele><time>2026-03-23T08:37:24Z</time></trkpt>
<trkpt lat="43.0427220000" lon="0.2687700000"><ele>787</ele><time>2026-03-23T08:37:28Z</time></trkpt>
<trkpt lat="43.0427070000" lon="0.2687570000"><ele>786</ele><time>2026-03-23T08:37:30Z</time></trkpt>
<trkpt lat="43.0426920000" lon="0.2687370000"><ele>786</ele><time>2026-03-23T08:37:32Z</time></trkpt>
<trkpt lat="43.0426770000" lon="0.2687120000"><ele>786</ele><time>2026-03-23T08:37:35Z</time></trkpt>
<trkpt lat="43.0426570000" lon="0.2686970000"><ele>785</ele><time>2026-03-23T08:37:37Z</time></trkpt>
<trkpt lat="43.0426420000" lon="0.2686720000"><ele>785</ele><time>2026-03-23T08:37:39Z</time></trkpt>
<trkpt lat="43.0426300000" lon="0.2686520000"><ele>785</ele><time>2026-03-23T08:37:41Z</time></trkpt>
<trkpt lat="43.0426150000" lon="0.2686370000"><ele>785</ele><time>2026-03-23T08:37:43Z</time></trkpt>
<trkpt lat="43.0425970000" lon="0.2686170000"><ele>784</ele><time>2026-03-23T08:37:46Z</time></trkpt>
<trkpt lat="43.0425820000" lon="0.2686000000"><ele>784</ele><time>2026-03-23T08:37:48Z</time></trkpt>
<trkpt lat="43.0425650000" lon="0.2685720000"><ele>783</ele><time>2026-03-23T08:37:51Z</time></trkpt>
<trkpt lat="43.0425520000" lon="0.2685550000"><ele>783</ele><time>2026-03-23T08:37:53Z</time></trkpt>
<trkpt lat="43.0425370000" lon="0.2685350000"><ele>783</ele><time>2026-03-23T08:37:55Z</time></trkpt>
<trkpt lat="43.0425170000" lon="0.2685070000"><ele>782</ele><time>2026-03-23T08:37:58Z</time></trkpt>
<trkpt lat="43.0425050000" lon="0.2684820000"><ele>782</ele><time>2026-03-23T08:38:01Z</time></trkpt>
<trkpt lat="43.0424920000" lon="0.2684620000"><ele>782</ele><time>2026-03-23T08:38:03Z</time></trkpt>
<trkpt lat="43.0424770000" lon="0.2684470000"><ele>781</ele><time>2026-03-23T08:38:05Z</time></trkpt>
<trkpt lat="43.0424600000" lon="0.2684320000"><ele>781</ele><time>2026-03-23T08:38:07Z</time></trkpt>
<trkpt lat="43.0424470000" lon="0.2684070000"><ele>781</ele><time>2026-03-23T08:38:10Z</time></trkpt>
<trkpt lat="43.0424270000" lon="0.2683820000"><ele>780</ele><time>2026-03-23T08:38:13Z</time></trkpt>
<trkpt lat="43.0424080000" lon="0.2683700000"><ele>780</ele><time>2026-03-23T08:38:15Z</time></trkpt>
<trkpt lat="43.0423920000" lon="0.2683570000"><ele>780</ele><time>2026-03-23T08:38:17Z</time></trkpt>
<trkpt lat="43.0423800000" lon="0.2683330000"><ele>780</ele><time>2026-03-23T08:38:19Z</time></trkpt>
<trkpt lat="43.0423650000" lon="0.2683170000"><ele>779</ele><time>2026-03-23T08:38:21Z</time></trkpt>
<trkpt lat="43.0423520000" lon="0.2683020000"><ele>779</ele><time>2026-03-23T08:38:23Z</time></trkpt>
<trkpt lat="43.0423320000" lon="0.2682720000"><ele>779</ele><time>2026-03-23T08:38:26Z</time></trkpt>
<trkpt lat="43.0423200000" lon="0.2682520000"><ele>779</ele><time>2026-03-23T08:38:28Z</time></trkpt>
<trkpt lat="43.0423020000" lon="0.2682250000"><ele>778</ele><time>2026-03-23T08:38:31Z</time></trkpt>
<trkpt lat="43.0422800000" lon="0.2682100000"><ele>778</ele><time>2026-03-23T08:38:33Z</time></trkpt>
<trkpt lat="43.0422620000" lon="0.2681920000"><ele>778</ele><time>2026-03-23T08:38:35Z</time></trkpt>
<trkpt lat="43.0422450000" lon="0.2681720000"><ele>778</ele><time>2026-03-23T08:38:38Z</time></trkpt>
<trkpt lat="43.0422320000" lon="0.2681520000"><ele>778</ele><time>2026-03-23T08:38:40Z</time></trkpt>
<trkpt lat="43.0422270000" lon="0.2681270000"><ele>778</ele><time>2026-03-23T08:38:42Z</time></trkpt>
<trkpt lat="43.0422200000" lon="0.2681030000"><ele>777</ele><time>2026-03-23T08:38:44Z</time></trkpt>
<trkpt lat="43.0422050000" lon="0.2680770000"><ele>777</ele><time>2026-03-23T08:38:47Z</time></trkpt>
<trkpt lat="43.0421870000" lon="0.2680620000"><ele>777</ele><time>2026-03-23T08:38:49Z</time></trkpt>
<trkpt lat="43.0421720000" lon="0.2680430000"><ele>777</ele><time>2026-03-23T08:38:51Z</time></trkpt>
<trkpt lat="43.0421550000" lon="0.2680320000"><ele>777</ele><time>2026-03-23T08:38:53Z</time></trkpt>
<trkpt lat="43.0421370000" lon="0.2680320000"><ele>777</ele><time>2026-03-23T08:38:55Z</time></trkpt>
<trkpt lat="43.0421170000" lon="0.2680300000"><ele>776</ele><time>2026-03-23T08:38:57Z</time></trkpt>
<trkpt lat="43.0420980000" lon="0.2680300000"><ele>776</ele><time>2026-03-23T08:38:59Z</time></trkpt>
<trkpt lat="43.0420800000" lon="0.2680270000"><ele>776</ele><time>2026-03-23T08:39:01Z</time></trkpt>
<trkpt lat="43.0420600000" lon="0.2680170000"><ele>776</ele><time>2026-03-23T08:39:04Z</time></trkpt>
<trkpt lat="43.0420370000" lon="0.2680170000"><ele>776</ele><time>2026-03-23T08:39:07Z</time></trkpt>
<trkpt lat="43.0420200000" lon="0.2680220000"><ele>776</ele><time>2026-03-23T08:39:10Z</time></trkpt>
<trkpt lat="43.0419970000" lon="0.2680120000"><ele>776</ele><time>2026-03-23T08:39:13Z</time></trkpt>
<trkpt lat="43.0420170000" lon="0.2679970000"><ele>775</ele><time>2026-03-23T08:39:34Z</time></trkpt>
<trkpt lat="43.0420370000" lon="0.2679750000"><ele>775</ele><time>2026-03-23T08:39:36Z</time></trkpt>
<trkpt lat="43.0420470000" lon="0.2679470000"><ele>775</ele><time>2026-03-23T08:39:38Z</time></trkpt>
<trkpt lat="43.0420570000" lon="0.2679250000"><ele>775</ele><time>2026-03-23T08:39:40Z</time></trkpt>
<trkpt lat="43.0420650000" lon="0.2679000000"><ele>776</ele><time>2026-03-23T08:39:42Z</time></trkpt>
<trkpt lat="43.0420670000" lon="0.2678670000"><ele>776</ele><time>2026-03-23T08:39:45Z</time></trkpt>
<trkpt lat="43.0420600000" lon="0.2678400000"><ele>775</ele><time>2026-03-23T08:39:48Z</time></trkpt>
<trkpt lat="43.0420470000" lon="0.2678150000"><ele>775</ele><time>2026-03-23T08:39:51Z</time></trkpt>
<trkpt lat="43.0420280000" lon="0.2678050000"><ele>775</ele><time>2026-03-23T08:39:54Z</time></trkpt>
<trkpt lat="43.0420120000" lon="0.2677870000"><ele>775</ele><time>2026-03-23T08:39:58Z</time></trkpt>
<trkpt lat="43.0419950000" lon="0.2677830000"><ele>775</ele><time>2026-03-23T08:40:03Z</time></trkpt>
<trkpt lat="43.0419850000" lon="0.2677620000"><ele>774</ele><time>2026-03-23T08:40:08Z</time></trkpt>
<trkpt lat="43.0419770000" lon="0.2677270000"><ele>770</ele><time>2026-03-23T08:40:45Z</time></trkpt>
<trkpt lat="43.0419620000" lon="0.2677070000"><ele>770</ele><time>2026-03-23T08:40:46Z</time></trkpt>
<trkpt lat="43.0419420000" lon="0.2676770000"><ele>770</ele><time>2026-03-23T08:40:47Z</time></trkpt>
<trkpt lat="43.0419270000" lon="0.2676470000"><ele>770</ele><time>2026-03-23T08:40:48Z</time></trkpt>
<trkpt lat="43.0419120000" lon="0.2676200000"><ele>770</ele><time>2026-03-23T08:40:49Z</time></trkpt>
<trkpt lat="43.0419020000" lon="0.2675970000"><ele>769</ele><time>2026-03-23T08:40:50Z</time></trkpt>
<trkpt lat="43.0418920000" lon="0.2675720000"><ele>769</ele><time>2026-03-23T08:40:52Z</time></trkpt>
<trkpt lat="43.0418720000" lon="0.2675570000"><ele>768</ele><time>2026-03-23T08:40:55Z</time></trkpt>
<trkpt lat="43.0418500000" lon="0.2675400000"><ele>768</ele><time>2026-03-23T08:40:58Z</time></trkpt>
<trkpt lat="43.0418350000" lon="0.2675170000"><ele>767</ele><time>2026-03-23T08:41:00Z</time></trkpt>
<trkpt lat="43.0418170000" lon="0.2675070000"><ele>767</ele><time>2026-03-23T08:41:02Z</time></trkpt>
<trkpt lat="43.0417950000" lon="0.2674870000"><ele>766</ele><time>2026-03-23T08:41:05Z</time></trkpt>
<trkpt lat="43.0417720000" lon="0.2674670000"><ele>766</ele><time>2026-03-23T08:41:08Z</time></trkpt>
<trkpt lat="43.0417550000" lon="0.2674500000"><ele>766</ele><time>2026-03-23T08:41:10Z</time></trkpt>
<trkpt lat="43.0417350000" lon="0.2674220000"><ele>766</ele><time>2026-03-23T08:41:13Z</time></trkpt>
<trkpt lat="43.0417220000" lon="0.2674020000"><ele>765</ele><time>2026-03-23T08:41:15Z</time></trkpt>
<trkpt lat="43.0417070000" lon="0.2673770000"><ele>765</ele><time>2026-03-23T08:41:18Z</time></trkpt>
<trkpt lat="43.0416970000" lon="0.2673420000"><ele>765</ele><time>2026-03-23T08:41:21Z</time></trkpt>
<trkpt lat="43.0416920000" lon="0.2673150000"><ele>765</ele><time>2026-03-23T08:41:23Z</time></trkpt>
<trkpt lat="43.0416870000" lon="0.2672870000"><ele>764</ele><time>2026-03-23T08:41:25Z</time></trkpt>
<trkpt lat="43.0416800000" lon="0.2672570000"><ele>764</ele><time>2026-03-23T08:41:27Z</time></trkpt>
<trkpt lat="43.0416700000" lon="0.2672230000"><ele>764</ele><time>2026-03-23T08:41:30Z</time></trkpt>
<trkpt lat="43.0416570000" lon="0.2672050000"><ele>764</ele><time>2026-03-23T08:41:32Z</time></trkpt>
<trkpt lat="43.0416420000" lon="0.2671770000"><ele>764</ele><time>2026-03-23T08:41:35Z</time></trkpt>
<trkpt lat="43.0416320000" lon="0.2671570000"><ele>764</ele><time>2026-03-23T08:41:39Z</time></trkpt>
<trkpt lat="43.0416570000" lon="0.2671700000"><ele>764</ele><time>2026-03-23T08:41:54Z</time></trkpt>
<trkpt lat="43.0416820000" lon="0.2671850000"><ele>764</ele><time>2026-03-23T08:41:56Z</time></trkpt>
<trkpt lat="43.0417000000" lon="0.2671700000"><ele>763</ele><time>2026-03-23T08:41:59Z</time></trkpt>
<trkpt lat="43.0417150000" lon="0.2671420000"><ele>763</ele><time>2026-03-23T08:42:02Z</time></trkpt>
<trkpt lat="43.0417320000" lon="0.2671250000"><ele>762</ele><time>2026-03-23T08:42:05Z</time></trkpt>
<trkpt lat="43.0417470000" lon="0.2671000000"><ele>761</ele><time>2026-03-23T08:42:09Z</time></trkpt>
<trkpt lat="43.0417500000" lon="0.2670720000"><ele>760</ele><time>2026-03-23T08:42:12Z</time></trkpt>
<trkpt lat="43.0417370000" lon="0.2670470000"><ele>760</ele><time>2026-03-23T08:42:15Z</time></trkpt>
<trkpt lat="43.0417270000" lon="0.2670220000"><ele>759</ele><time>2026-03-23T08:42:18Z</time></trkpt>
<trkpt lat="43.0417180000" lon="0.2669920000"><ele>758</ele><time>2026-03-23T08:42:22Z</time></trkpt>
<trkpt lat="43.0417070000" lon="0.2669670000"><ele>758</ele><time>2026-03-23T08:42:25Z</time></trkpt>
<trkpt lat="43.0417000000" lon="0.2669400000"><ele>757</ele><time>2026-03-23T08:42:29Z</time></trkpt>
<trkpt lat="43.0416970000" lon="0.2669150000"><ele>757</ele><time>2026-03-23T08:42:32Z</time></trkpt>
<trkpt lat="43.0416870000" lon="0.2668900000"><ele>757</ele><time>2026-03-23T08:42:37Z</time></trkpt>
<trkpt lat="43.0416700000" lon="0.2668870000"><ele>757</ele><time>2026-03-23T08:42:39Z</time></trkpt>
<trkpt lat="43.0416570000" lon="0.2668670000"><ele>756</ele><time>2026-03-23T08:42:42Z</time></trkpt>
<trkpt lat="43.0416450000" lon="0.2668470000"><ele>756</ele><time>2026-03-23T08:42:45Z</time></trkpt>
<trkpt lat="43.0416300000" lon="0.2668320000"><ele>757</ele><time>2026-03-23T08:42:50Z</time></trkpt>
<trkpt lat="43.0416120000" lon="0.2668180000"><ele>757</ele><time>2026-03-23T08:42:54Z</time></trkpt>
<trkpt lat="43.0416220000" lon="0.2667970000"><ele>757</ele><time>2026-03-23T08:43:44Z</time></trkpt>
<trkpt lat="43.0416320000" lon="0.2667720000"><ele>757</ele><time>2026-03-23T08:43:47Z</time></trkpt>
<trkpt lat="43.0416370000" lon="0.2667970000"><ele>757</ele><time>2026-03-23T08:43:53Z</time></trkpt>
<trkpt lat="43.0416170000" lon="0.2668070000"><ele>756</ele><time>2026-03-23T08:44:42Z</time></trkpt>
<trkpt lat="43.0415970000" lon="0.2668080000"><ele>756</ele><time>2026-03-23T08:44:43Z</time></trkpt>
<trkpt lat="43.0415800000" lon="0.2668120000"><ele>756</ele><time>2026-03-23T08:44:44Z</time></trkpt>
<trkpt lat="43.0415570000" lon="0.2668150000"><ele>755</ele><time>2026-03-23T08:44:55Z</time></trkpt>
<trkpt lat="43.0415320000" lon="0.2668080000"><ele>754</ele><time>2026-03-23T08:44:58Z</time></trkpt>
<trkpt lat="43.0415120000" lon="0.2668070000"><ele>754</ele><time>2026-03-23T08:45:01Z</time></trkpt>
<trkpt lat="43.0414920000" lon="0.2668180000"><ele>753</ele><time>2026-03-23T08:45:04Z</time></trkpt>
<trkpt lat="43.0414750000" lon="0.2668170000"><ele>752</ele><time>2026-03-23T08:45:15Z</time></trkpt>
<trkpt lat="43.0414520000" lon="0.2668220000"><ele>751</ele><time>2026-03-23T08:45:17Z</time></trkpt>
<trkpt lat="43.0414320000" lon="0.2668320000"><ele>751</ele><time>2026-03-23T08:45:19Z</time></trkpt>
<trkpt lat="43.0414170000" lon="0.2668520000"><ele>751</ele><time>2026-03-23T08:45:22Z</time></trkpt>
<trkpt lat="43.0413970000" lon="0.2668550000"><ele>750</ele><time>2026-03-23T08:45:28Z</time></trkpt>
<trkpt lat="43.0413770000" lon="0.2668820000"><ele>749</ele><time>2026-03-23T08:45:53Z</time></trkpt>
<trkpt lat="43.0413600000" lon="0.2668950000"><ele>749</ele><time>2026-03-23T08:45:54Z</time></trkpt>
<trkpt lat="43.0413370000" lon="0.2669070000"><ele>748</ele><time>2026-03-23T08:45:55Z</time></trkpt>
<trkpt lat="43.0413170000" lon="0.2669170000"><ele>748</ele><time>2026-03-23T08:45:56Z</time></trkpt>
<trkpt lat="43.0413000000" lon="0.2669220000"><ele>748</ele><time>2026-03-23T08:45:57Z</time></trkpt>
<trkpt lat="43.0412750000" lon="0.2669330000"><ele>748</ele><time>2026-03-23T08:45:59Z</time></trkpt>
<trkpt lat="43.0412520000" lon="0.2669320000"><ele>747</ele><time>2026-03-23T08:46:02Z</time></trkpt>
<trkpt lat="43.0412370000" lon="0.2669170000"><ele>746</ele><time>2026-03-23T08:46:05Z</time></trkpt>
<trkpt lat="43.0412200000" lon="0.2669070000"><ele>745</ele><time>2026-03-23T08:46:08Z</time></trkpt>
<trkpt lat="43.0411950000" lon="0.2668920000"><ele>745</ele><time>2026-03-23T08:46:11Z</time></trkpt>
<trkpt lat="43.0411800000" lon="0.2668670000"><ele>744</ele><time>2026-03-23T08:46:14Z</time></trkpt>
<trkpt lat="43.0411670000" lon="0.2668470000"><ele>743</ele><time>2026-03-23T08:46:17Z</time></trkpt>
<trkpt lat="43.0411500000" lon="0.2668300000"><ele>742</ele><time>2026-03-23T08:46:20Z</time></trkpt>
<trkpt lat="43.0411300000" lon="0.2668220000"><ele>742</ele><time>2026-03-23T08:46:22Z</time></trkpt>
<trkpt lat="43.0411070000" lon="0.2668080000"><ele>741</ele><time>2026-03-23T08:46:25Z</time></trkpt>
<trkpt lat="43.0410920000" lon="0.2667820000"><ele>741</ele><time>2026-03-23T08:46:28Z</time></trkpt>
<trkpt lat="43.0410620000" lon="0.2667900000"><ele>741</ele><time>2026-03-23T08:46:31Z</time></trkpt>
<trkpt lat="43.0410400000" lon="0.2668020000"><ele>740</ele><time>2026-03-23T08:46:34Z</time></trkpt>
<trkpt lat="43.0410120000" lon="0.2668020000"><ele>740</ele><time>2026-03-23T08:46:37Z</time></trkpt>
<trkpt lat="43.0409850000" lon="0.2667920000"><ele>740</ele><time>2026-03-23T08:46:40Z</time></trkpt>
<trkpt lat="43.0409670000" lon="0.2667820000"><ele>739</ele><time>2026-03-23T08:46:42Z</time></trkpt>
<trkpt lat="43.0409420000" lon="0.2667570000"><ele>739</ele><time>2026-03-23T08:46:45Z</time></trkpt>
<trkpt lat="43.0409200000" lon="0.2667470000"><ele>739</ele><time>2026-03-23T08:46:47Z</time></trkpt>
<trkpt lat="43.0408970000" lon="0.2667370000"><ele>738</ele><time>2026-03-23T08:46:49Z</time></trkpt>
<trkpt lat="43.0408770000" lon="0.2667270000"><ele>738</ele><time>2026-03-23T08:46:52Z</time></trkpt>
<trkpt lat="43.0408600000" lon="0.2667020000"><ele>738</ele><time>2026-03-23T08:46:55Z</time></trkpt>
<trkpt lat="43.0408450000" lon="0.2666850000"><ele>737</ele><time>2026-03-23T08:46:57Z</time></trkpt>
<trkpt lat="43.0408320000" lon="0.2666630000"><ele>737</ele><time>2026-03-23T08:46:59Z</time></trkpt>
<trkpt lat="43.0408170000" lon="0.2666500000"><ele>737</ele><time>2026-03-23T08:47:01Z</time></trkpt>
<trkpt lat="43.0408020000" lon="0.2666250000"><ele>736</ele><time>2026-03-23T08:47:04Z</time></trkpt>
<trkpt lat="43.0407820000" lon="0.2666100000"><ele>736</ele><time>2026-03-23T08:47:06Z</time></trkpt>
<trkpt lat="43.0407650000" lon="0.2665970000"><ele>736</ele><time>2026-03-23T08:47:08Z</time></trkpt>
<trkpt lat="43.0407450000" lon="0.2665750000"><ele>736</ele><time>2026-03-23T08:47:11Z</time></trkpt>
<trkpt lat="43.0407320000" lon="0.2665520000"><ele>735</ele><time>2026-03-23T08:47:13Z</time></trkpt>
<trkpt lat="43.0407120000" lon="0.2665420000"><ele>735</ele><time>2026-03-23T08:47:15Z</time></trkpt>
<trkpt lat="43.0406970000" lon="0.2665270000"><ele>735</ele><time>2026-03-23T08:47:17Z</time></trkpt>
<trkpt lat="43.0406820000" lon="0.2665120000"><ele>734</ele><time>2026-03-23T08:47:19Z</time></trkpt>
<trkpt lat="43.0406670000" lon="0.2664920000"><ele>734</ele><time>2026-03-23T08:47:21Z</time></trkpt>
<trkpt lat="43.0406550000" lon="0.2664770000"><ele>734</ele><time>2026-03-23T08:47:23Z</time></trkpt>
<trkpt lat="43.0406420000" lon="0.2664500000"><ele>734</ele><time>2026-03-23T08:47:26Z</time></trkpt>
<trkpt lat="43.0406270000" lon="0.2664220000"><ele>733</ele><time>2026-03-23T08:47:29Z</time></trkpt>
<trkpt lat="43.0406120000" lon="0.2663970000"><ele>733</ele><time>2026-03-23T08:47:32Z</time></trkpt>
<trkpt lat="43.0406070000" lon="0.2663720000"><ele>733</ele><time>2026-03-23T08:47:34Z</time></trkpt>
<trkpt lat="43.0406000000" lon="0.2663470000"><ele>732</ele><time>2026-03-23T08:47:36Z</time></trkpt>
<trkpt lat="43.0405850000" lon="0.2663170000"><ele>732</ele><time>2026-03-23T08:47:39Z</time></trkpt>
<trkpt lat="43.0405670000" lon="0.2663080000"><ele>732</ele><time>2026-03-23T08:47:41Z</time></trkpt>
<trkpt lat="43.0405470000" lon="0.2663070000"><ele>731</ele><time>2026-03-23T08:47:43Z</time></trkpt>
<trkpt lat="43.0405250000" lon="0.2663080000"><ele>731</ele><time>2026-03-23T08:47:46Z</time></trkpt>
<trkpt lat="43.0405070000" lon="0.2662970000"><ele>731</ele><time>2026-03-23T08:47:49Z</time></trkpt>
<trkpt lat="43.0404920000" lon="0.2662750000"><ele>730</ele><time>2026-03-23T08:47:53Z</time></trkpt>
<trkpt lat="43.0404770000" lon="0.2662570000"><ele>729</ele><time>2026-03-23T08:47:57Z</time></trkpt>
<trkpt lat="43.0404620000" lon="0.2662450000"><ele>729</ele><time>2026-03-23T08:47:59Z</time></trkpt>
<trkpt lat="43.0404450000" lon="0.2662270000"><ele>729</ele><time>2026-03-23T08:48:02Z</time></trkpt>
<trkpt lat="43.0404220000" lon="0.2662120000"><ele>728</ele><time>2026-03-23T08:48:05Z</time></trkpt>
<trkpt lat="43.0404020000" lon="0.2661920000"><ele>727</ele><time>2026-03-23T08:48:09Z</time></trkpt>
<trkpt lat="43.0403920000" lon="0.2661670000"><ele>727</ele><time>2026-03-23T08:48:12Z</time></trkpt>
<trkpt lat="43.0403720000" lon="0.2661620000"><ele>724</ele><time>2026-03-23T08:49:03Z</time></trkpt>
<trkpt lat="43.0403620000" lon="0.2661400000"><ele>724</ele><time>2026-03-23T08:49:05Z</time></trkpt>
<trkpt lat="43.0403470000" lon="0.2661130000"><ele>723</ele><time>2026-03-23T08:49:07Z</time></trkpt>
<trkpt lat="43.0403220000" lon="0.2661070000"><ele>723</ele><time>2026-03-23T08:49:11Z</time></trkpt>
<trkpt lat="43.0403020000" lon="0.2660970000"><ele>719</ele><time>2026-03-23T08:49:42Z</time></trkpt>
<trkpt lat="43.0402750000" lon="0.2661070000"><ele>718</ele><time>2026-03-23T08:49:45Z</time></trkpt>
<trkpt lat="43.0402570000" lon="0.2661230000"><ele>718</ele><time>2026-03-23T08:49:47Z</time></trkpt>
<trkpt lat="43.0402470000" lon="0.2661020000"><ele>717</ele><time>2026-03-23T08:49:53Z</time></trkpt>
<trkpt lat="43.0402270000" lon="0.2660870000"><ele>715</ele><time>2026-03-23T08:50:09Z</time></trkpt>
<trkpt lat="43.0402120000" lon="0.2660720000"><ele>715</ele><time>2026-03-23T08:50:11Z</time></trkpt>
<trkpt lat="43.0402070000" lon="0.2660400000"><ele>714</ele><time>2026-03-23T08:50:14Z</time></trkpt>
<trkpt lat="43.0402070000" lon="0.2660100000"><ele>714</ele><time>2026-03-23T08:50:17Z</time></trkpt>
<trkpt lat="43.0401900000" lon="0.2660150000"><ele>713</ele><time>2026-03-23T08:50:21Z</time></trkpt>
<trkpt lat="43.0401770000" lon="0.2660370000"><ele>712</ele><time>2026-03-23T08:50:24Z</time></trkpt>
<trkpt lat="43.0401670000" lon="0.2660670000"><ele>711</ele><time>2026-03-23T08:50:27Z</time></trkpt>
<trkpt lat="43.0401520000" lon="0.2660870000"><ele>710</ele><time>2026-03-23T08:50:32Z</time></trkpt>
<trkpt lat="43.0401450000" lon="0.2661120000"><ele>710</ele><time>2026-03-23T08:50:35Z</time></trkpt>
<trkpt lat="43.0401270000" lon="0.2661230000"><ele>709</ele><time>2026-03-23T08:50:38Z</time></trkpt>
<trkpt lat="43.0401150000" lon="0.2661070000"><ele>709</ele><time>2026-03-23T08:50:41Z</time></trkpt>
<trkpt lat="43.0400920000" lon="0.2661000000"><ele>707</ele><time>2026-03-23T08:50:48Z</time></trkpt>
<trkpt lat="43.0400720000" lon="0.2660870000"><ele>706</ele><time>2026-03-23T08:50:52Z</time></trkpt>
<trkpt lat="43.0400520000" lon="0.2660900000"><ele>706</ele><time>2026-03-23T08:50:55Z</time></trkpt>
<trkpt lat="43.0400400000" lon="0.2661070000"><ele>705</ele><time>2026-03-23T08:50:58Z</time></trkpt>
<trkpt lat="43.0400200000" lon="0.2661230000"><ele>704</ele><time>2026-03-23T08:51:02Z</time></trkpt>
<trkpt lat="43.0400000000" lon="0.2661220000"><ele>703</ele><time>2026-03-23T08:51:06Z</time></trkpt>
<trkpt lat="43.0399770000" lon="0.2661350000"><ele>702</ele><time>2026-03-23T08:51:10Z</time></trkpt>
<trkpt lat="43.0399570000" lon="0.2661350000"><ele>700</ele><time>2026-03-23T08:51:14Z</time></trkpt>
<trkpt lat="43.0399350000" lon="0.2661350000"><ele>699</ele><time>2026-03-23T08:51:17Z</time></trkpt>
<trkpt lat="43.0399150000" lon="0.2661520000"><ele>698</ele><time>2026-03-23T08:51:20Z</time></trkpt>
<trkpt lat="43.0398950000" lon="0.2661620000"><ele>698</ele><time>2026-03-23T08:51:22Z</time></trkpt>
<trkpt lat="43.0398800000" lon="0.2661420000"><ele>695</ele><time>2026-03-23T08:51:41Z</time></trkpt>
<trkpt lat="43.0398700000" lon="0.2661130000"><ele>695</ele><time>2026-03-23T08:51:43Z</time></trkpt>
<trkpt lat="43.0398620000" lon="0.2660850000"><ele>695</ele><time>2026-03-23T08:51:45Z</time></trkpt>
<trkpt lat="43.0398520000" lon="0.2660520000"><ele>694</ele><time>2026-03-23T08:51:48Z</time></trkpt>
<trkpt lat="43.0398370000" lon="0.2660320000"><ele>693</ele><time>2026-03-23T08:51:51Z</time></trkpt>
<trkpt lat="43.0398170000" lon="0.2660350000"><ele>692</ele><time>2026-03-23T08:51:57Z</time></trkpt>
<trkpt lat="43.0398000000" lon="0.2660470000"><ele>691</ele><time>2026-03-23T08:52:00Z</time></trkpt>
<trkpt lat="43.0397820000" lon="0.2660600000"><ele>691</ele><time>2026-03-23T08:52:03Z</time></trkpt>
<trkpt lat="43.0397620000" lon="0.2660650000"><ele>688</ele><time>2026-03-23T08:52:17Z</time></trkpt>
<trkpt lat="43.0397470000" lon="0.2660780000"><ele>688</ele><time>2026-03-23T08:52:20Z</time></trkpt>
<trkpt lat="43.0397400000" lon="0.2661070000"><ele>687</ele><time>2026-03-23T08:52:24Z</time></trkpt>
<trkpt lat="43.0397450000" lon="0.2661320000"><ele>685</ele><time>2026-03-23T08:52:34Z</time></trkpt>
<trkpt lat="43.0397420000" lon="0.2661600000"><ele>685</ele><time>2026-03-23T08:52:36Z</time></trkpt>
<trkpt lat="43.0397350000" lon="0.2661920000"><ele>685</ele><time>2026-03-23T08:52:38Z</time></trkpt>
<trkpt lat="43.0397250000" lon="0.2662200000"><ele>685</ele><time>2026-03-23T08:52:40Z</time></trkpt>
<trkpt lat="43.0397170000" lon="0.2662570000"><ele>685</ele><time>2026-03-23T08:52:43Z</time></trkpt>
<trkpt lat="43.0397120000" lon="0.2662850000"><ele>684</ele><time>2026-03-23T08:52:53Z</time></trkpt>
<trkpt lat="43.0397050000" lon="0.2663220000"><ele>684</ele><time>2026-03-23T08:52:57Z</time></trkpt>
<trkpt lat="43.0396970000" lon="0.2663520000"><ele>683</ele><time>2026-03-23T08:53:00Z</time></trkpt>
<trkpt lat="43.0396780000" lon="0.2663420000"><ele>683</ele><time>2026-03-23T08:53:03Z</time></trkpt>
<trkpt lat="43.0396850000" lon="0.2663700000"><ele>682</ele><time>2026-03-23T08:53:19Z</time></trkpt>
<trkpt lat="43.0396820000" lon="0.2663970000"><ele>682</ele><time>2026-03-23T08:53:21Z</time></trkpt>
<trkpt lat="43.0396820000" lon="0.2664220000"><ele>681</ele><time>2026-03-23T08:53:30Z</time></trkpt>
<trkpt lat="43.0396870000" lon="0.2664520000"><ele>680</ele><time>2026-03-23T08:53:33Z</time></trkpt>
<trkpt lat="43.0396900000" lon="0.2664820000"><ele>680</ele><time>2026-03-23T08:53:35Z</time></trkpt>
<trkpt lat="43.0396920000" lon="0.2665150000"><ele>680</ele><time>2026-03-23T08:53:37Z</time></trkpt>
<trkpt lat="43.0396970000" lon="0.2665420000"><ele>680</ele><time>2026-03-23T08:53:39Z</time></trkpt>
<trkpt lat="43.0397050000" lon="0.2665750000"><ele>680</ele><time>2026-03-23T08:53:42Z</time></trkpt>
<trkpt lat="43.0397100000" lon="0.2666020000"><ele>680</ele><time>2026-03-23T08:53:44Z</time></trkpt>
<trkpt lat="43.0397120000" lon="0.2666350000"><ele>679</ele><time>2026-03-23T08:53:47Z</time></trkpt>
<trkpt lat="43.0397150000" lon="0.2666620000"><ele>679</ele><time>2026-03-23T08:53:50Z</time></trkpt>
<trkpt lat="43.0397170000" lon="0.2666870000"><ele>679</ele><time>2026-03-23T08:53:52Z</time></trkpt>
<trkpt lat="43.0397150000" lon="0.2667200000"><ele>679</ele><time>2026-03-23T08:53:55Z</time></trkpt>
<trkpt lat="43.0397150000" lon="0.2667520000"><ele>679</ele><time>2026-03-23T08:53:58Z</time></trkpt>
<trkpt lat="43.0397170000" lon="0.2667820000"><ele>678</ele><time>2026-03-23T08:54:02Z</time></trkpt>
<trkpt lat="43.0397170000" lon="0.2668150000"><ele>677</ele><time>2026-03-23T08:54:16Z</time></trkpt>
<trkpt lat="43.0397170000" lon="0.2668470000"><ele>677</ele><time>2026-03-23T08:54:18Z</time></trkpt>
<trkpt lat="43.0397170000" lon="0.2668920000"><ele>677</ele><time>2026-03-23T08:54:20Z</time></trkpt>
<trkpt lat="43.0397150000" lon="0.2669220000"><ele>677</ele><time>2026-03-23T08:54:22Z</time></trkpt>
<trkpt lat="43.0397120000" lon="0.2669530000"><ele>677</ele><time>2026-03-23T08:54:25Z</time></trkpt>
<trkpt lat="43.0397020000" lon="0.2669870000"><ele>676</ele><time>2026-03-23T08:54:29Z</time></trkpt>
<trkpt lat="43.0396850000" lon="0.2669970000"><ele>675</ele><time>2026-03-23T08:54:34Z</time></trkpt>
<trkpt lat="43.0396670000" lon="0.2669830000"><ele>673</ele><time>2026-03-23T08:55:00Z</time></trkpt>
<trkpt lat="43.0396400000" lon="0.2669670000"><ele>672</ele><time>2026-03-23T08:55:03Z</time></trkpt>
<trkpt lat="43.0396250000" lon="0.2669430000"><ele>671</ele><time>2026-03-23T08:55:06Z</time></trkpt>
<trkpt lat="43.0396050000" lon="0.2669470000"><ele>670</ele><time>2026-03-23T08:55:13Z</time></trkpt>
<trkpt lat="43.0395820000" lon="0.2669400000"><ele>666</ele><time>2026-03-23T08:55:42Z</time></trkpt>
<trkpt lat="43.0395520000" lon="0.2669270000"><ele>666</ele><time>2026-03-23T08:55:44Z</time></trkpt>
<trkpt lat="43.0395320000" lon="0.2669250000"><ele>661</ele><time>2026-03-23T08:57:05Z</time></trkpt>
<trkpt lat="43.0395070000" lon="0.2669330000"><ele>661</ele><time>2026-03-23T08:57:07Z</time></trkpt>
<trkpt lat="43.0394820000" lon="0.2669400000"><ele>661</ele><time>2026-03-23T08:57:09Z</time></trkpt>
<trkpt lat="43.0394720000" lon="0.2669670000"><ele>659</ele><time>2026-03-23T08:57:33Z</time></trkpt>
<trkpt lat="43.0394720000" lon="0.2669930000"><ele>659</ele><time>2026-03-23T08:57:35Z</time></trkpt>
<trkpt lat="43.0394600000" lon="0.2670220000"><ele>659</ele><time>2026-03-23T08:57:51Z</time></trkpt>
<trkpt lat="43.0394520000" lon="0.2670500000"><ele>659</ele><time>2026-03-23T08:57:54Z</time></trkpt>
<trkpt lat="43.0394670000" lon="0.2670670000"><ele>659</ele><time>2026-03-23T08:58:00Z</time></trkpt>
<trkpt lat="43.0394850000" lon="0.2670880000"><ele>659</ele><time>2026-03-23T08:58:03Z</time></trkpt>
<trkpt lat="43.0394920000" lon="0.2671150000"><ele>659</ele><time>2026-03-23T08:58:06Z</time></trkpt>
<trkpt lat="43.0394720000" lon="0.2671170000"><ele>659</ele><time>2026-03-23T08:58:10Z</time></trkpt>
<trkpt lat="43.0394530000" lon="0.2671350000"><ele>659</ele><time>2026-03-23T08:58:13Z</time></trkpt>
<trkpt lat="43.0394450000" lon="0.2671570000"><ele>656</ele><time>2026-03-23T08:58:26Z</time></trkpt>
<trkpt lat="43.0394320000" lon="0.2671920000"><ele>656</ele><time>2026-03-23T08:58:28Z</time></trkpt>
<trkpt lat="43.0394250000" lon="0.2672220000"><ele>655</ele><time>2026-03-23T08:58:30Z</time></trkpt>
<trkpt lat="43.0394220000" lon="0.2672470000"><ele>654</ele><time>2026-03-23T08:58:57Z</time></trkpt>
<trkpt lat="43.0394050000" lon="0.2672620000"><ele>654</ele><time>2026-03-23T08:59:01Z</time></trkpt>
<trkpt lat="43.0393850000" lon="0.2672720000"><ele>653</ele><time>2026-03-23T08:59:05Z</time></trkpt>
<trkpt lat="43.0393670000" lon="0.2672870000"><ele>651</ele><time>2026-03-23T08:59:14Z</time></trkpt>
<trkpt lat="43.0393520000" lon="0.2673120000"><ele>651</ele><time>2026-03-23T08:59:16Z</time></trkpt>
<trkpt lat="43.0393420000" lon="0.2673450000"><ele>650</ele><time>2026-03-23T08:59:19Z</time></trkpt>
<trkpt lat="43.0393370000" lon="0.2673770000"><ele>650</ele><time>2026-03-23T08:59:23Z</time></trkpt>
<trkpt lat="43.0393370000" lon="0.2674120000"><ele>649</ele><time>2026-03-23T08:59:30Z</time></trkpt>
<trkpt lat="43.0393370000" lon="0.2674420000"><ele>649</ele><time>2026-03-23T08:59:34Z</time></trkpt>
<trkpt lat="43.0393400000" lon="0.2674700000"><ele>649</ele><time>2026-03-23T08:59:37Z</time></trkpt>
<trkpt lat="43.0393300000" lon="0.2674970000"><ele>649</ele><time>2026-03-23T08:59:42Z</time></trkpt>
<trkpt lat="43.0393250000" lon="0.2675220000"><ele>648</ele><time>2026-03-23T08:59:45Z</time></trkpt>
<trkpt lat="43.0393220000" lon="0.2675470000"><ele>648</ele><time>2026-03-23T08:59:51Z</time></trkpt>
<trkpt lat="43.0393070000" lon="0.2675850000"><ele>643</ele><time>2026-03-23T09:00:36Z</time></trkpt>
<trkpt lat="43.0392950000" lon="0.2676070000"><ele>643</ele><time>2026-03-23T09:00:37Z</time></trkpt>
<trkpt lat="43.0392720000" lon="0.2676120000"><ele>642</ele><time>2026-03-23T09:00:58Z</time></trkpt>
<trkpt lat="43.0392400000" lon="0.2676070000"><ele>641</ele><time>2026-03-23T09:01:00Z</time></trkpt>
<trkpt lat="43.0392170000" lon="0.2675850000"><ele>641</ele><time>2026-03-23T09:01:02Z</time></trkpt>
<trkpt lat="43.0392050000" lon="0.2675570000"><ele>641</ele><time>2026-03-23T09:01:04Z</time></trkpt>
<trkpt lat="43.0391970000" lon="0.2675320000"><ele>641</ele><time>2026-03-23T09:01:06Z</time></trkpt>
<trkpt lat="43.0391950000" lon="0.2675070000"><ele>640</ele><time>2026-03-23T09:01:09Z</time></trkpt>
<trkpt lat="43.0392070000" lon="0.2675270000"><ele>640</ele><time>2026-03-23T09:01:14Z</time></trkpt>
<trkpt lat="43.0392270000" lon="0.2675420000"><ele>640</ele><time>2026-03-23T09:01:17Z</time></trkpt>
<trkpt lat="43.0392400000" lon="0.2675650000"><ele>640</ele><time>2026-03-23T09:01:21Z</time></trkpt>
<trkpt lat="43.0392500000" lon="0.2675870000"><ele>641</ele><time>2026-03-23T09:01:24Z</time></trkpt>
<trkpt lat="43.0392650000" lon="0.2676270000"><ele>642</ele><time>2026-03-23T09:01:59Z</time></trkpt>
<trkpt lat="43.0392670000" lon="0.2676720000"><ele>642</ele><time>2026-03-23T09:02:01Z</time></trkpt>
<trkpt lat="43.0392700000" lon="0.2677150000"><ele>642</ele><time>2026-03-23T09:02:03Z</time></trkpt>
<trkpt lat="43.0392750000" lon="0.2677450000"><ele>642</ele><time>2026-03-23T09:02:05Z</time></trkpt>
<trkpt lat="43.0392820000" lon="0.2677720000"><ele>643</ele><time>2026-03-23T09:02:07Z</time></trkpt>
<trkpt lat="43.0392820000" lon="0.2678020000"><ele>643</ele><time>2026-03-23T09:02:11Z</time></trkpt>
<trkpt lat="43.0392920000" lon="0.2678270000"><ele>643</ele><time>2026-03-23T09:02:15Z</time></trkpt>
<trkpt lat="43.0392920000" lon="0.2678570000"><ele>643</ele><time>2026-03-23T09:02:18Z</time></trkpt>
<trkpt lat="43.0392970000" lon="0.2678820000"><ele>644</ele><time>2026-03-23T09:02:21Z</time></trkpt>
<trkpt lat="43.0393120000" lon="0.2679000000"><ele>645</ele><time>2026-03-23T09:02:24Z</time></trkpt>
<trkpt lat="43.0393170000" lon="0.2679270000"><ele>645</ele><time>2026-03-23T09:02:31Z</time></trkpt>
<trkpt lat="43.0393250000" lon="0.2679620000"><ele>646</ele><time>2026-03-23T09:02:50Z</time></trkpt>
<trkpt lat="43.0393320000" lon="0.2679870000"><ele>646</ele><time>2026-03-23T09:02:52Z</time></trkpt>
<trkpt lat="43.0393400000" lon="0.2680220000"><ele>646</ele><time>2026-03-23T09:02:55Z</time></trkpt>
<trkpt lat="43.0393620000" lon="0.2680420000"><ele>646</ele><time>2026-03-23T09:02:58Z</time></trkpt>
<trkpt lat="43.0393620000" lon="0.2680770000"><ele>645</ele><time>2026-03-23T09:03:33Z</time></trkpt>
<trkpt lat="43.0393650000" lon="0.2681070000"><ele>645</ele><time>2026-03-23T09:03:34Z</time></trkpt>
<trkpt lat="43.0393620000" lon="0.2681470000"><ele>645</ele><time>2026-03-23T09:03:35Z</time></trkpt>
<trkpt lat="43.0393620000" lon="0.2681870000"><ele>645</ele><time>2026-03-23T09:03:36Z</time></trkpt>
<trkpt lat="43.0393600000" lon="0.2682220000"><ele>645</ele><time>2026-03-23T09:03:37Z</time></trkpt>
<trkpt lat="43.0393570000" lon="0.2682470000"><ele>644</ele><time>2026-03-23T09:03:38Z</time></trkpt>
<trkpt lat="43.0393550000" lon="0.2682720000"><ele>644</ele><time>2026-03-23T09:03:40Z</time></trkpt>
<trkpt lat="43.0393550000" lon="0.2683070000"><ele>644</ele><time>2026-03-23T09:03:43Z</time></trkpt>
<trkpt lat="43.0393570000" lon="0.2683330000"><ele>643</ele><time>2026-03-23T09:03:46Z</time></trkpt>
<trkpt lat="43.0393680000" lon="0.2683670000"><ele>643</ele><time>2026-03-23T09:03:49Z</time></trkpt>
<trkpt lat="43.0393820000" lon="0.2683870000"><ele>642</ele><time>2026-03-23T09:03:52Z</time></trkpt>
<trkpt lat="43.0394020000" lon="0.2683970000"><ele>643</ele><time>2026-03-23T09:03:57Z</time></trkpt>
<trkpt lat="43.0394170000" lon="0.2684250000"><ele>643</ele><time>2026-03-23T09:04:00Z</time></trkpt>
<trkpt lat="43.0394250000" lon="0.2684550000"><ele>643</ele><time>2026-03-23T09:04:03Z</time></trkpt>
<trkpt lat="43.0394370000" lon="0.2684780000"><ele>643</ele><time>2026-03-23T09:04:08Z</time></trkpt>
<trkpt lat="43.0394530000" lon="0.2684670000"><ele>643</ele><time>2026-03-23T09:04:11Z</time></trkpt>
<trkpt lat="43.0394520000" lon="0.2684420000"><ele>644</ele><time>2026-03-23T09:04:15Z</time></trkpt>
<trkpt lat="43.0394670000" lon="0.2684680000"><ele>642</ele><time>2026-03-23T09:05:15Z</time></trkpt>
<trkpt lat="43.0394770000" lon="0.2684970000"><ele>642</ele><time>2026-03-23T09:05:16Z</time></trkpt>
<trkpt lat="43.0394820000" lon="0.2685180000"><ele>642</ele><time>2026-03-23T09:05:17Z</time></trkpt>
<trkpt lat="43.0394950000" lon="0.2685550000"><ele>642</ele><time>2026-03-23T09:05:19Z</time></trkpt>
<trkpt lat="43.0395020000" lon="0.2685870000"><ele>639</ele><time>2026-03-23T09:06:05Z</time></trkpt>
<trkpt lat="43.0395070000" lon="0.2686170000"><ele>638</ele><time>2026-03-23T09:06:07Z</time></trkpt>
<trkpt lat="43.0395200000" lon="0.2686450000"><ele>637</ele><time>2026-03-23T09:06:32Z</time></trkpt>
<trkpt lat="43.0395020000" lon="0.2686570000"><ele>636</ele><time>2026-03-23T09:06:48Z</time></trkpt>
<trkpt lat="43.0394820000" lon="0.2686720000"><ele>636</ele><time>2026-03-23T09:06:51Z</time></trkpt>
<trkpt lat="43.0394770000" lon="0.2687070000"><ele>636</ele><time>2026-03-23T09:06:54Z</time></trkpt>
<trkpt lat="43.0394750000" lon="0.2687420000"><ele>636</ele><time>2026-03-23T09:06:56Z</time></trkpt>
<trkpt lat="43.0394650000" lon="0.2687650000"><ele>635</ele><time>2026-03-23T09:06:58Z</time></trkpt>
<trkpt lat="43.0394870000" lon="0.2687700000"><ele>632</ele><time>2026-03-23T09:07:31Z</time></trkpt>
<trkpt lat="43.0395150000" lon="0.2687950000"><ele>631</ele><time>2026-03-23T09:07:33Z</time></trkpt>
<trkpt lat="43.0395370000" lon="0.2688220000"><ele>631</ele><time>2026-03-23T09:07:35Z</time></trkpt>
<trkpt lat="43.0395520000" lon="0.2688450000"><ele>630</ele><time>2026-03-23T09:07:38Z</time></trkpt>
<trkpt lat="43.0395670000" lon="0.2688600000"><ele>630</ele><time>2026-03-23T09:07:41Z</time></trkpt>
<trkpt lat="43.0395850000" lon="0.2688720000"><ele>627</ele><time>2026-03-23T09:08:00Z</time></trkpt>
<trkpt lat="43.0396020000" lon="0.2688600000"><ele>627</ele><time>2026-03-23T09:08:05Z</time></trkpt>
<trkpt lat="43.0395770000" lon="0.2688600000"><ele>625</ele><time>2026-03-23T09:08:31Z</time></trkpt>
<trkpt lat="43.0395620000" lon="0.2688800000"><ele>625</ele><time>2026-03-23T09:08:32Z</time></trkpt>
<trkpt lat="43.0395420000" lon="0.2689050000"><ele>625</ele><time>2026-03-23T09:08:33Z</time></trkpt>
<trkpt lat="43.0395220000" lon="0.2689300000"><ele>625</ele><time>2026-03-23T09:08:34Z</time></trkpt>
<trkpt lat="43.0395070000" lon="0.2689550000"><ele>625</ele><time>2026-03-23T09:08:35Z</time></trkpt>
<trkpt lat="43.0394950000" lon="0.2689770000"><ele>624</ele><time>2026-03-23T09:08:36Z</time></trkpt>
<trkpt lat="43.0394820000" lon="0.2690180000"><ele>624</ele><time>2026-03-23T09:08:38Z</time></trkpt>
<trkpt lat="43.0394720000" lon="0.2690420000"><ele>624</ele><time>2026-03-23T09:08:40Z</time></trkpt>
<trkpt lat="43.0394570000" lon="0.2690620000"><ele>623</ele><time>2026-03-23T09:08:43Z</time></trkpt>
<trkpt lat="43.0394370000" lon="0.2690750000"><ele>622</ele><time>2026-03-23T09:08:46Z</time></trkpt>
<trkpt lat="43.0394520000" lon="0.2690920000"><ele>620</ele><time>2026-03-23T09:08:57Z</time></trkpt>
<trkpt lat="43.0394520000" lon="0.2691170000"><ele>619</ele><time>2026-03-23T09:09:15Z</time></trkpt>
<trkpt lat="43.0394670000" lon="0.2691350000"><ele>618</ele><time>2026-03-23T09:09:22Z</time></trkpt>
<trkpt lat="43.0394420000" lon="0.2691530000"><ele>617</ele><time>2026-03-23T09:10:25Z</time></trkpt>
<trkpt lat="43.0394250000" lon="0.2691720000"><ele>616</ele><time>2026-03-23T09:10:26Z</time></trkpt>
<trkpt lat="43.0394020000" lon="0.2691870000"><ele>616</ele><time>2026-03-23T09:10:27Z</time></trkpt>
<trkpt lat="43.0393820000" lon="0.2692020000"><ele>616</ele><time>2026-03-23T09:10:28Z</time></trkpt>
<trkpt lat="43.0393620000" lon="0.2692220000"><ele>616</ele><time>2026-03-23T09:10:29Z</time></trkpt>
<trkpt lat="43.0393420000" lon="0.2692370000"><ele>616</ele><time>2026-03-23T09:10:30Z</time></trkpt>
<trkpt lat="43.0393270000" lon="0.2692550000"><ele>616</ele><time>2026-03-23T09:10:31Z</time></trkpt>
<trkpt lat="43.0393020000" lon="0.2692670000"><ele>616</ele><time>2026-03-23T09:10:33Z</time></trkpt>
<trkpt lat="43.0392870000" lon="0.2692770000"><ele>615</ele><time>2026-03-23T09:10:35Z</time></trkpt>
<trkpt lat="43.0392600000" lon="0.2692870000"><ele>614</ele><time>2026-03-23T09:10:39Z</time></trkpt>
<trkpt lat="43.0392370000" lon="0.2692970000"><ele>614</ele><time>2026-03-23T09:10:41Z</time></trkpt>
<trkpt lat="43.0392170000" lon="0.2693020000"><ele>614</ele><time>2026-03-23T09:10:43Z</time></trkpt>
<trkpt lat="43.0391920000" lon="0.2693020000"><ele>613</ele><time>2026-03-23T09:10:45Z</time></trkpt>
<trkpt lat="43.0391720000" lon="0.2692850000"><ele>613</ele><time>2026-03-23T09:10:48Z</time></trkpt>
<trkpt lat="43.0391570000" lon="0.2692600000"><ele>613</ele><time>2026-03-23T09:10:50Z</time></trkpt>
<trkpt lat="43.0391520000" lon="0.2692320000"><ele>612</ele><time>2026-03-23T09:10:52Z</time></trkpt>
<trkpt lat="43.0391400000" lon="0.2692120000"><ele>612</ele><time>2026-03-23T09:10:54Z</time></trkpt>
<trkpt lat="43.0391270000" lon="0.2691920000"><ele>612</ele><time>2026-03-23T09:10:56Z</time></trkpt>
<trkpt lat="43.0391020000" lon="0.2691720000"><ele>611</ele><time>2026-03-23T09:10:59Z</time></trkpt>
<trkpt lat="43.0390870000" lon="0.2691600000"><ele>611</ele><time>2026-03-23T09:11:01Z</time></trkpt>
<trkpt lat="43.0390650000" lon="0.2691520000"><ele>611</ele><time>2026-03-23T09:11:03Z</time></trkpt>
<trkpt lat="43.0390470000" lon="0.2691400000"><ele>611</ele><time>2026-03-23T09:11:05Z</time></trkpt>
<trkpt lat="43.0390320000" lon="0.2691270000"><ele>611</ele><time>2026-03-23T09:11:07Z</time></trkpt>
<trkpt lat="43.0390120000" lon="0.2691070000"><ele>610</ele><time>2026-03-23T09:11:09Z</time></trkpt>
<trkpt lat="43.0389770000" lon="0.2690900000"><ele>610</ele><time>2026-03-23T09:11:11Z</time></trkpt>
<trkpt lat="43.0389600000" lon="0.2690750000"><ele>610</ele><time>2026-03-23T09:11:13Z</time></trkpt>
<trkpt lat="43.0389720000" lon="0.2690570000"><ele>610</ele><time>2026-03-23T09:11:19Z</time></trkpt>
<trkpt lat="43.0389520000" lon="0.2690500000"><ele>610</ele><time>2026-03-23T09:11:37Z</time></trkpt>
<trkpt lat="43.0389250000" lon="0.2690320000"><ele>610</ele><time>2026-03-23T09:11:39Z</time></trkpt>
<trkpt lat="43.0389070000" lon="0.2690070000"><ele>610</ele><time>2026-03-23T09:11:41Z</time></trkpt>
<trkpt lat="43.0388950000" lon="0.2689770000"><ele>609</ele><time>2026-03-23T09:11:43Z</time></trkpt>
<trkpt lat="43.0388850000" lon="0.2689500000"><ele>609</ele><time>2026-03-23T09:11:45Z</time></trkpt>
<trkpt lat="43.0388820000" lon="0.2689200000"><ele>609</ele><time>2026-03-23T09:11:47Z</time></trkpt>
<trkpt lat="43.0388750000" lon="0.2688920000"><ele>608</ele><time>2026-03-23T09:11:49Z</time></trkpt>
<trkpt lat="43.0388670000" lon="0.2688650000"><ele>608</ele><time>2026-03-23T09:11:51Z</time></trkpt>
<trkpt lat="43.0388620000" lon="0.2688320000"><ele>608</ele><time>2026-03-23T09:11:53Z</time></trkpt>
<trkpt lat="43.0388570000" lon="0.2687920000"><ele>608</ele><time>2026-03-23T09:11:56Z</time></trkpt>
<trkpt lat="43.0388600000" lon="0.2687580000"><ele>608</ele><time>2026-03-23T09:11:58Z</time></trkpt>
<trkpt lat="43.0388550000" lon="0.2687270000"><ele>607</ele><time>2026-03-23T09:12:00Z</time></trkpt>
<trkpt lat="43.0388550000" lon="0.2686920000"><ele>607</ele><time>2026-03-23T09:12:02Z</time></trkpt>
<trkpt lat="43.0388520000" lon="0.2686520000"><ele>607</ele><time>2026-03-23T09:12:04Z</time></trkpt>
<trkpt lat="43.0388420000" lon="0.2686170000"><ele>607</ele><time>2026-03-23T09:12:06Z</time></trkpt>
<trkpt lat="43.0388350000" lon="0.2685870000"><ele>607</ele><time>2026-03-23T09:12:08Z</time></trkpt>
<trkpt lat="43.0388220000" lon="0.2685600000"><ele>607</ele><time>2026-03-23T09:12:10Z</time></trkpt>
<trkpt lat="43.0388170000" lon="0.2685280000"><ele>607</ele><time>2026-03-23T09:12:12Z</time></trkpt>
<trkpt lat="43.0388170000" lon="0.2684970000"><ele>607</ele><time>2026-03-23T09:12:14Z</time></trkpt>
<trkpt lat="43.0388220000" lon="0.2684650000"><ele>607</ele><time>2026-03-23T09:12:16Z</time></trkpt>
<trkpt lat="43.0388220000" lon="0.2684300000"><ele>607</ele><time>2026-03-23T09:12:18Z</time></trkpt>
<trkpt lat="43.0388220000" lon="0.2683970000"><ele>607</ele><time>2026-03-23T09:12:20Z</time></trkpt>
<trkpt lat="43.0388170000" lon="0.2683620000"><ele>607</ele><time>2026-03-23T09:12:22Z</time></trkpt>
<trkpt lat="43.0388020000" lon="0.2683270000"><ele>607</ele><time>2026-03-23T09:12:24Z</time></trkpt>
<trkpt lat="43.0387870000" lon="0.2682950000"><ele>607</ele><time>2026-03-23T09:12:26Z</time></trkpt>
<trkpt lat="43.0387770000" lon="0.2682650000"><ele>607</ele><time>2026-03-23T09:12:28Z</time></trkpt>
<trkpt lat="43.0387700000" lon="0.2682370000"><ele>607</ele><time>2026-03-23T09:12:30Z</time></trkpt>
<trkpt lat="43.0387570000" lon="0.2682070000"><ele>607</ele><time>2026-03-23T09:12:32Z</time></trkpt>
<trkpt lat="43.0387420000" lon="0.2681770000"><ele>607</ele><time>2026-03-23T09:12:34Z</time></trkpt>
<trkpt lat="43.0387270000" lon="0.2681470000"><ele>607</ele><time>2026-03-23T09:12:36Z</time></trkpt>
<trkpt lat="43.0387220000" lon="0.2681100000"><ele>607</ele><time>2026-03-23T09:12:38Z</time></trkpt>
<trkpt lat="43.0387150000" lon="0.2680770000"><ele>608</ele><time>2026-03-23T09:12:40Z</time></trkpt>
<trkpt lat="43.0387070000" lon="0.2680470000"><ele>608</ele><time>2026-03-23T09:12:42Z</time></trkpt>
<trkpt lat="43.0386970000" lon="0.2680180000"><ele>608</ele><time>2026-03-23T09:12:44Z</time></trkpt>
<trkpt lat="43.0386920000" lon="0.2679920000"><ele>608</ele><time>2026-03-23T09:12:46Z</time></trkpt>
<trkpt lat="43.0386870000" lon="0.2679620000"><ele>608</ele><time>2026-03-23T09:12:48Z</time></trkpt>
<trkpt lat="43.0386800000" lon="0.2679280000"><ele>608</ele><time>2026-03-23T09:12:50Z</time></trkpt>
<trkpt lat="43.0386720000" lon="0.2679020000"><ele>608</ele><time>2026-03-23T09:12:52Z</time></trkpt>
<trkpt lat="43.0386650000" lon="0.2678720000"><ele>607</ele><time>2026-03-23T09:12:54Z</time></trkpt>
<trkpt lat="43.0386570000" lon="0.2678470000"><ele>607</ele><time>2026-03-23T09:12:56Z</time></trkpt>
<trkpt lat="43.0386470000" lon="0.2678220000"><ele>607</ele><time>2026-03-23T09:12:58Z</time></trkpt>
<trkpt lat="43.0386350000" lon="0.2677970000"><ele>607</ele><time>2026-03-23T09:13:00Z</time></trkpt>
<trkpt lat="43.0386220000" lon="0.2677630000"><ele>607</ele><time>2026-03-23T09:13:02Z</time></trkpt>
<trkpt lat="43.0386120000" lon="0.2677370000"><ele>607</ele><time>2026-03-23T09:13:04Z</time></trkpt>
<trkpt lat="43.0386020000" lon="0.2677150000"><ele>606</ele><time>2026-03-23T09:13:06Z</time></trkpt>
<trkpt lat="43.0385970000" lon="0.2676870000"><ele>606</ele><time>2026-03-23T09:13:08Z</time></trkpt>
<trkpt lat="43.0385920000" lon="0.2676550000"><ele>606</ele><time>2026-03-23T09:13:10Z</time></trkpt>
<trkpt lat="43.0385850000" lon="0.2676220000"><ele>606</ele><time>2026-03-23T09:13:12Z</time></trkpt>
<trkpt lat="43.0385770000" lon="0.2675920000"><ele>606</ele><time>2026-03-23T09:13:14Z</time></trkpt>
<trkpt lat="43.0385650000" lon="0.2675670000"><ele>605</ele><time>2026-03-23T09:13:16Z</time></trkpt>
<trkpt lat="43.0385600000" lon="0.2675370000"><ele>605</ele><time>2026-03-23T09:13:18Z</time></trkpt>
<trkpt lat="43.0385470000" lon="0.2675120000"><ele>605</ele><time>2026-03-23T09:13:20Z</time></trkpt>
<trkpt lat="43.0385370000" lon="0.2674820000"><ele>605</ele><time>2026-03-23T09:13:22Z</time></trkpt>
<trkpt lat="43.0385200000" lon="0.2674620000"><ele>605</ele><time>2026-03-23T09:13:24Z</time></trkpt>
<trkpt lat="43.0385050000" lon="0.2674370000"><ele>605</ele><time>2026-03-23T09:13:26Z</time></trkpt>
<trkpt lat="43.0384920000" lon="0.2674080000"><ele>604</ele><time>2026-03-23T09:13:28Z</time></trkpt>
<trkpt lat="43.0384900000" lon="0.2673820000"><ele>604</ele><time>2026-03-23T09:13:30Z</time></trkpt>
<trkpt lat="43.0384820000" lon="0.2673470000"><ele>604</ele><time>2026-03-23T09:13:33Z</time></trkpt>
<trkpt lat="43.0384720000" lon="0.2673170000"><ele>604</ele><time>2026-03-23T09:13:35Z</time></trkpt>
<trkpt lat="43.0384470000" lon="0.2673000000"><ele>603</ele><time>2026-03-23T09:13:37Z</time></trkpt>
<trkpt lat="43.0384250000" lon="0.2672820000"><ele>603</ele><time>2026-03-23T09:13:39Z</time></trkpt>
<trkpt lat="43.0384000000" lon="0.2672700000"><ele>603</ele><time>2026-03-23T09:13:41Z</time></trkpt>
<trkpt lat="43.0383720000" lon="0.2672600000"><ele>603</ele><time>2026-03-23T09:13:43Z</time></trkpt>
<trkpt lat="43.0383470000" lon="0.2672470000"><ele>602</ele><time>2026-03-23T09:13:45Z</time></trkpt>
<trkpt lat="43.0383270000" lon="0.2672270000"><ele>602</ele><time>2026-03-23T09:13:47Z</time></trkpt>
<trkpt lat="43.0383050000" lon="0.2672020000"><ele>601</ele><time>2026-03-23T09:13:50Z</time></trkpt>
<trkpt lat="43.0382920000" lon="0.2671780000"><ele>601</ele><time>2026-03-23T09:13:52Z</time></trkpt>
<trkpt lat="43.0382800000" lon="0.2671570000"><ele>600</ele><time>2026-03-23T09:13:54Z</time></trkpt>
<trkpt lat="43.0382670000" lon="0.2671320000"><ele>600</ele><time>2026-03-23T09:13:56Z</time></trkpt>
<trkpt lat="43.0382550000" lon="0.2671070000"><ele>600</ele><time>2026-03-23T09:13:58Z</time></trkpt>
<trkpt lat="43.0382420000" lon="0.2670770000"><ele>599</ele><time>2026-03-23T09:14:00Z</time></trkpt>
<trkpt lat="43.0382270000" lon="0.2670520000"><ele>599</ele><time>2026-03-23T09:14:02Z</time></trkpt>
<trkpt lat="43.0382150000" lon="0.2670270000"><ele>599</ele><time>2026-03-23T09:14:04Z</time></trkpt>
<trkpt lat="43.0382070000" lon="0.2670000000"><ele>598</ele><time>2026-03-23T09:14:06Z</time></trkpt>
<trkpt lat="43.0382000000" lon="0.2669750000"><ele>598</ele><time>2026-03-23T09:14:08Z</time></trkpt>
<trkpt lat="43.0381970000" lon="0.2669430000"><ele>598</ele><time>2026-03-23T09:14:10Z</time></trkpt>
<trkpt lat="43.0381870000" lon="0.2669220000"><ele>597</ele><time>2026-03-23T09:14:12Z</time></trkpt>
<trkpt lat="43.0381770000" lon="0.2669000000"><ele>597</ele><time>2026-03-23T09:14:14Z</time></trkpt>
<trkpt lat="43.0381670000" lon="0.2668750000"><ele>597</ele><time>2026-03-23T09:14:19Z</time></trkpt>
<trkpt lat="43.0381420000" lon="0.2668570000"><ele>597</ele><time>2026-03-23T09:14:22Z</time></trkpt>
<trkpt lat="43.0381300000" lon="0.2668350000"><ele>596</ele><time>2026-03-23T09:14:24Z</time></trkpt>
<trkpt lat="43.0381170000" lon="0.2668120000"><ele>596</ele><time>2026-03-23T09:14:26Z</time></trkpt>
<trkpt lat="43.0381050000" lon="0.2667870000"><ele>596</ele><time>2026-03-23T09:14:28Z</time></trkpt>
<trkpt lat="43.0380970000" lon="0.2667600000"><ele>596</ele><time>2026-03-23T09:14:30Z</time></trkpt>
<trkpt lat="43.0380920000" lon="0.2667370000"><ele>597</ele><time>2026-03-23T09:14:32Z</time></trkpt>
<trkpt lat="43.0380820000" lon="0.2667100000"><ele>597</ele><time>2026-03-23T09:14:34Z</time></trkpt>
<trkpt lat="43.0380750000" lon="0.2666820000"><ele>597</ele><time>2026-03-23T09:14:53Z</time></trkpt>
<trkpt lat="43.0380620000" lon="0.2666520000"><ele>598</ele><time>2026-03-23T09:14:55Z</time></trkpt>
<trkpt lat="43.0380470000" lon="0.2666100000"><ele>598</ele><time>2026-03-23T09:14:57Z</time></trkpt>
<trkpt lat="43.0380370000" lon="0.2665680000"><ele>598</ele><time>2026-03-23T09:14:59Z</time></trkpt>
<trkpt lat="43.0380220000" lon="0.2665370000"><ele>598</ele><time>2026-03-23T09:15:01Z</time></trkpt>
<trkpt lat="43.0380120000" lon="0.2665120000"><ele>598</ele><time>2026-03-23T09:15:03Z</time></trkpt>
<trkpt lat="43.0379950000" lon="0.2664870000"><ele>598</ele><time>2026-03-23T09:15:05Z</time></trkpt>
<trkpt lat="43.0379800000" lon="0.2664620000"><ele>598</ele><time>2026-03-23T09:15:07Z</time></trkpt>
<trkpt lat="43.0379620000" lon="0.2664420000"><ele>598</ele><time>2026-03-23T09:15:09Z</time></trkpt>
<trkpt lat="43.0379470000" lon="0.2664170000"><ele>599</ele><time>2026-03-23T09:15:11Z</time></trkpt>
<trkpt lat="43.0379270000" lon="0.2663920000"><ele>599</ele><time>2026-03-23T09:15:13Z</time></trkpt>
<trkpt lat="43.0379070000" lon="0.2663770000"><ele>599</ele><time>2026-03-23T09:15:15Z</time></trkpt>
<trkpt lat="43.0378870000" lon="0.2663570000"><ele>599</ele><time>2026-03-23T09:15:17Z</time></trkpt>
<trkpt lat="43.0378630000" lon="0.2663450000"><ele>599</ele><time>2026-03-23T09:15:19Z</time></trkpt>
<trkpt lat="43.0378420000" lon="0.2663350000"><ele>599</ele><time>2026-03-23T09:15:21Z</time></trkpt>
<trkpt lat="43.0378200000" lon="0.2663270000"><ele>599</ele><time>2026-03-23T09:15:23Z</time></trkpt>
<trkpt lat="43.0377970000" lon="0.2663220000"><ele>599</ele><time>2026-03-23T09:15:25Z</time></trkpt>
<trkpt lat="43.0377720000" lon="0.2663220000"><ele>599</ele><time>2026-03-23T09:15:27Z</time></trkpt>
<trkpt lat="43.0377500000" lon="0.2663220000"><ele>599</ele><time>2026-03-23T09:15:29Z</time></trkpt>
<trkpt lat="43.0377270000" lon="0.2663220000"><ele>600</ele><time>2026-03-23T09:15:31Z</time></trkpt>
<trkpt lat="43.0377070000" lon="0.2663220000"><ele>600</ele><time>2026-03-23T09:15:33Z</time></trkpt>
<trkpt lat="43.0376850000" lon="0.2663220000"><ele>600</ele><time>2026-03-23T09:15:35Z</time></trkpt>
<trkpt lat="43.0376650000" lon="0.2663320000"><ele>600</ele><time>2026-03-23T09:15:37Z</time></trkpt>
<trkpt lat="43.0376450000" lon="0.2663420000"><ele>600</ele><time>2026-03-23T09:15:39Z</time></trkpt>
<trkpt lat="43.0376230000" lon="0.2663480000"><ele>600</ele><time>2026-03-23T09:15:41Z</time></trkpt>
<trkpt lat="43.0376050000" lon="0.2663550000"><ele>601</ele><time>2026-03-23T09:15:43Z</time></trkpt>
<trkpt lat="43.0375770000" lon="0.2663620000"><ele>601</ele><time>2026-03-23T09:15:45Z</time></trkpt>
<trkpt lat="43.0375470000" lon="0.2663730000"><ele>601</ele><time>2026-03-23T09:15:47Z</time></trkpt>
<trkpt lat="43.0375270000" lon="0.2663770000"><ele>601</ele><time>2026-03-23T09:15:49Z</time></trkpt>
<trkpt lat="43.0375100000" lon="0.2663820000"><ele>601</ele><time>2026-03-23T09:15:51Z</time></trkpt>
<trkpt lat="43.0374870000" lon="0.2663870000"><ele>601</ele><time>2026-03-23T09:15:53Z</time></trkpt>
<trkpt lat="43.0374670000" lon="0.2663920000"><ele>601</ele><time>2026-03-23T09:15:55Z</time></trkpt>
<trkpt lat="43.0374450000" lon="0.2663970000"><ele>602</ele><time>2026-03-23T09:15:57Z</time></trkpt>
<trkpt lat="43.0374220000" lon="0.2664000000"><ele>602</ele><time>2026-03-23T09:15:59Z</time></trkpt>
<trkpt lat="43.0373970000" lon="0.2664120000"><ele>602</ele><time>2026-03-23T09:16:01Z</time></trkpt>
<trkpt lat="43.0373820000" lon="0.2664250000"><ele>602</ele><time>2026-03-23T09:16:02Z</time></trkpt>
<trkpt lat="43.0373620000" lon="0.2664400000"><ele>602</ele><time>2026-03-23T09:16:03Z</time></trkpt>
<trkpt lat="43.0373420000" lon="0.2664620000"><ele>602</ele><time>2026-03-23T09:16:05Z</time></trkpt>
<trkpt lat="43.0373250000" lon="0.2664820000"><ele>602</ele><time>2026-03-23T09:16:08Z</time></trkpt>
<trkpt lat="43.0373000000" lon="0.2664820000"><ele>603</ele><time>2026-03-23T09:16:13Z</time></trkpt>
<trkpt lat="43.0372750000" lon="0.2664920000"><ele>603</ele><time>2026-03-23T09:16:15Z</time></trkpt>
<trkpt lat="43.0372450000" lon="0.2665050000"><ele>603</ele><time>2026-03-23T09:16:17Z</time></trkpt>
<trkpt lat="43.0372170000" lon="0.2665120000"><ele>603</ele><time>2026-03-23T09:16:19Z</time></trkpt>
<trkpt lat="43.0371920000" lon="0.2665170000"><ele>603</ele><time>2026-03-23T09:16:21Z</time></trkpt>
<trkpt lat="43.0371700000" lon="0.2665220000"><ele>603</ele><time>2026-03-23T09:16:23Z</time></trkpt>
<trkpt lat="43.0371470000" lon="0.2665270000"><ele>603</ele><time>2026-03-23T09:16:25Z</time></trkpt>
<trkpt lat="43.0371270000" lon="0.2665320000"><ele>603</ele><time>2026-03-23T09:16:27Z</time></trkpt>
<trkpt lat="43.0371070000" lon="0.2665370000"><ele>604</ele><time>2026-03-23T09:16:29Z</time></trkpt>
<trkpt lat="43.0370850000" lon="0.2665420000"><ele>604</ele><time>2026-03-23T09:16:31Z</time></trkpt>
<trkpt lat="43.0370670000" lon="0.2665450000"><ele>604</ele><time>2026-03-23T09:16:33Z</time></trkpt>
<trkpt lat="43.0370470000" lon="0.2665470000"><ele>604</ele><time>2026-03-23T09:16:35Z</time></trkpt>
<trkpt lat="43.0370270000" lon="0.2665520000"><ele>604</ele><time>2026-03-23T09:16:37Z</time></trkpt>
<trkpt lat="43.0370070000" lon="0.2665600000"><ele>604</ele><time>2026-03-23T09:16:39Z</time></trkpt>
<trkpt lat="43.0369850000" lon="0.2665720000"><ele>604</ele><time>2026-03-23T09:16:41Z</time></trkpt>
<trkpt lat="43.0369620000" lon="0.2665770000"><ele>605</ele><time>2026-03-23T09:16:43Z</time></trkpt>
<trkpt lat="43.0369420000" lon="0.2665870000"><ele>605</ele><time>2026-03-23T09:16:45Z</time></trkpt>
<trkpt lat="43.0369220000" lon="0.2665870000"><ele>605</ele><time>2026-03-23T09:16:47Z</time></trkpt>
<trkpt lat="43.0369050000" lon="0.2665920000"><ele>605</ele><time>2026-03-23T09:16:49Z</time></trkpt>
<trkpt lat="43.0368870000" lon="0.2665950000"><ele>605</ele><time>2026-03-23T09:16:51Z</time></trkpt>
<trkpt lat="43.0368620000" lon="0.2666020000"><ele>605</ele><time>2026-03-23T09:16:53Z</time></trkpt>
<trkpt lat="43.0368450000" lon="0.2666100000"><ele>605</ele><time>2026-03-23T09:16:55Z</time></trkpt>
<trkpt lat="43.0368220000" lon="0.2666170000"><ele>606</ele><time>2026-03-23T09:16:57Z</time></trkpt>
<trkpt lat="43.0368020000" lon="0.2666250000"><ele>606</ele><time>2026-03-23T09:16:59Z</time></trkpt>
<trkpt lat="43.0367820000" lon="0.2666280000"><ele>606</ele><time>2026-03-23T09:17:01Z</time></trkpt>
<trkpt lat="43.0367570000" lon="0.2666350000"><ele>606</ele><time>2026-03-23T09:17:03Z</time></trkpt>
<trkpt lat="43.0367370000" lon="0.2666370000"><ele>606</ele><time>2026-03-23T09:17:05Z</time></trkpt>
<trkpt lat="43.0367200000" lon="0.2666470000"><ele>607</ele><time>2026-03-23T09:17:07Z</time></trkpt>
<trkpt lat="43.0367020000" lon="0.2666520000"><ele>607</ele><time>2026-03-23T09:17:09Z</time></trkpt>
<trkpt lat="43.0366770000" lon="0.2666570000"><ele>607</ele><time>2026-03-23T09:17:11Z</time></trkpt>
<trkpt lat="43.0366570000" lon="0.2666670000"><ele>607</ele><time>2026-03-23T09:17:13Z</time></trkpt>
<trkpt lat="43.0366320000" lon="0.2666720000"><ele>608</ele><time>2026-03-23T09:17:16Z</time></trkpt>
<trkpt lat="43.0366150000" lon="0.2666820000"><ele>608</ele><time>2026-03-23T09:17:18Z</time></trkpt>
<trkpt lat="43.0365950000" lon="0.2666870000"><ele>608</ele><time>2026-03-23T09:17:20Z</time></trkpt>
<trkpt lat="43.0365720000" lon="0.2666970000"><ele>608</ele><time>2026-03-23T09:17:22Z</time></trkpt>
<trkpt lat="43.0365520000" lon="0.2666970000"><ele>609</ele><time>2026-03-23T09:17:24Z</time></trkpt>
<trkpt lat="43.0365320000" lon="0.2666970000"><ele>609</ele><time>2026-03-23T09:17:26Z</time></trkpt>
<trkpt lat="43.0365100000" lon="0.2666970000"><ele>609</ele><time>2026-03-23T09:17:28Z</time></trkpt>
<trkpt lat="43.0364950000" lon="0.2666820000"><ele>610</ele><time>2026-03-23T09:17:32Z</time></trkpt>
<trkpt lat="43.0364920000" lon="0.2666470000"><ele>610</ele><time>2026-03-23T09:17:42Z</time></trkpt>
<trkpt lat="43.0364950000" lon="0.2666170000"><ele>610</ele><time>2026-03-23T09:17:44Z</time></trkpt>
<trkpt lat="43.0365050000" lon="0.2665870000"><ele>610</ele><time>2026-03-23T09:17:46Z</time></trkpt>
<trkpt lat="43.0365150000" lon="0.2665620000"><ele>610</ele><time>2026-03-23T09:17:48Z</time></trkpt>
<trkpt lat="43.0365300000" lon="0.2665420000"><ele>610</ele><time>2026-03-23T09:17:50Z</time></trkpt>
<trkpt lat="43.0365450000" lon="0.2665220000"><ele>610</ele><time>2026-03-23T09:17:52Z</time></trkpt>
<trkpt lat="43.0365620000" lon="0.2665020000"><ele>610</ele><time>2026-03-23T09:17:54Z</time></trkpt>
<trkpt lat="43.0365670000" lon="0.2664770000"><ele>610</ele><time>2026-03-23T09:17:58Z</time></trkpt>
<trkpt lat="43.0365770000" lon="0.2664550000"><ele>611</ele><time>2026-03-23T09:18:08Z</time></trkpt>
<trkpt lat="43.0366000000" lon="0.2664370000"><ele>611</ele><time>2026-03-23T09:18:10Z</time></trkpt>
<trkpt lat="43.0366270000" lon="0.2664220000"><ele>611</ele><time>2026-03-23T09:18:12Z</time></trkpt>
<trkpt lat="43.0366470000" lon="0.2663930000"><ele>611</ele><time>2026-03-23T09:18:14Z</time></trkpt>
<trkpt lat="43.0366650000" lon="0.2663620000"><ele>611</ele><time>2026-03-23T09:18:16Z</time></trkpt>
<trkpt lat="43.0366800000" lon="0.2663370000"><ele>611</ele><time>2026-03-23T09:18:18Z</time></trkpt>
<trkpt lat="43.0366950000" lon="0.2663170000"><ele>612</ele><time>2026-03-23T09:18:20Z</time></trkpt>
<trkpt lat="43.0367120000" lon="0.2662980000"><ele>612</ele><time>2026-03-23T09:18:22Z</time></trkpt>
<trkpt lat="43.0367320000" lon="0.2662770000"><ele>612</ele><time>2026-03-23T09:18:24Z</time></trkpt>
<trkpt lat="43.0367470000" lon="0.2662570000"><ele>612</ele><time>2026-03-23T09:18:26Z</time></trkpt>
<trkpt lat="43.0367650000" lon="0.2662370000"><ele>613</ele><time>2026-03-23T09:18:35Z</time></trkpt>
<trkpt lat="43.0367870000" lon="0.2662120000"><ele>613</ele><time>2026-03-23T09:18:37Z</time></trkpt>
<trkpt lat="43.0368100000" lon="0.2661870000"><ele>613</ele><time>2026-03-23T09:18:39Z</time></trkpt>
<trkpt lat="43.0368220000" lon="0.2661620000"><ele>613</ele><time>2026-03-23T09:18:41Z</time></trkpt>
<trkpt lat="43.0368370000" lon="0.2661400000"><ele>613</ele><time>2026-03-23T09:18:43Z</time></trkpt>
<trkpt lat="43.0368520000" lon="0.2661220000"><ele>614</ele><time>2026-03-23T09:18:45Z</time></trkpt>
<trkpt lat="43.0368720000" lon="0.2661000000"><ele>614</ele><time>2026-03-23T09:18:47Z</time></trkpt>
<trkpt lat="43.0368870000" lon="0.2660780000"><ele>614</ele><time>2026-03-23T09:18:49Z</time></trkpt>
<trkpt lat="43.0369020000" lon="0.2660520000"><ele>614</ele><time>2026-03-23T09:18:51Z</time></trkpt>
<trkpt lat="43.0369200000" lon="0.2660320000"><ele>614</ele><time>2026-03-23T09:18:53Z</time></trkpt>
<trkpt lat="43.0369350000" lon="0.2660070000"><ele>614</ele><time>2026-03-23T09:18:55Z</time></trkpt>
<trkpt lat="43.0369480000" lon="0.2659900000"><ele>615</ele><time>2026-03-23T09:18:57Z</time></trkpt>
<trkpt lat="43.0369620000" lon="0.2659680000"><ele>615</ele><time>2026-03-23T09:18:59Z</time></trkpt>
<trkpt lat="43.0369770000" lon="0.2659470000"><ele>615</ele><time>2026-03-23T09:19:01Z</time></trkpt>
<trkpt lat="43.0369900000" lon="0.2659200000"><ele>615</ele><time>2026-03-23T09:19:03Z</time></trkpt>
<trkpt lat="43.0370020000" lon="0.2658930000"><ele>615</ele><time>2026-03-23T09:19:05Z</time></trkpt>
<trkpt lat="43.0370120000" lon="0.2658720000"><ele>615</ele><time>2026-03-23T09:19:07Z</time></trkpt>
<trkpt lat="43.0370300000" lon="0.2658480000"><ele>616</ele><time>2026-03-23T09:19:09Z</time></trkpt>
<trkpt lat="43.0370420000" lon="0.2658220000"><ele>616</ele><time>2026-03-23T09:19:11Z</time></trkpt>
<trkpt lat="43.0370520000" lon="0.2657970000"><ele>616</ele><time>2026-03-23T09:19:13Z</time></trkpt>
<trkpt lat="43.0370670000" lon="0.2657670000"><ele>616</ele><time>2026-03-23T09:19:15Z</time></trkpt>
<trkpt lat="43.0370770000" lon="0.2657470000"><ele>616</ele><time>2026-03-23T09:19:17Z</time></trkpt>
<trkpt lat="43.0370970000" lon="0.2657250000"><ele>616</ele><time>2026-03-23T09:19:20Z</time></trkpt>
<trkpt lat="43.0371120000" lon="0.2657120000"><ele>617</ele><time>2026-03-23T09:19:22Z</time></trkpt>
<trkpt lat="43.0371270000" lon="0.2656970000"><ele>617</ele><time>2026-03-23T09:19:24Z</time></trkpt>
<trkpt lat="43.0371400000" lon="0.2656670000"><ele>617</ele><time>2026-03-23T09:19:26Z</time></trkpt>
<trkpt lat="43.0371450000" lon="0.2656250000"><ele>617</ele><time>2026-03-23T09:19:28Z</time></trkpt>
<trkpt lat="43.0371470000" lon="0.2656000000"><ele>617</ele><time>2026-03-23T09:19:29Z</time></trkpt>
<trkpt lat="43.0371520000" lon="0.2655570000"><ele>617</ele><time>2026-03-23T09:19:31Z</time></trkpt>
<trkpt lat="43.0371520000" lon="0.2655180000"><ele>618</ele><time>2026-03-23T09:19:33Z</time></trkpt>
<trkpt lat="43.0371670000" lon="0.2654920000"><ele>618</ele><time>2026-03-23T09:19:35Z</time></trkpt>
<trkpt lat="43.0371770000" lon="0.2654650000"><ele>618</ele><time>2026-03-23T09:19:37Z</time></trkpt>
<trkpt lat="43.0371900000" lon="0.2654370000"><ele>618</ele><time>2026-03-23T09:19:39Z</time></trkpt>
<trkpt lat="43.0372020000" lon="0.2654170000"><ele>618</ele><time>2026-03-23T09:19:41Z</time></trkpt>
<trkpt lat="43.0372170000" lon="0.2653920000"><ele>618</ele><time>2026-03-23T09:19:43Z</time></trkpt>
<trkpt lat="43.0372270000" lon="0.2653670000"><ele>618</ele><time>2026-03-23T09:19:45Z</time></trkpt>
<trkpt lat="43.0372370000" lon="0.2653330000"><ele>618</ele><time>2026-03-23T09:19:47Z</time></trkpt>
<trkpt lat="43.0372470000" lon="0.2653100000"><ele>618</ele><time>2026-03-23T09:19:49Z</time></trkpt>
<trkpt lat="43.0372600000" lon="0.2652830000"><ele>618</ele><time>2026-03-23T09:19:51Z</time></trkpt>
<trkpt lat="43.0372700000" lon="0.2652570000"><ele>618</ele><time>2026-03-23T09:19:53Z</time></trkpt>
<trkpt lat="43.0372820000" lon="0.2652270000"><ele>619</ele><time>2026-03-23T09:19:55Z</time></trkpt>
<trkpt lat="43.0372920000" lon="0.2651980000"><ele>619</ele><time>2026-03-23T09:19:57Z</time></trkpt>
<trkpt lat="43.0373020000" lon="0.2651700000"><ele>619</ele><time>2026-03-23T09:19:59Z</time></trkpt>
<trkpt lat="43.0373120000" lon="0.2651420000"><ele>619</ele><time>2026-03-23T09:20:01Z</time></trkpt>
<trkpt lat="43.0373220000" lon="0.2651170000"><ele>619</ele><time>2026-03-23T09:20:03Z</time></trkpt>
<trkpt lat="43.0373320000" lon="0.2650900000"><ele>619</ele><time>2026-03-23T09:20:05Z</time></trkpt>
<trkpt lat="43.0373370000" lon="0.2650670000"><ele>619</ele><time>2026-03-23T09:20:07Z</time></trkpt>
<trkpt lat="43.0373450000" lon="0.2650420000"><ele>619</ele><time>2026-03-23T09:20:09Z</time></trkpt>
<trkpt lat="43.0373470000" lon="0.2650130000"><ele>619</ele><time>2026-03-23T09:20:11Z</time></trkpt>
<trkpt lat="43.0373500000" lon="0.2649870000"><ele>619</ele><time>2026-03-23T09:20:13Z</time></trkpt>
<trkpt lat="43.0373520000" lon="0.2649620000"><ele>619</ele><time>2026-03-23T09:20:15Z</time></trkpt>
<trkpt lat="43.0373550000" lon="0.2649370000"><ele>619</ele><time>2026-03-23T09:20:17Z</time></trkpt>
<trkpt lat="43.0373570000" lon="0.2649120000"><ele>619</ele><time>2026-03-23T09:20:19Z</time></trkpt>
<trkpt lat="43.0373570000" lon="0.2648770000"><ele>619</ele><time>2026-03-23T09:20:22Z</time></trkpt>
<trkpt lat="43.0373570000" lon="0.2648470000"><ele>619</ele><time>2026-03-23T09:20:25Z</time></trkpt>
<trkpt lat="43.0373670000" lon="0.2648670000"><ele>620</ele><time>2026-03-23T09:20:41Z</time></trkpt>
<trkpt lat="43.0373870000" lon="0.2648750000"><ele>619</ele><time>2026-03-23T09:20:47Z</time></trkpt>
<trkpt lat="43.0374150000" lon="0.2648820000"><ele>619</ele><time>2026-03-23T09:20:49Z</time></trkpt>
<trkpt lat="43.0374420000" lon="0.2648970000"><ele>619</ele><time>2026-03-23T09:20:51Z</time></trkpt>
<trkpt lat="43.0374600000" lon="0.2649150000"><ele>619</ele><time>2026-03-23T09:20:53Z</time></trkpt>
<trkpt lat="43.0374770000" lon="0.2649180000"><ele>619</ele><time>2026-03-23T09:20:56Z</time></trkpt>
<trkpt lat="43.0374970000" lon="0.2649080000"><ele>618</ele><time>2026-03-23T09:21:58Z</time></trkpt>
<trkpt lat="43.0374750000" lon="0.2649050000"><ele>618</ele><time>2026-03-23T09:22:09Z</time></trkpt>
<trkpt lat="43.0374420000" lon="0.2648970000"><ele>618</ele><time>2026-03-23T09:22:11Z</time></trkpt>
<trkpt lat="43.0374220000" lon="0.2648920000"><ele>619</ele><time>2026-03-23T09:22:12Z</time></trkpt>
<trkpt lat="43.0373900000" lon="0.2648820000"><ele>619</ele><time>2026-03-23T09:22:14Z</time></trkpt>
<trkpt lat="43.0373620000" lon="0.2648720000"><ele>619</ele><time>2026-03-23T09:22:16Z</time></trkpt>
<trkpt lat="43.0373370000" lon="0.2648620000"><ele>619</ele><time>2026-03-23T09:22:18Z</time></trkpt>
<trkpt lat="43.0373170000" lon="0.2648520000"><ele>619</ele><time>2026-03-23T09:22:20Z</time></trkpt>
<trkpt lat="43.0372870000" lon="0.2648470000"><ele>619</ele><time>2026-03-23T09:22:23Z</time></trkpt>
<trkpt lat="43.0372670000" lon="0.2648400000"><ele>620</ele><time>2026-03-23T09:22:25Z</time></trkpt>
<trkpt lat="43.0372450000" lon="0.2648400000"><ele>620</ele><time>2026-03-23T09:22:27Z</time></trkpt>
<trkpt lat="43.0372220000" lon="0.2648450000"><ele>620</ele><time>2026-03-23T09:22:29Z</time></trkpt>
<trkpt lat="43.0372020000" lon="0.2648450000"><ele>620</ele><time>2026-03-23T09:22:31Z</time></trkpt>
<trkpt lat="43.0371820000" lon="0.2648470000"><ele>621</ele><time>2026-03-23T09:22:33Z</time></trkpt>
<trkpt lat="43.0371620000" lon="0.2648520000"><ele>621</ele><time>2026-03-23T09:22:35Z</time></trkpt>
<trkpt lat="43.0371420000" lon="0.2648570000"><ele>621</ele><time>2026-03-23T09:22:37Z</time></trkpt>
<trkpt lat="43.0371200000" lon="0.2648670000"><ele>622</ele><time>2026-03-23T09:22:39Z</time></trkpt>
<trkpt lat="43.0371000000" lon="0.2648720000"><ele>622</ele><time>2026-03-23T09:22:41Z</time></trkpt>
<trkpt lat="43.0370800000" lon="0.2648820000"><ele>622</ele><time>2026-03-23T09:22:43Z</time></trkpt>
<trkpt lat="43.0370600000" lon="0.2648920000"><ele>622</ele><time>2026-03-23T09:22:45Z</time></trkpt>
<trkpt lat="43.0370400000" lon="0.2649070000"><ele>622</ele><time>2026-03-23T09:22:47Z</time></trkpt>
<trkpt lat="43.0370180000" lon="0.2649270000"><ele>622</ele><time>2026-03-23T09:22:49Z</time></trkpt>
<trkpt lat="43.0370000000" lon="0.2649370000"><ele>622</ele><time>2026-03-23T09:22:51Z</time></trkpt>
<trkpt lat="43.0369770000" lon="0.2649520000"><ele>622</ele><time>2026-03-23T09:22:53Z</time></trkpt>
<trkpt lat="43.0369570000" lon="0.2649650000"><ele>622</ele><time>2026-03-23T09:22:55Z</time></trkpt>
<trkpt lat="43.0369400000" lon="0.2649720000"><ele>622</ele><time>2026-03-23T09:22:57Z</time></trkpt>
<trkpt lat="43.0369170000" lon="0.2649770000"><ele>622</ele><time>2026-03-23T09:23:00Z</time></trkpt>
<trkpt lat="43.0368920000" lon="0.2649850000"><ele>622</ele><time>2026-03-23T09:23:02Z</time></trkpt>
<trkpt lat="43.0368720000" lon="0.2649900000"><ele>622</ele><time>2026-03-23T09:23:04Z</time></trkpt>
<trkpt lat="43.0368500000" lon="0.2649970000"><ele>622</ele><time>2026-03-23T09:23:06Z</time></trkpt>
<trkpt lat="43.0368300000" lon="0.2650030000"><ele>622</ele><time>2026-03-23T09:23:08Z</time></trkpt>
<trkpt lat="43.0368100000" lon="0.2650120000"><ele>623</ele><time>2026-03-23T09:23:10Z</time></trkpt>
<trkpt lat="43.0367850000" lon="0.2650170000"><ele>623</ele><time>2026-03-23T09:23:13Z</time></trkpt>
<trkpt lat="43.0367670000" lon="0.2650170000"><ele>623</ele><time>2026-03-23T09:23:15Z</time></trkpt>
<trkpt lat="43.0367470000" lon="0.2650220000"><ele>623</ele><time>2026-03-23T09:23:17Z</time></trkpt>
<trkpt lat="43.0367270000" lon="0.2650320000"><ele>624</ele><time>2026-03-23T09:23:19Z</time></trkpt>
<trkpt lat="43.0367100000" lon="0.2650350000"><ele>624</ele><time>2026-03-23T09:23:21Z</time></trkpt>
<trkpt lat="43.0366900000" lon="0.2650300000"><ele>624</ele><time>2026-03-23T09:23:23Z</time></trkpt>
<trkpt lat="43.0366670000" lon="0.2650130000"><ele>625</ele><time>2026-03-23T09:23:26Z</time></trkpt>
<trkpt lat="43.0366470000" lon="0.2650000000"><ele>625</ele><time>2026-03-23T09:23:29Z</time></trkpt>
<trkpt lat="43.0366320000" lon="0.2649900000"><ele>625</ele><time>2026-03-23T09:23:31Z</time></trkpt>
<trkpt lat="43.0366100000" lon="0.2649820000"><ele>626</ele><time>2026-03-23T09:23:35Z</time></trkpt>
<trkpt lat="43.0365870000" lon="0.2649720000"><ele>627</ele><time>2026-03-23T09:23:39Z</time></trkpt>
<trkpt lat="43.0365650000" lon="0.2649580000"><ele>627</ele><time>2026-03-23T09:23:43Z</time></trkpt>
<trkpt lat="43.0365450000" lon="0.2649470000"><ele>628</ele><time>2026-03-23T09:23:47Z</time></trkpt>
<trkpt lat="43.0365270000" lon="0.2649370000"><ele>629</ele><time>2026-03-23T09:23:50Z</time></trkpt>
<trkpt lat="43.0365120000" lon="0.2649270000"><ele>629</ele><time>2026-03-23T09:23:54Z</time></trkpt>
<trkpt lat="43.0364950000" lon="0.2649120000"><ele>630</ele><time>2026-03-23T09:23:58Z</time></trkpt>
<trkpt lat="43.0364770000" lon="0.2649020000"><ele>630</ele><time>2026-03-23T09:24:02Z</time></trkpt>
<trkpt lat="43.0364600000" lon="0.2648850000"><ele>631</ele><time>2026-03-23T09:24:06Z</time></trkpt>
<trkpt lat="43.0364400000" lon="0.2648680000"><ele>631</ele><time>2026-03-23T09:24:10Z</time></trkpt>
<trkpt lat="43.0364220000" lon="0.2648570000"><ele>632</ele><time>2026-03-23T09:24:14Z</time></trkpt>
<trkpt lat="43.0364020000" lon="0.2648520000"><ele>632</ele><time>2026-03-23T09:24:18Z</time></trkpt>
<trkpt lat="43.0363870000" lon="0.2648370000"><ele>633</ele><time>2026-03-23T09:24:23Z</time></trkpt>
<trkpt lat="43.0363670000" lon="0.2648400000"><ele>634</ele><time>2026-03-23T09:24:27Z</time></trkpt>
<trkpt lat="43.0363500000" lon="0.2648370000"><ele>634</ele><time>2026-03-23T09:24:32Z</time></trkpt>
<trkpt lat="43.0363300000" lon="0.2648220000"><ele>635</ele><time>2026-03-23T09:25:00Z</time></trkpt>
<trkpt lat="43.0363050000" lon="0.2648170000"><ele>635</ele><time>2026-03-23T09:25:02Z</time></trkpt>
<trkpt lat="43.0362870000" lon="0.2648100000"><ele>636</ele><time>2026-03-23T09:25:04Z</time></trkpt>
<trkpt lat="43.0362670000" lon="0.2648020000"><ele>636</ele><time>2026-03-23T09:25:07Z</time></trkpt>
<trkpt lat="43.0362470000" lon="0.2647970000"><ele>637</ele><time>2026-03-23T09:25:10Z</time></trkpt>
<trkpt lat="43.0362220000" lon="0.2647870000"><ele>637</ele><time>2026-03-23T09:25:13Z</time></trkpt>
<trkpt lat="43.0361970000" lon="0.2647820000"><ele>638</ele><time>2026-03-23T09:25:16Z</time></trkpt>
<trkpt lat="43.0361770000" lon="0.2647700000"><ele>638</ele><time>2026-03-23T09:25:19Z</time></trkpt>
<trkpt lat="43.0361600000" lon="0.2647630000"><ele>638</ele><time>2026-03-23T09:25:21Z</time></trkpt>
<trkpt lat="43.0361350000" lon="0.2647570000"><ele>639</ele><time>2026-03-23T09:25:24Z</time></trkpt>
<trkpt lat="43.0361170000" lon="0.2647500000"><ele>639</ele><time>2026-03-23T09:25:26Z</time></trkpt>
<trkpt lat="43.0360920000" lon="0.2647550000"><ele>639</ele><time>2026-03-23T09:25:28Z</time></trkpt>
<trkpt lat="43.0360720000" lon="0.2647500000"><ele>640</ele><time>2026-03-23T09:25:30Z</time></trkpt>
<trkpt lat="43.0360470000" lon="0.2647470000"><ele>640</ele><time>2026-03-23T09:25:33Z</time></trkpt>
<trkpt lat="43.0360270000" lon="0.2647470000"><ele>640</ele><time>2026-03-23T09:25:35Z</time></trkpt>
<trkpt lat="43.0360070000" lon="0.2647420000"><ele>641</ele><time>2026-03-23T09:26:03Z</time></trkpt>
<trkpt lat="43.0359770000" lon="0.2647470000"><ele>641</ele><time>2026-03-23T09:26:06Z</time></trkpt>
<trkpt lat="43.0359470000" lon="0.2647450000"><ele>641</ele><time>2026-03-23T09:26:08Z</time></trkpt>
<trkpt lat="43.0359250000" lon="0.2647420000"><ele>641</ele><time>2026-03-23T09:26:10Z</time></trkpt>
<trkpt lat="43.0359000000" lon="0.2647330000"><ele>642</ele><time>2026-03-23T09:26:13Z</time></trkpt>
<trkpt lat="43.0358770000" lon="0.2647320000"><ele>642</ele><time>2026-03-23T09:26:16Z</time></trkpt>
<trkpt lat="43.0358570000" lon="0.2647270000"><ele>643</ele><time>2026-03-23T09:26:34Z</time></trkpt>
<trkpt lat="43.0358350000" lon="0.2647270000"><ele>643</ele><time>2026-03-23T09:26:36Z</time></trkpt>
<trkpt lat="43.0358170000" lon="0.2647230000"><ele>644</ele><time>2026-03-23T09:26:38Z</time></trkpt>
<trkpt lat="43.0357970000" lon="0.2647230000"><ele>644</ele><time>2026-03-23T09:26:40Z</time></trkpt>
<trkpt lat="43.0357770000" lon="0.2647220000"><ele>645</ele><time>2026-03-23T09:26:42Z</time></trkpt>
<trkpt lat="43.0357570000" lon="0.2647200000"><ele>645</ele><time>2026-03-23T09:26:44Z</time></trkpt>
<trkpt lat="43.0357300000" lon="0.2647170000"><ele>646</ele><time>2026-03-23T09:26:47Z</time></trkpt>
<trkpt lat="43.0357120000" lon="0.2647170000"><ele>646</ele><time>2026-03-23T09:26:49Z</time></trkpt>
<trkpt lat="43.0356850000" lon="0.2647120000"><ele>647</ele><time>2026-03-23T09:26:52Z</time></trkpt>
<trkpt lat="43.0356650000" lon="0.2647070000"><ele>647</ele><time>2026-03-23T09:26:54Z</time></trkpt>
<trkpt lat="43.0356450000" lon="0.2647070000"><ele>647</ele><time>2026-03-23T09:26:56Z</time></trkpt>
<trkpt lat="43.0356270000" lon="0.2647100000"><ele>648</ele><time>2026-03-23T09:26:58Z</time></trkpt>
<trkpt lat="43.0356070000" lon="0.2647320000"><ele>648</ele><time>2026-03-23T09:27:01Z</time></trkpt>
<trkpt lat="43.0355820000" lon="0.2647470000"><ele>649</ele><time>2026-03-23T09:27:04Z</time></trkpt>
<trkpt lat="43.0355650000" lon="0.2647600000"><ele>649</ele><time>2026-03-23T09:27:06Z</time></trkpt>
<trkpt lat="43.0355420000" lon="0.2647800000"><ele>649</ele><time>2026-03-23T09:27:09Z</time></trkpt>
<trkpt lat="43.0355200000" lon="0.2647970000"><ele>650</ele><time>2026-03-23T09:27:12Z</time></trkpt>
<trkpt lat="43.0354970000" lon="0.2648120000"><ele>650</ele><time>2026-03-23T09:27:15Z</time></trkpt>
<trkpt lat="43.0354720000" lon="0.2648220000"><ele>650</ele><time>2026-03-23T09:27:18Z</time></trkpt>
<trkpt lat="43.0354520000" lon="0.2648300000"><ele>650</ele><time>2026-03-23T09:27:20Z</time></trkpt>
<trkpt lat="43.0354320000" lon="0.2648370000"><ele>650</ele><time>2026-03-23T09:27:22Z</time></trkpt>
<trkpt lat="43.0354150000" lon="0.2648420000"><ele>650</ele><time>2026-03-23T09:27:24Z</time></trkpt>
<trkpt lat="43.0353970000" lon="0.2648480000"><ele>650</ele><time>2026-03-23T09:27:26Z</time></trkpt>
<trkpt lat="43.0353770000" lon="0.2648580000"><ele>650</ele><time>2026-03-23T09:27:28Z</time></trkpt>
<trkpt lat="43.0353570000" lon="0.2648650000"><ele>650</ele><time>2026-03-23T09:27:30Z</time></trkpt>
<trkpt lat="43.0353370000" lon="0.2648720000"><ele>650</ele><time>2026-03-23T09:27:32Z</time></trkpt>
<trkpt lat="43.0353170000" lon="0.2648820000"><ele>650</ele><time>2026-03-23T09:27:34Z</time></trkpt>
<trkpt lat="43.0352970000" lon="0.2648870000"><ele>650</ele><time>2026-03-23T09:27:36Z</time></trkpt>
<trkpt lat="43.0352800000" lon="0.2648950000"><ele>650</ele><time>2026-03-23T09:27:38Z</time></trkpt>
<trkpt lat="43.0352550000" lon="0.2649070000"><ele>650</ele><time>2026-03-23T09:27:41Z</time></trkpt>
<trkpt lat="43.0352370000" lon="0.2649150000"><ele>650</ele><time>2026-03-23T09:27:43Z</time></trkpt>
<trkpt lat="43.0352200000" lon="0.2649250000"><ele>651</ele><time>2026-03-23T09:27:45Z</time></trkpt>
<trkpt lat="43.0352020000" lon="0.2649320000"><ele>651</ele><time>2026-03-23T09:27:47Z</time></trkpt>
<trkpt lat="43.0351800000" lon="0.2649470000"><ele>651</ele><time>2026-03-23T09:27:49Z</time></trkpt>
<trkpt lat="43.0351570000" lon="0.2649580000"><ele>651</ele><time>2026-03-23T09:27:51Z</time></trkpt>
<trkpt lat="43.0351370000" lon="0.2649680000"><ele>651</ele><time>2026-03-23T09:27:53Z</time></trkpt>
<trkpt lat="43.0351200000" lon="0.2649720000"><ele>651</ele><time>2026-03-23T09:27:55Z</time></trkpt>
<trkpt lat="43.0351000000" lon="0.2649720000"><ele>651</ele><time>2026-03-23T09:27:57Z</time></trkpt>
<trkpt lat="43.0350800000" lon="0.2649820000"><ele>651</ele><time>2026-03-23T09:27:59Z</time></trkpt>
<trkpt lat="43.0350600000" lon="0.2649970000"><ele>651</ele><time>2026-03-23T09:28:01Z</time></trkpt>
<trkpt lat="43.0350350000" lon="0.2650120000"><ele>651</ele><time>2026-03-23T09:28:03Z</time></trkpt>
<trkpt lat="43.0350150000" lon="0.2650100000"><ele>651</ele><time>2026-03-23T09:28:05Z</time></trkpt>
<trkpt lat="43.0349970000" lon="0.2649970000"><ele>651</ele><time>2026-03-23T09:28:07Z</time></trkpt>
<trkpt lat="43.0349900000" lon="0.2649680000"><ele>652</ele><time>2026-03-23T09:28:22Z</time></trkpt>
<trkpt lat="43.0349770000" lon="0.2649470000"><ele>652</ele><time>2026-03-23T09:28:24Z</time></trkpt>
<trkpt lat="43.0349520000" lon="0.2649320000"><ele>653</ele><time>2026-03-23T09:28:26Z</time></trkpt>
<trkpt lat="43.0349420000" lon="0.2649070000"><ele>653</ele><time>2026-03-23T09:28:34Z</time></trkpt>
<trkpt lat="43.0349370000" lon="0.2648820000"><ele>654</ele><time>2026-03-23T09:28:51Z</time></trkpt>
<trkpt lat="43.0349170000" lon="0.2648570000"><ele>655</ele><time>2026-03-23T09:28:53Z</time></trkpt>
<trkpt lat="43.0348900000" lon="0.2648320000"><ele>655</ele><time>2026-03-23T09:28:55Z</time></trkpt>
<trkpt lat="43.0348700000" lon="0.2648170000"><ele>655</ele><time>2026-03-23T09:28:57Z</time></trkpt>
<trkpt lat="43.0348500000" lon="0.2648150000"><ele>655</ele><time>2026-03-23T09:29:00Z</time></trkpt>
<trkpt lat="43.0348270000" lon="0.2648270000"><ele>656</ele><time>2026-03-23T09:29:04Z</time></trkpt>
<trkpt lat="43.0348120000" lon="0.2648400000"><ele>656</ele><time>2026-03-23T09:29:07Z</time></trkpt>
<trkpt lat="43.0347920000" lon="0.2648470000"><ele>657</ele><time>2026-03-23T09:29:10Z</time></trkpt>
<trkpt lat="43.0347720000" lon="0.2648470000"><ele>657</ele><time>2026-03-23T09:29:13Z</time></trkpt>
<trkpt lat="43.0347530000" lon="0.2648450000"><ele>657</ele><time>2026-03-23T09:29:16Z</time></trkpt>
<trkpt lat="43.0347320000" lon="0.2648370000"><ele>658</ele><time>2026-03-23T09:29:21Z</time></trkpt>
<trkpt lat="43.0347170000" lon="0.2648200000"><ele>659</ele><time>2026-03-23T09:29:25Z</time></trkpt>
<trkpt lat="43.0347070000" lon="0.2647950000"><ele>659</ele><time>2026-03-23T09:29:28Z</time></trkpt>
<trkpt lat="43.0346850000" lon="0.2647870000"><ele>659</ele><time>2026-03-23T09:29:32Z</time></trkpt>
<trkpt lat="43.0346670000" lon="0.2648070000"><ele>660</ele><time>2026-03-23T09:29:35Z</time></trkpt>
<trkpt lat="43.0346500000" lon="0.2648370000"><ele>660</ele><time>2026-03-23T09:29:38Z</time></trkpt>
<trkpt lat="43.0346320000" lon="0.2648520000"><ele>661</ele><time>2026-03-23T09:29:41Z</time></trkpt>
<trkpt lat="43.0346150000" lon="0.2648520000"><ele>661</ele><time>2026-03-23T09:29:44Z</time></trkpt>
<trkpt lat="43.0346020000" lon="0.2648320000"><ele>661</ele><time>2026-03-23T09:29:47Z</time></trkpt>
<trkpt lat="43.0345900000" lon="0.2648150000"><ele>662</ele><time>2026-03-23T09:29:50Z</time></trkpt>
<trkpt lat="43.0345750000" lon="0.2647950000"><ele>663</ele><time>2026-03-23T09:29:55Z</time></trkpt>
<trkpt lat="43.0345550000" lon="0.2647870000"><ele>663</ele><time>2026-03-23T09:29:59Z</time></trkpt>
<trkpt lat="43.0345370000" lon="0.2648020000"><ele>664</ele><time>2026-03-23T09:30:03Z</time></trkpt>
<trkpt lat="43.0345170000" lon="0.2648220000"><ele>664</ele><time>2026-03-23T09:30:06Z</time></trkpt>
<trkpt lat="43.0345000000" lon="0.2648420000"><ele>665</ele><time>2026-03-23T09:30:10Z</time></trkpt>
<trkpt lat="43.0344750000" lon="0.2648470000"><ele>665</ele><time>2026-03-23T09:30:13Z</time></trkpt>
<trkpt lat="43.0344520000" lon="0.2648480000"><ele>665</ele><time>2026-03-23T09:30:16Z</time></trkpt>
<trkpt lat="43.0344320000" lon="0.2648400000"><ele>665</ele><time>2026-03-23T09:30:19Z</time></trkpt>
<trkpt lat="43.0344150000" lon="0.2648320000"><ele>666</ele><time>2026-03-23T09:30:22Z</time></trkpt>
<trkpt lat="43.0343970000" lon="0.2648200000"><ele>666</ele><time>2026-03-23T09:30:25Z</time></trkpt>
<trkpt lat="43.0343770000" lon="0.2648070000"><ele>667</ele><time>2026-03-23T09:30:29Z</time></trkpt>
<trkpt lat="43.0343550000" lon="0.2648100000"><ele>667</ele><time>2026-03-23T09:30:32Z</time></trkpt>
<trkpt lat="43.0343320000" lon="0.2648170000"><ele>668</ele><time>2026-03-23T09:30:36Z</time></trkpt>
<trkpt lat="43.0343120000" lon="0.2648070000"><ele>668</ele><time>2026-03-23T09:30:39Z</time></trkpt>
<trkpt lat="43.0342920000" lon="0.2647970000"><ele>668</ele><time>2026-03-23T09:30:42Z</time></trkpt>
<trkpt lat="43.0342670000" lon="0.2647950000"><ele>668</ele><time>2026-03-23T09:30:45Z</time></trkpt>
<trkpt lat="43.0342470000" lon="0.2648070000"><ele>668</ele><time>2026-03-23T09:30:47Z</time></trkpt>
<trkpt lat="43.0342320000" lon="0.2648270000"><ele>668</ele><time>2026-03-23T09:30:49Z</time></trkpt>
<trkpt lat="43.0342120000" lon="0.2648520000"><ele>668</ele><time>2026-03-23T09:30:51Z</time></trkpt>
<trkpt lat="43.0341950000" lon="0.2648720000"><ele>668</ele><time>2026-03-23T09:30:53Z</time></trkpt>
<trkpt lat="43.0341750000" lon="0.2648870000"><ele>669</ele><time>2026-03-23T09:30:55Z</time></trkpt>
<trkpt lat="43.0341520000" lon="0.2648970000"><ele>669</ele><time>2026-03-23T09:30:58Z</time></trkpt>
<trkpt lat="43.0341320000" lon="0.2649070000"><ele>669</ele><time>2026-03-23T09:31:01Z</time></trkpt>
<trkpt lat="43.0341120000" lon="0.2649270000"><ele>669</ele><time>2026-03-23T09:31:05Z</time></trkpt>
<trkpt lat="43.0340870000" lon="0.2649370000"><ele>670</ele><time>2026-03-23T09:31:08Z</time></trkpt>
<trkpt lat="43.0340630000" lon="0.2649320000"><ele>670</ele><time>2026-03-23T09:31:11Z</time></trkpt>
<trkpt lat="43.0340450000" lon="0.2649270000"><ele>670</ele><time>2026-03-23T09:31:14Z</time></trkpt>
<trkpt lat="43.0340270000" lon="0.2649270000"><ele>671</ele><time>2026-03-23T09:31:17Z</time></trkpt>
<trkpt lat="43.0340070000" lon="0.2649300000"><ele>671</ele><time>2026-03-23T09:31:21Z</time></trkpt>
<trkpt lat="43.0339870000" lon="0.2649320000"><ele>672</ele><time>2026-03-23T09:31:26Z</time></trkpt>
<trkpt lat="43.0339670000" lon="0.2649370000"><ele>672</ele><time>2026-03-23T09:31:29Z</time></trkpt>
<trkpt lat="43.0339470000" lon="0.2649500000"><ele>672</ele><time>2026-03-23T09:31:33Z</time></trkpt>
<trkpt lat="43.0339270000" lon="0.2649620000"><ele>673</ele><time>2026-03-23T09:31:36Z</time></trkpt>
<trkpt lat="43.0339070000" lon="0.2649650000"><ele>673</ele><time>2026-03-23T09:31:39Z</time></trkpt>
<trkpt lat="43.0338870000" lon="0.2649620000"><ele>673</ele><time>2026-03-23T09:31:42Z</time></trkpt>
<trkpt lat="43.0338670000" lon="0.2649720000"><ele>674</ele><time>2026-03-23T09:31:47Z</time></trkpt>
<trkpt lat="43.0338470000" lon="0.2649750000"><ele>675</ele><time>2026-03-23T09:31:51Z</time></trkpt>
<trkpt lat="43.0338370000" lon="0.2649520000"><ele>675</ele><time>2026-03-23T09:31:55Z</time></trkpt>
<trkpt lat="43.0338200000" lon="0.2649320000"><ele>675</ele><time>2026-03-23T09:32:00Z</time></trkpt>
<trkpt lat="43.0338020000" lon="0.2649520000"><ele>676</ele><time>2026-03-23T09:32:05Z</time></trkpt>
<trkpt lat="43.0337870000" lon="0.2649750000"><ele>677</ele><time>2026-03-23T09:32:07Z</time></trkpt>
<trkpt lat="43.0337670000" lon="0.2649920000"><ele>677</ele><time>2026-03-23T09:32:09Z</time></trkpt>
<trkpt lat="43.0337470000" lon="0.2649920000"><ele>677</ele><time>2026-03-23T09:32:12Z</time></trkpt>
<trkpt lat="43.0337250000" lon="0.2649850000"><ele>678</ele><time>2026-03-23T09:32:16Z</time></trkpt>
<trkpt lat="43.0337050000" lon="0.2649820000"><ele>678</ele><time>2026-03-23T09:32:20Z</time></trkpt>
<trkpt lat="43.0336830000" lon="0.2649930000"><ele>679</ele><time>2026-03-23T09:32:25Z</time></trkpt>
<trkpt lat="43.0336650000" lon="0.2650020000"><ele>679</ele><time>2026-03-23T09:32:29Z</time></trkpt>
<trkpt lat="43.0336450000" lon="0.2650120000"><ele>680</ele><time>2026-03-23T09:32:33Z</time></trkpt>
<trkpt lat="43.0336270000" lon="0.2650170000"><ele>680</ele><time>2026-03-23T09:32:36Z</time></trkpt>
<trkpt lat="43.0336070000" lon="0.2650130000"><ele>681</ele><time>2026-03-23T09:32:39Z</time></trkpt>
<trkpt lat="43.0335850000" lon="0.2650070000"><ele>681</ele><time>2026-03-23T09:32:43Z</time></trkpt>
<trkpt lat="43.0335650000" lon="0.2649970000"><ele>682</ele><time>2026-03-23T09:32:49Z</time></trkpt>
<trkpt lat="43.0335470000" lon="0.2650100000"><ele>683</ele><time>2026-03-23T09:32:54Z</time></trkpt>
<trkpt lat="43.0335200000" lon="0.2649930000"><ele>685</ele><time>2026-03-23T09:33:10Z</time></trkpt>
<trkpt lat="43.0334950000" lon="0.2649800000"><ele>685</ele><time>2026-03-23T09:33:12Z</time></trkpt>
<trkpt lat="43.0334750000" lon="0.2649820000"><ele>686</ele><time>2026-03-23T09:33:15Z</time></trkpt>
<trkpt lat="43.0334580000" lon="0.2650020000"><ele>686</ele><time>2026-03-23T09:33:18Z</time></trkpt>
<trkpt lat="43.0334420000" lon="0.2650120000"><ele>687</ele><time>2026-03-23T09:33:28Z</time></trkpt>
<trkpt lat="43.0334170000" lon="0.2650320000"><ele>688</ele><time>2026-03-23T09:33:31Z</time></trkpt>
<trkpt lat="43.0334020000" lon="0.2650520000"><ele>688</ele><time>2026-03-23T09:33:33Z</time></trkpt>
<trkpt lat="43.0333870000" lon="0.2650750000"><ele>688</ele><time>2026-03-23T09:33:36Z</time></trkpt>
<trkpt lat="43.0333720000" lon="0.2650920000"><ele>689</ele><time>2026-03-23T09:33:39Z</time></trkpt>
<trkpt lat="43.0333200000" lon="0.2650850000"><ele>695</ele><time>2026-03-23T09:37:08Z</time></trkpt>
<trkpt lat="43.0332970000" lon="0.2650870000"><ele>695</ele><time>2026-03-23T09:37:09Z</time></trkpt>
<trkpt lat="43.0332720000" lon="0.2650870000"><ele>695</ele><time>2026-03-23T09:37:10Z</time></trkpt>
<trkpt lat="43.0332470000" lon="0.2650870000"><ele>695</ele><time>2026-03-23T09:37:11Z</time></trkpt>
<trkpt lat="43.0332270000" lon="0.2650900000"><ele>695</ele><time>2026-03-23T09:37:12Z</time></trkpt>
<trkpt lat="43.0332100000" lon="0.2650920000"><ele>695</ele><time>2026-03-23T09:38:33Z</time></trkpt>
<trkpt lat="43.0332020000" lon="0.2650620000"><ele>700</ele><time>2026-03-23T09:44:42Z</time></trkpt>
<trkpt lat="43.0332120000" lon="0.2650420000"><ele>700</ele><time>2026-03-23T09:46:00Z</time></trkpt>
<trkpt lat="43.0331950000" lon="0.2650220000"><ele>700</ele><time>2026-03-23T09:46:05Z</time></trkpt>
<trkpt lat="43.0331900000" lon="0.2649870000"><ele>698</ele><time>2026-03-23T09:46:25Z</time></trkpt>
<trkpt lat="43.0331820000" lon="0.2649400000"><ele>698</ele><time>2026-03-23T09:46:27Z</time></trkpt>
<trkpt lat="43.0331750000" lon="0.2649170000"><ele>698</ele><time>2026-03-23T09:46:28Z</time></trkpt>
<trkpt lat="43.0331620000" lon="0.2648800000"><ele>697</ele><time>2026-03-23T09:46:30Z</time></trkpt>
<trkpt lat="43.0331570000" lon="0.2648550000"><ele>697</ele><time>2026-03-23T09:46:32Z</time></trkpt>
<trkpt lat="43.0331420000" lon="0.2648270000"><ele>697</ele><time>2026-03-23T09:46:35Z</time></trkpt>
<trkpt lat="43.0331220000" lon="0.2648000000"><ele>696</ele><time>2026-03-23T09:46:38Z</time></trkpt>
<trkpt lat="43.0331100000" lon="0.2647730000"><ele>696</ele><time>2026-03-23T09:46:41Z</time></trkpt>
<trkpt lat="43.0330970000" lon="0.2647520000"><ele>695</ele><time>2026-03-23T09:46:45Z</time></trkpt>
<trkpt lat="43.0330820000" lon="0.2647370000"><ele>694</ele><time>2026-03-23T09:46:48Z</time></trkpt>
<trkpt lat="43.0330670000" lon="0.2647220000"><ele>693</ele><time>2026-03-23T09:46:51Z</time></trkpt>
<trkpt lat="43.0330500000" lon="0.2647120000"><ele>693</ele><time>2026-03-23T09:46:54Z</time></trkpt>
<trkpt lat="43.0330350000" lon="0.2646950000"><ele>692</ele><time>2026-03-23T09:46:57Z</time></trkpt>
<trkpt lat="43.0330170000" lon="0.2646770000"><ele>692</ele><time>2026-03-23T09:47:00Z</time></trkpt>
<trkpt lat="43.0330020000" lon="0.2646500000"><ele>691</ele><time>2026-03-23T09:47:03Z</time></trkpt>
<trkpt lat="43.0329820000" lon="0.2646380000"><ele>691</ele><time>2026-03-23T09:47:05Z</time></trkpt>
<trkpt lat="43.0329670000" lon="0.2646220000"><ele>690</ele><time>2026-03-23T09:47:08Z</time></trkpt>
<trkpt lat="43.0329520000" lon="0.2646020000"><ele>689</ele><time>2026-03-23T09:47:11Z</time></trkpt>
<trkpt lat="43.0329370000" lon="0.2645850000"><ele>689</ele><time>2026-03-23T09:47:13Z</time></trkpt>
<trkpt lat="43.0329150000" lon="0.2645720000"><ele>688</ele><time>2026-03-23T09:47:16Z</time></trkpt>
<trkpt lat="43.0328970000" lon="0.2645670000"><ele>687</ele><time>2026-03-23T09:47:18Z</time></trkpt>
<trkpt lat="43.0328770000" lon="0.2645520000"><ele>687</ele><time>2026-03-23T09:47:21Z</time></trkpt>
<trkpt lat="43.0328770000" lon="0.2645220000"><ele>686</ele><time>2026-03-23T09:47:24Z</time></trkpt>
<trkpt lat="43.0328650000" lon="0.2644970000"><ele>685</ele><time>2026-03-23T09:47:27Z</time></trkpt>
<trkpt lat="43.0328400000" lon="0.2644850000"><ele>685</ele><time>2026-03-23T09:47:30Z</time></trkpt>
<trkpt lat="43.0328200000" lon="0.2644800000"><ele>684</ele><time>2026-03-23T09:47:32Z</time></trkpt>
<trkpt lat="43.0328020000" lon="0.2644650000"><ele>684</ele><time>2026-03-23T09:47:34Z</time></trkpt>
<trkpt lat="43.0328050000" lon="0.2644370000"><ele>682</ele><time>2026-03-23T09:47:46Z</time></trkpt>
<trkpt lat="43.0328050000" lon="0.2644080000"><ele>682</ele><time>2026-03-23T09:47:48Z</time></trkpt>
<trkpt lat="43.0327970000" lon="0.2643870000"><ele>681</ele><time>2026-03-23T09:47:51Z</time></trkpt>
<trkpt lat="43.0327820000" lon="0.2643620000"><ele>680</ele><time>2026-03-23T09:47:55Z</time></trkpt>
<trkpt lat="43.0327750000" lon="0.2643400000"><ele>680</ele><time>2026-03-23T09:47:58Z</time></trkpt>
<trkpt lat="43.0327670000" lon="0.2643150000"><ele>680</ele><time>2026-03-23T09:48:01Z</time></trkpt>
<trkpt lat="43.0327570000" lon="0.2642850000"><ele>679</ele><time>2026-03-23T09:48:05Z</time></trkpt>
<trkpt lat="43.0327420000" lon="0.2642620000"><ele>678</ele><time>2026-03-23T09:48:08Z</time></trkpt>
<trkpt lat="43.0327320000" lon="0.2642350000"><ele>677</ele><time>2026-03-23T09:48:11Z</time></trkpt>
<trkpt lat="43.0327270000" lon="0.2642070000"><ele>677</ele><time>2026-03-23T09:48:14Z</time></trkpt>
<trkpt lat="43.0327120000" lon="0.2641800000"><ele>676</ele><time>2026-03-23T09:48:17Z</time></trkpt>
<trkpt lat="43.0327020000" lon="0.2641520000"><ele>675</ele><time>2026-03-23T09:48:20Z</time></trkpt>
<trkpt lat="43.0326820000" lon="0.2641350000"><ele>674</ele><time>2026-03-23T09:48:23Z</time></trkpt>
<trkpt lat="43.0326770000" lon="0.2641000000"><ele>673</ele><time>2026-03-23T09:48:26Z</time></trkpt>
<trkpt lat="43.0326670000" lon="0.2640720000"><ele>673</ele><time>2026-03-23T09:48:29Z</time></trkpt>
<trkpt lat="43.0326520000" lon="0.2640470000"><ele>672</ele><time>2026-03-23T09:48:33Z</time></trkpt>
<trkpt lat="43.0326450000" lon="0.2640180000"><ele>671</ele><time>2026-03-23T09:48:36Z</time></trkpt>
<trkpt lat="43.0326370000" lon="0.2639970000"><ele>670</ele><time>2026-03-23T09:48:39Z</time></trkpt>
<trkpt lat="43.0326170000" lon="0.2639820000"><ele>668</ele><time>2026-03-23T09:48:45Z</time></trkpt>
<trkpt lat="43.0326050000" lon="0.2639650000"><ele>668</ele><time>2026-03-23T09:48:47Z</time></trkpt>
<trkpt lat="43.0325920000" lon="0.2639330000"><ele>667</ele><time>2026-03-23T09:48:50Z</time></trkpt>
<trkpt lat="43.0325820000" lon="0.2639070000"><ele>667</ele><time>2026-03-23T09:48:53Z</time></trkpt>
<trkpt lat="43.0325700000" lon="0.2638770000"><ele>666</ele><time>2026-03-23T09:48:56Z</time></trkpt>
<trkpt lat="43.0325570000" lon="0.2638570000"><ele>665</ele><time>2026-03-23T09:48:59Z</time></trkpt>
<trkpt lat="43.0325420000" lon="0.2638350000"><ele>664</ele><time>2026-03-23T09:49:02Z</time></trkpt>
<trkpt lat="43.0325320000" lon="0.2638120000"><ele>663</ele><time>2026-03-23T09:49:04Z</time></trkpt>
<trkpt lat="43.0325320000" lon="0.2637870000"><ele>663</ele><time>2026-03-23T09:49:06Z</time></trkpt>
<trkpt lat="43.0325320000" lon="0.2637570000"><ele>662</ele><time>2026-03-23T09:49:09Z</time></trkpt>
<trkpt lat="43.0325120000" lon="0.2637380000"><ele>661</ele><time>2026-03-23T09:49:12Z</time></trkpt>
<trkpt lat="43.0325000000" lon="0.2637170000"><ele>660</ele><time>2026-03-23T09:49:15Z</time></trkpt>
<trkpt lat="43.0324900000" lon="0.2636920000"><ele>659</ele><time>2026-03-23T09:49:18Z</time></trkpt>
<trkpt lat="43.0324820000" lon="0.2636600000"><ele>658</ele><time>2026-03-23T09:49:21Z</time></trkpt>
<trkpt lat="43.0324770000" lon="0.2636320000"><ele>657</ele><time>2026-03-23T09:49:24Z</time></trkpt>
<trkpt lat="43.0324670000" lon="0.2636020000"><ele>656</ele><time>2026-03-23T09:49:27Z</time></trkpt>
<trkpt lat="43.0324670000" lon="0.2635700000"><ele>656</ele><time>2026-03-23T09:49:30Z</time></trkpt>
<trkpt lat="43.0324670000" lon="0.2635350000"><ele>655</ele><time>2026-03-23T09:49:33Z</time></trkpt>
<trkpt lat="43.0324570000" lon="0.2635100000"><ele>654</ele><time>2026-03-23T09:49:36Z</time></trkpt>
<trkpt lat="43.0324400000" lon="0.2635000000"><ele>653</ele><time>2026-03-23T09:49:38Z</time></trkpt>
<trkpt lat="43.0324220000" lon="0.2634750000"><ele>652</ele><time>2026-03-23T09:49:41Z</time></trkpt>
<trkpt lat="43.0324100000" lon="0.2634470000"><ele>651</ele><time>2026-03-23T09:49:44Z</time></trkpt>
<trkpt lat="43.0323970000" lon="0.2634170000"><ele>651</ele><time>2026-03-23T09:49:47Z</time></trkpt>
<trkpt lat="43.0324020000" lon="0.2633920000"><ele>650</ele><time>2026-03-23T09:49:51Z</time></trkpt>
<trkpt lat="43.0323920000" lon="0.2633620000"><ele>648</ele><time>2026-03-23T09:49:55Z</time></trkpt>
<trkpt lat="43.0323770000" lon="0.2633420000"><ele>648</ele><time>2026-03-23T09:49:57Z</time></trkpt>
<trkpt lat="43.0323600000" lon="0.2633300000"><ele>647</ele><time>2026-03-23T09:49:59Z</time></trkpt>
<trkpt lat="43.0323400000" lon="0.2633070000"><ele>647</ele><time>2026-03-23T09:50:02Z</time></trkpt>
<trkpt lat="43.0323270000" lon="0.2632770000"><ele>646</ele><time>2026-03-23T09:50:05Z</time></trkpt>
<trkpt lat="43.0323100000" lon="0.2632620000"><ele>646</ele><time>2026-03-23T09:50:08Z</time></trkpt>
<trkpt lat="43.0322950000" lon="0.2632470000"><ele>645</ele><time>2026-03-23T09:50:10Z</time></trkpt>
<trkpt lat="43.0322800000" lon="0.2632300000"><ele>645</ele><time>2026-03-23T09:50:12Z</time></trkpt>
<trkpt lat="43.0322620000" lon="0.2632050000"><ele>644</ele><time>2026-03-23T09:50:15Z</time></trkpt>
<trkpt lat="43.0322520000" lon="0.2631820000"><ele>643</ele><time>2026-03-23T09:50:17Z</time></trkpt>
<trkpt lat="43.0322420000" lon="0.2631600000"><ele>643</ele><time>2026-03-23T09:50:19Z</time></trkpt>
<trkpt lat="43.0322270000" lon="0.2631420000"><ele>641</ele><time>2026-03-23T09:50:44Z</time></trkpt>
<trkpt lat="43.0322020000" lon="0.2631120000"><ele>641</ele><time>2026-03-23T09:50:46Z</time></trkpt>
<trkpt lat="43.0321850000" lon="0.2630800000"><ele>641</ele><time>2026-03-23T09:50:48Z</time></trkpt>
<trkpt lat="43.0321720000" lon="0.2630570000"><ele>640</ele><time>2026-03-23T09:50:50Z</time></trkpt>
<trkpt lat="43.0321570000" lon="0.2630300000"><ele>640</ele><time>2026-03-23T09:50:53Z</time></trkpt>
<trkpt lat="43.0321550000" lon="0.2630050000"><ele>640</ele><time>2026-03-23T09:50:55Z</time></trkpt>
<trkpt lat="43.0321520000" lon="0.2629770000"><ele>639</ele><time>2026-03-23T09:50:58Z</time></trkpt>
<trkpt lat="43.0321420000" lon="0.2629450000"><ele>639</ele><time>2026-03-23T09:51:01Z</time></trkpt>
<trkpt lat="43.0321420000" lon="0.2629150000"><ele>638</ele><time>2026-03-23T09:51:04Z</time></trkpt>
<trkpt lat="43.0321350000" lon="0.2628920000"><ele>638</ele><time>2026-03-23T09:51:07Z</time></trkpt>
<trkpt lat="43.0321200000" lon="0.2628750000"><ele>637</ele><time>2026-03-23T09:51:09Z</time></trkpt>
<trkpt lat="43.0321000000" lon="0.2628670000"><ele>637</ele><time>2026-03-23T09:51:11Z</time></trkpt>
<trkpt lat="43.0320720000" lon="0.2628750000"><ele>637</ele><time>2026-03-23T09:51:13Z</time></trkpt>
<trkpt lat="43.0320570000" lon="0.2628830000"><ele>636</ele><time>2026-03-23T09:51:15Z</time></trkpt>
<trkpt lat="43.0320400000" lon="0.2628950000"><ele>636</ele><time>2026-03-23T09:51:17Z</time></trkpt>
<trkpt lat="43.0320200000" lon="0.2629050000"><ele>636</ele><time>2026-03-23T09:51:19Z</time></trkpt>
<trkpt lat="43.0320000000" lon="0.2629170000"><ele>636</ele><time>2026-03-23T09:51:21Z</time></trkpt>
<trkpt lat="43.0319870000" lon="0.2629370000"><ele>636</ele><time>2026-03-23T09:51:23Z</time></trkpt>
<trkpt lat="43.0319670000" lon="0.2629280000"><ele>635</ele><time>2026-03-23T09:51:41Z</time></trkpt>
<trkpt lat="43.0319500000" lon="0.2629020000"><ele>635</ele><time>2026-03-23T09:51:43Z</time></trkpt>
<trkpt lat="43.0319450000" lon="0.2628700000"><ele>635</ele><time>2026-03-23T09:51:45Z</time></trkpt>
<trkpt lat="43.0319500000" lon="0.2628320000"><ele>635</ele><time>2026-03-23T09:51:47Z</time></trkpt>
<trkpt lat="43.0319570000" lon="0.2628000000"><ele>635</ele><time>2026-03-23T09:51:50Z</time></trkpt>
<trkpt lat="43.0319670000" lon="0.2627720000"><ele>635</ele><time>2026-03-23T09:51:52Z</time></trkpt>
<trkpt lat="43.0319820000" lon="0.2627480000"><ele>634</ele><time>2026-03-23T09:51:56Z</time></trkpt>
<trkpt lat="43.0319820000" lon="0.2627250000"><ele>634</ele><time>2026-03-23T09:52:24Z</time></trkpt>
<trkpt lat="43.0319800000" lon="0.2627600000"><ele>634</ele><time>2026-03-23T09:52:41Z</time></trkpt>
<trkpt lat="43.0319550000" lon="0.2627370000"><ele>634</ele><time>2026-03-23T09:53:09Z</time></trkpt>
<trkpt lat="43.0319320000" lon="0.2627220000"><ele>634</ele><time>2026-03-23T09:53:11Z</time></trkpt>
<trkpt lat="43.0319070000" lon="0.2627150000"><ele>634</ele><time>2026-03-23T09:53:13Z</time></trkpt>
<trkpt lat="43.0318870000" lon="0.2626980000"><ele>634</ele><time>2026-03-23T09:53:15Z</time></trkpt>
<trkpt lat="43.0318670000" lon="0.2626820000"><ele>634</ele><time>2026-03-23T09:53:17Z</time></trkpt>
<trkpt lat="43.0318420000" lon="0.2626620000"><ele>633</ele><time>2026-03-23T09:53:20Z</time></trkpt>
<trkpt lat="43.0318220000" lon="0.2626420000"><ele>633</ele><time>2026-03-23T09:53:22Z</time></trkpt>
<trkpt lat="43.0318070000" lon="0.2626220000"><ele>633</ele><time>2026-03-23T09:53:24Z</time></trkpt>
<trkpt lat="43.0317920000" lon="0.2626070000"><ele>634</ele><time>2026-03-23T09:53:26Z</time></trkpt>
<trkpt lat="43.0317800000" lon="0.2625800000"><ele>634</ele><time>2026-03-23T09:53:29Z</time></trkpt>
<trkpt lat="43.0317670000" lon="0.2625530000"><ele>634</ele><time>2026-03-23T09:53:32Z</time></trkpt>
<trkpt lat="43.0317520000" lon="0.2625370000"><ele>634</ele><time>2026-03-23T09:53:35Z</time></trkpt>
<trkpt lat="43.0317370000" lon="0.2625130000"><ele>634</ele><time>2026-03-23T09:53:38Z</time></trkpt>
<trkpt lat="43.0317370000" lon="0.2624870000"><ele>635</ele><time>2026-03-23T09:53:43Z</time></trkpt>
<trkpt lat="43.0317320000" lon="0.2624550000"><ele>636</ele><time>2026-03-23T09:53:47Z</time></trkpt>
<trkpt lat="43.0317120000" lon="0.2624420000"><ele>636</ele><time>2026-03-23T09:53:49Z</time></trkpt>
<trkpt lat="43.0316920000" lon="0.2624220000"><ele>636</ele><time>2026-03-23T09:53:52Z</time></trkpt>
<trkpt lat="43.0316770000" lon="0.2624070000"><ele>636</ele><time>2026-03-23T09:53:55Z</time></trkpt>
<trkpt lat="43.0316570000" lon="0.2623950000"><ele>637</ele><time>2026-03-23T09:54:00Z</time></trkpt>
<trkpt lat="43.0316430000" lon="0.2623750000"><ele>637</ele><time>2026-03-23T09:54:04Z</time></trkpt>
<trkpt lat="43.0316270000" lon="0.2623620000"><ele>638</ele><time>2026-03-23T09:54:08Z</time></trkpt>
<trkpt lat="43.0316100000" lon="0.2623550000"><ele>638</ele><time>2026-03-23T09:54:13Z</time></trkpt>
<trkpt lat="43.0315920000" lon="0.2623470000"><ele>639</ele><time>2026-03-23T09:54:17Z</time></trkpt>
<trkpt lat="43.0315770000" lon="0.2623320000"><ele>639</ele><time>2026-03-23T09:54:20Z</time></trkpt>
<trkpt lat="43.0315620000" lon="0.2623150000"><ele>639</ele><time>2026-03-23T09:54:23Z</time></trkpt>
<trkpt lat="43.0315520000" lon="0.2622870000"><ele>640</ele><time>2026-03-23T09:54:27Z</time></trkpt>
<trkpt lat="43.0315400000" lon="0.2622700000"><ele>640</ele><time>2026-03-23T09:54:32Z</time></trkpt>
<trkpt lat="43.0315200000" lon="0.2622520000"><ele>641</ele><time>2026-03-23T09:54:38Z</time></trkpt>
<trkpt lat="43.0315020000" lon="0.2622420000"><ele>644</ele><time>2026-03-23T09:55:02Z</time></trkpt>
<trkpt lat="43.0314800000" lon="0.2622300000"><ele>644</ele><time>2026-03-23T09:55:04Z</time></trkpt>
<trkpt lat="43.0314520000" lon="0.2622100000"><ele>644</ele><time>2026-03-23T09:55:06Z</time></trkpt>
<trkpt lat="43.0314320000" lon="0.2621920000"><ele>644</ele><time>2026-03-23T09:55:08Z</time></trkpt>
<trkpt lat="43.0314170000" lon="0.2621720000"><ele>645</ele><time>2026-03-23T09:55:12Z</time></trkpt>
<trkpt lat="43.0314020000" lon="0.2621550000"><ele>645</ele><time>2026-03-23T09:55:15Z</time></trkpt>
<trkpt lat="43.0313870000" lon="0.2621370000"><ele>645</ele><time>2026-03-23T09:55:18Z</time></trkpt>
<trkpt lat="43.0313670000" lon="0.2620970000"><ele>649</ele><time>2026-03-23T09:56:06Z</time></trkpt>
<trkpt lat="43.0313470000" lon="0.2620570000"><ele>649</ele><time>2026-03-23T09:56:07Z</time></trkpt>
<trkpt lat="43.0313250000" lon="0.2620100000"><ele>649</ele><time>2026-03-23T09:56:08Z</time></trkpt>
<trkpt lat="43.0313020000" lon="0.2619620000"><ele>649</ele><time>2026-03-23T09:56:09Z</time></trkpt>
<trkpt lat="43.0312870000" lon="0.2619220000"><ele>649</ele><time>2026-03-23T09:56:10Z</time></trkpt>
<trkpt lat="43.0312770000" lon="0.2618970000"><ele>649</ele><time>2026-03-23T09:56:11Z</time></trkpt>
<trkpt lat="43.0312620000" lon="0.2618670000"><ele>649</ele><time>2026-03-23T09:56:13Z</time></trkpt>
<trkpt lat="43.0312520000" lon="0.2618420000"><ele>649</ele><time>2026-03-23T09:56:15Z</time></trkpt>
<trkpt lat="43.0312350000" lon="0.2618180000"><ele>649</ele><time>2026-03-23T09:56:18Z</time></trkpt>
<trkpt lat="43.0312170000" lon="0.2617970000"><ele>649</ele><time>2026-03-23T09:56:21Z</time></trkpt>
<trkpt lat="43.0312020000" lon="0.2617820000"><ele>649</ele><time>2026-03-23T09:56:25Z</time></trkpt>
<trkpt lat="43.0311870000" lon="0.2617650000"><ele>650</ele><time>2026-03-23T09:56:28Z</time></trkpt>
<trkpt lat="43.0311750000" lon="0.2617420000"><ele>650</ele><time>2026-03-23T09:56:32Z</time></trkpt>
<trkpt lat="43.0311620000" lon="0.2617220000"><ele>650</ele><time>2026-03-23T09:56:35Z</time></trkpt>
<trkpt lat="43.0311470000" lon="0.2617020000"><ele>651</ele><time>2026-03-23T09:56:38Z</time></trkpt>
<trkpt lat="43.0311300000" lon="0.2616870000"><ele>651</ele><time>2026-03-23T09:56:41Z</time></trkpt>
<trkpt lat="43.0311080000" lon="0.2616670000"><ele>651</ele><time>2026-03-23T09:56:45Z</time></trkpt>
<trkpt lat="43.0310920000" lon="0.2616470000"><ele>652</ele><time>2026-03-23T09:56:55Z</time></trkpt>
<trkpt lat="43.0310750000" lon="0.2616320000"><ele>652</ele><time>2026-03-23T09:56:57Z</time></trkpt>
<trkpt lat="43.0310570000" lon="0.2616250000"><ele>652</ele><time>2026-03-23T09:57:01Z</time></trkpt>
<trkpt lat="43.0310270000" lon="0.2616170000"><ele>653</ele><time>2026-03-23T09:57:29Z</time></trkpt>
<trkpt lat="43.0309970000" lon="0.2615920000"><ele>653</ele><time>2026-03-23T09:57:31Z</time></trkpt>
<trkpt lat="43.0309720000" lon="0.2615670000"><ele>653</ele><time>2026-03-23T09:57:33Z</time></trkpt>
<trkpt lat="43.0309570000" lon="0.2615420000"><ele>653</ele><time>2026-03-23T09:57:35Z</time></trkpt>
<trkpt lat="43.0309420000" lon="0.2615270000"><ele>653</ele><time>2026-03-23T09:57:37Z</time></trkpt>
<trkpt lat="43.0309200000" lon="0.2615150000"><ele>653</ele><time>2026-03-23T09:57:39Z</time></trkpt>
<trkpt lat="43.0309000000" lon="0.2615120000"><ele>653</ele><time>2026-03-23T09:57:41Z</time></trkpt>
<trkpt lat="43.0308800000" lon="0.2615170000"><ele>654</ele><time>2026-03-23T09:57:43Z</time></trkpt>
<trkpt lat="43.0308570000" lon="0.2615150000"><ele>653</ele><time>2026-03-23T09:57:46Z</time></trkpt>
<trkpt lat="43.0308470000" lon="0.2614850000"><ele>654</ele><time>2026-03-23T09:57:49Z</time></trkpt>
<trkpt lat="43.0308370000" lon="0.2614570000"><ele>653</ele><time>2026-03-23T09:58:20Z</time></trkpt>
<trkpt lat="43.0308120000" lon="0.2614270000"><ele>653</ele><time>2026-03-23T09:58:22Z</time></trkpt>
<trkpt lat="43.0307870000" lon="0.2614120000"><ele>653</ele><time>2026-03-23T09:58:24Z</time></trkpt>
<trkpt lat="43.0307650000" lon="0.2614030000"><ele>653</ele><time>2026-03-23T09:58:26Z</time></trkpt>
<trkpt lat="43.0307470000" lon="0.2613920000"><ele>653</ele><time>2026-03-23T09:58:28Z</time></trkpt>
<trkpt lat="43.0307370000" lon="0.2613670000"><ele>653</ele><time>2026-03-23T09:58:30Z</time></trkpt>
<trkpt lat="43.0307320000" lon="0.2613420000"><ele>653</ele><time>2026-03-23T09:58:32Z</time></trkpt>
<trkpt lat="43.0307200000" lon="0.2613150000"><ele>653</ele><time>2026-03-23T09:58:35Z</time></trkpt>
<trkpt lat="43.0307120000" lon="0.2612920000"><ele>653</ele><time>2026-03-23T09:58:37Z</time></trkpt>
<trkpt lat="43.0307050000" lon="0.2612670000"><ele>653</ele><time>2026-03-23T09:58:39Z</time></trkpt>
<trkpt lat="43.0307020000" lon="0.2612320000"><ele>654</ele><time>2026-03-23T09:58:42Z</time></trkpt>
<trkpt lat="43.0307020000" lon="0.2612070000"><ele>654</ele><time>2026-03-23T09:58:44Z</time></trkpt>
<trkpt lat="43.0306970000" lon="0.2611770000"><ele>654</ele><time>2026-03-23T09:58:47Z</time></trkpt>
<trkpt lat="43.0306870000" lon="0.2611550000"><ele>654</ele><time>2026-03-23T09:58:49Z</time></trkpt>
<trkpt lat="43.0306670000" lon="0.2611350000"><ele>654</ele><time>2026-03-23T09:58:51Z</time></trkpt>
<trkpt lat="43.0306470000" lon="0.2611170000"><ele>654</ele><time>2026-03-23T09:58:53Z</time></trkpt>
<trkpt lat="43.0306320000" lon="0.2610920000"><ele>653</ele><time>2026-03-23T09:58:56Z</time></trkpt>
<trkpt lat="43.0306170000" lon="0.2610720000"><ele>653</ele><time>2026-03-23T09:59:02Z</time></trkpt>
<trkpt lat="43.0306100000" lon="0.2610420000"><ele>653</ele><time>2026-03-23T09:59:08Z</time></trkpt>
<trkpt lat="43.0306020000" lon="0.2610170000"><ele>653</ele><time>2026-03-23T09:59:14Z</time></trkpt>
<trkpt lat="43.0305880000" lon="0.2609850000"><ele>653</ele><time>2026-03-23T09:59:16Z</time></trkpt>
<trkpt lat="43.0305750000" lon="0.2609620000"><ele>653</ele><time>2026-03-23T09:59:18Z</time></trkpt>
<trkpt lat="43.0305620000" lon="0.2609470000"><ele>653</ele><time>2026-03-23T09:59:20Z</time></trkpt>
<trkpt lat="43.0305420000" lon="0.2609270000"><ele>653</ele><time>2026-03-23T09:59:22Z</time></trkpt>
<trkpt lat="43.0305220000" lon="0.2609120000"><ele>653</ele><time>2026-03-23T09:59:24Z</time></trkpt>
<trkpt lat="43.0305020000" lon="0.2608920000"><ele>653</ele><time>2026-03-23T09:59:27Z</time></trkpt>
<trkpt lat="43.0304870000" lon="0.2608720000"><ele>653</ele><time>2026-03-23T09:59:29Z</time></trkpt>
<trkpt lat="43.0304720000" lon="0.2608550000"><ele>653</ele><time>2026-03-23T09:59:31Z</time></trkpt>
<trkpt lat="43.0304570000" lon="0.2608370000"><ele>653</ele><time>2026-03-23T09:59:33Z</time></trkpt>
<trkpt lat="43.0304420000" lon="0.2608200000"><ele>653</ele><time>2026-03-23T09:59:35Z</time></trkpt>
<trkpt lat="43.0304300000" lon="0.2607970000"><ele>653</ele><time>2026-03-23T09:59:37Z</time></trkpt>
<trkpt lat="43.0304120000" lon="0.2607750000"><ele>653</ele><time>2026-03-23T09:59:40Z</time></trkpt>
<trkpt lat="43.0304000000" lon="0.2607550000"><ele>654</ele><time>2026-03-23T09:59:43Z</time></trkpt>
<trkpt lat="43.0303850000" lon="0.2607350000"><ele>654</ele><time>2026-03-23T09:59:46Z</time></trkpt>
<trkpt lat="43.0303670000" lon="0.2607200000"><ele>654</ele><time>2026-03-23T09:59:49Z</time></trkpt>
<trkpt lat="43.0303470000" lon="0.2607070000"><ele>655</ele><time>2026-03-23T09:59:52Z</time></trkpt>
<trkpt lat="43.0303370000" lon="0.2606800000"><ele>655</ele><time>2026-03-23T09:59:56Z</time></trkpt>
<trkpt lat="43.0303270000" lon="0.2606550000"><ele>656</ele><time>2026-03-23T09:59:59Z</time></trkpt>
<trkpt lat="43.0303150000" lon="0.2606270000"><ele>656</ele><time>2026-03-23T10:00:02Z</time></trkpt>
<trkpt lat="43.0302950000" lon="0.2606070000"><ele>656</ele><time>2026-03-23T10:00:05Z</time></trkpt>
<trkpt lat="43.0302700000" lon="0.2606120000"><ele>657</ele><time>2026-03-23T10:00:08Z</time></trkpt>
<trkpt lat="43.0302500000" lon="0.2606270000"><ele>657</ele><time>2026-03-23T10:00:11Z</time></trkpt>
<trkpt lat="43.0302350000" lon="0.2606470000"><ele>657</ele><time>2026-03-23T10:00:14Z</time></trkpt>
<trkpt lat="43.0302200000" lon="0.2606670000"><ele>658</ele><time>2026-03-23T10:00:18Z</time></trkpt>
<trkpt lat="43.0302050000" lon="0.2606820000"><ele>658</ele><time>2026-03-23T10:00:22Z</time></trkpt>
<trkpt lat="43.0301850000" lon="0.2606870000"><ele>659</ele><time>2026-03-23T10:00:26Z</time></trkpt>
<trkpt lat="43.0301620000" lon="0.2606870000"><ele>660</ele><time>2026-03-23T10:00:30Z</time></trkpt>
<trkpt lat="43.0301420000" lon="0.2606720000"><ele>660</ele><time>2026-03-23T10:00:33Z</time></trkpt>
<trkpt lat="43.0301230000" lon="0.2606630000"><ele>660</ele><time>2026-03-23T10:00:36Z</time></trkpt>
<trkpt lat="43.0301070000" lon="0.2606620000"><ele>661</ele><time>2026-03-23T10:00:39Z</time></trkpt>
<trkpt lat="43.0301120000" lon="0.2606300000"><ele>661</ele><time>2026-03-23T10:01:34Z</time></trkpt>
<trkpt lat="43.0301100000" lon="0.2605920000"><ele>661</ele><time>2026-03-23T10:01:36Z</time></trkpt>
<trkpt lat="43.0301020000" lon="0.2605630000"><ele>661</ele><time>2026-03-23T10:01:38Z</time></trkpt>
<trkpt lat="43.0300920000" lon="0.2605370000"><ele>662</ele><time>2026-03-23T10:01:41Z</time></trkpt>
<trkpt lat="43.0300870000" lon="0.2605050000"><ele>662</ele><time>2026-03-23T10:01:45Z</time></trkpt>
<trkpt lat="43.0300870000" lon="0.2604720000"><ele>663</ele><time>2026-03-23T10:01:49Z</time></trkpt>
<trkpt lat="43.0300820000" lon="0.2604450000"><ele>663</ele><time>2026-03-23T10:01:52Z</time></trkpt>
<trkpt lat="43.0300750000" lon="0.2604170000"><ele>664</ele><time>2026-03-23T10:01:55Z</time></trkpt>
<trkpt lat="43.0300620000" lon="0.2603920000"><ele>664</ele><time>2026-03-23T10:01:59Z</time></trkpt>
<trkpt lat="43.0300520000" lon="0.2603700000"><ele>664</ele><time>2026-03-23T10:02:02Z</time></trkpt>
<trkpt lat="43.0300420000" lon="0.2603470000"><ele>665</ele><time>2026-03-23T10:02:05Z</time></trkpt>
<trkpt lat="43.0300320000" lon="0.2603220000"><ele>665</ele><time>2026-03-23T10:02:09Z</time></trkpt>
<trkpt lat="43.0300220000" lon="0.2602930000"><ele>666</ele><time>2026-03-23T10:02:13Z</time></trkpt>
<trkpt lat="43.0300120000" lon="0.2602700000"><ele>667</ele><time>2026-03-23T10:02:19Z</time></trkpt>
<trkpt lat="43.0300100000" lon="0.2602450000"><ele>667</ele><time>2026-03-23T10:02:24Z</time></trkpt>
<trkpt lat="43.0300050000" lon="0.2602200000"><ele>670</ele><time>2026-03-23T10:02:41Z</time></trkpt>
<trkpt lat="43.0299800000" lon="0.2601880000"><ele>670</ele><time>2026-03-23T10:02:43Z</time></trkpt>
<trkpt lat="43.0299620000" lon="0.2601720000"><ele>670</ele><time>2026-03-23T10:02:44Z</time></trkpt>
<trkpt lat="43.0299350000" lon="0.2601450000"><ele>670</ele><time>2026-03-23T10:02:46Z</time></trkpt>
<trkpt lat="43.0299170000" lon="0.2601280000"><ele>671</ele><time>2026-03-23T10:02:48Z</time></trkpt>
<trkpt lat="43.0299020000" lon="0.2601120000"><ele>671</ele><time>2026-03-23T10:02:51Z</time></trkpt>
<trkpt lat="43.0298820000" lon="0.2600950000"><ele>671</ele><time>2026-03-23T10:02:55Z</time></trkpt>
<trkpt lat="43.0298700000" lon="0.2600770000"><ele>672</ele><time>2026-03-23T10:02:58Z</time></trkpt>
<trkpt lat="43.0298520000" lon="0.2600620000"><ele>672</ele><time>2026-03-23T10:03:02Z</time></trkpt>
<trkpt lat="43.0298350000" lon="0.2600450000"><ele>673</ele><time>2026-03-23T10:03:06Z</time></trkpt>
<trkpt lat="43.0298170000" lon="0.2600270000"><ele>673</ele><time>2026-03-23T10:03:10Z</time></trkpt>
<trkpt lat="43.0298070000" lon="0.2600020000"><ele>673</ele><time>2026-03-23T10:03:13Z</time></trkpt>
<trkpt lat="43.0297920000" lon="0.2599820000"><ele>674</ele><time>2026-03-23T10:03:18Z</time></trkpt>
<trkpt lat="43.0297770000" lon="0.2599670000"><ele>674</ele><time>2026-03-23T10:03:22Z</time></trkpt>
<trkpt lat="43.0297570000" lon="0.2599500000"><ele>675</ele><time>2026-03-23T10:03:26Z</time></trkpt>
<trkpt lat="43.0297370000" lon="0.2599450000"><ele>675</ele><time>2026-03-23T10:03:28Z</time></trkpt>
<trkpt lat="43.0297200000" lon="0.2599250000"><ele>676</ele><time>2026-03-23T10:03:32Z</time></trkpt>
<trkpt lat="43.0296970000" lon="0.2599120000"><ele>676</ele><time>2026-03-23T10:03:35Z</time></trkpt>
<trkpt lat="43.0296770000" lon="0.2598970000"><ele>676</ele><time>2026-03-23T10:03:39Z</time></trkpt>
<trkpt lat="43.0296600000" lon="0.2598920000"><ele>677</ele><time>2026-03-23T10:03:42Z</time></trkpt>
<trkpt lat="43.0296370000" lon="0.2598780000"><ele>677</ele><time>2026-03-23T10:03:46Z</time></trkpt>
<trkpt lat="43.0296220000" lon="0.2598620000"><ele>677</ele><time>2026-03-23T10:03:49Z</time></trkpt>
<trkpt lat="43.0296100000" lon="0.2598370000"><ele>678</ele><time>2026-03-23T10:03:52Z</time></trkpt>
<trkpt lat="43.0296020000" lon="0.2598120000"><ele>678</ele><time>2026-03-23T10:03:55Z</time></trkpt>
<trkpt lat="43.0295870000" lon="0.2597820000"><ele>678</ele><time>2026-03-23T10:03:58Z</time></trkpt>
<trkpt lat="43.0295770000" lon="0.2597620000"><ele>678</ele><time>2026-03-23T10:04:00Z</time></trkpt>
<trkpt lat="43.0295650000" lon="0.2597330000"><ele>678</ele><time>2026-03-23T10:04:03Z</time></trkpt>
<trkpt lat="43.0295570000" lon="0.2597070000"><ele>679</ele><time>2026-03-23T10:04:06Z</time></trkpt>
<trkpt lat="43.0295500000" lon="0.2596770000"><ele>679</ele><time>2026-03-23T10:04:09Z</time></trkpt>
<trkpt lat="43.0295470000" lon="0.2596520000"><ele>679</ele><time>2026-03-23T10:04:12Z</time></trkpt>
<trkpt lat="43.0295420000" lon="0.2596250000"><ele>679</ele><time>2026-03-23T10:04:15Z</time></trkpt>
<trkpt lat="43.0295370000" lon="0.2595980000"><ele>680</ele><time>2026-03-23T10:04:18Z</time></trkpt>
<trkpt lat="43.0295320000" lon="0.2595700000"><ele>680</ele><time>2026-03-23T10:04:21Z</time></trkpt>
<trkpt lat="43.0295270000" lon="0.2595450000"><ele>681</ele><time>2026-03-23T10:04:25Z</time></trkpt>
<trkpt lat="43.0295250000" lon="0.2595170000"><ele>681</ele><time>2026-03-23T10:04:29Z</time></trkpt>
<trkpt lat="43.0295170000" lon="0.2594920000"><ele>681</ele><time>2026-03-23T10:04:32Z</time></trkpt>
<trkpt lat="43.0295150000" lon="0.2594600000"><ele>681</ele><time>2026-03-23T10:04:36Z</time></trkpt>
<trkpt lat="43.0295070000" lon="0.2594300000"><ele>682</ele><time>2026-03-23T10:04:42Z</time></trkpt>
<trkpt lat="43.0295070000" lon="0.2594020000"><ele>682</ele><time>2026-03-23T10:04:45Z</time></trkpt>
<trkpt lat="43.0294970000" lon="0.2593750000"><ele>682</ele><time>2026-03-23T10:04:48Z</time></trkpt>
<trkpt lat="43.0294820000" lon="0.2593520000"><ele>682</ele><time>2026-03-23T10:04:51Z</time></trkpt>
<trkpt lat="43.0294700000" lon="0.2593270000"><ele>682</ele><time>2026-03-23T10:04:54Z</time></trkpt>
<trkpt lat="43.0294570000" lon="0.2592980000"><ele>683</ele><time>2026-03-23T10:04:57Z</time></trkpt>
<trkpt lat="43.0294420000" lon="0.2592770000"><ele>683</ele><time>2026-03-23T10:05:01Z</time></trkpt>
<trkpt lat="43.0294300000" lon="0.2592600000"><ele>683</ele><time>2026-03-23T10:05:05Z</time></trkpt>
<trkpt lat="43.0294170000" lon="0.2592370000"><ele>684</ele><time>2026-03-23T10:05:09Z</time></trkpt>
<trkpt lat="43.0293970000" lon="0.2592200000"><ele>684</ele><time>2026-03-23T10:05:12Z</time></trkpt>
<trkpt lat="43.0293750000" lon="0.2592070000"><ele>685</ele><time>2026-03-23T10:05:15Z</time></trkpt>
<trkpt lat="43.0293600000" lon="0.2591870000"><ele>685</ele><time>2026-03-23T10:05:18Z</time></trkpt>
<trkpt lat="43.0293450000" lon="0.2591700000"><ele>686</ele><time>2026-03-23T10:05:24Z</time></trkpt>
<trkpt lat="43.0293320000" lon="0.2591500000"><ele>687</ele><time>2026-03-23T10:05:30Z</time></trkpt>
<trkpt lat="43.0293120000" lon="0.2591250000"><ele>694</ele><time>2026-03-23T10:06:23Z</time></trkpt>
<trkpt lat="43.0292850000" lon="0.2590920000"><ele>694</ele><time>2026-03-23T10:06:24Z</time></trkpt>
<trkpt lat="43.0292520000" lon="0.2590520000"><ele>695</ele><time>2026-03-23T10:06:25Z</time></trkpt>
<trkpt lat="43.0292170000" lon="0.2590170000"><ele>695</ele><time>2026-03-23T10:06:26Z</time></trkpt>
<trkpt lat="43.0291920000" lon="0.2589870000"><ele>695</ele><time>2026-03-23T10:06:27Z</time></trkpt>
<trkpt lat="43.0291720000" lon="0.2589670000"><ele>695</ele><time>2026-03-23T10:06:28Z</time></trkpt>
<trkpt lat="43.0291570000" lon="0.2589520000"><ele>696</ele><time>2026-03-23T10:06:30Z</time></trkpt>
<trkpt lat="43.0291450000" lon="0.2589350000"><ele>696</ele><time>2026-03-23T10:06:36Z</time></trkpt>
<trkpt lat="43.0291220000" lon="0.2589070000"><ele>702</ele><time>2026-03-23T10:07:47Z</time></trkpt>
<trkpt lat="43.0290950000" lon="0.2588770000"><ele>702</ele><time>2026-03-23T10:07:48Z</time></trkpt>
<trkpt lat="43.0290600000" lon="0.2588370000"><ele>703</ele><time>2026-03-23T10:07:49Z</time></trkpt>
<trkpt lat="43.0290250000" lon="0.2587980000"><ele>703</ele><time>2026-03-23T10:07:50Z</time></trkpt>
<trkpt lat="43.0289970000" lon="0.2587680000"><ele>703</ele><time>2026-03-23T10:07:51Z</time></trkpt>
<trkpt lat="43.0289770000" lon="0.2587470000"><ele>703</ele><time>2026-03-23T10:07:52Z</time></trkpt>
<trkpt lat="43.0289620000" lon="0.2587220000"><ele>703</ele><time>2026-03-23T10:07:54Z</time></trkpt>
<trkpt lat="43.0289500000" lon="0.2587020000"><ele>704</ele><time>2026-03-23T10:07:58Z</time></trkpt>
<trkpt lat="43.0289370000" lon="0.2586850000"><ele>704</ele><time>2026-03-23T10:08:03Z</time></trkpt>
<trkpt lat="43.0289300000" lon="0.2586600000"><ele>705</ele><time>2026-03-23T10:08:09Z</time></trkpt>
<trkpt lat="43.0289170000" lon="0.2586320000"><ele>711</ele><time>2026-03-23T10:09:04Z</time></trkpt>
<trkpt lat="43.0288970000" lon="0.2586070000"><ele>711</ele><time>2026-03-23T10:09:05Z</time></trkpt>
<trkpt lat="43.0288720000" lon="0.2585720000"><ele>711</ele><time>2026-03-23T10:09:06Z</time></trkpt>
<trkpt lat="43.0288500000" lon="0.2585370000"><ele>711</ele><time>2026-03-23T10:09:07Z</time></trkpt>
<trkpt lat="43.0288320000" lon="0.2585120000"><ele>711</ele><time>2026-03-23T10:09:08Z</time></trkpt>
<trkpt lat="43.0288150000" lon="0.2584870000"><ele>711</ele><time>2026-03-23T10:09:10Z</time></trkpt>
<trkpt lat="43.0288020000" lon="0.2584680000"><ele>712</ele><time>2026-03-23T10:09:13Z</time></trkpt>
<trkpt lat="43.0287850000" lon="0.2584430000"><ele>716</ele><time>2026-03-23T10:10:16Z</time></trkpt>
<trkpt lat="43.0287720000" lon="0.2584250000"><ele>715</ele><time>2026-03-23T10:10:17Z</time></trkpt>
<trkpt lat="43.0287550000" lon="0.2584020000"><ele>715</ele><time>2026-03-23T10:10:18Z</time></trkpt>
<trkpt lat="43.0287370000" lon="0.2583800000"><ele>715</ele><time>2026-03-23T10:10:19Z</time></trkpt>
<trkpt lat="43.0287220000" lon="0.2583530000"><ele>715</ele><time>2026-03-23T10:10:21Z</time></trkpt>
<trkpt lat="43.0286970000" lon="0.2583520000"><ele>717</ele><time>2026-03-23T10:11:27Z</time></trkpt>
<trkpt lat="43.0286770000" lon="0.2583470000"><ele>717</ele><time>2026-03-23T10:11:28Z</time></trkpt>
<trkpt lat="43.0286570000" lon="0.2583420000"><ele>717</ele><time>2026-03-23T10:11:29Z</time></trkpt>
<trkpt lat="43.0286270000" lon="0.2583270000"><ele>717</ele><time>2026-03-23T10:11:31Z</time></trkpt>
<trkpt lat="43.0286070000" lon="0.2583070000"><ele>717</ele><time>2026-03-23T10:11:34Z</time></trkpt>
<trkpt lat="43.0286020000" lon="0.2582850000"><ele>717</ele><time>2026-03-23T10:11:37Z</time></trkpt>
<trkpt lat="43.0286000000" lon="0.2582570000"><ele>718</ele><time>2026-03-23T10:11:41Z</time></trkpt>
<trkpt lat="43.0285970000" lon="0.2582300000"><ele>718</ele><time>2026-03-23T10:11:44Z</time></trkpt>
<trkpt lat="43.0285970000" lon="0.2582050000"><ele>719</ele><time>2026-03-23T10:11:49Z</time></trkpt>
<trkpt lat="43.0285900000" lon="0.2581820000"><ele>719</ele><time>2026-03-23T10:11:53Z</time></trkpt>
<trkpt lat="43.0285720000" lon="0.2581630000"><ele>720</ele><time>2026-03-23T10:11:58Z</time></trkpt>
<trkpt lat="43.0285650000" lon="0.2581370000"><ele>721</ele><time>2026-03-23T10:12:05Z</time></trkpt>
<trkpt lat="43.0285600000" lon="0.2580970000"><ele>726</ele><time>2026-03-23T10:12:45Z</time></trkpt>
<trkpt lat="43.0285600000" lon="0.2580470000"><ele>726</ele><time>2026-03-23T10:12:47Z</time></trkpt>
<trkpt lat="43.0285620000" lon="0.2580150000"><ele>726</ele><time>2026-03-23T10:12:49Z</time></trkpt>
<trkpt lat="43.0285220000" lon="0.2580170000"><ele>733</ele><time>2026-03-23T10:14:07Z</time></trkpt>
<trkpt lat="43.0284920000" lon="0.2580220000"><ele>733</ele><time>2026-03-23T10:14:08Z</time></trkpt>
<trkpt lat="43.0284520000" lon="0.2580320000"><ele>733</ele><time>2026-03-23T10:14:09Z</time></trkpt>
<trkpt lat="43.0284170000" lon="0.2580370000"><ele>733</ele><time>2026-03-23T10:14:10Z</time></trkpt>
<trkpt lat="43.0283870000" lon="0.2580420000"><ele>733</ele><time>2026-03-23T10:14:11Z</time></trkpt>
<trkpt lat="43.0283670000" lon="0.2580470000"><ele>734</ele><time>2026-03-23T10:14:12Z</time></trkpt>
<trkpt lat="43.0283500000" lon="0.2580350000"><ele>734</ele><time>2026-03-23T10:14:17Z</time></trkpt>
<trkpt lat="43.0283270000" lon="0.2580100000"><ele>744</ele><time>2026-03-23T10:15:53Z</time></trkpt>
<trkpt lat="43.0283000000" lon="0.2579770000"><ele>745</ele><time>2026-03-23T10:15:54Z</time></trkpt>
<trkpt lat="43.0282670000" lon="0.2579380000"><ele>745</ele><time>2026-03-23T10:15:55Z</time></trkpt>
<trkpt lat="43.0282350000" lon="0.2579020000"><ele>745</ele><time>2026-03-23T10:15:56Z</time></trkpt>
<trkpt lat="43.0282100000" lon="0.2578750000"><ele>745</ele><time>2026-03-23T10:15:57Z</time></trkpt>
<trkpt lat="43.0281920000" lon="0.2578550000"><ele>745</ele><time>2026-03-23T10:15:58Z</time></trkpt>
<trkpt lat="43.0281770000" lon="0.2578320000"><ele>745</ele><time>2026-03-23T10:16:01Z</time></trkpt>
<trkpt lat="43.0281620000" lon="0.2578050000"><ele>748</ele><time>2026-03-23T10:16:35Z</time></trkpt>
<trkpt lat="43.0281530000" lon="0.2577720000"><ele>749</ele><time>2026-03-23T10:16:37Z</time></trkpt>
<trkpt lat="43.0281400000" lon="0.2577570000"><ele>749</ele><time>2026-03-23T10:16:40Z</time></trkpt>
<trkpt lat="43.0281250000" lon="0.2577420000"><ele>754</ele><time>2026-03-23T10:17:24Z</time></trkpt>
<trkpt lat="43.0280870000" lon="0.2577400000"><ele>754</ele><time>2026-03-23T10:17:26Z</time></trkpt>
<trkpt lat="43.0280670000" lon="0.2577420000"><ele>754</ele><time>2026-03-23T10:17:27Z</time></trkpt>
<trkpt lat="43.0280470000" lon="0.2577420000"><ele>754</ele><time>2026-03-23T10:17:28Z</time></trkpt>
<trkpt lat="43.0280270000" lon="0.2577470000"><ele>754</ele><time>2026-03-23T10:17:30Z</time></trkpt>
<trkpt lat="43.0280070000" lon="0.2577320000"><ele>754</ele><time>2026-03-23T10:17:34Z</time></trkpt>
<trkpt lat="43.0280270000" lon="0.2577420000"><ele>755</ele><time>2026-03-23T10:17:59Z</time></trkpt>
<trkpt lat="43.0280020000" lon="0.2577350000"><ele>755</ele><time>2026-03-23T10:18:43Z</time></trkpt>
<trkpt lat="43.0279820000" lon="0.2577350000"><ele>755</ele><time>2026-03-23T10:18:44Z</time></trkpt>
<trkpt lat="43.0279570000" lon="0.2577370000"><ele>755</ele><time>2026-03-23T10:18:45Z</time></trkpt>
<trkpt lat="43.0279320000" lon="0.2577400000"><ele>755</ele><time>2026-03-23T10:18:46Z</time></trkpt>
<trkpt lat="43.0279100000" lon="0.2577420000"><ele>754</ele><time>2026-03-23T10:18:47Z</time></trkpt>
<trkpt lat="43.0278900000" lon="0.2577470000"><ele>754</ele><time>2026-03-23T10:18:48Z</time></trkpt>
<trkpt lat="43.0278620000" lon="0.2577420000"><ele>754</ele><time>2026-03-23T10:18:50Z</time></trkpt>
<trkpt lat="43.0278450000" lon="0.2577400000"><ele>754</ele><time>2026-03-23T10:18:52Z</time></trkpt>
<trkpt lat="43.0278220000" lon="0.2577450000"><ele>754</ele><time>2026-03-23T10:18:55Z</time></trkpt>
<trkpt lat="43.0278020000" lon="0.2577450000"><ele>754</ele><time>2026-03-23T10:18:58Z</time></trkpt>
<trkpt lat="43.0277870000" lon="0.2577320000"><ele>753</ele><time>2026-03-23T10:19:01Z</time></trkpt>
<trkpt lat="43.0277670000" lon="0.2577250000"><ele>753</ele><time>2026-03-23T10:19:04Z</time></trkpt>
<trkpt lat="43.0277470000" lon="0.2577150000"><ele>753</ele><time>2026-03-23T10:19:07Z</time></trkpt>
<trkpt lat="43.0277270000" lon="0.2577150000"><ele>753</ele><time>2026-03-23T10:19:09Z</time></trkpt>
<trkpt lat="43.0277070000" lon="0.2577070000"><ele>753</ele><time>2026-03-23T10:19:11Z</time></trkpt>
<trkpt lat="43.0276870000" lon="0.2576920000"><ele>753</ele><time>2026-03-23T10:19:14Z</time></trkpt>
<trkpt lat="43.0276620000" lon="0.2576920000"><ele>753</ele><time>2026-03-23T10:19:17Z</time></trkpt>
<trkpt lat="43.0276370000" lon="0.2576920000"><ele>753</ele><time>2026-03-23T10:19:20Z</time></trkpt>
<trkpt lat="43.0276170000" lon="0.2576920000"><ele>753</ele><time>2026-03-23T10:19:24Z</time></trkpt>
<trkpt lat="43.0275970000" lon="0.2576800000"><ele>753</ele><time>2026-03-23T10:19:27Z</time></trkpt>
<trkpt lat="43.0275750000" lon="0.2576670000"><ele>753</ele><time>2026-03-23T10:19:30Z</time></trkpt>
<trkpt lat="43.0275520000" lon="0.2576570000"><ele>753</ele><time>2026-03-23T10:19:33Z</time></trkpt>
<trkpt lat="43.0275250000" lon="0.2576570000"><ele>753</ele><time>2026-03-23T10:19:36Z</time></trkpt>
<trkpt lat="43.0275050000" lon="0.2576420000"><ele>753</ele><time>2026-03-23T10:19:39Z</time></trkpt>
<trkpt lat="43.0274870000" lon="0.2576320000"><ele>753</ele><time>2026-03-23T10:19:42Z</time></trkpt>
<trkpt lat="43.0274670000" lon="0.2576170000"><ele>753</ele><time>2026-03-23T10:19:45Z</time></trkpt>
<trkpt lat="43.0274500000" lon="0.2576200000"><ele>754</ele><time>2026-03-23T10:19:48Z</time></trkpt>
<trkpt lat="43.0274270000" lon="0.2576320000"><ele>754</ele><time>2026-03-23T10:19:51Z</time></trkpt>
<trkpt lat="43.0274120000" lon="0.2576220000"><ele>754</ele><time>2026-03-23T10:19:54Z</time></trkpt>
<trkpt lat="43.0273870000" lon="0.2576170000"><ele>754</ele><time>2026-03-23T10:19:58Z</time></trkpt>
<trkpt lat="43.0273620000" lon="0.2576200000"><ele>755</ele><time>2026-03-23T10:20:02Z</time></trkpt>
<trkpt lat="43.0273420000" lon="0.2576220000"><ele>755</ele><time>2026-03-23T10:20:23Z</time></trkpt>
<trkpt lat="43.0273320000" lon="0.2576520000"><ele>756</ele><time>2026-03-23T10:20:26Z</time></trkpt>
<trkpt lat="43.0273270000" lon="0.2576870000"><ele>756</ele><time>2026-03-23T10:20:29Z</time></trkpt>
<trkpt lat="43.0273070000" lon="0.2577020000"><ele>756</ele><time>2026-03-23T10:20:32Z</time></trkpt>
<trkpt lat="43.0273020000" lon="0.2577270000"><ele>756</ele><time>2026-03-23T10:20:38Z</time></trkpt>
<trkpt lat="43.0272900000" lon="0.2577520000"><ele>756</ele><time>2026-03-23T10:20:42Z</time></trkpt>
<trkpt lat="43.0272700000" lon="0.2577220000"><ele>757</ele><time>2026-03-23T10:21:20Z</time></trkpt>
<trkpt lat="43.0272670000" lon="0.2576950000"><ele>756</ele><time>2026-03-23T10:21:21Z</time></trkpt>
<trkpt lat="43.0272700000" lon="0.2576570000"><ele>756</ele><time>2026-03-23T10:21:22Z</time></trkpt>
<trkpt lat="43.0272720000" lon="0.2576170000"><ele>756</ele><time>2026-03-23T10:21:23Z</time></trkpt>
<trkpt lat="43.0272750000" lon="0.2575870000"><ele>756</ele><time>2026-03-23T10:21:24Z</time></trkpt>
<trkpt lat="43.0272820000" lon="0.2575620000"><ele>756</ele><time>2026-03-23T10:21:25Z</time></trkpt>
<trkpt lat="43.0272950000" lon="0.2575400000"><ele>756</ele><time>2026-03-23T10:21:27Z</time></trkpt>
<trkpt lat="43.0272950000" lon="0.2575070000"><ele>756</ele><time>2026-03-23T10:21:31Z</time></trkpt>
<trkpt lat="43.0273050000" lon="0.2574820000"><ele>755</ele><time>2026-03-23T10:21:34Z</time></trkpt>
<trkpt lat="43.0273070000" lon="0.2574550000"><ele>755</ele><time>2026-03-23T10:21:36Z</time></trkpt>
<trkpt lat="43.0273020000" lon="0.2574220000"><ele>755</ele><time>2026-03-23T10:21:39Z</time></trkpt>
<trkpt lat="43.0273070000" lon="0.2573950000"><ele>754</ele><time>2026-03-23T10:21:42Z</time></trkpt>
<trkpt lat="43.0273100000" lon="0.2573680000"><ele>754</ele><time>2026-03-23T10:21:45Z</time></trkpt>
<trkpt lat="43.0273120000" lon="0.2573370000"><ele>754</ele><time>2026-03-23T10:21:48Z</time></trkpt>
<trkpt lat="43.0273170000" lon="0.2573100000"><ele>753</ele><time>2026-03-23T10:21:51Z</time></trkpt>
<trkpt lat="43.0273170000" lon="0.2572820000"><ele>753</ele><time>2026-03-23T10:21:54Z</time></trkpt>
<trkpt lat="43.0273100000" lon="0.2572520000"><ele>752</ele><time>2026-03-23T10:22:01Z</time></trkpt>
<trkpt lat="43.0272970000" lon="0.2572320000"><ele>751</ele><time>2026-03-23T10:22:21Z</time></trkpt>
<trkpt lat="43.0272870000" lon="0.2572070000"><ele>750</ele><time>2026-03-23T10:22:23Z</time></trkpt>
<trkpt lat="43.0272720000" lon="0.2571820000"><ele>750</ele><time>2026-03-23T10:22:25Z</time></trkpt>
<trkpt lat="43.0272570000" lon="0.2571570000"><ele>750</ele><time>2026-03-23T10:22:27Z</time></trkpt>
<trkpt lat="43.0272400000" lon="0.2571420000"><ele>749</ele><time>2026-03-23T10:22:30Z</time></trkpt>
<trkpt lat="43.0272520000" lon="0.2571220000"><ele>748</ele><time>2026-03-23T10:22:42Z</time></trkpt>
<trkpt lat="43.0272470000" lon="0.2570950000"><ele>747</ele><time>2026-03-23T10:22:45Z</time></trkpt>
<trkpt lat="43.0272300000" lon="0.2570750000"><ele>747</ele><time>2026-03-23T10:22:47Z</time></trkpt>
<trkpt lat="43.0272120000" lon="0.2570620000"><ele>745</ele><time>2026-03-23T10:22:52Z</time></trkpt>
<trkpt lat="43.0271950000" lon="0.2570370000"><ele>744</ele><time>2026-03-23T10:22:55Z</time></trkpt>
<trkpt lat="43.0271920000" lon="0.2570070000"><ele>744</ele><time>2026-03-23T10:22:58Z</time></trkpt>
<trkpt lat="43.0271820000" lon="0.2569800000"><ele>743</ele><time>2026-03-23T10:23:00Z</time></trkpt>
<trkpt lat="43.0271720000" lon="0.2569520000"><ele>742</ele><time>2026-03-23T10:23:03Z</time></trkpt>
<trkpt lat="43.0271670000" lon="0.2569250000"><ele>741</ele><time>2026-03-23T10:23:06Z</time></trkpt>
<trkpt lat="43.0271770000" lon="0.2568920000"><ele>741</ele><time>2026-03-23T10:23:09Z</time></trkpt>
<trkpt lat="43.0271900000" lon="0.2568670000"><ele>740</ele><time>2026-03-23T10:23:13Z</time></trkpt>
<trkpt lat="43.0272100000" lon="0.2568420000"><ele>739</ele><time>2026-03-23T10:23:16Z</time></trkpt>
<trkpt lat="43.0272250000" lon="0.2568180000"><ele>739</ele><time>2026-03-23T10:23:19Z</time></trkpt>
<trkpt lat="43.0272370000" lon="0.2568020000"><ele>738</ele><time>2026-03-23T10:23:21Z</time></trkpt>
<trkpt lat="43.0272520000" lon="0.2567700000"><ele>738</ele><time>2026-03-23T10:23:24Z</time></trkpt>
<trkpt lat="43.0272530000" lon="0.2567420000"><ele>737</ele><time>2026-03-23T10:23:27Z</time></trkpt>
<trkpt lat="43.0272500000" lon="0.2567170000"><ele>736</ele><time>2026-03-23T10:23:30Z</time></trkpt>
<trkpt lat="43.0272500000" lon="0.2566870000"><ele>736</ele><time>2026-03-23T10:23:33Z</time></trkpt>
<trkpt lat="43.0272520000" lon="0.2566570000"><ele>735</ele><time>2026-03-23T10:23:36Z</time></trkpt>
<trkpt lat="43.0272650000" lon="0.2566270000"><ele>734</ele><time>2026-03-23T10:23:39Z</time></trkpt>
<trkpt lat="43.0272770000" lon="0.2566020000"><ele>733</ele><time>2026-03-23T10:23:42Z</time></trkpt>
<trkpt lat="43.0272870000" lon="0.2565720000"><ele>732</ele><time>2026-03-23T10:23:46Z</time></trkpt>
<trkpt lat="43.0272950000" lon="0.2565420000"><ele>732</ele><time>2026-03-23T10:23:50Z</time></trkpt>
<trkpt lat="43.0272900000" lon="0.2565150000"><ele>731</ele><time>2026-03-23T10:23:53Z</time></trkpt>
<trkpt lat="43.0272850000" lon="0.2564820000"><ele>730</ele><time>2026-03-23T10:23:57Z</time></trkpt>
<trkpt lat="43.0272770000" lon="0.2564520000"><ele>728</ele><time>2026-03-23T10:24:02Z</time></trkpt>
<trkpt lat="43.0272650000" lon="0.2564270000"><ele>727</ele><time>2026-03-23T10:24:05Z</time></trkpt>
<trkpt lat="43.0272520000" lon="0.2564100000"><ele>727</ele><time>2026-03-23T10:24:08Z</time></trkpt>
<trkpt lat="43.0272270000" lon="0.2563930000"><ele>726</ele><time>2026-03-23T10:24:11Z</time></trkpt>
<trkpt lat="43.0272120000" lon="0.2563770000"><ele>725</ele><time>2026-03-23T10:24:13Z</time></trkpt>
<trkpt lat="43.0271970000" lon="0.2563570000"><ele>724</ele><time>2026-03-23T10:24:16Z</time></trkpt>
<trkpt lat="43.0271820000" lon="0.2563370000"><ele>724</ele><time>2026-03-23T10:24:19Z</time></trkpt>
<trkpt lat="43.0271670000" lon="0.2563150000"><ele>723</ele><time>2026-03-23T10:24:22Z</time></trkpt>
<trkpt lat="43.0271550000" lon="0.2562950000"><ele>722</ele><time>2026-03-23T10:24:25Z</time></trkpt>
<trkpt lat="43.0271370000" lon="0.2562720000"><ele>721</ele><time>2026-03-23T10:24:28Z</time></trkpt>
<trkpt lat="43.0271220000" lon="0.2562570000"><ele>721</ele><time>2026-03-23T10:24:30Z</time></trkpt>
<trkpt lat="43.0271100000" lon="0.2562320000"><ele>720</ele><time>2026-03-23T10:24:33Z</time></trkpt>
<trkpt lat="43.0270950000" lon="0.2562120000"><ele>719</ele><time>2026-03-23T10:24:36Z</time></trkpt>
<trkpt lat="43.0270870000" lon="0.2561850000"><ele>718</ele><time>2026-03-23T10:24:40Z</time></trkpt>
<trkpt lat="43.0270750000" lon="0.2561630000"><ele>717</ele><time>2026-03-23T10:24:44Z</time></trkpt>
<trkpt lat="43.0270570000" lon="0.2561400000"><ele>716</ele><time>2026-03-23T10:24:48Z</time></trkpt>
<trkpt lat="43.0270470000" lon="0.2561170000"><ele>715</ele><time>2026-03-23T10:24:51Z</time></trkpt>
<trkpt lat="43.0270450000" lon="0.2560920000"><ele>715</ele><time>2026-03-23T10:24:53Z</time></trkpt>
<trkpt lat="43.0270320000" lon="0.2560720000"><ele>714</ele><time>2026-03-23T10:24:54Z</time></trkpt>
<trkpt lat="43.0270220000" lon="0.2560380000"><ele>713</ele><time>2026-03-23T10:24:57Z</time></trkpt>
<trkpt lat="43.0270170000" lon="0.2560120000"><ele>713</ele><time>2026-03-23T10:25:00Z</time></trkpt>
<trkpt lat="43.0270050000" lon="0.2559880000"><ele>711</ele><time>2026-03-23T10:25:04Z</time></trkpt>
<trkpt lat="43.0269870000" lon="0.2559750000"><ele>710</ele><time>2026-03-23T10:25:08Z</time></trkpt>
<trkpt lat="43.0269850000" lon="0.2559470000"><ele>710</ele><time>2026-03-23T10:25:11Z</time></trkpt>
<trkpt lat="43.0269770000" lon="0.2559220000"><ele>709</ele><time>2026-03-23T10:25:17Z</time></trkpt>
<trkpt lat="43.0269970000" lon="0.2558970000"><ele>708</ele><time>2026-03-23T10:25:22Z</time></trkpt>
<trkpt lat="43.0270070000" lon="0.2558770000"><ele>707</ele><time>2026-03-23T10:25:26Z</time></trkpt>
<trkpt lat="43.0270070000" lon="0.2558320000"><ele>707</ele><time>2026-03-23T10:25:29Z</time></trkpt>
<trkpt lat="43.0270070000" lon="0.2558070000"><ele>706</ele><time>2026-03-23T10:25:30Z</time></trkpt>
<trkpt lat="43.0270200000" lon="0.2557770000"><ele>706</ele><time>2026-03-23T10:25:32Z</time></trkpt>
<trkpt lat="43.0270450000" lon="0.2557720000"><ele>706</ele><time>2026-03-23T10:25:35Z</time></trkpt>
<trkpt lat="43.0270670000" lon="0.2557650000"><ele>705</ele><time>2026-03-23T10:25:37Z</time></trkpt>
<trkpt lat="43.0270870000" lon="0.2557570000"><ele>705</ele><time>2026-03-23T10:25:39Z</time></trkpt>
<trkpt lat="43.0271070000" lon="0.2557520000"><ele>705</ele><time>2026-03-23T10:25:41Z</time></trkpt>
<trkpt lat="43.0271320000" lon="0.2557480000"><ele>705</ele><time>2026-03-23T10:25:44Z</time></trkpt>
<trkpt lat="43.0271520000" lon="0.2557520000"><ele>704</ele><time>2026-03-23T10:25:46Z</time></trkpt>
<trkpt lat="43.0271720000" lon="0.2557570000"><ele>704</ele><time>2026-03-23T10:25:48Z</time></trkpt>
<trkpt lat="43.0271970000" lon="0.2557700000"><ele>704</ele><time>2026-03-23T10:25:51Z</time></trkpt>
<trkpt lat="43.0272170000" lon="0.2557770000"><ele>704</ele><time>2026-03-23T10:25:53Z</time></trkpt>
<trkpt lat="43.0272370000" lon="0.2557870000"><ele>703</ele><time>2026-03-23T10:25:55Z</time></trkpt>
<trkpt lat="43.0272600000" lon="0.2557800000"><ele>703</ele><time>2026-03-23T10:25:58Z</time></trkpt>
<trkpt lat="43.0272770000" lon="0.2557670000"><ele>703</ele><time>2026-03-23T10:26:00Z</time></trkpt>
<trkpt lat="43.0272920000" lon="0.2557520000"><ele>703</ele><time>2026-03-23T10:26:03Z</time></trkpt>
<trkpt lat="43.0272870000" lon="0.2557250000"><ele>703</ele><time>2026-03-23T10:26:14Z</time></trkpt>
<trkpt lat="43.0272750000" lon="0.2556970000"><ele>702</ele><time>2026-03-23T10:26:16Z</time></trkpt>
<trkpt lat="43.0272570000" lon="0.2556850000"><ele>702</ele><time>2026-03-23T10:26:18Z</time></trkpt>
<trkpt lat="43.0272370000" lon="0.2556800000"><ele>702</ele><time>2026-03-23T10:26:20Z</time></trkpt>
<trkpt lat="43.0272070000" lon="0.2556820000"><ele>702</ele><time>2026-03-23T10:26:23Z</time></trkpt>
<trkpt lat="43.0271820000" lon="0.2556700000"><ele>701</ele><time>2026-03-23T10:26:26Z</time></trkpt>
<trkpt lat="43.0271620000" lon="0.2556670000"><ele>701</ele><time>2026-03-23T10:26:28Z</time></trkpt>
<trkpt lat="43.0271400000" lon="0.2556700000"><ele>701</ele><time>2026-03-23T10:26:30Z</time></trkpt>
<trkpt lat="43.0271150000" lon="0.2556700000"><ele>701</ele><time>2026-03-23T10:26:32Z</time></trkpt>
<trkpt lat="43.0270920000" lon="0.2556620000"><ele>701</ele><time>2026-03-23T10:26:34Z</time></trkpt>
<trkpt lat="43.0270720000" lon="0.2556570000"><ele>701</ele><time>2026-03-23T10:26:36Z</time></trkpt>
<trkpt lat="43.0270520000" lon="0.2556500000"><ele>700</ele><time>2026-03-23T10:26:38Z</time></trkpt>
<trkpt lat="43.0270300000" lon="0.2556420000"><ele>700</ele><time>2026-03-23T10:26:40Z</time></trkpt>
<trkpt lat="43.0270070000" lon="0.2556320000"><ele>700</ele><time>2026-03-23T10:26:42Z</time></trkpt>
<trkpt lat="43.0269870000" lon="0.2556270000"><ele>700</ele><time>2026-03-23T10:26:44Z</time></trkpt>
<trkpt lat="43.0269620000" lon="0.2556200000"><ele>700</ele><time>2026-03-23T10:26:47Z</time></trkpt>
<trkpt lat="43.0269420000" lon="0.2556100000"><ele>700</ele><time>2026-03-23T10:26:49Z</time></trkpt>
<trkpt lat="43.0269220000" lon="0.2555950000"><ele>699</ele><time>2026-03-23T10:26:51Z</time></trkpt>
<trkpt lat="43.0269020000" lon="0.2555780000"><ele>699</ele><time>2026-03-23T10:26:53Z</time></trkpt>
<trkpt lat="43.0268870000" lon="0.2555670000"><ele>699</ele><time>2026-03-23T10:26:55Z</time></trkpt>
<trkpt lat="43.0268620000" lon="0.2555620000"><ele>698</ele><time>2026-03-23T10:26:58Z</time></trkpt>
<trkpt lat="43.0268420000" lon="0.2555470000"><ele>698</ele><time>2026-03-23T10:27:00Z</time></trkpt>
<trkpt lat="43.0268220000" lon="0.2555450000"><ele>698</ele><time>2026-03-23T10:27:02Z</time></trkpt>
<trkpt lat="43.0268000000" lon="0.2555420000"><ele>698</ele><time>2026-03-23T10:27:04Z</time></trkpt>
<trkpt lat="43.0267800000" lon="0.2555320000"><ele>697</ele><time>2026-03-23T10:27:06Z</time></trkpt>
<trkpt lat="43.0267600000" lon="0.2555250000"><ele>697</ele><time>2026-03-23T10:27:08Z</time></trkpt>
<trkpt lat="43.0267420000" lon="0.2555120000"><ele>696</ele><time>2026-03-23T10:27:10Z</time></trkpt>
<trkpt lat="43.0267170000" lon="0.2554970000"><ele>696</ele><time>2026-03-23T10:27:13Z</time></trkpt>
<trkpt lat="43.0266920000" lon="0.2554870000"><ele>695</ele><time>2026-03-23T10:27:16Z</time></trkpt>
<trkpt lat="43.0266720000" lon="0.2554820000"><ele>695</ele><time>2026-03-23T10:27:18Z</time></trkpt>
<trkpt lat="43.0266520000" lon="0.2554770000"><ele>695</ele><time>2026-03-23T10:27:20Z</time></trkpt>
<trkpt lat="43.0266320000" lon="0.2554620000"><ele>695</ele><time>2026-03-23T10:27:22Z</time></trkpt>
<trkpt lat="43.0266150000" lon="0.2554550000"><ele>694</ele><time>2026-03-23T10:27:24Z</time></trkpt>
<trkpt lat="43.0265920000" lon="0.2554470000"><ele>694</ele><time>2026-03-23T10:27:26Z</time></trkpt>
<trkpt lat="43.0265700000" lon="0.2554380000"><ele>694</ele><time>2026-03-23T10:27:28Z</time></trkpt>
<trkpt lat="43.0265470000" lon="0.2554320000"><ele>694</ele><time>2026-03-23T10:27:30Z</time></trkpt>
<trkpt lat="43.0265220000" lon="0.2554220000"><ele>693</ele><time>2026-03-23T10:27:32Z</time></trkpt>
<trkpt lat="43.0265050000" lon="0.2554120000"><ele>693</ele><time>2026-03-23T10:27:34Z</time></trkpt>
<trkpt lat="43.0264850000" lon="0.2554070000"><ele>693</ele><time>2026-03-23T10:27:36Z</time></trkpt>
<trkpt lat="43.0264670000" lon="0.2553970000"><ele>693</ele><time>2026-03-23T10:27:38Z</time></trkpt>
<trkpt lat="43.0264470000" lon="0.2553930000"><ele>693</ele><time>2026-03-23T10:27:40Z</time></trkpt>
<trkpt lat="43.0264220000" lon="0.2553970000"><ele>693</ele><time>2026-03-23T10:27:42Z</time></trkpt>
<trkpt lat="43.0263920000" lon="0.2553930000"><ele>692</ele><time>2026-03-23T10:27:44Z</time></trkpt>
<trkpt lat="43.0263670000" lon="0.2553970000"><ele>692</ele><time>2026-03-23T10:27:46Z</time></trkpt>
<trkpt lat="43.0263380000" lon="0.2553970000"><ele>692</ele><time>2026-03-23T10:27:48Z</time></trkpt>
<trkpt lat="43.0263170000" lon="0.2553930000"><ele>692</ele><time>2026-03-23T10:27:50Z</time></trkpt>
<trkpt lat="43.0262920000" lon="0.2553870000"><ele>692</ele><time>2026-03-23T10:27:52Z</time></trkpt>
<trkpt lat="43.0262720000" lon="0.2553800000"><ele>692</ele><time>2026-03-23T10:27:54Z</time></trkpt>
<trkpt lat="43.0262520000" lon="0.2553750000"><ele>692</ele><time>2026-03-23T10:27:56Z</time></trkpt>
<trkpt lat="43.0262370000" lon="0.2553650000"><ele>691</ele><time>2026-03-23T10:27:58Z</time></trkpt>
<trkpt lat="43.0262170000" lon="0.2553650000"><ele>691</ele><time>2026-03-23T10:28:00Z</time></trkpt>
<trkpt lat="43.0261970000" lon="0.2553620000"><ele>691</ele><time>2026-03-23T10:28:02Z</time></trkpt>
<trkpt lat="43.0261800000" lon="0.2553570000"><ele>691</ele><time>2026-03-23T10:28:04Z</time></trkpt>
<trkpt lat="43.0261620000" lon="0.2553500000"><ele>691</ele><time>2026-03-23T10:28:06Z</time></trkpt>
<trkpt lat="43.0261370000" lon="0.2553320000"><ele>690</ele><time>2026-03-23T10:28:08Z</time></trkpt>
<trkpt lat="43.0261120000" lon="0.2553170000"><ele>690</ele><time>2026-03-23T10:28:10Z</time></trkpt>
<trkpt lat="43.0260950000" lon="0.2553050000"><ele>690</ele><time>2026-03-23T10:28:12Z</time></trkpt>
<trkpt lat="43.0260750000" lon="0.2552920000"><ele>690</ele><time>2026-03-23T10:28:14Z</time></trkpt>
<trkpt lat="43.0260520000" lon="0.2552770000"><ele>690</ele><time>2026-03-23T10:28:16Z</time></trkpt>
<trkpt lat="43.0260350000" lon="0.2552700000"><ele>690</ele><time>2026-03-23T10:28:18Z</time></trkpt>
<trkpt lat="43.0260100000" lon="0.2552670000"><ele>690</ele><time>2026-03-23T10:28:20Z</time></trkpt>
<trkpt lat="43.0259820000" lon="0.2552670000"><ele>690</ele><time>2026-03-23T10:28:22Z</time></trkpt>
<trkpt lat="43.0259570000" lon="0.2552600000"><ele>690</ele><time>2026-03-23T10:28:24Z</time></trkpt>
<trkpt lat="43.0259350000" lon="0.2552470000"><ele>690</ele><time>2026-03-23T10:28:26Z</time></trkpt>
<trkpt lat="43.0259150000" lon="0.2552370000"><ele>690</ele><time>2026-03-23T10:28:28Z</time></trkpt>
<trkpt lat="43.0258950000" lon="0.2552200000"><ele>690</ele><time>2026-03-23T10:28:30Z</time></trkpt>
<trkpt lat="43.0258720000" lon="0.2552080000"><ele>690</ele><time>2026-03-23T10:28:32Z</time></trkpt>
<trkpt lat="43.0258550000" lon="0.2551920000"><ele>691</ele><time>2026-03-23T10:28:34Z</time></trkpt>
<trkpt lat="43.0258350000" lon="0.2551800000"><ele>691</ele><time>2026-03-23T10:28:36Z</time></trkpt>
<trkpt lat="43.0258170000" lon="0.2551580000"><ele>691</ele><time>2026-03-23T10:28:38Z</time></trkpt>
<trkpt lat="43.0257950000" lon="0.2551420000"><ele>691</ele><time>2026-03-23T10:28:40Z</time></trkpt>
<trkpt lat="43.0257770000" lon="0.2551170000"><ele>691</ele><time>2026-03-23T10:28:42Z</time></trkpt>
<trkpt lat="43.0257620000" lon="0.2550970000"><ele>691</ele><time>2026-03-23T10:28:44Z</time></trkpt>
<trkpt lat="43.0257520000" lon="0.2550720000"><ele>691</ele><time>2026-03-23T10:28:46Z</time></trkpt>
<trkpt lat="43.0257400000" lon="0.2550520000"><ele>691</ele><time>2026-03-23T10:28:48Z</time></trkpt>
<trkpt lat="43.0257320000" lon="0.2550220000"><ele>692</ele><time>2026-03-23T10:28:50Z</time></trkpt>
<trkpt lat="43.0257220000" lon="0.2549920000"><ele>692</ele><time>2026-03-23T10:28:52Z</time></trkpt>
<trkpt lat="43.0257100000" lon="0.2549670000"><ele>692</ele><time>2026-03-23T10:28:54Z</time></trkpt>
<trkpt lat="43.0257070000" lon="0.2549320000"><ele>692</ele><time>2026-03-23T10:28:56Z</time></trkpt>
<trkpt lat="43.0257050000" lon="0.2548950000"><ele>692</ele><time>2026-03-23T10:28:58Z</time></trkpt>
<trkpt lat="43.0257070000" lon="0.2548620000"><ele>692</ele><time>2026-03-23T10:29:00Z</time></trkpt>
<trkpt lat="43.0257150000" lon="0.2548330000"><ele>692</ele><time>2026-03-23T10:29:04Z</time></trkpt>
<trkpt lat="43.0257220000" lon="0.2548580000"><ele>693</ele><time>2026-03-23T10:29:40Z</time></trkpt>
<trkpt lat="43.0257420000" lon="0.2548570000"><ele>691</ele><time>2026-03-23T10:30:39Z</time></trkpt>
<trkpt lat="43.0257670000" lon="0.2548570000"><ele>691</ele><time>2026-03-23T10:30:42Z</time></trkpt>
<trkpt lat="43.0257520000" lon="0.2548770000"><ele>690</ele><time>2026-03-23T10:34:55Z</time></trkpt>
<trkpt lat="43.0257550000" lon="0.2549020000"><ele>690</ele><time>2026-03-23T10:34:58Z</time></trkpt>
<trkpt lat="43.0257330000" lon="0.2548820000"><ele>690</ele><time>2026-03-23T10:36:33Z</time></trkpt>
<trkpt lat="43.0257170000" lon="0.2548720000"><ele>690</ele><time>2026-03-23T10:37:37Z</time></trkpt>
<trkpt lat="43.0257000000" lon="0.2548570000"><ele>691</ele><time>2026-03-23T10:40:32Z</time></trkpt>
<trkpt lat="43.0256800000" lon="0.2548620000"><ele>691</ele><time>2026-03-23T10:40:34Z</time></trkpt>
<trkpt lat="43.0256620000" lon="0.2548570000"><ele>692</ele><time>2026-03-23T10:40:40Z</time></trkpt>
<trkpt lat="43.0256470000" lon="0.2548420000"><ele>692</ele><time>2026-03-23T10:40:42Z</time></trkpt>
<trkpt lat="43.0256270000" lon="0.2548250000"><ele>691</ele><time>2026-03-23T10:40:44Z</time></trkpt>
<trkpt lat="43.0256120000" lon="0.2548020000"><ele>691</ele><time>2026-03-23T10:40:46Z</time></trkpt>
<trkpt lat="43.0255970000" lon="0.2547830000"><ele>691</ele><time>2026-03-23T10:40:48Z</time></trkpt>
<trkpt lat="43.0255820000" lon="0.2547570000"><ele>692</ele><time>2026-03-23T10:40:50Z</time></trkpt>
<trkpt lat="43.0255720000" lon="0.2547230000"><ele>692</ele><time>2026-03-23T10:40:52Z</time></trkpt>
<trkpt lat="43.0255620000" lon="0.2546950000"><ele>692</ele><time>2026-03-23T10:40:54Z</time></trkpt>
<trkpt lat="43.0255550000" lon="0.2546670000"><ele>692</ele><time>2026-03-23T10:40:56Z</time></trkpt>
<trkpt lat="43.0255470000" lon="0.2546380000"><ele>692</ele><time>2026-03-23T10:40:58Z</time></trkpt>
<trkpt lat="43.0255370000" lon="0.2546170000"><ele>693</ele><time>2026-03-23T10:41:00Z</time></trkpt>
<trkpt lat="43.0255270000" lon="0.2545880000"><ele>693</ele><time>2026-03-23T10:41:02Z</time></trkpt>
<trkpt lat="43.0255170000" lon="0.2545620000"><ele>693</ele><time>2026-03-23T10:41:04Z</time></trkpt>
<trkpt lat="43.0255120000" lon="0.2545350000"><ele>693</ele><time>2026-03-23T10:41:06Z</time></trkpt>
<trkpt lat="43.0255020000" lon="0.2545000000"><ele>694</ele><time>2026-03-23T10:41:09Z</time></trkpt>
<trkpt lat="43.0255020000" lon="0.2544620000"><ele>694</ele><time>2026-03-23T10:41:12Z</time></trkpt>
<trkpt lat="43.0254970000" lon="0.2544320000"><ele>694</ele><time>2026-03-23T10:41:14Z</time></trkpt>
<trkpt lat="43.0254900000" lon="0.2544020000"><ele>694</ele><time>2026-03-23T10:41:16Z</time></trkpt>
<trkpt lat="43.0254820000" lon="0.2543720000"><ele>695</ele><time>2026-03-23T10:41:18Z</time></trkpt>
<trkpt lat="43.0254670000" lon="0.2543370000"><ele>695</ele><time>2026-03-23T10:41:20Z</time></trkpt>
<trkpt lat="43.0254520000" lon="0.2543020000"><ele>695</ele><time>2026-03-23T10:41:22Z</time></trkpt>
<trkpt lat="43.0254470000" lon="0.2542670000"><ele>695</ele><time>2026-03-23T10:41:24Z</time></trkpt>
<trkpt lat="43.0254420000" lon="0.2542320000"><ele>695</ele><time>2026-03-23T10:41:26Z</time></trkpt>
<trkpt lat="43.0254370000" lon="0.2542050000"><ele>695</ele><time>2026-03-23T10:41:28Z</time></trkpt>
<trkpt lat="43.0254320000" lon="0.2541700000"><ele>695</ele><time>2026-03-23T10:41:30Z</time></trkpt>
<trkpt lat="43.0254230000" lon="0.2541300000"><ele>696</ele><time>2026-03-23T10:41:32Z</time></trkpt>
<trkpt lat="43.0254170000" lon="0.2540920000"><ele>696</ele><time>2026-03-23T10:41:34Z</time></trkpt>
<trkpt lat="43.0254120000" lon="0.2540530000"><ele>696</ele><time>2026-03-23T10:41:36Z</time></trkpt>
<trkpt lat="43.0254070000" lon="0.2540170000"><ele>696</ele><time>2026-03-23T10:41:38Z</time></trkpt>
<trkpt lat="43.0254050000" lon="0.2539870000"><ele>696</ele><time>2026-03-23T10:41:40Z</time></trkpt>
<trkpt lat="43.0253970000" lon="0.2539570000"><ele>696</ele><time>2026-03-23T10:41:42Z</time></trkpt>
<trkpt lat="43.0253970000" lon="0.2539250000"><ele>696</ele><time>2026-03-23T10:41:44Z</time></trkpt>
<trkpt lat="43.0253970000" lon="0.2538920000"><ele>696</ele><time>2026-03-23T10:41:46Z</time></trkpt>
<trkpt lat="43.0254000000" lon="0.2538580000"><ele>696</ele><time>2026-03-23T10:41:48Z</time></trkpt>
<trkpt lat="43.0254000000" lon="0.2538300000"><ele>696</ele><time>2026-03-23T10:41:50Z</time></trkpt>
<trkpt lat="43.0254000000" lon="0.2537970000"><ele>696</ele><time>2026-03-23T10:41:52Z</time></trkpt>
<trkpt lat="43.0253920000" lon="0.2537680000"><ele>696</ele><time>2026-03-23T10:41:54Z</time></trkpt>
<trkpt lat="43.0253920000" lon="0.2537370000"><ele>696</ele><time>2026-03-23T10:41:56Z</time></trkpt>
<trkpt lat="43.0253950000" lon="0.2537070000"><ele>696</ele><time>2026-03-23T10:41:58Z</time></trkpt>
<trkpt lat="43.0253920000" lon="0.2536720000"><ele>696</ele><time>2026-03-23T10:42:00Z</time></trkpt>
<trkpt lat="43.0253870000" lon="0.2536370000"><ele>696</ele><time>2026-03-23T10:42:02Z</time></trkpt>
<trkpt lat="43.0253870000" lon="0.2536020000"><ele>696</ele><time>2026-03-23T10:42:04Z</time></trkpt>
<trkpt lat="43.0253920000" lon="0.2535720000"><ele>696</ele><time>2026-03-23T10:42:06Z</time></trkpt>
<trkpt lat="43.0253950000" lon="0.2535420000"><ele>696</ele><time>2026-03-23T10:42:08Z</time></trkpt>
<trkpt lat="43.0253970000" lon="0.2535120000"><ele>695</ele><time>2026-03-23T10:42:10Z</time></trkpt>
<trkpt lat="43.0254000000" lon="0.2534770000"><ele>695</ele><time>2026-03-23T10:42:12Z</time></trkpt>
<trkpt lat="43.0254050000" lon="0.2534420000"><ele>695</ele><time>2026-03-23T10:42:14Z</time></trkpt>
<trkpt lat="43.0254070000" lon="0.2534120000"><ele>695</ele><time>2026-03-23T10:42:16Z</time></trkpt>
<trkpt lat="43.0254120000" lon="0.2533770000"><ele>695</ele><time>2026-03-23T10:42:18Z</time></trkpt>
<trkpt lat="43.0254170000" lon="0.2533470000"><ele>695</ele><time>2026-03-23T10:42:20Z</time></trkpt>
<trkpt lat="43.0254220000" lon="0.2533170000"><ele>694</ele><time>2026-03-23T10:42:22Z</time></trkpt>
<trkpt lat="43.0254300000" lon="0.2532850000"><ele>694</ele><time>2026-03-23T10:42:24Z</time></trkpt>
<trkpt lat="43.0254350000" lon="0.2532470000"><ele>694</ele><time>2026-03-23T10:42:26Z</time></trkpt>
<trkpt lat="43.0254370000" lon="0.2532120000"><ele>694</ele><time>2026-03-23T10:42:28Z</time></trkpt>
<trkpt lat="43.0254400000" lon="0.2531770000"><ele>694</ele><time>2026-03-23T10:42:30Z</time></trkpt>
<trkpt lat="43.0254500000" lon="0.2531420000"><ele>693</ele><time>2026-03-23T10:42:32Z</time></trkpt>
<trkpt lat="43.0254620000" lon="0.2531020000"><ele>693</ele><time>2026-03-23T10:42:34Z</time></trkpt>
<trkpt lat="43.0254720000" lon="0.2530770000"><ele>693</ele><time>2026-03-23T10:42:36Z</time></trkpt>
<trkpt lat="43.0254820000" lon="0.2530530000"><ele>693</ele><time>2026-03-23T10:42:38Z</time></trkpt>
<trkpt lat="43.0254820000" lon="0.2530270000"><ele>693</ele><time>2026-03-23T10:42:40Z</time></trkpt>
<trkpt lat="43.0254820000" lon="0.2530020000"><ele>693</ele><time>2026-03-23T10:42:42Z</time></trkpt>
<trkpt lat="43.0254820000" lon="0.2529570000"><ele>693</ele><time>2026-03-23T10:42:44Z</time></trkpt>
<trkpt lat="43.0254900000" lon="0.2529150000"><ele>693</ele><time>2026-03-23T10:42:46Z</time></trkpt>
<trkpt lat="43.0254920000" lon="0.2528820000"><ele>693</ele><time>2026-03-23T10:42:48Z</time></trkpt>
<trkpt lat="43.0254920000" lon="0.2528520000"><ele>693</ele><time>2026-03-23T10:42:50Z</time></trkpt>
<trkpt lat="43.0254920000" lon="0.2528170000"><ele>693</ele><time>2026-03-23T10:42:52Z</time></trkpt>
<trkpt lat="43.0254970000" lon="0.2527830000"><ele>693</ele><time>2026-03-23T10:42:54Z</time></trkpt>
<trkpt lat="43.0255020000" lon="0.2527520000"><ele>693</ele><time>2026-03-23T10:42:56Z</time></trkpt>
<trkpt lat="43.0255050000" lon="0.2527220000"><ele>693</ele><time>2026-03-23T10:42:58Z</time></trkpt>
<trkpt lat="43.0255070000" lon="0.2526920000"><ele>693</ele><time>2026-03-23T10:43:00Z</time></trkpt>
<trkpt lat="43.0255170000" lon="0.2526670000"><ele>693</ele><time>2026-03-23T10:43:02Z</time></trkpt>
<trkpt lat="43.0255220000" lon="0.2526370000"><ele>693</ele><time>2026-03-23T10:43:04Z</time></trkpt>
<trkpt lat="43.0255220000" lon="0.2526020000"><ele>693</ele><time>2026-03-23T10:43:06Z</time></trkpt>
<trkpt lat="43.0255220000" lon="0.2525670000"><ele>693</ele><time>2026-03-23T10:43:08Z</time></trkpt>
<trkpt lat="43.0255270000" lon="0.2525320000"><ele>693</ele><time>2026-03-23T10:43:10Z</time></trkpt>
<trkpt lat="43.0255270000" lon="0.2524970000"><ele>693</ele><time>2026-03-23T10:43:12Z</time></trkpt>
<trkpt lat="43.0255300000" lon="0.2524620000"><ele>693</ele><time>2026-03-23T10:43:14Z</time></trkpt>
<trkpt lat="43.0255350000" lon="0.2524280000"><ele>694</ele><time>2026-03-23T10:43:16Z</time></trkpt>
<trkpt lat="43.0255320000" lon="0.2523920000"><ele>694</ele><time>2026-03-23T10:43:18Z</time></trkpt>
<trkpt lat="43.0255320000" lon="0.2523580000"><ele>694</ele><time>2026-03-23T10:43:20Z</time></trkpt>
<trkpt lat="43.0255350000" lon="0.2523250000"><ele>694</ele><time>2026-03-23T10:43:22Z</time></trkpt>
<trkpt lat="43.0255320000" lon="0.2522900000"><ele>694</ele><time>2026-03-23T10:43:24Z</time></trkpt>
<trkpt lat="43.0255320000" lon="0.2522550000"><ele>694</ele><time>2026-03-23T10:43:26Z</time></trkpt>
<trkpt lat="43.0255220000" lon="0.2522220000"><ele>694</ele><time>2026-03-23T10:43:28Z</time></trkpt>
<trkpt lat="43.0255170000" lon="0.2521900000"><ele>694</ele><time>2026-03-23T10:43:30Z</time></trkpt>
<trkpt lat="43.0255150000" lon="0.2521600000"><ele>694</ele><time>2026-03-23T10:43:32Z</time></trkpt>
<trkpt lat="43.0255080000" lon="0.2521270000"><ele>694</ele><time>2026-03-23T10:43:34Z</time></trkpt>
<trkpt lat="43.0255050000" lon="0.2520950000"><ele>694</ele><time>2026-03-23T10:43:36Z</time></trkpt>
<trkpt lat="43.0254970000" lon="0.2520620000"><ele>694</ele><time>2026-03-23T10:43:38Z</time></trkpt>
<trkpt lat="43.0255050000" lon="0.2520350000"><ele>694</ele><time>2026-03-23T10:43:40Z</time></trkpt>
<trkpt lat="43.0255070000" lon="0.2519970000"><ele>694</ele><time>2026-03-23T10:43:43Z</time></trkpt>
<trkpt lat="43.0254970000" lon="0.2519720000"><ele>694</ele><time>2026-03-23T10:43:49Z</time></trkpt>
<trkpt lat="43.0254870000" lon="0.2519420000"><ele>694</ele><time>2026-03-23T10:43:51Z</time></trkpt>
<trkpt lat="43.0254720000" lon="0.2519100000"><ele>694</ele><time>2026-03-23T10:43:53Z</time></trkpt>
<trkpt lat="43.0254620000" lon="0.2518770000"><ele>694</ele><time>2026-03-23T10:43:55Z</time></trkpt>
<trkpt lat="43.0254450000" lon="0.2518520000"><ele>694</ele><time>2026-03-23T10:43:57Z</time></trkpt>
<trkpt lat="43.0254270000" lon="0.2518270000"><ele>694</ele><time>2026-03-23T10:43:59Z</time></trkpt>
<trkpt lat="43.0254170000" lon="0.2517970000"><ele>694</ele><time>2026-03-23T10:44:01Z</time></trkpt>
<trkpt lat="43.0254070000" lon="0.2517670000"><ele>694</ele><time>2026-03-23T10:44:03Z</time></trkpt>
<trkpt lat="43.0253970000" lon="0.2517400000"><ele>694</ele><time>2026-03-23T10:44:05Z</time></trkpt>
<trkpt lat="43.0253920000" lon="0.2517100000"><ele>694</ele><time>2026-03-23T10:44:07Z</time></trkpt>
<trkpt lat="43.0253800000" lon="0.2516800000"><ele>694</ele><time>2026-03-23T10:44:09Z</time></trkpt>
<trkpt lat="43.0253720000" lon="0.2516480000"><ele>694</ele><time>2026-03-23T10:44:11Z</time></trkpt>
<trkpt lat="43.0253600000" lon="0.2516250000"><ele>694</ele><time>2026-03-23T10:44:13Z</time></trkpt>
<trkpt lat="43.0253500000" lon="0.2515950000"><ele>694</ele><time>2026-03-23T10:44:15Z</time></trkpt>
<trkpt lat="43.0253320000" lon="0.2515600000"><ele>694</ele><time>2026-03-23T10:44:17Z</time></trkpt>
<trkpt lat="43.0253270000" lon="0.2515320000"><ele>694</ele><time>2026-03-23T10:44:19Z</time></trkpt>
<trkpt lat="43.0253170000" lon="0.2515020000"><ele>694</ele><time>2026-03-23T10:44:21Z</time></trkpt>
<trkpt lat="43.0253070000" lon="0.2514750000"><ele>694</ele><time>2026-03-23T10:44:23Z</time></trkpt>
<trkpt lat="43.0252970000" lon="0.2514470000"><ele>694</ele><time>2026-03-23T10:44:25Z</time></trkpt>
<trkpt lat="43.0252820000" lon="0.2514220000"><ele>693</ele><time>2026-03-23T10:44:27Z</time></trkpt>
<trkpt lat="43.0252700000" lon="0.2514000000"><ele>693</ele><time>2026-03-23T10:44:29Z</time></trkpt>
<trkpt lat="43.0252620000" lon="0.2513720000"><ele>693</ele><time>2026-03-23T10:44:31Z</time></trkpt>
<trkpt lat="43.0252520000" lon="0.2513420000"><ele>693</ele><time>2026-03-23T10:44:33Z</time></trkpt>
<trkpt lat="43.0252470000" lon="0.2513120000"><ele>693</ele><time>2026-03-23T10:44:35Z</time></trkpt>
<trkpt lat="43.0252400000" lon="0.2512780000"><ele>692</ele><time>2026-03-23T10:44:37Z</time></trkpt>
<trkpt lat="43.0252270000" lon="0.2512480000"><ele>692</ele><time>2026-03-23T10:44:39Z</time></trkpt>
<trkpt lat="43.0252150000" lon="0.2512220000"><ele>692</ele><time>2026-03-23T10:44:41Z</time></trkpt>
<trkpt lat="43.0252070000" lon="0.2511920000"><ele>692</ele><time>2026-03-23T10:44:43Z</time></trkpt>
<trkpt lat="43.0251980000" lon="0.2511650000"><ele>692</ele><time>2026-03-23T10:44:45Z</time></trkpt>
<trkpt lat="43.0251870000" lon="0.2511320000"><ele>692</ele><time>2026-03-23T10:44:47Z</time></trkpt>
<trkpt lat="43.0251750000" lon="0.2511020000"><ele>691</ele><time>2026-03-23T10:44:49Z</time></trkpt>
<trkpt lat="43.0251600000" lon="0.2510770000"><ele>691</ele><time>2026-03-23T10:44:51Z</time></trkpt>
<trkpt lat="43.0251470000" lon="0.2510470000"><ele>691</ele><time>2026-03-23T10:44:53Z</time></trkpt>
<trkpt lat="43.0251370000" lon="0.2510120000"><ele>691</ele><time>2026-03-23T10:44:55Z</time></trkpt>
<trkpt lat="43.0251220000" lon="0.2509820000"><ele>691</ele><time>2026-03-23T10:44:57Z</time></trkpt>
<trkpt lat="43.0251100000" lon="0.2509520000"><ele>691</ele><time>2026-03-23T10:44:59Z</time></trkpt>
<trkpt lat="43.0250950000" lon="0.2509270000"><ele>690</ele><time>2026-03-23T10:45:01Z</time></trkpt>
<trkpt lat="43.0250820000" lon="0.2509000000"><ele>690</ele><time>2026-03-23T10:45:03Z</time></trkpt>
<trkpt lat="43.0250600000" lon="0.2508770000"><ele>690</ele><time>2026-03-23T10:45:05Z</time></trkpt>
<trkpt lat="43.0250400000" lon="0.2508520000"><ele>690</ele><time>2026-03-23T10:45:07Z</time></trkpt>
<trkpt lat="43.0250220000" lon="0.2508250000"><ele>690</ele><time>2026-03-23T10:45:09Z</time></trkpt>
<trkpt lat="43.0250050000" lon="0.2507970000"><ele>689</ele><time>2026-03-23T10:45:11Z</time></trkpt>
<trkpt lat="43.0249870000" lon="0.2507680000"><ele>689</ele><time>2026-03-23T10:45:13Z</time></trkpt>
<trkpt lat="43.0249800000" lon="0.2507300000"><ele>689</ele><time>2026-03-23T10:45:15Z</time></trkpt>
<trkpt lat="43.0249920000" lon="0.2506970000"><ele>688</ele><time>2026-03-23T10:45:17Z</time></trkpt>
<trkpt lat="43.0249920000" lon="0.2506700000"><ele>688</ele><time>2026-03-23T10:45:19Z</time></trkpt>
<trkpt lat="43.0249970000" lon="0.2506400000"><ele>687</ele><time>2026-03-23T10:45:34Z</time></trkpt>
<trkpt lat="43.0250020000" lon="0.2506000000"><ele>687</ele><time>2026-03-23T10:45:36Z</time></trkpt>
<trkpt lat="43.0250070000" lon="0.2505730000"><ele>687</ele><time>2026-03-23T10:45:37Z</time></trkpt>
<trkpt lat="43.0250220000" lon="0.2505320000"><ele>687</ele><time>2026-03-23T10:45:39Z</time></trkpt>
<trkpt lat="43.0250370000" lon="0.2505000000"><ele>687</ele><time>2026-03-23T10:45:41Z</time></trkpt>
<trkpt lat="43.0250500000" lon="0.2504570000"><ele>687</ele><time>2026-03-23T10:45:43Z</time></trkpt>
<trkpt lat="43.0250750000" lon="0.2504270000"><ele>687</ele><time>2026-03-23T10:45:45Z</time></trkpt>
<trkpt lat="43.0251020000" lon="0.2504000000"><ele>687</ele><time>2026-03-23T10:45:47Z</time></trkpt>
<trkpt lat="43.0251350000" lon="0.2503870000"><ele>688</ele><time>2026-03-23T10:45:49Z</time></trkpt>
<trkpt lat="43.0251650000" lon="0.2503720000"><ele>688</ele><time>2026-03-23T10:45:51Z</time></trkpt>
<trkpt lat="43.0251900000" lon="0.2503570000"><ele>688</ele><time>2026-03-23T10:45:53Z</time></trkpt>
<trkpt lat="43.0252120000" lon="0.2503430000"><ele>688</ele><time>2026-03-23T10:45:55Z</time></trkpt>
<trkpt lat="43.0252320000" lon="0.2503320000"><ele>688</ele><time>2026-03-23T10:45:57Z</time></trkpt>
<trkpt lat="43.0252570000" lon="0.2503200000"><ele>688</ele><time>2026-03-23T10:45:59Z</time></trkpt>
<trkpt lat="43.0252800000" lon="0.2503070000"><ele>688</ele><time>2026-03-23T10:46:01Z</time></trkpt>
<trkpt lat="43.0253120000" lon="0.2503070000"><ele>688</ele><time>2026-03-23T10:46:03Z</time></trkpt>
<trkpt lat="43.0253370000" lon="0.2502970000"><ele>689</ele><time>2026-03-23T10:46:05Z</time></trkpt>
<trkpt lat="43.0253650000" lon="0.2502870000"><ele>689</ele><time>2026-03-23T10:46:07Z</time></trkpt>
<trkpt lat="43.0253920000" lon="0.2502720000"><ele>689</ele><time>2026-03-23T10:46:09Z</time></trkpt>
<trkpt lat="43.0254170000" lon="0.2502720000"><ele>689</ele><time>2026-03-23T10:46:11Z</time></trkpt>
<trkpt lat="43.0254370000" lon="0.2502820000"><ele>689</ele><time>2026-03-23T10:46:13Z</time></trkpt>
<trkpt lat="43.0254570000" lon="0.2502720000"><ele>689</ele><time>2026-03-23T10:46:15Z</time></trkpt>
<trkpt lat="43.0254770000" lon="0.2502670000"><ele>689</ele><time>2026-03-23T10:46:17Z</time></trkpt>
<trkpt lat="43.0254970000" lon="0.2502570000"><ele>689</ele><time>2026-03-23T10:46:19Z</time></trkpt>
<trkpt lat="43.0255270000" lon="0.2502650000"><ele>689</ele><time>2026-03-23T10:46:21Z</time></trkpt>
<trkpt lat="43.0255520000" lon="0.2502620000"><ele>689</ele><time>2026-03-23T10:46:23Z</time></trkpt>
<trkpt lat="43.0255770000" lon="0.2502650000"><ele>689</ele><time>2026-03-23T10:46:25Z</time></trkpt>
<trkpt lat="43.0256020000" lon="0.2502620000"><ele>689</ele><time>2026-03-23T10:46:27Z</time></trkpt>
<trkpt lat="43.0256300000" lon="0.2502670000"><ele>689</ele><time>2026-03-23T10:46:29Z</time></trkpt>
<trkpt lat="43.0256620000" lon="0.2502720000"><ele>690</ele><time>2026-03-23T10:46:31Z</time></trkpt>
<trkpt lat="43.0256900000" lon="0.2502620000"><ele>690</ele><time>2026-03-23T10:46:33Z</time></trkpt>
<trkpt lat="43.0257100000" lon="0.2502570000"><ele>690</ele><time>2026-03-23T10:46:36Z</time></trkpt>
<trkpt lat="43.0257370000" lon="0.2502580000"><ele>691</ele><time>2026-03-23T10:46:39Z</time></trkpt>
<trkpt lat="43.0257670000" lon="0.2502470000"><ele>691</ele><time>2026-03-23T10:46:41Z</time></trkpt>
<trkpt lat="43.0257920000" lon="0.2502370000"><ele>691</ele><time>2026-03-23T10:46:44Z</time></trkpt>
<trkpt lat="43.0258120000" lon="0.2502320000"><ele>692</ele><time>2026-03-23T10:46:46Z</time></trkpt>
<trkpt lat="43.0258400000" lon="0.2502250000"><ele>692</ele><time>2026-03-23T10:46:49Z</time></trkpt>
<trkpt lat="43.0258600000" lon="0.2502150000"><ele>692</ele><time>2026-03-23T10:46:51Z</time></trkpt>
<trkpt lat="43.0258820000" lon="0.2501950000"><ele>692</ele><time>2026-03-23T10:46:53Z</time></trkpt>
<trkpt lat="43.0259050000" lon="0.2501720000"><ele>693</ele><time>2026-03-23T10:46:55Z</time></trkpt>
<trkpt lat="43.0259300000" lon="0.2501380000"><ele>693</ele><time>2026-03-23T10:46:57Z</time></trkpt>
<trkpt lat="43.0259500000" lon="0.2501170000"><ele>693</ele><time>2026-03-23T10:46:59Z</time></trkpt>
<trkpt lat="43.0259750000" lon="0.2501050000"><ele>693</ele><time>2026-03-23T10:47:01Z</time></trkpt>
<trkpt lat="43.0259920000" lon="0.2500950000"><ele>693</ele><time>2026-03-23T10:47:03Z</time></trkpt>
<trkpt lat="43.0260100000" lon="0.2500770000"><ele>693</ele><time>2026-03-23T10:47:05Z</time></trkpt>
<trkpt lat="43.0260300000" lon="0.2500620000"><ele>693</ele><time>2026-03-23T10:47:07Z</time></trkpt>
<trkpt lat="43.0260500000" lon="0.2500470000"><ele>694</ele><time>2026-03-23T10:47:09Z</time></trkpt>
<trkpt lat="43.0260670000" lon="0.2500400000"><ele>694</ele><time>2026-03-23T10:47:11Z</time></trkpt>
<trkpt lat="43.0260950000" lon="0.2500230000"><ele>694</ele><time>2026-03-23T10:47:14Z</time></trkpt>
<trkpt lat="43.0261170000" lon="0.2500070000"><ele>694</ele><time>2026-03-23T10:47:16Z</time></trkpt>
<trkpt lat="43.0261370000" lon="0.2499950000"><ele>694</ele><time>2026-03-23T10:47:18Z</time></trkpt>
<trkpt lat="43.0261600000" lon="0.2499820000"><ele>694</ele><time>2026-03-23T10:47:20Z</time></trkpt>
<trkpt lat="43.0261820000" lon="0.2499720000"><ele>694</ele><time>2026-03-23T10:47:22Z</time></trkpt>
<trkpt lat="43.0262050000" lon="0.2499570000"><ele>694</ele><time>2026-03-23T10:47:24Z</time></trkpt>
<trkpt lat="43.0262250000" lon="0.2499520000"><ele>694</ele><time>2026-03-23T10:47:26Z</time></trkpt>
<trkpt lat="43.0262470000" lon="0.2499470000"><ele>694</ele><time>2026-03-23T10:47:28Z</time></trkpt>
<trkpt lat="43.0262720000" lon="0.2499370000"><ele>694</ele><time>2026-03-23T10:47:30Z</time></trkpt>
<trkpt lat="43.0262920000" lon="0.2499320000"><ele>693</ele><time>2026-03-23T10:47:32Z</time></trkpt>
<trkpt lat="43.0263150000" lon="0.2499270000"><ele>693</ele><time>2026-03-23T10:47:34Z</time></trkpt>
<trkpt lat="43.0263370000" lon="0.2499270000"><ele>694</ele><time>2026-03-23T10:47:36Z</time></trkpt>
<trkpt lat="43.0263620000" lon="0.2499270000"><ele>694</ele><time>2026-03-23T10:47:38Z</time></trkpt>
<trkpt lat="43.0263870000" lon="0.2499270000"><ele>693</ele><time>2026-03-23T10:47:40Z</time></trkpt>
<trkpt lat="43.0264070000" lon="0.2499170000"><ele>693</ele><time>2026-03-23T10:47:42Z</time></trkpt>
<trkpt lat="43.0264270000" lon="0.2499070000"><ele>693</ele><time>2026-03-23T10:47:44Z</time></trkpt>
<trkpt lat="43.0264500000" lon="0.2499020000"><ele>693</ele><time>2026-03-23T10:47:46Z</time></trkpt>
<trkpt lat="43.0264750000" lon="0.2498970000"><ele>693</ele><time>2026-03-23T10:47:48Z</time></trkpt>
<trkpt lat="43.0265020000" lon="0.2498870000"><ele>693</ele><time>2026-03-23T10:47:50Z</time></trkpt>
<trkpt lat="43.0265250000" lon="0.2498880000"><ele>693</ele><time>2026-03-23T10:47:52Z</time></trkpt>
<trkpt lat="43.0265450000" lon="0.2498970000"><ele>693</ele><time>2026-03-23T10:47:54Z</time></trkpt>
<trkpt lat="43.0265630000" lon="0.2499020000"><ele>693</ele><time>2026-03-23T10:47:57Z</time></trkpt>
<trkpt lat="43.0265770000" lon="0.2499220000"><ele>693</ele><time>2026-03-23T10:48:00Z</time></trkpt>
<trkpt lat="43.0265620000" lon="0.2499070000"><ele>693</ele><time>2026-03-23T10:49:19Z</time></trkpt>
<trkpt lat="43.0265720000" lon="0.2498820000"><ele>693</ele><time>2026-03-23T10:49:21Z</time></trkpt>
<trkpt lat="43.0265920000" lon="0.2498500000"><ele>693</ele><time>2026-03-23T10:49:23Z</time></trkpt>
<trkpt lat="43.0266070000" lon="0.2498270000"><ele>693</ele><time>2026-03-23T10:49:24Z</time></trkpt>
<trkpt lat="43.0266220000" lon="0.2498020000"><ele>693</ele><time>2026-03-23T10:49:25Z</time></trkpt>
<trkpt lat="43.0266350000" lon="0.2497800000"><ele>693</ele><time>2026-03-23T10:49:26Z</time></trkpt>
<trkpt lat="43.0266520000" lon="0.2497520000"><ele>693</ele><time>2026-03-23T10:49:28Z</time></trkpt>
<trkpt lat="43.0266700000" lon="0.2497320000"><ele>692</ele><time>2026-03-23T10:49:30Z</time></trkpt>
<trkpt lat="43.0266870000" lon="0.2497100000"><ele>692</ele><time>2026-03-23T10:49:32Z</time></trkpt>
<trkpt lat="43.0267070000" lon="0.2496920000"><ele>692</ele><time>2026-03-23T10:49:34Z</time></trkpt>
<trkpt lat="43.0267270000" lon="0.2496750000"><ele>692</ele><time>2026-03-23T10:49:36Z</time></trkpt>
<trkpt lat="43.0267500000" lon="0.2496620000"><ele>692</ele><time>2026-03-23T10:49:38Z</time></trkpt>
<trkpt lat="43.0267720000" lon="0.2496520000"><ele>692</ele><time>2026-03-23T10:49:40Z</time></trkpt>
<trkpt lat="43.0267920000" lon="0.2496420000"><ele>692</ele><time>2026-03-23T10:49:42Z</time></trkpt>
<trkpt lat="43.0268120000" lon="0.2496270000"><ele>692</ele><time>2026-03-23T10:49:44Z</time></trkpt>
<trkpt lat="43.0268350000" lon="0.2496120000"><ele>692</ele><time>2026-03-23T10:49:46Z</time></trkpt>
<trkpt lat="43.0268570000" lon="0.2495970000"><ele>691</ele><time>2026-03-23T10:49:48Z</time></trkpt>
<trkpt lat="43.0268820000" lon="0.2495870000"><ele>691</ele><time>2026-03-23T10:49:50Z</time></trkpt>
<trkpt lat="43.0269050000" lon="0.2495720000"><ele>691</ele><time>2026-03-23T10:49:52Z</time></trkpt>
<trkpt lat="43.0269270000" lon="0.2495620000"><ele>691</ele><time>2026-03-23T10:49:54Z</time></trkpt>
<trkpt lat="43.0269470000" lon="0.2495470000"><ele>691</ele><time>2026-03-23T10:49:56Z</time></trkpt>
<trkpt lat="43.0269670000" lon="0.2495270000"><ele>691</ele><time>2026-03-23T10:49:58Z</time></trkpt>
<trkpt lat="43.0269900000" lon="0.2495120000"><ele>691</ele><time>2026-03-23T10:50:00Z</time></trkpt>
<trkpt lat="43.0270120000" lon="0.2495020000"><ele>691</ele><time>2026-03-23T10:50:02Z</time></trkpt>
<trkpt lat="43.0270370000" lon="0.2494920000"><ele>691</ele><time>2026-03-23T10:50:04Z</time></trkpt>
<trkpt lat="43.0270600000" lon="0.2494850000"><ele>691</ele><time>2026-03-23T10:50:06Z</time></trkpt>
<trkpt lat="43.0270820000" lon="0.2494800000"><ele>690</ele><time>2026-03-23T10:50:08Z</time></trkpt>
<trkpt lat="43.0271070000" lon="0.2494720000"><ele>690</ele><time>2026-03-23T10:50:10Z</time></trkpt>
<trkpt lat="43.0271370000" lon="0.2494670000"><ele>690</ele><time>2026-03-23T10:50:12Z</time></trkpt>
<trkpt lat="43.0271620000" lon="0.2494620000"><ele>690</ele><time>2026-03-23T10:50:14Z</time></trkpt>
<trkpt lat="43.0271870000" lon="0.2494580000"><ele>690</ele><time>2026-03-23T10:50:16Z</time></trkpt>
<trkpt lat="43.0272150000" lon="0.2494620000"><ele>690</ele><time>2026-03-23T10:50:18Z</time></trkpt>
<trkpt lat="43.0272400000" lon="0.2494570000"><ele>690</ele><time>2026-03-23T10:50:20Z</time></trkpt>
<trkpt lat="43.0272350000" lon="0.2494870000"><ele>690</ele><time>2026-03-23T10:50:24Z</time></trkpt>
<trkpt lat="43.0272530000" lon="0.2494870000"><ele>689</ele><time>2026-03-23T10:50:39Z</time></trkpt>
<trkpt lat="43.0272900000" lon="0.2494730000"><ele>689</ele><time>2026-03-23T10:50:41Z</time></trkpt>
<trkpt lat="43.0273070000" lon="0.2494720000"><ele>689</ele><time>2026-03-23T10:50:42Z</time></trkpt>
<trkpt lat="43.0273420000" lon="0.2494630000"><ele>689</ele><time>2026-03-23T10:50:44Z</time></trkpt>
<trkpt lat="43.0273720000" lon="0.2494520000"><ele>689</ele><time>2026-03-23T10:50:46Z</time></trkpt>
<trkpt lat="43.0274000000" lon="0.2494370000"><ele>688</ele><time>2026-03-23T10:50:48Z</time></trkpt>
<trkpt lat="43.0274220000" lon="0.2494320000"><ele>688</ele><time>2026-03-23T10:50:50Z</time></trkpt>
<trkpt lat="43.0274470000" lon="0.2494320000"><ele>688</ele><time>2026-03-23T10:50:52Z</time></trkpt>
<trkpt lat="43.0274700000" lon="0.2494300000"><ele>688</ele><time>2026-03-23T10:50:54Z</time></trkpt>
<trkpt lat="43.0274920000" lon="0.2494270000"><ele>688</ele><time>2026-03-23T10:50:56Z</time></trkpt>
<trkpt lat="43.0275100000" lon="0.2494300000"><ele>688</ele><time>2026-03-23T10:50:58Z</time></trkpt>
<trkpt lat="43.0275320000" lon="0.2494270000"><ele>688</ele><time>2026-03-23T10:51:00Z</time></trkpt>
<trkpt lat="43.0275600000" lon="0.2494220000"><ele>688</ele><time>2026-03-23T10:51:02Z</time></trkpt>
<trkpt lat="43.0275820000" lon="0.2494100000"><ele>688</ele><time>2026-03-23T10:51:04Z</time></trkpt>
<trkpt lat="43.0276070000" lon="0.2494000000"><ele>687</ele><time>2026-03-23T10:51:06Z</time></trkpt>
<trkpt lat="43.0276270000" lon="0.2493780000"><ele>687</ele><time>2026-03-23T10:51:08Z</time></trkpt>
<trkpt lat="43.0276500000" lon="0.2493620000"><ele>687</ele><time>2026-03-23T10:51:10Z</time></trkpt>
<trkpt lat="43.0276670000" lon="0.2493420000"><ele>687</ele><time>2026-03-23T10:51:12Z</time></trkpt>
<trkpt lat="43.0276850000" lon="0.2493220000"><ele>687</ele><time>2026-03-23T10:51:14Z</time></trkpt>
<trkpt lat="43.0277020000" lon="0.2493020000"><ele>687</ele><time>2026-03-23T10:51:16Z</time></trkpt>
<trkpt lat="43.0277250000" lon="0.2492800000"><ele>686</ele><time>2026-03-23T10:51:18Z</time></trkpt>
<trkpt lat="43.0277420000" lon="0.2492570000"><ele>686</ele><time>2026-03-23T10:51:20Z</time></trkpt>
<trkpt lat="43.0277520000" lon="0.2492300000"><ele>686</ele><time>2026-03-23T10:51:22Z</time></trkpt>
<trkpt lat="43.0277670000" lon="0.2492050000"><ele>686</ele><time>2026-03-23T10:51:24Z</time></trkpt>
<trkpt lat="43.0277820000" lon="0.2491770000"><ele>686</ele><time>2026-03-23T10:51:26Z</time></trkpt>
<trkpt lat="43.0277970000" lon="0.2491500000"><ele>685</ele><time>2026-03-23T10:51:28Z</time></trkpt>
<trkpt lat="43.0278070000" lon="0.2491200000"><ele>685</ele><time>2026-03-23T10:51:30Z</time></trkpt>
<trkpt lat="43.0278170000" lon="0.2490970000"><ele>685</ele><time>2026-03-23T10:51:32Z</time></trkpt>
<trkpt lat="43.0278220000" lon="0.2490670000"><ele>685</ele><time>2026-03-23T10:51:34Z</time></trkpt>
<trkpt lat="43.0278320000" lon="0.2490370000"><ele>684</ele><time>2026-03-23T10:51:36Z</time></trkpt>
<trkpt lat="43.0278420000" lon="0.2490120000"><ele>684</ele><time>2026-03-23T10:51:38Z</time></trkpt>
<trkpt lat="43.0278450000" lon="0.2489770000"><ele>684</ele><time>2026-03-23T10:51:40Z</time></trkpt>
<trkpt lat="43.0278450000" lon="0.2489420000"><ele>684</ele><time>2026-03-23T10:51:42Z</time></trkpt>
<trkpt lat="43.0278420000" lon="0.2489070000"><ele>683</ele><time>2026-03-23T10:51:44Z</time></trkpt>
<trkpt lat="43.0278450000" lon="0.2488770000"><ele>683</ele><time>2026-03-23T10:51:47Z</time></trkpt>
<trkpt lat="43.0278520000" lon="0.2488320000"><ele>682</ele><time>2026-03-23T10:51:56Z</time></trkpt>
<trkpt lat="43.0278620000" lon="0.2488020000"><ele>682</ele><time>2026-03-23T10:51:58Z</time></trkpt>
<trkpt lat="43.0278580000" lon="0.2487730000"><ele>682</ele><time>2026-03-23T10:52:00Z</time></trkpt>
<trkpt lat="43.0278670000" lon="0.2487420000"><ele>682</ele><time>2026-03-23T10:52:02Z</time></trkpt>
<trkpt lat="43.0278820000" lon="0.2487600000"><ele>682</ele><time>2026-03-23T10:52:06Z</time></trkpt>
<trkpt lat="43.0279020000" lon="0.2487520000"><ele>682</ele><time>2026-03-23T10:52:10Z</time></trkpt>
<trkpt lat="43.0278970000" lon="0.2487270000"><ele>682</ele><time>2026-03-23T10:52:22Z</time></trkpt>
<trkpt lat="43.0279070000" lon="0.2486920000"><ele>681</ele><time>2026-03-23T10:53:00Z</time></trkpt>
<trkpt lat="43.0279220000" lon="0.2486770000"><ele>681</ele><time>2026-03-23T10:53:02Z</time></trkpt>
<trkpt lat="43.0279400000" lon="0.2486670000"><ele>681</ele><time>2026-03-23T10:53:05Z</time></trkpt>
<trkpt lat="43.0279650000" lon="0.2486620000"><ele>681</ele><time>2026-03-23T10:53:27Z</time></trkpt>
<trkpt lat="43.0279800000" lon="0.2486370000"><ele>681</ele><time>2026-03-23T10:53:29Z</time></trkpt>
<trkpt lat="43.0279820000" lon="0.2486070000"><ele>681</ele><time>2026-03-23T10:53:31Z</time></trkpt>
<trkpt lat="43.0279970000" lon="0.2485850000"><ele>681</ele><time>2026-03-23T10:53:33Z</time></trkpt>
<trkpt lat="43.0280020000" lon="0.2485620000"><ele>681</ele><time>2026-03-23T10:53:35Z</time></trkpt>
<trkpt lat="43.0280100000" lon="0.2485370000"><ele>681</ele><time>2026-03-23T10:53:37Z</time></trkpt>
<trkpt lat="43.0280300000" lon="0.2485300000"><ele>681</ele><time>2026-03-23T10:53:39Z</time></trkpt>
<trkpt lat="43.0280470000" lon="0.2484970000"><ele>681</ele><time>2026-03-23T10:53:42Z</time></trkpt>
<trkpt lat="43.0280650000" lon="0.2484700000"><ele>681</ele><time>2026-03-23T10:53:45Z</time></trkpt>
<trkpt lat="43.0280870000" lon="0.2484570000"><ele>682</ele><time>2026-03-23T10:53:47Z</time></trkpt>
<trkpt lat="43.0281020000" lon="0.2484270000"><ele>682</ele><time>2026-03-23T10:53:49Z</time></trkpt>
<trkpt lat="43.0281100000" lon="0.2483870000"><ele>682</ele><time>2026-03-23T10:53:51Z</time></trkpt>
<trkpt lat="43.0281220000" lon="0.2483570000"><ele>682</ele><time>2026-03-23T10:53:54Z</time></trkpt>
<trkpt lat="43.0281450000" lon="0.2483450000"><ele>682</ele><time>2026-03-23T10:53:56Z</time></trkpt>
<trkpt lat="43.0281650000" lon="0.2483270000"><ele>683</ele><time>2026-03-23T10:53:59Z</time></trkpt>
<trkpt lat="43.0281920000" lon="0.2483070000"><ele>683</ele><time>2026-03-23T10:54:01Z</time></trkpt>
<trkpt lat="43.0282150000" lon="0.2482920000"><ele>683</ele><time>2026-03-23T10:54:03Z</time></trkpt>
<trkpt lat="43.0282320000" lon="0.2482800000"><ele>683</ele><time>2026-03-23T10:54:05Z</time></trkpt>
<trkpt lat="43.0282450000" lon="0.2482620000"><ele>684</ele><time>2026-03-23T10:54:07Z</time></trkpt>
<trkpt lat="43.0282570000" lon="0.2482420000"><ele>684</ele><time>2026-03-23T10:54:09Z</time></trkpt>
<trkpt lat="43.0282720000" lon="0.2482220000"><ele>684</ele><time>2026-03-23T10:54:11Z</time></trkpt>
<trkpt lat="43.0282870000" lon="0.2482000000"><ele>684</ele><time>2026-03-23T10:54:13Z</time></trkpt>
<trkpt lat="43.0283070000" lon="0.2481820000"><ele>684</ele><time>2026-03-23T10:54:15Z</time></trkpt>
<trkpt lat="43.0283370000" lon="0.2481700000"><ele>685</ele><time>2026-03-23T10:54:17Z</time></trkpt>
<trkpt lat="43.0283550000" lon="0.2481600000"><ele>685</ele><time>2026-03-23T10:54:19Z</time></trkpt>
<trkpt lat="43.0283750000" lon="0.2481500000"><ele>685</ele><time>2026-03-23T10:54:22Z</time></trkpt>
<trkpt lat="43.0283950000" lon="0.2481420000"><ele>685</ele><time>2026-03-23T10:54:25Z</time></trkpt>
<trkpt lat="43.0284070000" lon="0.2481170000"><ele>685</ele><time>2026-03-23T10:54:27Z</time></trkpt>
<trkpt lat="43.0284220000" lon="0.2480920000"><ele>686</ele><time>2026-03-23T10:54:29Z</time></trkpt>
<trkpt lat="43.0284370000" lon="0.2480770000"><ele>686</ele><time>2026-03-23T10:54:31Z</time></trkpt>
<trkpt lat="43.0284550000" lon="0.2480550000"><ele>686</ele><time>2026-03-23T10:54:33Z</time></trkpt>
<trkpt lat="43.0284750000" lon="0.2480370000"><ele>686</ele><time>2026-03-23T10:54:35Z</time></trkpt>
<trkpt lat="43.0284920000" lon="0.2480220000"><ele>686</ele><time>2026-03-23T10:54:37Z</time></trkpt>
<trkpt lat="43.0285070000" lon="0.2480020000"><ele>687</ele><time>2026-03-23T10:54:39Z</time></trkpt>
<trkpt lat="43.0285320000" lon="0.2479920000"><ele>687</ele><time>2026-03-23T10:54:42Z</time></trkpt>
<trkpt lat="43.0285520000" lon="0.2479870000"><ele>687</ele><time>2026-03-23T10:54:44Z</time></trkpt>
<trkpt lat="43.0285720000" lon="0.2479820000"><ele>687</ele><time>2026-03-23T10:54:46Z</time></trkpt>
<trkpt lat="43.0285920000" lon="0.2479750000"><ele>688</ele><time>2026-03-23T10:54:48Z</time></trkpt>
<trkpt lat="43.0286150000" lon="0.2479670000"><ele>688</ele><time>2026-03-23T10:54:51Z</time></trkpt>
<trkpt lat="43.0286400000" lon="0.2479670000"><ele>688</ele><time>2026-03-23T10:54:53Z</time></trkpt>
<trkpt lat="43.0286650000" lon="0.2479670000"><ele>688</ele><time>2026-03-23T10:54:55Z</time></trkpt>
<trkpt lat="43.0286850000" lon="0.2479670000"><ele>689</ele><time>2026-03-23T10:54:58Z</time></trkpt>
<trkpt lat="43.0287070000" lon="0.2479620000"><ele>689</ele><time>2026-03-23T10:55:00Z</time></trkpt>
<trkpt lat="43.0287320000" lon="0.2479430000"><ele>689</ele><time>2026-03-23T10:55:02Z</time></trkpt>
<trkpt lat="43.0287520000" lon="0.2479470000"><ele>689</ele><time>2026-03-23T10:55:04Z</time></trkpt>
<trkpt lat="43.0287800000" lon="0.2479470000"><ele>690</ele><time>2026-03-23T10:55:06Z</time></trkpt>
<trkpt lat="43.0288050000" lon="0.2479470000"><ele>690</ele><time>2026-03-23T10:55:08Z</time></trkpt>
<trkpt lat="43.0288320000" lon="0.2479570000"><ele>690</ele><time>2026-03-23T10:55:10Z</time></trkpt>
<trkpt lat="43.0288550000" lon="0.2479570000"><ele>691</ele><time>2026-03-23T10:55:12Z</time></trkpt>
<trkpt lat="43.0288770000" lon="0.2479620000"><ele>691</ele><time>2026-03-23T10:55:15Z</time></trkpt>
<trkpt lat="43.0289000000" lon="0.2479770000"><ele>691</ele><time>2026-03-23T10:55:18Z</time></trkpt>
<trkpt lat="43.0289170000" lon="0.2479930000"><ele>691</ele><time>2026-03-23T10:55:20Z</time></trkpt>
<trkpt lat="43.0289370000" lon="0.2480070000"><ele>691</ele><time>2026-03-23T10:55:22Z</time></trkpt>
<trkpt lat="43.0289620000" lon="0.2480200000"><ele>692</ele><time>2026-03-23T10:55:25Z</time></trkpt>
<trkpt lat="43.0289850000" lon="0.2480320000"><ele>692</ele><time>2026-03-23T10:55:27Z</time></trkpt>
<trkpt lat="43.0290070000" lon="0.2480420000"><ele>692</ele><time>2026-03-23T10:55:29Z</time></trkpt>
<trkpt lat="43.0290320000" lon="0.2480520000"><ele>692</ele><time>2026-03-23T10:55:31Z</time></trkpt>
<trkpt lat="43.0290520000" lon="0.2480650000"><ele>692</ele><time>2026-03-23T10:55:33Z</time></trkpt>
<trkpt lat="43.0290680000" lon="0.2480820000"><ele>693</ele><time>2026-03-23T10:55:35Z</time></trkpt>
<trkpt lat="43.0290850000" lon="0.2481020000"><ele>693</ele><time>2026-03-23T10:55:37Z</time></trkpt>
<trkpt lat="43.0290970000" lon="0.2481250000"><ele>693</ele><time>2026-03-23T10:55:39Z</time></trkpt>
<trkpt lat="43.0291120000" lon="0.2481470000"><ele>693</ele><time>2026-03-23T10:55:41Z</time></trkpt>
<trkpt lat="43.0291300000" lon="0.2481700000"><ele>694</ele><time>2026-03-23T10:55:43Z</time></trkpt>
<trkpt lat="43.0291470000" lon="0.2481870000"><ele>694</ele><time>2026-03-23T10:55:45Z</time></trkpt>
<trkpt lat="43.0291650000" lon="0.2482000000"><ele>694</ele><time>2026-03-23T10:55:47Z</time></trkpt>
<trkpt lat="43.0291720000" lon="0.2482320000"><ele>695</ele><time>2026-03-23T10:56:10Z</time></trkpt>
<trkpt lat="43.0291850000" lon="0.2482670000"><ele>695</ele><time>2026-03-23T10:56:12Z</time></trkpt>
<trkpt lat="43.0292070000" lon="0.2483020000"><ele>695</ele><time>2026-03-23T10:56:14Z</time></trkpt>
<trkpt lat="43.0292220000" lon="0.2483270000"><ele>695</ele><time>2026-03-23T10:56:16Z</time></trkpt>
<trkpt lat="43.0292400000" lon="0.2483570000"><ele>695</ele><time>2026-03-23T10:56:19Z</time></trkpt>
<trkpt lat="43.0292520000" lon="0.2483800000"><ele>695</ele><time>2026-03-23T10:56:21Z</time></trkpt>
<trkpt lat="43.0292670000" lon="0.2484020000"><ele>696</ele><time>2026-03-23T10:56:23Z</time></trkpt>
<trkpt lat="43.0292800000" lon="0.2484200000"><ele>696</ele><time>2026-03-23T10:56:25Z</time></trkpt>
<trkpt lat="43.0292930000" lon="0.2484370000"><ele>696</ele><time>2026-03-23T10:56:27Z</time></trkpt>
<trkpt lat="43.0293070000" lon="0.2484550000"><ele>696</ele><time>2026-03-23T10:56:29Z</time></trkpt>
<trkpt lat="43.0293250000" lon="0.2484770000"><ele>697</ele><time>2026-03-23T10:56:32Z</time></trkpt>
<trkpt lat="43.0293420000" lon="0.2485050000"><ele>697</ele><time>2026-03-23T10:56:35Z</time></trkpt>
<trkpt lat="43.0293570000" lon="0.2485220000"><ele>697</ele><time>2026-03-23T10:56:37Z</time></trkpt>
<trkpt lat="43.0293820000" lon="0.2485420000"><ele>698</ele><time>2026-03-23T10:56:39Z</time></trkpt>
<trkpt lat="43.0294070000" lon="0.2485620000"><ele>698</ele><time>2026-03-23T10:56:41Z</time></trkpt>
<trkpt lat="43.0294350000" lon="0.2485770000"><ele>698</ele><time>2026-03-23T10:56:43Z</time></trkpt>
<trkpt lat="43.0294550000" lon="0.2485920000"><ele>698</ele><time>2026-03-23T10:56:45Z</time></trkpt>
<trkpt lat="43.0294750000" lon="0.2486070000"><ele>699</ele><time>2026-03-23T10:56:47Z</time></trkpt>
<trkpt lat="43.0294970000" lon="0.2486250000"><ele>699</ele><time>2026-03-23T10:56:49Z</time></trkpt>
<trkpt lat="43.0295150000" lon="0.2486420000"><ele>699</ele><time>2026-03-23T10:56:51Z</time></trkpt>
<trkpt lat="43.0295320000" lon="0.2486570000"><ele>699</ele><time>2026-03-23T10:56:53Z</time></trkpt>
<trkpt lat="43.0295500000" lon="0.2486700000"><ele>699</ele><time>2026-03-23T10:56:55Z</time></trkpt>
<trkpt lat="43.0295670000" lon="0.2486820000"><ele>700</ele><time>2026-03-23T10:56:57Z</time></trkpt>
<trkpt lat="43.0295920000" lon="0.2487000000"><ele>700</ele><time>2026-03-23T10:57:00Z</time></trkpt>
<trkpt lat="43.0296170000" lon="0.2487150000"><ele>700</ele><time>2026-03-23T10:57:03Z</time></trkpt>
<trkpt lat="43.0296400000" lon="0.2487220000"><ele>700</ele><time>2026-03-23T10:57:06Z</time></trkpt>
<trkpt lat="43.0296570000" lon="0.2487300000"><ele>701</ele><time>2026-03-23T10:57:08Z</time></trkpt>
<trkpt lat="43.0296770000" lon="0.2487350000"><ele>701</ele><time>2026-03-23T10:57:10Z</time></trkpt>
<trkpt lat="43.0297050000" lon="0.2487320000"><ele>701</ele><time>2026-03-23T10:57:12Z</time></trkpt>
<trkpt lat="43.0297270000" lon="0.2487320000"><ele>701</ele><time>2026-03-23T10:57:14Z</time></trkpt>
<trkpt lat="43.0297520000" lon="0.2487270000"><ele>701</ele><time>2026-03-23T10:57:16Z</time></trkpt>
<trkpt lat="43.0297720000" lon="0.2487270000"><ele>701</ele><time>2026-03-23T10:57:18Z</time></trkpt>
<trkpt lat="43.0297970000" lon="0.2487170000"><ele>702</ele><time>2026-03-23T10:57:21Z</time></trkpt>
<trkpt lat="43.0298220000" lon="0.2487120000"><ele>702</ele><time>2026-03-23T10:57:23Z</time></trkpt>
<trkpt lat="43.0298470000" lon="0.2487120000"><ele>702</ele><time>2026-03-23T10:57:26Z</time></trkpt>
<trkpt lat="43.0298670000" lon="0.2486970000"><ele>702</ele><time>2026-03-23T10:57:29Z</time></trkpt>
<trkpt lat="43.0298870000" lon="0.2486900000"><ele>703</ele><time>2026-03-23T10:57:31Z</time></trkpt>
<trkpt lat="43.0299070000" lon="0.2486750000"><ele>703</ele><time>2026-03-23T10:57:33Z</time></trkpt>
<trkpt lat="43.0299270000" lon="0.2486670000"><ele>703</ele><time>2026-03-23T10:57:35Z</time></trkpt>
<trkpt lat="43.0299500000" lon="0.2486520000"><ele>703</ele><time>2026-03-23T10:57:37Z</time></trkpt>
<trkpt lat="43.0299720000" lon="0.2486280000"><ele>703</ele><time>2026-03-23T10:57:39Z</time></trkpt>
<trkpt lat="43.0299920000" lon="0.2486170000"><ele>703</ele><time>2026-03-23T10:57:41Z</time></trkpt>
<trkpt lat="43.0300120000" lon="0.2486070000"><ele>703</ele><time>2026-03-23T10:57:43Z</time></trkpt>
<trkpt lat="43.0300350000" lon="0.2486050000"><ele>704</ele><time>2026-03-23T10:57:45Z</time></trkpt>
<trkpt lat="43.0300570000" lon="0.2486000000"><ele>704</ele><time>2026-03-23T10:57:47Z</time></trkpt>
<trkpt lat="43.0300770000" lon="0.2485970000"><ele>704</ele><time>2026-03-23T10:57:49Z</time></trkpt>
<trkpt lat="43.0301020000" lon="0.2485970000"><ele>704</ele><time>2026-03-23T10:57:51Z</time></trkpt>
<trkpt lat="43.0301200000" lon="0.2485820000"><ele>704</ele><time>2026-03-23T10:57:53Z</time></trkpt>
<trkpt lat="43.0301420000" lon="0.2485670000"><ele>704</ele><time>2026-03-23T10:57:55Z</time></trkpt>
<trkpt lat="43.0301650000" lon="0.2485650000"><ele>704</ele><time>2026-03-23T10:57:57Z</time></trkpt>
<trkpt lat="43.0301870000" lon="0.2485620000"><ele>705</ele><time>2026-03-23T10:57:59Z</time></trkpt>
<trkpt lat="43.0302080000" lon="0.2485650000"><ele>705</ele><time>2026-03-23T10:58:02Z</time></trkpt>
<trkpt lat="43.0302320000" lon="0.2485850000"><ele>705</ele><time>2026-03-23T10:58:40Z</time></trkpt>
<trkpt lat="43.0302520000" lon="0.2485920000"><ele>705</ele><time>2026-03-23T10:58:42Z</time></trkpt>
<trkpt lat="43.0302720000" lon="0.2486020000"><ele>706</ele><time>2026-03-23T10:59:13Z</time></trkpt>
<trkpt lat="43.0302920000" lon="0.2485970000"><ele>706</ele><time>2026-03-23T10:59:16Z</time></trkpt>
<trkpt lat="43.0303170000" lon="0.2485920000"><ele>713</ele><time>2026-03-23T11:00:28Z</time></trkpt>
<trkpt lat="43.0303420000" lon="0.2485770000"><ele>713</ele><time>2026-03-23T11:00:29Z</time></trkpt>
<trkpt lat="43.0303720000" lon="0.2485570000"><ele>714</ele><time>2026-03-23T11:00:30Z</time></trkpt>
<trkpt lat="43.0304020000" lon="0.2485370000"><ele>714</ele><time>2026-03-23T11:00:31Z</time></trkpt>
<trkpt lat="43.0304220000" lon="0.2485170000"><ele>714</ele><time>2026-03-23T11:00:32Z</time></trkpt>
<trkpt lat="43.0304370000" lon="0.2484930000"><ele>714</ele><time>2026-03-23T11:00:34Z</time></trkpt>
<trkpt lat="43.0304470000" lon="0.2484720000"><ele>714</ele><time>2026-03-23T11:00:38Z</time></trkpt>
<trkpt lat="43.0304620000" lon="0.2484550000"><ele>715</ele><time>2026-03-23T11:00:43Z</time></trkpt>
<trkpt lat="43.0304650000" lon="0.2484270000"><ele>721</ele><time>2026-03-23T11:01:33Z</time></trkpt>
<trkpt lat="43.0304650000" lon="0.2483920000"><ele>721</ele><time>2026-03-23T11:01:34Z</time></trkpt>
<trkpt lat="43.0304670000" lon="0.2483520000"><ele>721</ele><time>2026-03-23T11:01:35Z</time></trkpt>
<trkpt lat="43.0304670000" lon="0.2483170000"><ele>721</ele><time>2026-03-23T11:01:36Z</time></trkpt>
<trkpt lat="43.0304850000" lon="0.2482850000"><ele>727</ele><time>2026-03-23T11:02:40Z</time></trkpt>
<trkpt lat="43.0305070000" lon="0.2482470000"><ele>727</ele><time>2026-03-23T11:02:41Z</time></trkpt>
<trkpt lat="43.0305370000" lon="0.2482050000"><ele>727</ele><time>2026-03-23T11:02:42Z</time></trkpt>
<trkpt lat="43.0305670000" lon="0.2481670000"><ele>728</ele><time>2026-03-23T11:02:43Z</time></trkpt>
<trkpt lat="43.0305920000" lon="0.2481370000"><ele>728</ele><time>2026-03-23T11:02:44Z</time></trkpt>
<trkpt lat="43.0306120000" lon="0.2481220000"><ele>728</ele><time>2026-03-23T11:02:45Z</time></trkpt>
<trkpt lat="43.0306320000" lon="0.2481070000"><ele>728</ele><time>2026-03-23T11:02:47Z</time></trkpt>
<trkpt lat="43.0306520000" lon="0.2481020000"><ele>729</ele><time>2026-03-23T11:02:51Z</time></trkpt>
<trkpt lat="43.0306720000" lon="0.2481000000"><ele>729</ele><time>2026-03-23T11:02:55Z</time></trkpt>
<trkpt lat="43.0306870000" lon="0.2480770000"><ele>730</ele><time>2026-03-23T11:02:59Z</time></trkpt>
<trkpt lat="43.0307000000" lon="0.2480620000"><ele>731</ele><time>2026-03-23T11:03:03Z</time></trkpt>
<trkpt lat="43.0307020000" lon="0.2480200000"><ele>735</ele><time>2026-03-23T11:03:59Z</time></trkpt>
<trkpt lat="43.0307070000" lon="0.2479650000"><ele>735</ele><time>2026-03-23T11:04:01Z</time></trkpt>
<trkpt lat="43.0307100000" lon="0.2479320000"><ele>735</ele><time>2026-03-23T11:04:02Z</time></trkpt>
<trkpt lat="43.0307120000" lon="0.2479020000"><ele>736</ele><time>2026-03-23T11:04:03Z</time></trkpt>
<trkpt lat="43.0307100000" lon="0.2478620000"><ele>736</ele><time>2026-03-23T11:04:05Z</time></trkpt>
<trkpt lat="43.0306970000" lon="0.2478350000"><ele>736</ele><time>2026-03-23T11:04:07Z</time></trkpt>
<trkpt lat="43.0306770000" lon="0.2478220000"><ele>736</ele><time>2026-03-23T11:04:09Z</time></trkpt>
<trkpt lat="43.0306570000" lon="0.2478120000"><ele>736</ele><time>2026-03-23T11:04:11Z</time></trkpt>
<trkpt lat="43.0306370000" lon="0.2477970000"><ele>737</ele><time>2026-03-23T11:04:14Z</time></trkpt>
<trkpt lat="43.0306170000" lon="0.2477800000"><ele>737</ele><time>2026-03-23T11:04:17Z</time></trkpt>
<trkpt lat="43.0305970000" lon="0.2477620000"><ele>737</ele><time>2026-03-23T11:04:20Z</time></trkpt>
<trkpt lat="43.0305850000" lon="0.2477370000"><ele>737</ele><time>2026-03-23T11:04:23Z</time></trkpt>
<trkpt lat="43.0305670000" lon="0.2477170000"><ele>738</ele><time>2026-03-23T11:04:27Z</time></trkpt>
<trkpt lat="43.0305500000" lon="0.2476970000"><ele>738</ele><time>2026-03-23T11:04:31Z</time></trkpt>
<trkpt lat="43.0305270000" lon="0.2476870000"><ele>739</ele><time>2026-03-23T11:04:35Z</time></trkpt>
<trkpt lat="43.0305030000" lon="0.2476750000"><ele>739</ele><time>2026-03-23T11:04:39Z</time></trkpt>
<trkpt lat="43.0305030000" lon="0.2476500000"><ele>740</ele><time>2026-03-23T11:04:44Z</time></trkpt>
<trkpt lat="43.0305170000" lon="0.2476300000"><ele>741</ele><time>2026-03-23T11:04:49Z</time></trkpt>
<trkpt lat="43.0305070000" lon="0.2476020000"><ele>744</ele><time>2026-03-23T11:05:06Z</time></trkpt>
<trkpt lat="43.0304900000" lon="0.2475670000"><ele>744</ele><time>2026-03-23T11:05:08Z</time></trkpt>
<trkpt lat="43.0304750000" lon="0.2475420000"><ele>744</ele><time>2026-03-23T11:05:10Z</time></trkpt>
<trkpt lat="43.0304720000" lon="0.2475170000"><ele>747</ele><time>2026-03-23T11:05:31Z</time></trkpt>
<trkpt lat="43.0304670000" lon="0.2474770000"><ele>747</ele><time>2026-03-23T11:05:33Z</time></trkpt>
<trkpt lat="43.0304600000" lon="0.2474520000"><ele>747</ele><time>2026-03-23T11:05:34Z</time></trkpt>
<trkpt lat="43.0304520000" lon="0.2474270000"><ele>748</ele><time>2026-03-23T11:05:35Z</time></trkpt>
<trkpt lat="43.0304420000" lon="0.2474070000"><ele>748</ele><time>2026-03-23T11:05:36Z</time></trkpt>
<trkpt lat="43.0304400000" lon="0.2473670000"><ele>748</ele><time>2026-03-23T11:05:38Z</time></trkpt>
<trkpt lat="43.0304600000" lon="0.2473450000"><ele>748</ele><time>2026-03-23T11:05:40Z</time></trkpt>
<trkpt lat="43.0304770000" lon="0.2473320000"><ele>749</ele><time>2026-03-23T11:05:43Z</time></trkpt>
<trkpt lat="43.0304820000" lon="0.2473020000"><ele>749</ele><time>2026-03-23T11:05:47Z</time></trkpt>
<trkpt lat="43.0304820000" lon="0.2472770000"><ele>750</ele><time>2026-03-23T11:05:50Z</time></trkpt>
<trkpt lat="43.0304650000" lon="0.2472570000"><ele>751</ele><time>2026-03-23T11:06:49Z</time></trkpt>
<trkpt lat="43.0304900000" lon="0.2472570000"><ele>751</ele><time>2026-03-23T11:07:18Z</time></trkpt>
<trkpt lat="43.0305120000" lon="0.2472750000"><ele>751</ele><time>2026-03-23T11:07:20Z</time></trkpt>
<trkpt lat="43.0305320000" lon="0.2472920000"><ele>751</ele><time>2026-03-23T11:07:22Z</time></trkpt>
<trkpt lat="43.0305450000" lon="0.2473120000"><ele>751</ele><time>2026-03-23T11:07:24Z</time></trkpt>
<trkpt lat="43.0305600000" lon="0.2473350000"><ele>750</ele><time>2026-03-23T11:07:27Z</time></trkpt>
<trkpt lat="43.0305670000" lon="0.2473670000"><ele>750</ele><time>2026-03-23T11:07:30Z</time></trkpt>
<trkpt lat="43.0305770000" lon="0.2473880000"><ele>750</ele><time>2026-03-23T11:07:58Z</time></trkpt>
<trkpt lat="43.0305850000" lon="0.2474150000"><ele>750</ele><time>2026-03-23T11:08:03Z</time></trkpt>
<trkpt lat="43.0305670000" lon="0.2474120000"><ele>751</ele><time>2026-03-23T11:19:59Z</time></trkpt>
<trkpt lat="43.0305570000" lon="0.2473770000"><ele>752</ele><time>2026-03-23T11:20:44Z</time></trkpt>
<trkpt lat="43.0305550000" lon="0.2473370000"><ele>752</ele><time>2026-03-23T11:20:46Z</time></trkpt>
<trkpt lat="43.0305500000" lon="0.2472900000"><ele>752</ele><time>2026-03-23T11:20:48Z</time></trkpt>
<trkpt lat="43.0305470000" lon="0.2472480000"><ele>752</ele><time>2026-03-23T11:20:50Z</time></trkpt>
<trkpt lat="43.0305420000" lon="0.2472200000"><ele>753</ele><time>2026-03-23T11:20:52Z</time></trkpt>
<trkpt lat="43.0305400000" lon="0.2471870000"><ele>753</ele><time>2026-03-23T11:20:54Z</time></trkpt>
<trkpt lat="43.0305370000" lon="0.2471500000"><ele>753</ele><time>2026-03-23T11:20:56Z</time></trkpt>
<trkpt lat="43.0305300000" lon="0.2471130000"><ele>753</ele><time>2026-03-23T11:20:58Z</time></trkpt>
<trkpt lat="43.0305220000" lon="0.2470800000"><ele>753</ele><time>2026-03-23T11:21:00Z</time></trkpt>
<trkpt lat="43.0305220000" lon="0.2470470000"><ele>753</ele><time>2026-03-23T11:21:02Z</time></trkpt>
<trkpt lat="43.0305200000" lon="0.2470170000"><ele>753</ele><time>2026-03-23T11:21:04Z</time></trkpt>
<trkpt lat="43.0305250000" lon="0.2469870000"><ele>753</ele><time>2026-03-23T11:21:06Z</time></trkpt>
<trkpt lat="43.0305350000" lon="0.2469570000"><ele>753</ele><time>2026-03-23T11:21:08Z</time></trkpt>
<trkpt lat="43.0305400000" lon="0.2469220000"><ele>753</ele><time>2026-03-23T11:21:10Z</time></trkpt>
<trkpt lat="43.0305470000" lon="0.2468920000"><ele>754</ele><time>2026-03-23T11:21:12Z</time></trkpt>
<trkpt lat="43.0305570000" lon="0.2468670000"><ele>753</ele><time>2026-03-23T11:21:14Z</time></trkpt>
<trkpt lat="43.0305770000" lon="0.2468400000"><ele>753</ele><time>2026-03-23T11:21:16Z</time></trkpt>
<trkpt lat="43.0305970000" lon="0.2468170000"><ele>753</ele><time>2026-03-23T11:21:18Z</time></trkpt>
<trkpt lat="43.0306150000" lon="0.2467970000"><ele>753</ele><time>2026-03-23T11:21:20Z</time></trkpt>
<trkpt lat="43.0306350000" lon="0.2467820000"><ele>753</ele><time>2026-03-23T11:21:22Z</time></trkpt>
<trkpt lat="43.0306570000" lon="0.2467670000"><ele>753</ele><time>2026-03-23T11:21:24Z</time></trkpt>
<trkpt lat="43.0306770000" lon="0.2467500000"><ele>753</ele><time>2026-03-23T11:21:26Z</time></trkpt>
<trkpt lat="43.0306970000" lon="0.2467270000"><ele>753</ele><time>2026-03-23T11:21:28Z</time></trkpt>
<trkpt lat="43.0307170000" lon="0.2467100000"><ele>753</ele><time>2026-03-23T11:21:30Z</time></trkpt>
<trkpt lat="43.0307320000" lon="0.2466970000"><ele>753</ele><time>2026-03-23T11:21:32Z</time></trkpt>
<trkpt lat="43.0307520000" lon="0.2466800000"><ele>753</ele><time>2026-03-23T11:21:34Z</time></trkpt>
<trkpt lat="43.0307670000" lon="0.2466650000"><ele>753</ele><time>2026-03-23T11:21:36Z</time></trkpt>
<trkpt lat="43.0307920000" lon="0.2466450000"><ele>753</ele><time>2026-03-23T11:21:38Z</time></trkpt>
<trkpt lat="43.0308170000" lon="0.2466270000"><ele>752</ele><time>2026-03-23T11:21:40Z</time></trkpt>
<trkpt lat="43.0308370000" lon="0.2466120000"><ele>752</ele><time>2026-03-23T11:21:42Z</time></trkpt>
<trkpt lat="43.0308570000" lon="0.2465920000"><ele>752</ele><time>2026-03-23T11:21:45Z</time></trkpt>
<trkpt lat="43.0308800000" lon="0.2465800000"><ele>752</ele><time>2026-03-23T11:21:47Z</time></trkpt>
<trkpt lat="43.0309000000" lon="0.2465670000"><ele>752</ele><time>2026-03-23T11:21:49Z</time></trkpt>
<trkpt lat="43.0309170000" lon="0.2465520000"><ele>752</ele><time>2026-03-23T11:21:51Z</time></trkpt>
<trkpt lat="43.0309370000" lon="0.2465620000"><ele>751</ele><time>2026-03-23T11:22:02Z</time></trkpt>
<trkpt lat="43.0309550000" lon="0.2465580000"><ele>751</ele><time>2026-03-23T11:22:04Z</time></trkpt>
<trkpt lat="43.0309850000" lon="0.2465420000"><ele>751</ele><time>2026-03-23T11:22:06Z</time></trkpt>
<trkpt lat="43.0310170000" lon="0.2465220000"><ele>751</ele><time>2026-03-23T11:22:08Z</time></trkpt>
<trkpt lat="43.0310420000" lon="0.2465070000"><ele>751</ele><time>2026-03-23T11:22:10Z</time></trkpt>
<trkpt lat="43.0310670000" lon="0.2464950000"><ele>751</ele><time>2026-03-23T11:22:12Z</time></trkpt>
<trkpt lat="43.0310870000" lon="0.2464870000"><ele>751</ele><time>2026-03-23T11:22:14Z</time></trkpt>
<trkpt lat="43.0311070000" lon="0.2464720000"><ele>751</ele><time>2026-03-23T11:22:16Z</time></trkpt>
<trkpt lat="43.0311350000" lon="0.2464600000"><ele>751</ele><time>2026-03-23T11:22:18Z</time></trkpt>
<trkpt lat="43.0311570000" lon="0.2464500000"><ele>751</ele><time>2026-03-23T11:22:20Z</time></trkpt>
<trkpt lat="43.0311800000" lon="0.2464370000"><ele>750</ele><time>2026-03-23T11:22:22Z</time></trkpt>
<trkpt lat="43.0312000000" lon="0.2464270000"><ele>750</ele><time>2026-03-23T11:22:24Z</time></trkpt>
<trkpt lat="43.0312250000" lon="0.2464070000"><ele>750</ele><time>2026-03-23T11:22:26Z</time></trkpt>
<trkpt lat="43.0312470000" lon="0.2463850000"><ele>750</ele><time>2026-03-23T11:22:28Z</time></trkpt>
<trkpt lat="43.0312720000" lon="0.2463670000"><ele>750</ele><time>2026-03-23T11:22:30Z</time></trkpt>
<trkpt lat="43.0312950000" lon="0.2463470000"><ele>750</ele><time>2026-03-23T11:22:32Z</time></trkpt>
<trkpt lat="43.0313220000" lon="0.2463230000"><ele>750</ele><time>2026-03-23T11:22:34Z</time></trkpt>
<trkpt lat="43.0313470000" lon="0.2463070000"><ele>750</ele><time>2026-03-23T11:22:36Z</time></trkpt>
<trkpt lat="43.0313670000" lon="0.2462900000"><ele>750</ele><time>2026-03-23T11:22:38Z</time></trkpt>
<trkpt lat="43.0313870000" lon="0.2462770000"><ele>750</ele><time>2026-03-23T11:22:40Z</time></trkpt>
<trkpt lat="43.0314050000" lon="0.2462520000"><ele>750</ele><time>2026-03-23T11:22:42Z</time></trkpt>
<trkpt lat="43.0314300000" lon="0.2462370000"><ele>750</ele><time>2026-03-23T11:22:44Z</time></trkpt>
<trkpt lat="43.0314570000" lon="0.2462250000"><ele>749</ele><time>2026-03-23T11:22:46Z</time></trkpt>
<trkpt lat="43.0314820000" lon="0.2462020000"><ele>749</ele><time>2026-03-23T11:22:48Z</time></trkpt>
<trkpt lat="43.0315070000" lon="0.2461820000"><ele>749</ele><time>2026-03-23T11:22:50Z</time></trkpt>
<trkpt lat="43.0315270000" lon="0.2461620000"><ele>749</ele><time>2026-03-23T11:22:52Z</time></trkpt>
<trkpt lat="43.0315470000" lon="0.2461430000"><ele>749</ele><time>2026-03-23T11:22:54Z</time></trkpt>
<trkpt lat="43.0315700000" lon="0.2461320000"><ele>749</ele><time>2026-03-23T11:22:56Z</time></trkpt>
<trkpt lat="43.0315920000" lon="0.2461120000"><ele>749</ele><time>2026-03-23T11:22:58Z</time></trkpt>
<trkpt lat="43.0316170000" lon="0.2460950000"><ele>749</ele><time>2026-03-23T11:23:00Z</time></trkpt>
<trkpt lat="43.0316370000" lon="0.2460770000"><ele>749</ele><time>2026-03-23T11:23:02Z</time></trkpt>
<trkpt lat="43.0316620000" lon="0.2460600000"><ele>749</ele><time>2026-03-23T11:23:04Z</time></trkpt>
<trkpt lat="43.0316800000" lon="0.2460420000"><ele>749</ele><time>2026-03-23T11:23:06Z</time></trkpt>
<trkpt lat="43.0317020000" lon="0.2460250000"><ele>749</ele><time>2026-03-23T11:23:08Z</time></trkpt>
<trkpt lat="43.0317220000" lon="0.2460070000"><ele>749</ele><time>2026-03-23T11:23:10Z</time></trkpt>
<trkpt lat="43.0317420000" lon="0.2459870000"><ele>750</ele><time>2026-03-23T11:23:12Z</time></trkpt>
<trkpt lat="43.0317670000" lon="0.2459770000"><ele>750</ele><time>2026-03-23T11:23:14Z</time></trkpt>
<trkpt lat="43.0317920000" lon="0.2459670000"><ele>750</ele><time>2026-03-23T11:23:16Z</time></trkpt>
<trkpt lat="43.0318120000" lon="0.2459570000"><ele>750</ele><time>2026-03-23T11:23:18Z</time></trkpt>
<trkpt lat="43.0318420000" lon="0.2459520000"><ele>750</ele><time>2026-03-23T11:23:20Z</time></trkpt>
<trkpt lat="43.0318670000" lon="0.2459520000"><ele>750</ele><time>2026-03-23T11:23:22Z</time></trkpt>
<trkpt lat="43.0318920000" lon="0.2459520000"><ele>750</ele><time>2026-03-23T11:23:24Z</time></trkpt>
<trkpt lat="43.0319220000" lon="0.2459520000"><ele>750</ele><time>2026-03-23T11:23:26Z</time></trkpt>
<trkpt lat="43.0319520000" lon="0.2459620000"><ele>750</ele><time>2026-03-23T11:23:28Z</time></trkpt>
<trkpt lat="43.0319770000" lon="0.2459720000"><ele>750</ele><time>2026-03-23T11:23:30Z</time></trkpt>
<trkpt lat="43.0319970000" lon="0.2459920000"><ele>750</ele><time>2026-03-23T11:23:32Z</time></trkpt>
<trkpt lat="43.0320150000" lon="0.2460020000"><ele>750</ele><time>2026-03-23T11:23:42Z</time></trkpt>
<trkpt lat="43.0320220000" lon="0.2460270000"><ele>750</ele><time>2026-03-23T11:23:45Z</time></trkpt>
<trkpt lat="43.0320400000" lon="0.2460650000"><ele>750</ele><time>2026-03-23T11:23:47Z</time></trkpt>
<trkpt lat="43.0320550000" lon="0.2460970000"><ele>750</ele><time>2026-03-23T11:23:49Z</time></trkpt>
<trkpt lat="43.0320620000" lon="0.2461270000"><ele>750</ele><time>2026-03-23T11:23:51Z</time></trkpt>
<trkpt lat="43.0320720000" lon="0.2461520000"><ele>750</ele><time>2026-03-23T11:23:53Z</time></trkpt>
<trkpt lat="43.0320820000" lon="0.2461800000"><ele>750</ele><time>2026-03-23T11:23:55Z</time></trkpt>
<trkpt lat="43.0320930000" lon="0.2462070000"><ele>750</ele><time>2026-03-23T11:23:57Z</time></trkpt>
<trkpt lat="43.0321120000" lon="0.2462320000"><ele>750</ele><time>2026-03-23T11:23:59Z</time></trkpt>
<trkpt lat="43.0321250000" lon="0.2462570000"><ele>750</ele><time>2026-03-23T11:24:01Z</time></trkpt>
<trkpt lat="43.0321370000" lon="0.2462770000"><ele>751</ele><time>2026-03-23T11:24:03Z</time></trkpt>
<trkpt lat="43.0321520000" lon="0.2463100000"><ele>751</ele><time>2026-03-23T11:24:06Z</time></trkpt>
<trkpt lat="43.0321620000" lon="0.2463320000"><ele>751</ele><time>2026-03-23T11:24:08Z</time></trkpt>
<trkpt lat="43.0321720000" lon="0.2463620000"><ele>752</ele><time>2026-03-23T11:24:10Z</time></trkpt>
<trkpt lat="43.0321850000" lon="0.2463850000"><ele>752</ele><time>2026-03-23T11:24:12Z</time></trkpt>
<trkpt lat="43.0321970000" lon="0.2464070000"><ele>752</ele><time>2026-03-23T11:24:14Z</time></trkpt>
<trkpt lat="43.0322170000" lon="0.2464270000"><ele>752</ele><time>2026-03-23T11:24:16Z</time></trkpt>
<trkpt lat="43.0322270000" lon="0.2464520000"><ele>752</ele><time>2026-03-23T11:24:18Z</time></trkpt>
<trkpt lat="43.0322420000" lon="0.2464820000"><ele>753</ele><time>2026-03-23T11:24:20Z</time></trkpt>
<trkpt lat="43.0322600000" lon="0.2465070000"><ele>753</ele><time>2026-03-23T11:24:22Z</time></trkpt>
<trkpt lat="43.0322750000" lon="0.2465320000"><ele>753</ele><time>2026-03-23T11:24:24Z</time></trkpt>
<trkpt lat="43.0322920000" lon="0.2465420000"><ele>753</ele><time>2026-03-23T11:24:28Z</time></trkpt>
<trkpt lat="43.0323020000" lon="0.2465720000"><ele>754</ele><time>2026-03-23T11:24:40Z</time></trkpt>
<trkpt lat="43.0323200000" lon="0.2466030000"><ele>754</ele><time>2026-03-23T11:24:42Z</time></trkpt>
<trkpt lat="43.0323420000" lon="0.2466370000"><ele>754</ele><time>2026-03-23T11:24:44Z</time></trkpt>
<trkpt lat="43.0323620000" lon="0.2466670000"><ele>754</ele><time>2026-03-23T11:24:46Z</time></trkpt>
<trkpt lat="43.0323820000" lon="0.2466880000"><ele>754</ele><time>2026-03-23T11:24:48Z</time></trkpt>
<trkpt lat="43.0324020000" lon="0.2467120000"><ele>754</ele><time>2026-03-23T11:24:50Z</time></trkpt>
<trkpt lat="43.0324100000" lon="0.2467350000"><ele>754</ele><time>2026-03-23T11:24:52Z</time></trkpt>
<trkpt lat="43.0324200000" lon="0.2467570000"><ele>755</ele><time>2026-03-23T11:24:54Z</time></trkpt>
<trkpt lat="43.0324320000" lon="0.2467770000"><ele>755</ele><time>2026-03-23T11:24:56Z</time></trkpt>
<trkpt lat="43.0324420000" lon="0.2468000000"><ele>755</ele><time>2026-03-23T11:24:58Z</time></trkpt>
<trkpt lat="43.0324620000" lon="0.2468370000"><ele>755</ele><time>2026-03-23T11:25:00Z</time></trkpt>
<trkpt lat="43.0324870000" lon="0.2468650000"><ele>755</ele><time>2026-03-23T11:25:02Z</time></trkpt>
<trkpt lat="43.0325070000" lon="0.2468870000"><ele>756</ele><time>2026-03-23T11:25:04Z</time></trkpt>
<trkpt lat="43.0325300000" lon="0.2469070000"><ele>756</ele><time>2026-03-23T11:25:06Z</time></trkpt>
<trkpt lat="43.0325450000" lon="0.2469300000"><ele>755</ele><time>2026-03-23T11:25:08Z</time></trkpt>
<trkpt lat="43.0325620000" lon="0.2469520000"><ele>755</ele><time>2026-03-23T11:25:10Z</time></trkpt>
<trkpt lat="43.0325770000" lon="0.2469770000"><ele>755</ele><time>2026-03-23T11:25:12Z</time></trkpt>
<trkpt lat="43.0325920000" lon="0.2470070000"><ele>755</ele><time>2026-03-23T11:25:14Z</time></trkpt>
<trkpt lat="43.0326050000" lon="0.2470320000"><ele>755</ele><time>2026-03-23T11:25:16Z</time></trkpt>
<trkpt lat="43.0326170000" lon="0.2470570000"><ele>755</ele><time>2026-03-23T11:25:18Z</time></trkpt>
<trkpt lat="43.0326280000" lon="0.2470870000"><ele>755</ele><time>2026-03-23T11:25:20Z</time></trkpt>
<trkpt lat="43.0326400000" lon="0.2471120000"><ele>755</ele><time>2026-03-23T11:25:22Z</time></trkpt>
<trkpt lat="43.0326520000" lon="0.2471350000"><ele>755</ele><time>2026-03-23T11:25:24Z</time></trkpt>
<trkpt lat="43.0326620000" lon="0.2471570000"><ele>755</ele><time>2026-03-23T11:25:27Z</time></trkpt>
<trkpt lat="43.0326570000" lon="0.2471870000"><ele>755</ele><time>2026-03-23T11:25:30Z</time></trkpt>
<trkpt lat="43.0326750000" lon="0.2472100000"><ele>754</ele><time>2026-03-23T11:25:38Z</time></trkpt>
<trkpt lat="43.0326950000" lon="0.2472250000"><ele>754</ele><time>2026-03-23T11:25:50Z</time></trkpt>
<trkpt lat="43.0327170000" lon="0.2472470000"><ele>754</ele><time>2026-03-23T11:25:52Z</time></trkpt>
<trkpt lat="43.0327320000" lon="0.2472620000"><ele>754</ele><time>2026-03-23T11:25:54Z</time></trkpt>
<trkpt lat="43.0327420000" lon="0.2472820000"><ele>755</ele><time>2026-03-23T11:26:03Z</time></trkpt>
<trkpt lat="43.0327620000" lon="0.2472970000"><ele>754</ele><time>2026-03-23T11:26:19Z</time></trkpt>
<trkpt lat="43.0327750000" lon="0.2473170000"><ele>753</ele><time>2026-03-23T11:26:25Z</time></trkpt>
<trkpt lat="43.0327870000" lon="0.2473350000"><ele>753</ele><time>2026-03-23T11:26:27Z</time></trkpt>
<trkpt lat="43.0328120000" lon="0.2473520000"><ele>753</ele><time>2026-03-23T11:26:29Z</time></trkpt>
<trkpt lat="43.0328320000" lon="0.2473670000"><ele>753</ele><time>2026-03-23T11:26:31Z</time></trkpt>
<trkpt lat="43.0328570000" lon="0.2473770000"><ele>753</ele><time>2026-03-23T11:26:33Z</time></trkpt>
<trkpt lat="43.0328820000" lon="0.2473920000"><ele>753</ele><time>2026-03-23T11:26:35Z</time></trkpt>
<trkpt lat="43.0329070000" lon="0.2474050000"><ele>753</ele><time>2026-03-23T11:26:37Z</time></trkpt>
<trkpt lat="43.0329300000" lon="0.2474150000"><ele>753</ele><time>2026-03-23T11:26:39Z</time></trkpt>
<trkpt lat="43.0329520000" lon="0.2474250000"><ele>753</ele><time>2026-03-23T11:26:41Z</time></trkpt>
<trkpt lat="43.0329750000" lon="0.2474330000"><ele>753</ele><time>2026-03-23T11:26:43Z</time></trkpt>
<trkpt lat="43.0329970000" lon="0.2474420000"><ele>753</ele><time>2026-03-23T11:26:45Z</time></trkpt>
<trkpt lat="43.0330220000" lon="0.2474500000"><ele>753</ele><time>2026-03-23T11:26:47Z</time></trkpt>
<trkpt lat="43.0330450000" lon="0.2474550000"><ele>753</ele><time>2026-03-23T11:26:49Z</time></trkpt>
<trkpt lat="43.0330650000" lon="0.2474620000"><ele>753</ele><time>2026-03-23T11:26:51Z</time></trkpt>
<trkpt lat="43.0330850000" lon="0.2474670000"><ele>753</ele><time>2026-03-23T11:26:53Z</time></trkpt>
<trkpt lat="43.0331070000" lon="0.2474750000"><ele>753</ele><time>2026-03-23T11:26:55Z</time></trkpt>
<trkpt lat="43.0331300000" lon="0.2474800000"><ele>752</ele><time>2026-03-23T11:26:57Z</time></trkpt>
<trkpt lat="43.0331520000" lon="0.2474850000"><ele>752</ele><time>2026-03-23T11:26:59Z</time></trkpt>
<trkpt lat="43.0331720000" lon="0.2474920000"><ele>752</ele><time>2026-03-23T11:27:01Z</time></trkpt>
<trkpt lat="43.0331970000" lon="0.2474970000"><ele>752</ele><time>2026-03-23T11:27:03Z</time></trkpt>
<trkpt lat="43.0332220000" lon="0.2475050000"><ele>752</ele><time>2026-03-23T11:27:05Z</time></trkpt>
<trkpt lat="43.0332500000" lon="0.2475120000"><ele>752</ele><time>2026-03-23T11:27:07Z</time></trkpt>
<trkpt lat="43.0332720000" lon="0.2475220000"><ele>752</ele><time>2026-03-23T11:27:09Z</time></trkpt>
<trkpt lat="43.0332970000" lon="0.2475270000"><ele>752</ele><time>2026-03-23T11:27:11Z</time></trkpt>
<trkpt lat="43.0333250000" lon="0.2475350000"><ele>752</ele><time>2026-03-23T11:27:13Z</time></trkpt>
<trkpt lat="43.0333500000" lon="0.2475420000"><ele>751</ele><time>2026-03-23T11:27:15Z</time></trkpt>
<trkpt lat="43.0333720000" lon="0.2475470000"><ele>751</ele><time>2026-03-23T11:27:17Z</time></trkpt>
<trkpt lat="43.0333970000" lon="0.2475550000"><ele>751</ele><time>2026-03-23T11:27:19Z</time></trkpt>
<trkpt lat="43.0334200000" lon="0.2475650000"><ele>751</ele><time>2026-03-23T11:27:21Z</time></trkpt>
<trkpt lat="43.0334450000" lon="0.2475720000"><ele>751</ele><time>2026-03-23T11:27:23Z</time></trkpt>
<trkpt lat="43.0334670000" lon="0.2475800000"><ele>751</ele><time>2026-03-23T11:27:25Z</time></trkpt>
<trkpt lat="43.0334920000" lon="0.2475850000"><ele>751</ele><time>2026-03-23T11:27:27Z</time></trkpt>
<trkpt lat="43.0335170000" lon="0.2475920000"><ele>751</ele><time>2026-03-23T11:27:29Z</time></trkpt>
<trkpt lat="43.0335420000" lon="0.2475970000"><ele>751</ele><time>2026-03-23T11:27:31Z</time></trkpt>
<trkpt lat="43.0335620000" lon="0.2476050000"><ele>751</ele><time>2026-03-23T11:27:33Z</time></trkpt>
<trkpt lat="43.0335870000" lon="0.2476070000"><ele>751</ele><time>2026-03-23T11:27:35Z</time></trkpt>
<trkpt lat="43.0336170000" lon="0.2476120000"><ele>750</ele><time>2026-03-23T11:27:37Z</time></trkpt>
<trkpt lat="43.0336450000" lon="0.2476220000"><ele>750</ele><time>2026-03-23T11:27:40Z</time></trkpt>
<trkpt lat="43.0336670000" lon="0.2476270000"><ele>750</ele><time>2026-03-23T11:27:42Z</time></trkpt>
<trkpt lat="43.0336900000" lon="0.2476370000"><ele>750</ele><time>2026-03-23T11:27:44Z</time></trkpt>
<trkpt lat="43.0337120000" lon="0.2476470000"><ele>750</ele><time>2026-03-23T11:27:46Z</time></trkpt>
<trkpt lat="43.0337370000" lon="0.2476520000"><ele>750</ele><time>2026-03-23T11:27:48Z</time></trkpt>
<trkpt lat="43.0337620000" lon="0.2476570000"><ele>750</ele><time>2026-03-23T11:27:50Z</time></trkpt>
<trkpt lat="43.0337850000" lon="0.2476620000"><ele>750</ele><time>2026-03-23T11:27:52Z</time></trkpt>
<trkpt lat="43.0338070000" lon="0.2476670000"><ele>750</ele><time>2026-03-23T11:27:54Z</time></trkpt>
<trkpt lat="43.0338270000" lon="0.2476720000"><ele>751</ele><time>2026-03-23T11:27:56Z</time></trkpt>
<trkpt lat="43.0338500000" lon="0.2476800000"><ele>751</ele><time>2026-03-23T11:27:58Z</time></trkpt>
<trkpt lat="43.0338700000" lon="0.2476900000"><ele>751</ele><time>2026-03-23T11:28:00Z</time></trkpt>
<trkpt lat="43.0338870000" lon="0.2477020000"><ele>751</ele><time>2026-03-23T11:28:02Z</time></trkpt>
<trkpt lat="43.0339020000" lon="0.2477200000"><ele>751</ele><time>2026-03-23T11:28:04Z</time></trkpt>
<trkpt lat="43.0339170000" lon="0.2477400000"><ele>751</ele><time>2026-03-23T11:28:06Z</time></trkpt>
<trkpt lat="43.0339320000" lon="0.2477600000"><ele>751</ele><time>2026-03-23T11:28:08Z</time></trkpt>
<trkpt lat="43.0339420000" lon="0.2477820000"><ele>752</ele><time>2026-03-23T11:28:10Z</time></trkpt>
<trkpt lat="43.0339520000" lon="0.2478080000"><ele>752</ele><time>2026-03-23T11:28:12Z</time></trkpt>
<trkpt lat="43.0339620000" lon="0.2478370000"><ele>752</ele><time>2026-03-23T11:28:14Z</time></trkpt>
<trkpt lat="43.0339670000" lon="0.2478650000"><ele>752</ele><time>2026-03-23T11:28:16Z</time></trkpt>
<trkpt lat="43.0339670000" lon="0.2478900000"><ele>752</ele><time>2026-03-23T11:28:18Z</time></trkpt>
<trkpt lat="43.0339600000" lon="0.2479220000"><ele>753</ele><time>2026-03-23T11:28:21Z</time></trkpt>
<trkpt lat="43.0339520000" lon="0.2479470000"><ele>753</ele><time>2026-03-23T11:28:24Z</time></trkpt>
<trkpt lat="43.0339470000" lon="0.2479800000"><ele>753</ele><time>2026-03-23T11:28:44Z</time></trkpt>
<trkpt lat="43.0339470000" lon="0.2480100000"><ele>753</ele><time>2026-03-23T11:28:47Z</time></trkpt>
<trkpt lat="43.0339620000" lon="0.2480220000"><ele>752</ele><time>2026-03-23T11:28:52Z</time></trkpt>
<trkpt lat="43.0339770000" lon="0.2480070000"><ele>752</ele><time>2026-03-23T11:28:56Z</time></trkpt>
<trkpt lat="43.0339970000" lon="0.2480020000"><ele>752</ele><time>2026-03-23T11:28:58Z</time></trkpt>
<trkpt lat="43.0340120000" lon="0.2480200000"><ele>752</ele><time>2026-03-23T11:29:01Z</time></trkpt>
<trkpt lat="43.0340070000" lon="0.2480520000"><ele>751</ele><time>2026-03-23T11:29:05Z</time></trkpt>
<trkpt lat="43.0340000000" lon="0.2480900000"><ele>751</ele><time>2026-03-23T11:29:07Z</time></trkpt>
<trkpt lat="43.0339900000" lon="0.2481250000"><ele>751</ele><time>2026-03-23T11:29:09Z</time></trkpt>
<trkpt lat="43.0339870000" lon="0.2481520000"><ele>750</ele><time>2026-03-23T11:29:12Z</time></trkpt>
<trkpt lat="43.0340020000" lon="0.2481820000"><ele>748</ele><time>2026-03-23T11:29:45Z</time></trkpt>
<trkpt lat="43.0340020000" lon="0.2482070000"><ele>748</ele><time>2026-03-23T11:29:46Z</time></trkpt>
<trkpt lat="43.0340050000" lon="0.2482370000"><ele>747</ele><time>2026-03-23T11:29:48Z</time></trkpt>
<trkpt lat="43.0340070000" lon="0.2482620000"><ele>746</ele><time>2026-03-23T11:29:51Z</time></trkpt>
<trkpt lat="43.0340070000" lon="0.2482870000"><ele>746</ele><time>2026-03-23T11:29:54Z</time></trkpt>
<trkpt lat="43.0340120000" lon="0.2483170000"><ele>745</ele><time>2026-03-23T11:29:57Z</time></trkpt>
<trkpt lat="43.0340200000" lon="0.2483400000"><ele>744</ele><time>2026-03-23T11:30:00Z</time></trkpt>
<trkpt lat="43.0340370000" lon="0.2483580000"><ele>743</ele><time>2026-03-23T11:30:04Z</time></trkpt>
<trkpt lat="43.0340420000" lon="0.2483950000"><ele>743</ele><time>2026-03-23T11:30:07Z</time></trkpt>
<trkpt lat="43.0340500000" lon="0.2484170000"><ele>742</ele><time>2026-03-23T11:30:09Z</time></trkpt>
<trkpt lat="43.0340520000" lon="0.2484470000"><ele>742</ele><time>2026-03-23T11:30:11Z</time></trkpt>
<trkpt lat="43.0340570000" lon="0.2484720000"><ele>741</ele><time>2026-03-23T11:30:14Z</time></trkpt>
<trkpt lat="43.0340570000" lon="0.2484980000"><ele>740</ele><time>2026-03-23T11:30:17Z</time></trkpt>
<trkpt lat="43.0340450000" lon="0.2485200000"><ele>739</ele><time>2026-03-23T11:30:22Z</time></trkpt>
<trkpt lat="43.0340370000" lon="0.2485420000"><ele>738</ele><time>2026-03-23T11:30:26Z</time></trkpt>
<trkpt lat="43.0340400000" lon="0.2485870000"><ele>737</ele><time>2026-03-23T11:30:30Z</time></trkpt>
<trkpt lat="43.0340370000" lon="0.2486170000"><ele>737</ele><time>2026-03-23T11:30:32Z</time></trkpt>
<trkpt lat="43.0340370000" lon="0.2486470000"><ele>736</ele><time>2026-03-23T11:30:36Z</time></trkpt>
<trkpt lat="43.0340400000" lon="0.2486820000"><ele>734</ele><time>2026-03-23T11:30:40Z</time></trkpt>
<trkpt lat="43.0340320000" lon="0.2487100000"><ele>733</ele><time>2026-03-23T11:30:43Z</time></trkpt>
<trkpt lat="43.0340200000" lon="0.2487320000"><ele>733</ele><time>2026-03-23T11:30:46Z</time></trkpt>
<trkpt lat="43.0340270000" lon="0.2487620000"><ele>731</ele><time>2026-03-23T11:30:50Z</time></trkpt>
<trkpt lat="43.0340320000" lon="0.2487870000"><ele>731</ele><time>2026-03-23T11:30:52Z</time></trkpt>
<trkpt lat="43.0340370000" lon="0.2488170000"><ele>730</ele><time>2026-03-23T11:30:55Z</time></trkpt>
<trkpt lat="43.0340350000" lon="0.2488470000"><ele>729</ele><time>2026-03-23T11:30:57Z</time></trkpt>
<trkpt lat="43.0340350000" lon="0.2488720000"><ele>729</ele><time>2026-03-23T11:30:59Z</time></trkpt>
<trkpt lat="43.0340300000" lon="0.2489070000"><ele>728</ele><time>2026-03-23T11:31:02Z</time></trkpt>
<trkpt lat="43.0340270000" lon="0.2489370000"><ele>727</ele><time>2026-03-23T11:31:05Z</time></trkpt>
<trkpt lat="43.0340150000" lon="0.2489570000"><ele>726</ele><time>2026-03-23T11:31:09Z</time></trkpt>
<trkpt lat="43.0340220000" lon="0.2489820000"><ele>725</ele><time>2026-03-23T11:31:12Z</time></trkpt>
<trkpt lat="43.0340120000" lon="0.2490220000"><ele>724</ele><time>2026-03-23T11:31:17Z</time></trkpt>
<trkpt lat="43.0340020000" lon="0.2490430000"><ele>724</ele><time>2026-03-23T11:31:19Z</time></trkpt>
<trkpt lat="43.0340070000" lon="0.2490750000"><ele>724</ele><time>2026-03-23T11:31:22Z</time></trkpt>
<trkpt lat="43.0340150000" lon="0.2491020000"><ele>723</ele><time>2026-03-23T11:31:24Z</time></trkpt>
<trkpt lat="43.0340100000" lon="0.2491300000"><ele>723</ele><time>2026-03-23T11:31:26Z</time></trkpt>
<trkpt lat="43.0340120000" lon="0.2491570000"><ele>723</ele><time>2026-03-23T11:31:28Z</time></trkpt>
<trkpt lat="43.0340120000" lon="0.2491820000"><ele>722</ele><time>2026-03-23T11:31:31Z</time></trkpt>
<trkpt lat="43.0340220000" lon="0.2492120000"><ele>722</ele><time>2026-03-23T11:31:35Z</time></trkpt>
<trkpt lat="43.0340220000" lon="0.2492450000"><ele>721</ele><time>2026-03-23T11:31:37Z</time></trkpt>
<trkpt lat="43.0340200000" lon="0.2492770000"><ele>721</ele><time>2026-03-23T11:31:40Z</time></trkpt>
<trkpt lat="43.0340150000" lon="0.2493020000"><ele>720</ele><time>2026-03-23T11:31:43Z</time></trkpt>
<trkpt lat="43.0340120000" lon="0.2493270000"><ele>719</ele><time>2026-03-23T11:31:46Z</time></trkpt>
<trkpt lat="43.0340270000" lon="0.2493500000"><ele>719</ele><time>2026-03-23T11:31:49Z</time></trkpt>
<trkpt lat="43.0340370000" lon="0.2493770000"><ele>718</ele><time>2026-03-23T11:31:52Z</time></trkpt>
<trkpt lat="43.0340120000" lon="0.2493770000"><ele>717</ele><time>2026-03-23T11:31:58Z</time></trkpt>
<trkpt lat="43.0339920000" lon="0.2493970000"><ele>717</ele><time>2026-03-23T11:32:00Z</time></trkpt>
<trkpt lat="43.0339870000" lon="0.2494270000"><ele>717</ele><time>2026-03-23T11:32:23Z</time></trkpt>
<trkpt lat="43.0340000000" lon="0.2494470000"><ele>717</ele><time>2026-03-23T11:32:26Z</time></trkpt>
<trkpt lat="43.0339820000" lon="0.2494500000"><ele>717</ele><time>2026-03-23T11:32:44Z</time></trkpt>
<trkpt lat="43.0339620000" lon="0.2494370000"><ele>717</ele><time>2026-03-23T11:32:46Z</time></trkpt>
<trkpt lat="43.0339420000" lon="0.2494170000"><ele>717</ele><time>2026-03-23T11:32:48Z</time></trkpt>
<trkpt lat="43.0339300000" lon="0.2493900000"><ele>717</ele><time>2026-03-23T11:32:50Z</time></trkpt>
<trkpt lat="43.0339170000" lon="0.2493670000"><ele>717</ele><time>2026-03-23T11:32:53Z</time></trkpt>
<trkpt lat="43.0339370000" lon="0.2493650000"><ele>717</ele><time>2026-03-23T11:33:38Z</time></trkpt>
<trkpt lat="43.0339620000" lon="0.2493770000"><ele>717</ele><time>2026-03-23T11:33:40Z</time></trkpt>
<trkpt lat="43.0339720000" lon="0.2493970000"><ele>717</ele><time>2026-03-23T11:33:41Z</time></trkpt>
<trkpt lat="43.0339850000" lon="0.2494300000"><ele>717</ele><time>2026-03-23T11:33:43Z</time></trkpt>
<trkpt lat="43.0339920000" lon="0.2494570000"><ele>716</ele><time>2026-03-23T11:33:45Z</time></trkpt>
<trkpt lat="43.0339930000" lon="0.2494850000"><ele>716</ele><time>2026-03-23T11:33:48Z</time></trkpt>
<trkpt lat="43.0340050000" lon="0.2495100000"><ele>716</ele><time>2026-03-23T11:33:50Z</time></trkpt>
<trkpt lat="43.0340120000" lon="0.2495320000"><ele>715</ele><time>2026-03-23T11:33:52Z</time></trkpt>
<trkpt lat="43.0340400000" lon="0.2495620000"><ele>714</ele><time>2026-03-23T11:33:59Z</time></trkpt>
<trkpt lat="43.0340520000" lon="0.2495820000"><ele>714</ele><time>2026-03-23T11:34:00Z</time></trkpt>
<trkpt lat="43.0340500000" lon="0.2496150000"><ele>714</ele><time>2026-03-23T11:34:02Z</time></trkpt>
<trkpt lat="43.0340450000" lon="0.2496400000"><ele>714</ele><time>2026-03-23T11:34:04Z</time></trkpt>
<trkpt lat="43.0340370000" lon="0.2496720000"><ele>714</ele><time>2026-03-23T11:34:07Z</time></trkpt>
<trkpt lat="43.0340320000" lon="0.2497020000"><ele>714</ele><time>2026-03-23T11:34:09Z</time></trkpt>
<trkpt lat="43.0340320000" lon="0.2497320000"><ele>713</ele><time>2026-03-23T11:34:12Z</time></trkpt>
<trkpt lat="43.0340320000" lon="0.2497570000"><ele>713</ele><time>2026-03-23T11:34:14Z</time></trkpt>
<trkpt lat="43.0340400000" lon="0.2497820000"><ele>712</ele><time>2026-03-23T11:34:19Z</time></trkpt>
<trkpt lat="43.0340350000" lon="0.2498070000"><ele>711</ele><time>2026-03-23T11:34:42Z</time></trkpt>
<trkpt lat="43.0340370000" lon="0.2498420000"><ele>711</ele><time>2026-03-23T11:34:44Z</time></trkpt>
<trkpt lat="43.0340400000" lon="0.2498870000"><ele>711</ele><time>2026-03-23T11:34:46Z</time></trkpt>
<trkpt lat="43.0340370000" lon="0.2499250000"><ele>710</ele><time>2026-03-23T11:34:48Z</time></trkpt>
<trkpt lat="43.0340420000" lon="0.2499570000"><ele>710</ele><time>2026-03-23T11:34:51Z</time></trkpt>
<trkpt lat="43.0340420000" lon="0.2499820000"><ele>709</ele><time>2026-03-23T11:34:54Z</time></trkpt>
<trkpt lat="43.0340370000" lon="0.2500120000"><ele>708</ele><time>2026-03-23T11:35:00Z</time></trkpt>
<trkpt lat="43.0340400000" lon="0.2500420000"><ele>708</ele><time>2026-03-23T11:35:03Z</time></trkpt>
<trkpt lat="43.0340220000" lon="0.2500630000"><ele>707</ele><time>2026-03-23T11:35:06Z</time></trkpt>
<trkpt lat="43.0340120000" lon="0.2500870000"><ele>707</ele><time>2026-03-23T11:35:09Z</time></trkpt>
<trkpt lat="43.0340270000" lon="0.2501200000"><ele>706</ele><time>2026-03-23T11:35:12Z</time></trkpt>
<trkpt lat="43.0340450000" lon="0.2501520000"><ele>706</ele><time>2026-03-23T11:35:15Z</time></trkpt>
<trkpt lat="43.0340520000" lon="0.2501800000"><ele>706</ele><time>2026-03-23T11:35:18Z</time></trkpt>
<trkpt lat="43.0340570000" lon="0.2502070000"><ele>705</ele><time>2026-03-23T11:35:21Z</time></trkpt>
<trkpt lat="43.0340700000" lon="0.2502270000"><ele>704</ele><time>2026-03-23T11:35:26Z</time></trkpt>
<trkpt lat="43.0340750000" lon="0.2502580000"><ele>704</ele><time>2026-03-23T11:35:29Z</time></trkpt>
<trkpt lat="43.0340820000" lon="0.2502900000"><ele>703</ele><time>2026-03-23T11:35:32Z</time></trkpt>
<trkpt lat="43.0340920000" lon="0.2503120000"><ele>703</ele><time>2026-03-23T11:35:35Z</time></trkpt>
<trkpt lat="43.0340970000" lon="0.2503420000"><ele>702</ele><time>2026-03-23T11:35:38Z</time></trkpt>
<trkpt lat="43.0340900000" lon="0.2503750000"><ele>699</ele><time>2026-03-23T11:36:08Z</time></trkpt>
<trkpt lat="43.0340920000" lon="0.2504020000"><ele>699</ele><time>2026-03-23T11:36:10Z</time></trkpt>
<trkpt lat="43.0340970000" lon="0.2504320000"><ele>699</ele><time>2026-03-23T11:36:12Z</time></trkpt>
<trkpt lat="43.0341150000" lon="0.2504420000"><ele>698</ele><time>2026-03-23T11:36:21Z</time></trkpt>
<trkpt lat="43.0341300000" lon="0.2504570000"><ele>698</ele><time>2026-03-23T11:36:26Z</time></trkpt>
<trkpt lat="43.0341420000" lon="0.2504820000"><ele>698</ele><time>2026-03-23T11:36:28Z</time></trkpt>
<trkpt lat="43.0341550000" lon="0.2505070000"><ele>698</ele><time>2026-03-23T11:36:30Z</time></trkpt>
<trkpt lat="43.0341700000" lon="0.2505250000"><ele>697</ele><time>2026-03-23T11:36:32Z</time></trkpt>
<trkpt lat="43.0341850000" lon="0.2505450000"><ele>697</ele><time>2026-03-23T11:36:34Z</time></trkpt>
<trkpt lat="43.0342070000" lon="0.2505620000"><ele>696</ele><time>2026-03-23T11:36:37Z</time></trkpt>
<trkpt lat="43.0342180000" lon="0.2505920000"><ele>695</ele><time>2026-03-23T11:36:40Z</time></trkpt>
<trkpt lat="43.0342170000" lon="0.2506220000"><ele>693</ele><time>2026-03-23T11:36:45Z</time></trkpt>
<trkpt lat="43.0342250000" lon="0.2506500000"><ele>693</ele><time>2026-03-23T11:36:47Z</time></trkpt>
<trkpt lat="43.0342300000" lon="0.2506770000"><ele>692</ele><time>2026-03-23T11:36:49Z</time></trkpt>
<trkpt lat="43.0342400000" lon="0.2507070000"><ele>691</ele><time>2026-03-23T11:36:52Z</time></trkpt>
<trkpt lat="43.0342570000" lon="0.2507320000"><ele>691</ele><time>2026-03-23T11:36:55Z</time></trkpt>
<trkpt lat="43.0342670000" lon="0.2507620000"><ele>690</ele><time>2026-03-23T11:36:58Z</time></trkpt>
<trkpt lat="43.0342800000" lon="0.2507900000"><ele>689</ele><time>2026-03-23T11:37:01Z</time></trkpt>
<trkpt lat="43.0342900000" lon="0.2508170000"><ele>688</ele><time>2026-03-23T11:37:04Z</time></trkpt>
<trkpt lat="43.0343070000" lon="0.2508400000"><ele>688</ele><time>2026-03-23T11:37:07Z</time></trkpt>
<trkpt lat="43.0343250000" lon="0.2508670000"><ele>686</ele><time>2026-03-23T11:37:11Z</time></trkpt>
<trkpt lat="43.0343370000" lon="0.2508870000"><ele>686</ele><time>2026-03-23T11:37:14Z</time></trkpt>
<trkpt lat="43.0343570000" lon="0.2509000000"><ele>684</ele><time>2026-03-23T11:37:17Z</time></trkpt>
<trkpt lat="43.0343700000" lon="0.2509170000"><ele>683</ele><time>2026-03-23T11:37:20Z</time></trkpt>
<trkpt lat="43.0343870000" lon="0.2509320000"><ele>682</ele><time>2026-03-23T11:37:23Z</time></trkpt>
<trkpt lat="43.0343920000" lon="0.2509620000"><ele>681</ele><time>2026-03-23T11:37:27Z</time></trkpt>
<trkpt lat="43.0343970000" lon="0.2509870000"><ele>680</ele><time>2026-03-23T11:37:30Z</time></trkpt>
<trkpt lat="43.0344150000" lon="0.2510050000"><ele>679</ele><time>2026-03-23T11:37:33Z</time></trkpt>
<trkpt lat="43.0344350000" lon="0.2510270000"><ele>678</ele><time>2026-03-23T11:37:35Z</time></trkpt>
<trkpt lat="43.0344550000" lon="0.2510380000"><ele>677</ele><time>2026-03-23T11:37:37Z</time></trkpt>
<trkpt lat="43.0344670000" lon="0.2510620000"><ele>676</ele><time>2026-03-23T11:37:40Z</time></trkpt>
<trkpt lat="43.0344700000" lon="0.2510870000"><ele>675</ele><time>2026-03-23T11:37:42Z</time></trkpt>
<trkpt lat="43.0344920000" lon="0.2511050000"><ele>675</ele><time>2026-03-23T11:37:45Z</time></trkpt>
<trkpt lat="43.0345120000" lon="0.2511120000"><ele>674</ele><time>2026-03-23T11:37:47Z</time></trkpt>
<trkpt lat="43.0345280000" lon="0.2511270000"><ele>673</ele><time>2026-03-23T11:37:50Z</time></trkpt>
<trkpt lat="43.0345470000" lon="0.2511470000"><ele>672</ele><time>2026-03-23T11:37:52Z</time></trkpt>
<trkpt lat="43.0345600000" lon="0.2511670000"><ele>672</ele><time>2026-03-23T11:37:55Z</time></trkpt>
<trkpt lat="43.0345700000" lon="0.2511950000"><ele>670</ele><time>2026-03-23T11:37:59Z</time></trkpt>
<trkpt lat="43.0345870000" lon="0.2512120000"><ele>670</ele><time>2026-03-23T11:38:02Z</time></trkpt>
<trkpt lat="43.0346050000" lon="0.2512470000"><ele>669</ele><time>2026-03-23T11:38:05Z</time></trkpt>
<trkpt lat="43.0346170000" lon="0.2512720000"><ele>668</ele><time>2026-03-23T11:38:08Z</time></trkpt>
<trkpt lat="43.0346350000" lon="0.2512950000"><ele>667</ele><time>2026-03-23T11:38:10Z</time></trkpt>
<trkpt lat="43.0346500000" lon="0.2513220000"><ele>666</ele><time>2026-03-23T11:38:13Z</time></trkpt>
<trkpt lat="43.0346670000" lon="0.2513320000"><ele>665</ele><time>2026-03-23T11:38:15Z</time></trkpt>
<trkpt lat="43.0346770000" lon="0.2513550000"><ele>664</ele><time>2026-03-23T11:38:19Z</time></trkpt>
<trkpt lat="43.0346920000" lon="0.2513800000"><ele>662</ele><time>2026-03-23T11:38:23Z</time></trkpt>
<trkpt lat="43.0347070000" lon="0.2514020000"><ele>662</ele><time>2026-03-23T11:38:26Z</time></trkpt>
<trkpt lat="43.0347270000" lon="0.2514220000"><ele>661</ele><time>2026-03-23T11:38:29Z</time></trkpt>
<trkpt lat="43.0347470000" lon="0.2514350000"><ele>660</ele><time>2026-03-23T11:38:31Z</time></trkpt>
<trkpt lat="43.0347650000" lon="0.2514470000"><ele>659</ele><time>2026-03-23T11:38:34Z</time></trkpt>
<trkpt lat="43.0347850000" lon="0.2514470000"><ele>658</ele><time>2026-03-23T11:38:37Z</time></trkpt>
<trkpt lat="43.0348020000" lon="0.2514470000"><ele>657</ele><time>2026-03-23T11:38:39Z</time></trkpt>
<trkpt lat="43.0348220000" lon="0.2514570000"><ele>657</ele><time>2026-03-23T11:38:41Z</time></trkpt>
<trkpt lat="43.0348270000" lon="0.2514850000"><ele>655</ele><time>2026-03-23T11:39:05Z</time></trkpt>
<trkpt lat="43.0348500000" lon="0.2514970000"><ele>654</ele><time>2026-03-23T11:39:24Z</time></trkpt>
<trkpt lat="43.0348650000" lon="0.2515120000"><ele>654</ele><time>2026-03-23T11:39:27Z</time></trkpt>
<trkpt lat="43.0348850000" lon="0.2515170000"><ele>653</ele><time>2026-03-23T11:39:32Z</time></trkpt>
<trkpt lat="43.0349000000" lon="0.2515320000"><ele>649</ele><time>2026-03-23T11:39:46Z</time></trkpt>
<trkpt lat="43.0349320000" lon="0.2515520000"><ele>649</ele><time>2026-03-23T11:39:48Z</time></trkpt>
<trkpt lat="43.0349520000" lon="0.2515670000"><ele>648</ele><time>2026-03-23T11:39:49Z</time></trkpt>
<trkpt lat="43.0349720000" lon="0.2515770000"><ele>648</ele><time>2026-03-23T11:39:50Z</time></trkpt>
<trkpt lat="43.0349870000" lon="0.2515870000"><ele>648</ele><time>2026-03-23T11:39:51Z</time></trkpt>
<trkpt lat="43.0350120000" lon="0.2515980000"><ele>647</ele><time>2026-03-23T11:39:53Z</time></trkpt>
<trkpt lat="43.0350300000" lon="0.2516070000"><ele>645</ele><time>2026-03-23T11:39:56Z</time></trkpt>
<trkpt lat="43.0350450000" lon="0.2516320000"><ele>644</ele><time>2026-03-23T11:39:59Z</time></trkpt>
<trkpt lat="43.0350570000" lon="0.2516520000"><ele>642</ele><time>2026-03-23T11:40:06Z</time></trkpt>
<trkpt lat="43.0350770000" lon="0.2516670000"><ele>641</ele><time>2026-03-23T11:40:10Z</time></trkpt>
<trkpt lat="43.0351100000" lon="0.2516730000"><ele>641</ele><time>2026-03-23T11:40:12Z</time></trkpt>
<trkpt lat="43.0351270000" lon="0.2516820000"><ele>641</ele><time>2026-03-23T11:40:13Z</time></trkpt>
<trkpt lat="43.0351470000" lon="0.2516870000"><ele>640</ele><time>2026-03-23T11:40:14Z</time></trkpt>
<trkpt lat="43.0351700000" lon="0.2516920000"><ele>640</ele><time>2026-03-23T11:40:16Z</time></trkpt>
<trkpt lat="43.0351950000" lon="0.2517050000"><ele>639</ele><time>2026-03-23T11:40:18Z</time></trkpt>
<trkpt lat="43.0352120000" lon="0.2517150000"><ele>638</ele><time>2026-03-23T11:40:26Z</time></trkpt>
<trkpt lat="43.0351900000" lon="0.2517150000"><ele>639</ele><time>2026-03-23T11:41:15Z</time></trkpt>
<trkpt lat="43.0351870000" lon="0.2516830000"><ele>638</ele><time>2026-03-23T11:41:18Z</time></trkpt>
<trkpt lat="43.0352020000" lon="0.2517000000"><ele>638</ele><time>2026-03-23T11:41:26Z</time></trkpt>
<trkpt lat="43.0352170000" lon="0.2517220000"><ele>637</ele><time>2026-03-23T11:42:01Z</time></trkpt>
<trkpt lat="43.0352300000" lon="0.2517370000"><ele>637</ele><time>2026-03-23T11:42:02Z</time></trkpt>
<trkpt lat="43.0352450000" lon="0.2517570000"><ele>637</ele><time>2026-03-23T11:42:03Z</time></trkpt>
<trkpt lat="43.0352670000" lon="0.2517920000"><ele>636</ele><time>2026-03-23T11:42:05Z</time></trkpt>
<trkpt lat="43.0352850000" lon="0.2518180000"><ele>636</ele><time>2026-03-23T11:42:07Z</time></trkpt>
<trkpt lat="43.0352970000" lon="0.2518450000"><ele>635</ele><time>2026-03-23T11:42:09Z</time></trkpt>
<trkpt lat="43.0353120000" lon="0.2518670000"><ele>635</ele><time>2026-03-23T11:42:11Z</time></trkpt>
<trkpt lat="43.0353200000" lon="0.2519000000"><ele>635</ele><time>2026-03-23T11:42:13Z</time></trkpt>
<trkpt lat="43.0353220000" lon="0.2519350000"><ele>635</ele><time>2026-03-23T11:42:15Z</time></trkpt>
<trkpt lat="43.0353220000" lon="0.2519670000"><ele>635</ele><time>2026-03-23T11:42:17Z</time></trkpt>
<trkpt lat="43.0353200000" lon="0.2520000000"><ele>635</ele><time>2026-03-23T11:42:19Z</time></trkpt>
<trkpt lat="43.0353150000" lon="0.2520270000"><ele>634</ele><time>2026-03-23T11:42:21Z</time></trkpt>
<trkpt lat="43.0353120000" lon="0.2520520000"><ele>634</ele><time>2026-03-23T11:42:23Z</time></trkpt>
<trkpt lat="43.0353120000" lon="0.2520770000"><ele>634</ele><time>2026-03-23T11:42:25Z</time></trkpt>
<trkpt lat="43.0353050000" lon="0.2521080000"><ele>634</ele><time>2026-03-23T11:42:28Z</time></trkpt>
<trkpt lat="43.0352950000" lon="0.2521420000"><ele>634</ele><time>2026-03-23T11:42:34Z</time></trkpt>
<trkpt lat="43.0352900000" lon="0.2521670000"><ele>634</ele><time>2026-03-23T11:42:36Z</time></trkpt>
<trkpt lat="43.0352870000" lon="0.2521920000"><ele>634</ele><time>2026-03-23T11:42:38Z</time></trkpt>
<trkpt lat="43.0352850000" lon="0.2522220000"><ele>634</ele><time>2026-03-23T11:42:41Z</time></trkpt>
<trkpt lat="43.0352870000" lon="0.2522520000"><ele>634</ele><time>2026-03-23T11:42:44Z</time></trkpt>
<trkpt lat="43.0352920000" lon="0.2522800000"><ele>633</ele><time>2026-03-23T11:42:46Z</time></trkpt>
<trkpt lat="43.0352970000" lon="0.2523050000"><ele>633</ele><time>2026-03-23T11:42:48Z</time></trkpt>
<trkpt lat="43.0353050000" lon="0.2523330000"><ele>632</ele><time>2026-03-23T11:42:51Z</time></trkpt>
<trkpt lat="43.0353070000" lon="0.2523720000"><ele>632</ele><time>2026-03-23T11:42:54Z</time></trkpt>
<trkpt lat="43.0353070000" lon="0.2524050000"><ele>631</ele><time>2026-03-23T11:42:57Z</time></trkpt>
<trkpt lat="43.0353020000" lon="0.2524280000"><ele>631</ele><time>2026-03-23T11:42:59Z</time></trkpt>
<trkpt lat="43.0352970000" lon="0.2524570000"><ele>630</ele><time>2026-03-23T11:43:03Z</time></trkpt>
<trkpt lat="43.0352920000" lon="0.2524820000"><ele>629</ele><time>2026-03-23T11:43:06Z</time></trkpt>
<trkpt lat="43.0352900000" lon="0.2525170000"><ele>628</ele><time>2026-03-23T11:43:09Z</time></trkpt>
<trkpt lat="43.0352870000" lon="0.2525470000"><ele>628</ele><time>2026-03-23T11:43:12Z</time></trkpt>
<trkpt lat="43.0352870000" lon="0.2525720000"><ele>627</ele><time>2026-03-23T11:43:14Z</time></trkpt>
<trkpt lat="43.0352820000" lon="0.2526100000"><ele>626</ele><time>2026-03-23T11:43:17Z</time></trkpt>
<trkpt lat="43.0352770000" lon="0.2526380000"><ele>626</ele><time>2026-03-23T11:43:20Z</time></trkpt>
<trkpt lat="43.0352770000" lon="0.2526720000"><ele>625</ele><time>2026-03-23T11:43:23Z</time></trkpt>
<trkpt lat="43.0352720000" lon="0.2527070000"><ele>624</ele><time>2026-03-23T11:43:26Z</time></trkpt>
<trkpt lat="43.0352720000" lon="0.2527320000"><ele>624</ele><time>2026-03-23T11:43:29Z</time></trkpt>
<trkpt lat="43.0352920000" lon="0.2527350000"><ele>623</ele><time>2026-03-23T11:43:31Z</time></trkpt>
<trkpt lat="43.0353150000" lon="0.2527320000"><ele>622</ele><time>2026-03-23T11:43:34Z</time></trkpt>
<trkpt lat="43.0353370000" lon="0.2527270000"><ele>622</ele><time>2026-03-23T11:43:37Z</time></trkpt>
<trkpt lat="43.0353520000" lon="0.2527170000"><ele>622</ele><time>2026-03-23T11:43:39Z</time></trkpt>
<trkpt lat="43.0353750000" lon="0.2527050000"><ele>622</ele><time>2026-03-23T11:43:42Z</time></trkpt>
<trkpt lat="43.0353570000" lon="0.2527300000"><ele>621</ele><time>2026-03-23T11:44:58Z</time></trkpt>
<trkpt lat="43.0353400000" lon="0.2527470000"><ele>621</ele><time>2026-03-23T11:45:00Z</time></trkpt>
<trkpt lat="43.0353200000" lon="0.2527570000"><ele>621</ele><time>2026-03-23T11:45:02Z</time></trkpt>
<trkpt lat="43.0353000000" lon="0.2527570000"><ele>621</ele><time>2026-03-23T11:45:04Z</time></trkpt>
<trkpt lat="43.0352720000" lon="0.2527670000"><ele>621</ele><time>2026-03-23T11:45:07Z</time></trkpt>
<trkpt lat="43.0352520000" lon="0.2527830000"><ele>621</ele><time>2026-03-23T11:45:09Z</time></trkpt>
<trkpt lat="43.0352370000" lon="0.2528100000"><ele>621</ele><time>2026-03-23T11:45:11Z</time></trkpt>
<trkpt lat="43.0352220000" lon="0.2528420000"><ele>621</ele><time>2026-03-23T11:45:13Z</time></trkpt>
<trkpt lat="43.0352030000" lon="0.2528700000"><ele>621</ele><time>2026-03-23T11:45:15Z</time></trkpt>
<trkpt lat="43.0351870000" lon="0.2528900000"><ele>620</ele><time>2026-03-23T11:45:17Z</time></trkpt>
<trkpt lat="43.0351700000" lon="0.2529070000"><ele>620</ele><time>2026-03-23T11:45:19Z</time></trkpt>
<trkpt lat="43.0351520000" lon="0.2529220000"><ele>620</ele><time>2026-03-23T11:45:21Z</time></trkpt>
<trkpt lat="43.0351330000" lon="0.2529370000"><ele>620</ele><time>2026-03-23T11:45:23Z</time></trkpt>
<trkpt lat="43.0351170000" lon="0.2529550000"><ele>619</ele><time>2026-03-23T11:45:25Z</time></trkpt>
<trkpt lat="43.0350970000" lon="0.2529620000"><ele>618</ele><time>2026-03-23T11:45:35Z</time></trkpt>
<trkpt lat="43.0350820000" lon="0.2529770000"><ele>618</ele><time>2026-03-23T11:45:37Z</time></trkpt>
<trkpt lat="43.0350570000" lon="0.2529970000"><ele>618</ele><time>2026-03-23T11:45:39Z</time></trkpt>
<trkpt lat="43.0350320000" lon="0.2530170000"><ele>618</ele><time>2026-03-23T11:45:41Z</time></trkpt>
<trkpt lat="43.0350070000" lon="0.2530280000"><ele>618</ele><time>2026-03-23T11:45:43Z</time></trkpt>
<trkpt lat="43.0349900000" lon="0.2530470000"><ele>618</ele><time>2026-03-23T11:45:45Z</time></trkpt>
<trkpt lat="43.0349670000" lon="0.2530620000"><ele>617</ele><time>2026-03-23T11:45:47Z</time></trkpt>
<trkpt lat="43.0349450000" lon="0.2530770000"><ele>617</ele><time>2026-03-23T11:45:49Z</time></trkpt>
<trkpt lat="43.0349220000" lon="0.2530870000"><ele>617</ele><time>2026-03-23T11:45:51Z</time></trkpt>
<trkpt lat="43.0349020000" lon="0.2531000000"><ele>617</ele><time>2026-03-23T11:45:53Z</time></trkpt>
<trkpt lat="43.0348800000" lon="0.2531120000"><ele>616</ele><time>2026-03-23T11:45:55Z</time></trkpt>
<trkpt lat="43.0348570000" lon="0.2531230000"><ele>616</ele><time>2026-03-23T11:45:57Z</time></trkpt>
<trkpt lat="43.0348370000" lon="0.2531320000"><ele>616</ele><time>2026-03-23T11:45:59Z</time></trkpt>
<trkpt lat="43.0348120000" lon="0.2531370000"><ele>616</ele><time>2026-03-23T11:46:01Z</time></trkpt>
<trkpt lat="43.0347870000" lon="0.2531400000"><ele>616</ele><time>2026-03-23T11:46:03Z</time></trkpt>
<trkpt lat="43.0347650000" lon="0.2531420000"><ele>615</ele><time>2026-03-23T11:46:05Z</time></trkpt>
<trkpt lat="43.0347420000" lon="0.2531400000"><ele>615</ele><time>2026-03-23T11:46:07Z</time></trkpt>
<trkpt lat="43.0347170000" lon="0.2531370000"><ele>615</ele><time>2026-03-23T11:46:09Z</time></trkpt>
<trkpt lat="43.0346950000" lon="0.2531300000"><ele>614</ele><time>2026-03-23T11:46:11Z</time></trkpt>
<trkpt lat="43.0346770000" lon="0.2531170000"><ele>614</ele><time>2026-03-23T11:46:13Z</time></trkpt>
<trkpt lat="43.0346570000" lon="0.2531120000"><ele>613</ele><time>2026-03-23T11:46:17Z</time></trkpt>
<trkpt lat="43.0346370000" lon="0.2531070000"><ele>613</ele><time>2026-03-23T11:46:19Z</time></trkpt>
<trkpt lat="43.0346170000" lon="0.2530850000"><ele>613</ele><time>2026-03-23T11:46:22Z</time></trkpt>
<trkpt lat="43.0345970000" lon="0.2530820000"><ele>613</ele><time>2026-03-23T11:46:24Z</time></trkpt>
<trkpt lat="43.0345700000" lon="0.2530970000"><ele>612</ele><time>2026-03-23T11:46:26Z</time></trkpt>
<trkpt lat="43.0345420000" lon="0.2531120000"><ele>612</ele><time>2026-03-23T11:46:28Z</time></trkpt>
<trkpt lat="43.0345120000" lon="0.2531170000"><ele>612</ele><time>2026-03-23T11:46:30Z</time></trkpt>
<trkpt lat="43.0344870000" lon="0.2531200000"><ele>612</ele><time>2026-03-23T11:46:32Z</time></trkpt>
<trkpt lat="43.0344620000" lon="0.2531200000"><ele>612</ele><time>2026-03-23T11:46:34Z</time></trkpt>
<trkpt lat="43.0344350000" lon="0.2531220000"><ele>612</ele><time>2026-03-23T11:46:36Z</time></trkpt>
<trkpt lat="43.0344120000" lon="0.2531170000"><ele>612</ele><time>2026-03-23T11:46:38Z</time></trkpt>
<trkpt lat="43.0343870000" lon="0.2531120000"><ele>611</ele><time>2026-03-23T11:46:40Z</time></trkpt>
<trkpt lat="43.0343670000" lon="0.2531070000"><ele>611</ele><time>2026-03-23T11:46:42Z</time></trkpt>
<trkpt lat="43.0343470000" lon="0.2531100000"><ele>611</ele><time>2026-03-23T11:46:44Z</time></trkpt>
<trkpt lat="43.0343270000" lon="0.2531200000"><ele>611</ele><time>2026-03-23T11:46:46Z</time></trkpt>
<trkpt lat="43.0343120000" lon="0.2531300000"><ele>610</ele><time>2026-03-23T11:46:48Z</time></trkpt>
<trkpt lat="43.0343120000" lon="0.2531600000"><ele>610</ele><time>2026-03-23T11:46:51Z</time></trkpt>
<trkpt lat="43.0343350000" lon="0.2531700000"><ele>610</ele><time>2026-03-23T11:46:53Z</time></trkpt>
<trkpt lat="43.0343550000" lon="0.2531800000"><ele>610</ele><time>2026-03-23T11:46:55Z</time></trkpt>
<trkpt lat="43.0343770000" lon="0.2531800000"><ele>609</ele><time>2026-03-23T11:47:00Z</time></trkpt>
<trkpt lat="43.0343950000" lon="0.2531820000"><ele>609</ele><time>2026-03-23T11:47:02Z</time></trkpt>
<trkpt lat="43.0344170000" lon="0.2531770000"><ele>609</ele><time>2026-03-23T11:47:04Z</time></trkpt>
<trkpt lat="43.0344400000" lon="0.2531770000"><ele>608</ele><time>2026-03-23T11:47:06Z</time></trkpt>
<trkpt lat="43.0344620000" lon="0.2531800000"><ele>608</ele><time>2026-03-23T11:47:08Z</time></trkpt>
<trkpt lat="43.0344820000" lon="0.2531920000"><ele>608</ele><time>2026-03-23T11:47:10Z</time></trkpt>
<trkpt lat="43.0345100000" lon="0.2532020000"><ele>608</ele><time>2026-03-23T11:47:12Z</time></trkpt>
<trkpt lat="43.0345320000" lon="0.2532120000"><ele>608</ele><time>2026-03-23T11:47:14Z</time></trkpt>
<trkpt lat="43.0345570000" lon="0.2532220000"><ele>608</ele><time>2026-03-23T11:47:16Z</time></trkpt>
<trkpt lat="43.0345800000" lon="0.2532300000"><ele>607</ele><time>2026-03-23T11:47:18Z</time></trkpt>
<trkpt lat="43.0346050000" lon="0.2532420000"><ele>607</ele><time>2026-03-23T11:47:20Z</time></trkpt>
<trkpt lat="43.0346250000" lon="0.2532570000"><ele>607</ele><time>2026-03-23T11:47:22Z</time></trkpt>
<trkpt lat="43.0346450000" lon="0.2532800000"><ele>607</ele><time>2026-03-23T11:47:24Z</time></trkpt>
<trkpt lat="43.0346680000" lon="0.2532870000"><ele>606</ele><time>2026-03-23T11:47:26Z</time></trkpt>
<trkpt lat="43.0346920000" lon="0.2532950000"><ele>606</ele><time>2026-03-23T11:47:28Z</time></trkpt>
<trkpt lat="43.0347070000" lon="0.2533120000"><ele>606</ele><time>2026-03-23T11:47:30Z</time></trkpt>
<trkpt lat="43.0347320000" lon="0.2533220000"><ele>606</ele><time>2026-03-23T11:47:32Z</time></trkpt>
<trkpt lat="43.0347570000" lon="0.2533370000"><ele>606</ele><time>2026-03-23T11:47:34Z</time></trkpt>
<trkpt lat="43.0347820000" lon="0.2533470000"><ele>606</ele><time>2026-03-23T11:47:36Z</time></trkpt>
<trkpt lat="43.0348070000" lon="0.2533520000"><ele>606</ele><time>2026-03-23T11:47:38Z</time></trkpt>
<trkpt lat="43.0348350000" lon="0.2533580000"><ele>606</ele><time>2026-03-23T11:47:40Z</time></trkpt>
<trkpt lat="43.0348570000" lon="0.2533670000"><ele>606</ele><time>2026-03-23T11:47:42Z</time></trkpt>
<trkpt lat="43.0348770000" lon="0.2533700000"><ele>605</ele><time>2026-03-23T11:47:44Z</time></trkpt>
<trkpt lat="43.0349020000" lon="0.2533720000"><ele>605</ele><time>2026-03-23T11:47:46Z</time></trkpt>
<trkpt lat="43.0349270000" lon="0.2533670000"><ele>605</ele><time>2026-03-23T11:47:48Z</time></trkpt>
<trkpt lat="43.0349500000" lon="0.2533620000"><ele>605</ele><time>2026-03-23T11:47:50Z</time></trkpt>
<trkpt lat="43.0349720000" lon="0.2533580000"><ele>605</ele><time>2026-03-23T11:47:52Z</time></trkpt>
<trkpt lat="43.0349950000" lon="0.2533580000"><ele>604</ele><time>2026-03-23T11:47:54Z</time></trkpt>
<trkpt lat="43.0350150000" lon="0.2533620000"><ele>604</ele><time>2026-03-23T11:47:56Z</time></trkpt>
<trkpt lat="43.0350370000" lon="0.2533620000"><ele>604</ele><time>2026-03-23T11:47:58Z</time></trkpt>
<trkpt lat="43.0350570000" lon="0.2533570000"><ele>603</ele><time>2026-03-23T11:48:00Z</time></trkpt>
<trkpt lat="43.0350770000" lon="0.2533580000"><ele>603</ele><time>2026-03-23T11:48:02Z</time></trkpt>
<trkpt lat="43.0351000000" lon="0.2533470000"><ele>603</ele><time>2026-03-23T11:48:04Z</time></trkpt>
<trkpt lat="43.0351220000" lon="0.2533420000"><ele>603</ele><time>2026-03-23T11:48:06Z</time></trkpt>
<trkpt lat="43.0351450000" lon="0.2533370000"><ele>602</ele><time>2026-03-23T11:48:08Z</time></trkpt>
<trkpt lat="43.0351670000" lon="0.2533330000"><ele>602</ele><time>2026-03-23T11:48:10Z</time></trkpt>
<trkpt lat="43.0351900000" lon="0.2533300000"><ele>602</ele><time>2026-03-23T11:48:12Z</time></trkpt>
<trkpt lat="43.0352120000" lon="0.2533270000"><ele>601</ele><time>2026-03-23T11:48:14Z</time></trkpt>
<trkpt lat="43.0352350000" lon="0.2533170000"><ele>601</ele><time>2026-03-23T11:48:16Z</time></trkpt>
<trkpt lat="43.0352570000" lon="0.2533080000"><ele>601</ele><time>2026-03-23T11:48:18Z</time></trkpt>
<trkpt lat="43.0352770000" lon="0.2533070000"><ele>600</ele><time>2026-03-23T11:48:20Z</time></trkpt>
<trkpt lat="43.0353000000" lon="0.2533020000"><ele>600</ele><time>2026-03-23T11:48:22Z</time></trkpt>
<trkpt lat="43.0353200000" lon="0.2533000000"><ele>600</ele><time>2026-03-23T11:48:24Z</time></trkpt>
<trkpt lat="43.0353420000" lon="0.2532950000"><ele>599</ele><time>2026-03-23T11:48:26Z</time></trkpt>
<trkpt lat="43.0353650000" lon="0.2532870000"><ele>599</ele><time>2026-03-23T11:48:28Z</time></trkpt>
<trkpt lat="43.0353870000" lon="0.2532770000"><ele>599</ele><time>2026-03-23T11:48:30Z</time></trkpt>
<trkpt lat="43.0354070000" lon="0.2532700000"><ele>599</ele><time>2026-03-23T11:48:32Z</time></trkpt>
<trkpt lat="43.0354280000" lon="0.2532620000"><ele>599</ele><time>2026-03-23T11:48:34Z</time></trkpt>
<trkpt lat="43.0354520000" lon="0.2532520000"><ele>598</ele><time>2026-03-23T11:48:36Z</time></trkpt>
<trkpt lat="43.0354720000" lon="0.2532400000"><ele>598</ele><time>2026-03-23T11:48:38Z</time></trkpt>
<trkpt lat="43.0354920000" lon="0.2532270000"><ele>598</ele><time>2026-03-23T11:48:40Z</time></trkpt>
<trkpt lat="43.0355170000" lon="0.2532120000"><ele>598</ele><time>2026-03-23T11:48:42Z</time></trkpt>
<trkpt lat="43.0355420000" lon="0.2532020000"><ele>598</ele><time>2026-03-23T11:48:44Z</time></trkpt>
<trkpt lat="43.0355600000" lon="0.2531920000"><ele>598</ele><time>2026-03-23T11:48:46Z</time></trkpt>
<trkpt lat="43.0355770000" lon="0.2531770000"><ele>597</ele><time>2026-03-23T11:48:48Z</time></trkpt>
<trkpt lat="43.0355970000" lon="0.2531630000"><ele>597</ele><time>2026-03-23T11:48:50Z</time></trkpt>
<trkpt lat="43.0356150000" lon="0.2531570000"><ele>597</ele><time>2026-03-23T11:48:52Z</time></trkpt>
<trkpt lat="43.0356320000" lon="0.2531520000"><ele>597</ele><time>2026-03-23T11:48:54Z</time></trkpt>
<trkpt lat="43.0356570000" lon="0.2531420000"><ele>597</ele><time>2026-03-23T11:48:56Z</time></trkpt>
<trkpt lat="43.0356800000" lon="0.2531370000"><ele>596</ele><time>2026-03-23T11:48:58Z</time></trkpt>
<trkpt lat="43.0357050000" lon="0.2531230000"><ele>596</ele><time>2026-03-23T11:49:00Z</time></trkpt>
<trkpt lat="43.0357270000" lon="0.2531000000"><ele>596</ele><time>2026-03-23T11:49:02Z</time></trkpt>
<trkpt lat="43.0357520000" lon="0.2530820000"><ele>596</ele><time>2026-03-23T11:49:04Z</time></trkpt>
<trkpt lat="43.0357770000" lon="0.2530700000"><ele>595</ele><time>2026-03-23T11:49:06Z</time></trkpt>
<trkpt lat="43.0358000000" lon="0.2530630000"><ele>595</ele><time>2026-03-23T11:49:08Z</time></trkpt>
<trkpt lat="43.0358200000" lon="0.2530570000"><ele>595</ele><time>2026-03-23T11:49:10Z</time></trkpt>
<trkpt lat="43.0358400000" lon="0.2530420000"><ele>595</ele><time>2026-03-23T11:49:12Z</time></trkpt>
<trkpt lat="43.0358620000" lon="0.2530320000"><ele>594</ele><time>2026-03-23T11:49:14Z</time></trkpt>
<trkpt lat="43.0358900000" lon="0.2530200000"><ele>594</ele><time>2026-03-23T11:49:16Z</time></trkpt>
<trkpt lat="43.0359120000" lon="0.2530050000"><ele>594</ele><time>2026-03-23T11:49:18Z</time></trkpt>
<trkpt lat="43.0359320000" lon="0.2529870000"><ele>594</ele><time>2026-03-23T11:49:20Z</time></trkpt>
<trkpt lat="43.0359500000" lon="0.2529720000"><ele>594</ele><time>2026-03-23T11:49:22Z</time></trkpt>
<trkpt lat="43.0359700000" lon="0.2529520000"><ele>593</ele><time>2026-03-23T11:49:24Z</time></trkpt>
<trkpt lat="43.0359920000" lon="0.2529320000"><ele>593</ele><time>2026-03-23T11:49:26Z</time></trkpt>
<trkpt lat="43.0360120000" lon="0.2529170000"><ele>593</ele><time>2026-03-23T11:49:28Z</time></trkpt>
<trkpt lat="43.0360320000" lon="0.2529020000"><ele>593</ele><time>2026-03-23T11:49:30Z</time></trkpt>
<trkpt lat="43.0360520000" lon="0.2528820000"><ele>593</ele><time>2026-03-23T11:49:32Z</time></trkpt>
<trkpt lat="43.0360720000" lon="0.2528620000"><ele>593</ele><time>2026-03-23T11:49:34Z</time></trkpt>
<trkpt lat="43.0360920000" lon="0.2528400000"><ele>592</ele><time>2026-03-23T11:49:36Z</time></trkpt>
<trkpt lat="43.0361070000" lon="0.2528170000"><ele>592</ele><time>2026-03-23T11:49:38Z</time></trkpt>
<trkpt lat="43.0361250000" lon="0.2527970000"><ele>592</ele><time>2026-03-23T11:49:40Z</time></trkpt>
<trkpt lat="43.0361450000" lon="0.2527770000"><ele>592</ele><time>2026-03-23T11:49:42Z</time></trkpt>
<trkpt lat="43.0361670000" lon="0.2527570000"><ele>592</ele><time>2026-03-23T11:49:44Z</time></trkpt>
<trkpt lat="43.0361880000" lon="0.2527450000"><ele>592</ele><time>2026-03-23T11:49:46Z</time></trkpt>
<trkpt lat="43.0362020000" lon="0.2527270000"><ele>592</ele><time>2026-03-23T11:49:48Z</time></trkpt>
<trkpt lat="43.0362200000" lon="0.2527080000"><ele>591</ele><time>2026-03-23T11:49:50Z</time></trkpt>
<trkpt lat="43.0362370000" lon="0.2526870000"><ele>591</ele><time>2026-03-23T11:49:52Z</time></trkpt>
<trkpt lat="43.0362550000" lon="0.2526670000"><ele>591</ele><time>2026-03-23T11:49:54Z</time></trkpt>
<trkpt lat="43.0362720000" lon="0.2526420000"><ele>591</ele><time>2026-03-23T11:49:56Z</time></trkpt>
<trkpt lat="43.0362870000" lon="0.2526170000"><ele>591</ele><time>2026-03-23T11:49:58Z</time></trkpt>
<trkpt lat="43.0363020000" lon="0.2525970000"><ele>590</ele><time>2026-03-23T11:50:00Z</time></trkpt>
<trkpt lat="43.0363120000" lon="0.2525730000"><ele>590</ele><time>2026-03-23T11:50:02Z</time></trkpt>
<trkpt lat="43.0363250000" lon="0.2525470000"><ele>590</ele><time>2026-03-23T11:50:04Z</time></trkpt>
<trkpt lat="43.0363370000" lon="0.2525170000"><ele>590</ele><time>2026-03-23T11:50:06Z</time></trkpt>
<trkpt lat="43.0363470000" lon="0.2524780000"><ele>590</ele><time>2026-03-23T11:50:08Z</time></trkpt>
<trkpt lat="43.0363500000" lon="0.2524500000"><ele>589</ele><time>2026-03-23T11:50:09Z</time></trkpt>
<trkpt lat="43.0363550000" lon="0.2524180000"><ele>589</ele><time>2026-03-23T11:50:11Z</time></trkpt>
<trkpt lat="43.0363620000" lon="0.2523920000"><ele>589</ele><time>2026-03-23T11:50:13Z</time></trkpt>
<trkpt lat="43.0363650000" lon="0.2523550000"><ele>589</ele><time>2026-03-23T11:50:15Z</time></trkpt>
<trkpt lat="43.0363670000" lon="0.2523220000"><ele>589</ele><time>2026-03-23T11:50:17Z</time></trkpt>
<trkpt lat="43.0363720000" lon="0.2522930000"><ele>589</ele><time>2026-03-23T11:50:19Z</time></trkpt>
<trkpt lat="43.0363700000" lon="0.2522670000"><ele>588</ele><time>2026-03-23T11:50:21Z</time></trkpt>
<trkpt lat="43.0363770000" lon="0.2522420000"><ele>588</ele><time>2026-03-23T11:50:23Z</time></trkpt>
<trkpt lat="43.0363970000" lon="0.2522220000"><ele>588</ele><time>2026-03-23T11:50:25Z</time></trkpt>
<trkpt lat="43.0364200000" lon="0.2522070000"><ele>587</ele><time>2026-03-23T11:50:27Z</time></trkpt>
<trkpt lat="43.0364420000" lon="0.2522150000"><ele>587</ele><time>2026-03-23T11:50:29Z</time></trkpt>
<trkpt lat="43.0364620000" lon="0.2522400000"><ele>586</ele><time>2026-03-23T11:50:31Z</time></trkpt>
<trkpt lat="43.0364770000" lon="0.2522720000"><ele>586</ele><time>2026-03-23T11:50:33Z</time></trkpt>
<trkpt lat="43.0364820000" lon="0.2523070000"><ele>586</ele><time>2026-03-23T11:50:35Z</time></trkpt>
<trkpt lat="43.0364820000" lon="0.2523400000"><ele>585</ele><time>2026-03-23T11:50:37Z</time></trkpt>
<trkpt lat="43.0364820000" lon="0.2523720000"><ele>585</ele><time>2026-03-23T11:50:39Z</time></trkpt>
<trkpt lat="43.0364800000" lon="0.2524000000"><ele>585</ele><time>2026-03-23T11:50:41Z</time></trkpt>
<trkpt lat="43.0364770000" lon="0.2524270000"><ele>585</ele><time>2026-03-23T11:50:43Z</time></trkpt>
<trkpt lat="43.0364770000" lon="0.2524600000"><ele>585</ele><time>2026-03-23T11:50:45Z</time></trkpt>
<trkpt lat="43.0364700000" lon="0.2524950000"><ele>585</ele><time>2026-03-23T11:50:47Z</time></trkpt>
<trkpt lat="43.0364620000" lon="0.2525300000"><ele>584</ele><time>2026-03-23T11:50:49Z</time></trkpt>
<trkpt lat="43.0364570000" lon="0.2525630000"><ele>584</ele><time>2026-03-23T11:50:51Z</time></trkpt>
<trkpt lat="43.0364470000" lon="0.2525950000"><ele>584</ele><time>2026-03-23T11:50:53Z</time></trkpt>
<trkpt lat="43.0364400000" lon="0.2526220000"><ele>584</ele><time>2026-03-23T11:50:55Z</time></trkpt>
<trkpt lat="43.0364300000" lon="0.2526520000"><ele>584</ele><time>2026-03-23T11:50:57Z</time></trkpt>
<trkpt lat="43.0364200000" lon="0.2526820000"><ele>584</ele><time>2026-03-23T11:50:59Z</time></trkpt>
<trkpt lat="43.0364070000" lon="0.2527150000"><ele>584</ele><time>2026-03-23T11:51:01Z</time></trkpt>
<trkpt lat="43.0363970000" lon="0.2527420000"><ele>584</ele><time>2026-03-23T11:51:03Z</time></trkpt>
<trkpt lat="43.0363870000" lon="0.2527720000"><ele>584</ele><time>2026-03-23T11:51:05Z</time></trkpt>
<trkpt lat="43.0363770000" lon="0.2528070000"><ele>584</ele><time>2026-03-23T11:51:07Z</time></trkpt>
<trkpt lat="43.0363670000" lon="0.2528370000"><ele>584</ele><time>2026-03-23T11:51:09Z</time></trkpt>
<trkpt lat="43.0363520000" lon="0.2528650000"><ele>584</ele><time>2026-03-23T11:51:11Z</time></trkpt>
<trkpt lat="43.0363370000" lon="0.2528900000"><ele>583</ele><time>2026-03-23T11:51:13Z</time></trkpt>
<trkpt lat="43.0363270000" lon="0.2529170000"><ele>583</ele><time>2026-03-23T11:51:15Z</time></trkpt>
<trkpt lat="43.0363120000" lon="0.2529420000"><ele>583</ele><time>2026-03-23T11:51:17Z</time></trkpt>
<trkpt lat="43.0363020000" lon="0.2529680000"><ele>583</ele><time>2026-03-23T11:51:19Z</time></trkpt>
<trkpt lat="43.0362920000" lon="0.2529950000"><ele>583</ele><time>2026-03-23T11:51:21Z</time></trkpt>
<trkpt lat="43.0362770000" lon="0.2530200000"><ele>582</ele><time>2026-03-23T11:51:23Z</time></trkpt>
<trkpt lat="43.0362620000" lon="0.2530420000"><ele>582</ele><time>2026-03-23T11:51:25Z</time></trkpt>
<trkpt lat="43.0362520000" lon="0.2530730000"><ele>582</ele><time>2026-03-23T11:51:27Z</time></trkpt>
<trkpt lat="43.0362420000" lon="0.2531070000"><ele>582</ele><time>2026-03-23T11:51:29Z</time></trkpt>
<trkpt lat="43.0362300000" lon="0.2531320000"><ele>581</ele><time>2026-03-23T11:51:31Z</time></trkpt>
<trkpt lat="43.0362170000" lon="0.2531550000"><ele>581</ele><time>2026-03-23T11:51:33Z</time></trkpt>
<trkpt lat="43.0362050000" lon="0.2531770000"><ele>581</ele><time>2026-03-23T11:51:35Z</time></trkpt>
<trkpt lat="43.0361870000" lon="0.2531970000"><ele>581</ele><time>2026-03-23T11:51:37Z</time></trkpt>
<trkpt lat="43.0361720000" lon="0.2532220000"><ele>580</ele><time>2026-03-23T11:51:39Z</time></trkpt>
<trkpt lat="43.0361470000" lon="0.2532420000"><ele>580</ele><time>2026-03-23T11:51:41Z</time></trkpt>
<trkpt lat="43.0361250000" lon="0.2532670000"><ele>580</ele><time>2026-03-23T11:51:43Z</time></trkpt>
<trkpt lat="43.0361100000" lon="0.2532900000"><ele>580</ele><time>2026-03-23T11:51:45Z</time></trkpt>
<trkpt lat="43.0360970000" lon="0.2533070000"><ele>579</ele><time>2026-03-23T11:51:47Z</time></trkpt>
<trkpt lat="43.0360770000" lon="0.2533270000"><ele>579</ele><time>2026-03-23T11:51:49Z</time></trkpt>
<trkpt lat="43.0360620000" lon="0.2533470000"><ele>579</ele><time>2026-03-23T11:51:51Z</time></trkpt>
<trkpt lat="43.0360450000" lon="0.2533700000"><ele>578</ele><time>2026-03-23T11:51:53Z</time></trkpt>
<trkpt lat="43.0360250000" lon="0.2533870000"><ele>578</ele><time>2026-03-23T11:51:55Z</time></trkpt>
<trkpt lat="43.0360100000" lon="0.2534120000"><ele>578</ele><time>2026-03-23T11:51:57Z</time></trkpt>
<trkpt lat="43.0359920000" lon="0.2534320000"><ele>577</ele><time>2026-03-23T11:51:59Z</time></trkpt>
<trkpt lat="43.0359770000" lon="0.2534570000"><ele>577</ele><time>2026-03-23T11:52:01Z</time></trkpt>
<trkpt lat="43.0359600000" lon="0.2534770000"><ele>577</ele><time>2026-03-23T11:52:03Z</time></trkpt>
<trkpt lat="43.0359420000" lon="0.2534970000"><ele>577</ele><time>2026-03-23T11:52:05Z</time></trkpt>
<trkpt lat="43.0359250000" lon="0.2535170000"><ele>576</ele><time>2026-03-23T11:52:07Z</time></trkpt>
<trkpt lat="43.0359070000" lon="0.2535370000"><ele>576</ele><time>2026-03-23T11:52:09Z</time></trkpt>
<trkpt lat="43.0358870000" lon="0.2535550000"><ele>576</ele><time>2026-03-23T11:52:11Z</time></trkpt>
<trkpt lat="43.0358670000" lon="0.2535750000"><ele>576</ele><time>2026-03-23T11:52:13Z</time></trkpt>
<trkpt lat="43.0358470000" lon="0.2535920000"><ele>575</ele><time>2026-03-23T11:52:15Z</time></trkpt>
<trkpt lat="43.0358370000" lon="0.2536120000"><ele>575</ele><time>2026-03-23T11:52:17Z</time></trkpt>
<trkpt lat="43.0358080000" lon="0.2536320000"><ele>575</ele><time>2026-03-23T11:52:31Z</time></trkpt>
<trkpt lat="43.0357800000" lon="0.2536520000"><ele>575</ele><time>2026-03-23T11:52:33Z</time></trkpt>
<trkpt lat="43.0357550000" lon="0.2536730000"><ele>575</ele><time>2026-03-23T11:52:35Z</time></trkpt>
<trkpt lat="43.0357350000" lon="0.2536870000"><ele>574</ele><time>2026-03-23T11:52:37Z</time></trkpt>
<trkpt lat="43.0357200000" lon="0.2537050000"><ele>574</ele><time>2026-03-23T11:52:39Z</time></trkpt>
<trkpt lat="43.0357020000" lon="0.2537170000"><ele>574</ele><time>2026-03-23T11:52:41Z</time></trkpt>
<trkpt lat="43.0356850000" lon="0.2537320000"><ele>573</ele><time>2026-03-23T11:52:43Z</time></trkpt>
<trkpt lat="43.0356670000" lon="0.2537470000"><ele>573</ele><time>2026-03-23T11:52:45Z</time></trkpt>
<trkpt lat="43.0356470000" lon="0.2537720000"><ele>573</ele><time>2026-03-23T11:52:47Z</time></trkpt>
<trkpt lat="43.0356300000" lon="0.2537870000"><ele>573</ele><time>2026-03-23T11:52:49Z</time></trkpt>
<trkpt lat="43.0356070000" lon="0.2538120000"><ele>572</ele><time>2026-03-23T11:52:51Z</time></trkpt>
<trkpt lat="43.0355830000" lon="0.2538370000"><ele>572</ele><time>2026-03-23T11:52:53Z</time></trkpt>
<trkpt lat="43.0355600000" lon="0.2538580000"><ele>572</ele><time>2026-03-23T11:52:55Z</time></trkpt>
<trkpt lat="43.0355400000" lon="0.2538770000"><ele>572</ele><time>2026-03-23T11:52:57Z</time></trkpt>
<trkpt lat="43.0355170000" lon="0.2539000000"><ele>571</ele><time>2026-03-23T11:52:59Z</time></trkpt>
<trkpt lat="43.0355000000" lon="0.2539170000"><ele>571</ele><time>2026-03-23T11:53:01Z</time></trkpt>
<trkpt lat="43.0354770000" lon="0.2539300000"><ele>571</ele><time>2026-03-23T11:53:03Z</time></trkpt>
<trkpt lat="43.0354550000" lon="0.2539420000"><ele>571</ele><time>2026-03-23T11:53:05Z</time></trkpt>
<trkpt lat="43.0354370000" lon="0.2539520000"><ele>570</ele><time>2026-03-23T11:53:07Z</time></trkpt>
<trkpt lat="43.0354170000" lon="0.2539720000"><ele>570</ele><time>2026-03-23T11:53:09Z</time></trkpt>
<trkpt lat="43.0354100000" lon="0.2539950000"><ele>569</ele><time>2026-03-23T11:53:11Z</time></trkpt>
<trkpt lat="43.0354120000" lon="0.2540220000"><ele>569</ele><time>2026-03-23T11:53:14Z</time></trkpt>
<trkpt lat="43.0354200000" lon="0.2540470000"><ele>569</ele><time>2026-03-23T11:53:16Z</time></trkpt>
<trkpt lat="43.0354370000" lon="0.2540570000"><ele>569</ele><time>2026-03-23T11:53:18Z</time></trkpt>
<trkpt lat="43.0354620000" lon="0.2540520000"><ele>568</ele><time>2026-03-23T11:53:20Z</time></trkpt>
<trkpt lat="43.0354850000" lon="0.2540470000"><ele>568</ele><time>2026-03-23T11:53:22Z</time></trkpt>
<trkpt lat="43.0355050000" lon="0.2540270000"><ele>568</ele><time>2026-03-23T11:53:24Z</time></trkpt>
<trkpt lat="43.0355270000" lon="0.2540030000"><ele>568</ele><time>2026-03-23T11:53:26Z</time></trkpt>
<trkpt lat="43.0355520000" lon="0.2539920000"><ele>568</ele><time>2026-03-23T11:53:28Z</time></trkpt>
<trkpt lat="43.0355720000" lon="0.2539770000"><ele>568</ele><time>2026-03-23T11:53:30Z</time></trkpt>
<trkpt lat="43.0355970000" lon="0.2539650000"><ele>567</ele><time>2026-03-23T11:53:32Z</time></trkpt>
<trkpt lat="43.0356120000" lon="0.2539470000"><ele>567</ele><time>2026-03-23T11:53:34Z</time></trkpt>
<trkpt lat="43.0356350000" lon="0.2539320000"><ele>567</ele><time>2026-03-23T11:53:36Z</time></trkpt>
<trkpt lat="43.0356530000" lon="0.2539070000"><ele>567</ele><time>2026-03-23T11:53:38Z</time></trkpt>
<trkpt lat="43.0356770000" lon="0.2538870000"><ele>567</ele><time>2026-03-23T11:53:40Z</time></trkpt>
<trkpt lat="43.0357020000" lon="0.2538750000"><ele>567</ele><time>2026-03-23T11:53:42Z</time></trkpt>
<trkpt lat="43.0357220000" lon="0.2538620000"><ele>567</ele><time>2026-03-23T11:53:44Z</time></trkpt>
<trkpt lat="43.0357470000" lon="0.2538500000"><ele>567</ele><time>2026-03-23T11:53:46Z</time></trkpt>
<trkpt lat="43.0357720000" lon="0.2538320000"><ele>566</ele><time>2026-03-23T11:53:48Z</time></trkpt>
<trkpt lat="43.0357920000" lon="0.2538150000"><ele>566</ele><time>2026-03-23T11:53:50Z</time></trkpt>
<trkpt lat="43.0358150000" lon="0.2537970000"><ele>566</ele><time>2026-03-23T11:53:52Z</time></trkpt>
<trkpt lat="43.0358400000" lon="0.2537800000"><ele>566</ele><time>2026-03-23T11:53:54Z</time></trkpt>
<trkpt lat="43.0358670000" lon="0.2537770000"><ele>566</ele><time>2026-03-23T11:53:56Z</time></trkpt>
<trkpt lat="43.0358850000" lon="0.2537680000"><ele>566</ele><time>2026-03-23T11:53:58Z</time></trkpt>
<trkpt lat="43.0359070000" lon="0.2537570000"><ele>566</ele><time>2026-03-23T11:54:00Z</time></trkpt>
<trkpt lat="43.0359300000" lon="0.2537400000"><ele>566</ele><time>2026-03-23T11:54:02Z</time></trkpt>
<trkpt lat="43.0359550000" lon="0.2537300000"><ele>565</ele><time>2026-03-23T11:54:04Z</time></trkpt>
<trkpt lat="43.0359800000" lon="0.2537170000"><ele>565</ele><time>2026-03-23T11:54:06Z</time></trkpt>
<trkpt lat="43.0360000000" lon="0.2537000000"><ele>565</ele><time>2026-03-23T11:54:08Z</time></trkpt>
<trkpt lat="43.0360220000" lon="0.2536830000"><ele>565</ele><time>2026-03-23T11:54:10Z</time></trkpt>
<trkpt lat="43.0360420000" lon="0.2536770000"><ele>565</ele><time>2026-03-23T11:54:12Z</time></trkpt>
<trkpt lat="43.0360600000" lon="0.2536670000"><ele>564</ele><time>2026-03-23T11:54:14Z</time></trkpt>
<trkpt lat="43.0360770000" lon="0.2536570000"><ele>564</ele><time>2026-03-23T11:54:16Z</time></trkpt>
<trkpt lat="43.0360970000" lon="0.2536520000"><ele>564</ele><time>2026-03-23T11:54:18Z</time></trkpt>
<trkpt lat="43.0361170000" lon="0.2536370000"><ele>564</ele><time>2026-03-23T11:54:20Z</time></trkpt>
<trkpt lat="43.0361450000" lon="0.2536270000"><ele>564</ele><time>2026-03-23T11:54:22Z</time></trkpt>
<trkpt lat="43.0361650000" lon="0.2536130000"><ele>563</ele><time>2026-03-23T11:54:24Z</time></trkpt>
<trkpt lat="43.0361850000" lon="0.2536020000"><ele>563</ele><time>2026-03-23T11:54:26Z</time></trkpt>
<trkpt lat="43.0362070000" lon="0.2535950000"><ele>563</ele><time>2026-03-23T11:54:28Z</time></trkpt>
<trkpt lat="43.0362320000" lon="0.2535800000"><ele>562</ele><time>2026-03-23T11:54:30Z</time></trkpt>
<trkpt lat="43.0362550000" lon="0.2535720000"><ele>562</ele><time>2026-03-23T11:54:32Z</time></trkpt>
<trkpt lat="43.0362770000" lon="0.2535570000"><ele>562</ele><time>2026-03-23T11:54:34Z</time></trkpt>
<trkpt lat="43.0362970000" lon="0.2535370000"><ele>562</ele><time>2026-03-23T11:54:36Z</time></trkpt>
<trkpt lat="43.0363170000" lon="0.2535250000"><ele>561</ele><time>2026-03-23T11:54:38Z</time></trkpt>
<trkpt lat="43.0363350000" lon="0.2535120000"><ele>561</ele><time>2026-03-23T11:54:40Z</time></trkpt>
<trkpt lat="43.0363550000" lon="0.2534980000"><ele>561</ele><time>2026-03-23T11:54:42Z</time></trkpt>
<trkpt lat="43.0363770000" lon="0.2534870000"><ele>561</ele><time>2026-03-23T11:54:44Z</time></trkpt>
<trkpt lat="43.0364070000" lon="0.2534680000"><ele>560</ele><time>2026-03-23T11:54:46Z</time></trkpt>
<trkpt lat="43.0364270000" lon="0.2534500000"><ele>560</ele><time>2026-03-23T11:54:48Z</time></trkpt>
<trkpt lat="43.0364470000" lon="0.2534320000"><ele>560</ele><time>2026-03-23T11:54:50Z</time></trkpt>
<trkpt lat="43.0364670000" lon="0.2534150000"><ele>560</ele><time>2026-03-23T11:54:52Z</time></trkpt>
<trkpt lat="43.0364900000" lon="0.2534120000"><ele>559</ele><time>2026-03-23T11:54:54Z</time></trkpt>
<trkpt lat="43.0365070000" lon="0.2533970000"><ele>559</ele><time>2026-03-23T11:54:56Z</time></trkpt>
<trkpt lat="43.0365270000" lon="0.2533870000"><ele>559</ele><time>2026-03-23T11:54:58Z</time></trkpt>
<trkpt lat="43.0365470000" lon="0.2533800000"><ele>558</ele><time>2026-03-23T11:55:00Z</time></trkpt>
<trkpt lat="43.0365680000" lon="0.2533670000"><ele>558</ele><time>2026-03-23T11:55:02Z</time></trkpt>
<trkpt lat="43.0365900000" lon="0.2533470000"><ele>558</ele><time>2026-03-23T11:55:04Z</time></trkpt>
<trkpt lat="43.0366120000" lon="0.2533330000"><ele>558</ele><time>2026-03-23T11:55:06Z</time></trkpt>
<trkpt lat="43.0366320000" lon="0.2533170000"><ele>557</ele><time>2026-03-23T11:55:08Z</time></trkpt>
<trkpt lat="43.0366550000" lon="0.2533050000"><ele>557</ele><time>2026-03-23T11:55:10Z</time></trkpt>
<trkpt lat="43.0366750000" lon="0.2532900000"><ele>557</ele><time>2026-03-23T11:55:12Z</time></trkpt>
<trkpt lat="43.0366920000" lon="0.2532750000"><ele>557</ele><time>2026-03-23T11:55:14Z</time></trkpt>
<trkpt lat="43.0367120000" lon="0.2532520000"><ele>556</ele><time>2026-03-23T11:55:16Z</time></trkpt>
<trkpt lat="43.0367320000" lon="0.2532420000"><ele>556</ele><time>2026-03-23T11:55:18Z</time></trkpt>
<trkpt lat="43.0367600000" lon="0.2532320000"><ele>556</ele><time>2026-03-23T11:55:20Z</time></trkpt>
<trkpt lat="43.0367770000" lon="0.2532170000"><ele>556</ele><time>2026-03-23T11:55:22Z</time></trkpt>
<trkpt lat="43.0367970000" lon="0.2532020000"><ele>555</ele><time>2026-03-23T11:55:24Z</time></trkpt>
<trkpt lat="43.0368170000" lon="0.2531850000"><ele>555</ele><time>2026-03-23T11:55:27Z</time></trkpt>
<trkpt lat="43.0368300000" lon="0.2531630000"><ele>555</ele><time>2026-03-23T11:55:29Z</time></trkpt>
<trkpt lat="43.0368470000" lon="0.2531520000"><ele>555</ele><time>2026-03-23T11:55:30Z</time></trkpt>
<trkpt lat="43.0368700000" lon="0.2531320000"><ele>554</ele><time>2026-03-23T11:55:32Z</time></trkpt>
<trkpt lat="43.0368900000" lon="0.2531220000"><ele>554</ele><time>2026-03-23T11:55:34Z</time></trkpt>
<trkpt lat="43.0369070000" lon="0.2531000000"><ele>554</ele><time>2026-03-23T11:55:36Z</time></trkpt>
<trkpt lat="43.0369270000" lon="0.2530770000"><ele>554</ele><time>2026-03-23T11:55:38Z</time></trkpt>
<trkpt lat="43.0369420000" lon="0.2530520000"><ele>553</ele><time>2026-03-23T11:55:40Z</time></trkpt>
<trkpt lat="43.0369600000" lon="0.2530320000"><ele>553</ele><time>2026-03-23T11:55:42Z</time></trkpt>
<trkpt lat="43.0369770000" lon="0.2530070000"><ele>553</ele><time>2026-03-23T11:55:44Z</time></trkpt>
<trkpt lat="43.0369970000" lon="0.2529920000"><ele>553</ele><time>2026-03-23T11:55:46Z</time></trkpt>
<trkpt lat="43.0370120000" lon="0.2529720000"><ele>552</ele><time>2026-03-23T11:55:48Z</time></trkpt>
<trkpt lat="43.0370370000" lon="0.2529520000"><ele>552</ele><time>2026-03-23T11:55:51Z</time></trkpt>
<trkpt lat="43.0370520000" lon="0.2529320000"><ele>552</ele><time>2026-03-23T11:55:53Z</time></trkpt>
<trkpt lat="43.0370670000" lon="0.2529020000"><ele>551</ele><time>2026-03-23T11:55:55Z</time></trkpt>
<trkpt lat="43.0370820000" lon="0.2528750000"><ele>551</ele><time>2026-03-23T11:55:58Z</time></trkpt>
<trkpt lat="43.0370950000" lon="0.2528470000"><ele>551</ele><time>2026-03-23T11:56:00Z</time></trkpt>
<trkpt lat="43.0371220000" lon="0.2528570000"><ele>550</ele><time>2026-03-23T11:56:02Z</time></trkpt>
<trkpt lat="43.0371450000" lon="0.2528920000"><ele>550</ele><time>2026-03-23T11:56:04Z</time></trkpt>
<trkpt lat="43.0371600000" lon="0.2529220000"><ele>550</ele><time>2026-03-23T11:56:05Z</time></trkpt>
<trkpt lat="43.0371600000" lon="0.2529620000"><ele>549</ele><time>2026-03-23T11:56:07Z</time></trkpt>
<trkpt lat="43.0371570000" lon="0.2529970000"><ele>549</ele><time>2026-03-23T11:56:09Z</time></trkpt>
<trkpt lat="43.0371500000" lon="0.2530280000"><ele>549</ele><time>2026-03-23T11:56:11Z</time></trkpt>
<trkpt lat="43.0371350000" lon="0.2530620000"><ele>548</ele><time>2026-03-23T11:56:13Z</time></trkpt>
<trkpt lat="43.0371220000" lon="0.2530920000"><ele>548</ele><time>2026-03-23T11:56:15Z</time></trkpt>
<trkpt lat="43.0371120000" lon="0.2531230000"><ele>548</ele><time>2026-03-23T11:56:17Z</time></trkpt>
<trkpt lat="43.0371030000" lon="0.2531570000"><ele>548</ele><time>2026-03-23T11:56:19Z</time></trkpt>
<trkpt lat="43.0370900000" lon="0.2531850000"><ele>548</ele><time>2026-03-23T11:56:21Z</time></trkpt>
<trkpt lat="43.0370720000" lon="0.2532080000"><ele>548</ele><time>2026-03-23T11:56:23Z</time></trkpt>
<trkpt lat="43.0370570000" lon="0.2532370000"><ele>548</ele><time>2026-03-23T11:56:25Z</time></trkpt>
<trkpt lat="43.0370450000" lon="0.2532570000"><ele>547</ele><time>2026-03-23T11:56:27Z</time></trkpt>
<trkpt lat="43.0370320000" lon="0.2532800000"><ele>547</ele><time>2026-03-23T11:56:29Z</time></trkpt>
<trkpt lat="43.0370100000" lon="0.2533020000"><ele>547</ele><time>2026-03-23T11:56:31Z</time></trkpt>
<trkpt lat="43.0369950000" lon="0.2533300000"><ele>547</ele><time>2026-03-23T11:56:33Z</time></trkpt>
<trkpt lat="43.0369800000" lon="0.2533520000"><ele>547</ele><time>2026-03-23T11:56:35Z</time></trkpt>
<trkpt lat="43.0369670000" lon="0.2533800000"><ele>547</ele><time>2026-03-23T11:56:37Z</time></trkpt>
<trkpt lat="43.0369550000" lon="0.2534030000"><ele>547</ele><time>2026-03-23T11:56:39Z</time></trkpt>
<trkpt lat="43.0369370000" lon="0.2534300000"><ele>547</ele><time>2026-03-23T11:56:41Z</time></trkpt>
<trkpt lat="43.0369220000" lon="0.2534550000"><ele>546</ele><time>2026-03-23T11:56:43Z</time></trkpt>
<trkpt lat="43.0369050000" lon="0.2534820000"><ele>546</ele><time>2026-03-23T11:56:45Z</time></trkpt>
<trkpt lat="43.0368820000" lon="0.2535170000"><ele>546</ele><time>2026-03-23T11:56:47Z</time></trkpt>
<trkpt lat="43.0368650000" lon="0.2535380000"><ele>546</ele><time>2026-03-23T11:56:49Z</time></trkpt>
<trkpt lat="43.0368500000" lon="0.2535600000"><ele>546</ele><time>2026-03-23T11:56:51Z</time></trkpt>
<trkpt lat="43.0368400000" lon="0.2535850000"><ele>545</ele><time>2026-03-23T11:56:53Z</time></trkpt>
<trkpt lat="43.0368250000" lon="0.2536120000"><ele>545</ele><time>2026-03-23T11:56:55Z</time></trkpt>
<trkpt lat="43.0368070000" lon="0.2536450000"><ele>545</ele><time>2026-03-23T11:56:57Z</time></trkpt>
<trkpt lat="43.0367920000" lon="0.2536770000"><ele>544</ele><time>2026-03-23T11:56:59Z</time></trkpt>
<trkpt lat="43.0367820000" lon="0.2536970000"><ele>544</ele><time>2026-03-23T11:57:00Z</time></trkpt>
<trkpt lat="43.0367620000" lon="0.2537220000"><ele>544</ele><time>2026-03-23T11:57:02Z</time></trkpt>
<trkpt lat="43.0367550000" lon="0.2537450000"><ele>544</ele><time>2026-03-23T11:57:04Z</time></trkpt>
<trkpt lat="43.0367470000" lon="0.2537670000"><ele>544</ele><time>2026-03-23T11:57:06Z</time></trkpt>
<trkpt lat="43.0367270000" lon="0.2537870000"><ele>543</ele><time>2026-03-23T11:57:08Z</time></trkpt>
<trkpt lat="43.0367120000" lon="0.2538050000"><ele>543</ele><time>2026-03-23T11:57:10Z</time></trkpt>
<trkpt lat="43.0366970000" lon="0.2538250000"><ele>543</ele><time>2026-03-23T11:57:12Z</time></trkpt>
<trkpt lat="43.0366770000" lon="0.2538470000"><ele>543</ele><time>2026-03-23T11:57:14Z</time></trkpt>
<trkpt lat="43.0366570000" lon="0.2538670000"><ele>543</ele><time>2026-03-23T11:57:16Z</time></trkpt>
<trkpt lat="43.0366420000" lon="0.2538850000"><ele>542</ele><time>2026-03-23T11:57:18Z</time></trkpt>
<trkpt lat="43.0366270000" lon="0.2539030000"><ele>542</ele><time>2026-03-23T11:57:20Z</time></trkpt>
<trkpt lat="43.0366070000" lon="0.2539250000"><ele>542</ele><time>2026-03-23T11:57:22Z</time></trkpt>
<trkpt lat="43.0365950000" lon="0.2539420000"><ele>541</ele><time>2026-03-23T11:57:24Z</time></trkpt>
<trkpt lat="43.0365770000" lon="0.2539650000"><ele>541</ele><time>2026-03-23T11:57:26Z</time></trkpt>
<trkpt lat="43.0365550000" lon="0.2539870000"><ele>541</ele><time>2026-03-23T11:57:28Z</time></trkpt>
<trkpt lat="43.0365370000" lon="0.2540070000"><ele>541</ele><time>2026-03-23T11:57:30Z</time></trkpt>
<trkpt lat="43.0365200000" lon="0.2540220000"><ele>540</ele><time>2026-03-23T11:57:32Z</time></trkpt>
<trkpt lat="43.0365020000" lon="0.2540470000"><ele>540</ele><time>2026-03-23T11:57:34Z</time></trkpt>
<trkpt lat="43.0364850000" lon="0.2540670000"><ele>540</ele><time>2026-03-23T11:57:36Z</time></trkpt>
<trkpt lat="43.0364620000" lon="0.2540870000"><ele>540</ele><time>2026-03-23T11:57:38Z</time></trkpt>
<trkpt lat="43.0364420000" lon="0.2541020000"><ele>539</ele><time>2026-03-23T11:57:40Z</time></trkpt>
<trkpt lat="43.0364170000" lon="0.2541170000"><ele>539</ele><time>2026-03-23T11:57:42Z</time></trkpt>
<trkpt lat="43.0363950000" lon="0.2541300000"><ele>539</ele><time>2026-03-23T11:57:44Z</time></trkpt>
<trkpt lat="43.0363670000" lon="0.2541370000"><ele>539</ele><time>2026-03-23T11:57:46Z</time></trkpt>
<trkpt lat="43.0363420000" lon="0.2541470000"><ele>538</ele><time>2026-03-23T11:57:48Z</time></trkpt>
<trkpt lat="43.0363170000" lon="0.2541600000"><ele>538</ele><time>2026-03-23T11:57:50Z</time></trkpt>
<trkpt lat="43.0362970000" lon="0.2541720000"><ele>538</ele><time>2026-03-23T11:57:52Z</time></trkpt>
<trkpt lat="43.0362750000" lon="0.2541950000"><ele>538</ele><time>2026-03-23T11:57:54Z</time></trkpt>
<trkpt lat="43.0362520000" lon="0.2542150000"><ele>538</ele><time>2026-03-23T11:57:56Z</time></trkpt>
<trkpt lat="43.0362320000" lon="0.2542320000"><ele>538</ele><time>2026-03-23T11:57:58Z</time></trkpt>
<trkpt lat="43.0362120000" lon="0.2542470000"><ele>537</ele><time>2026-03-23T11:58:00Z</time></trkpt>
<trkpt lat="43.0361920000" lon="0.2542620000"><ele>537</ele><time>2026-03-23T11:58:02Z</time></trkpt>
<trkpt lat="43.0361720000" lon="0.2542770000"><ele>537</ele><time>2026-03-23T11:58:04Z</time></trkpt>
<trkpt lat="43.0361520000" lon="0.2542870000"><ele>537</ele><time>2026-03-23T11:58:06Z</time></trkpt>
<trkpt lat="43.0361350000" lon="0.2542870000"><ele>537</ele><time>2026-03-23T11:58:08Z</time></trkpt>
<trkpt lat="43.0361070000" lon="0.2542950000"><ele>536</ele><time>2026-03-23T11:58:10Z</time></trkpt>
<trkpt lat="43.0360850000" lon="0.2543050000"><ele>536</ele><time>2026-03-23T11:58:12Z</time></trkpt>
<trkpt lat="43.0360650000" lon="0.2543170000"><ele>536</ele><time>2026-03-23T11:58:14Z</time></trkpt>
<trkpt lat="43.0360470000" lon="0.2543350000"><ele>536</ele><time>2026-03-23T11:58:16Z</time></trkpt>
<trkpt lat="43.0360250000" lon="0.2543520000"><ele>536</ele><time>2026-03-23T11:58:18Z</time></trkpt>
<trkpt lat="43.0360020000" lon="0.2543570000"><ele>535</ele><time>2026-03-23T11:58:20Z</time></trkpt>
<trkpt lat="43.0359770000" lon="0.2543670000"><ele>535</ele><time>2026-03-23T11:58:22Z</time></trkpt>
<trkpt lat="43.0359600000" lon="0.2543820000"><ele>535</ele><time>2026-03-23T11:58:24Z</time></trkpt>
<trkpt lat="43.0359470000" lon="0.2544070000"><ele>535</ele><time>2026-03-23T11:58:26Z</time></trkpt>
<trkpt lat="43.0359320000" lon="0.2544300000"><ele>535</ele><time>2026-03-23T11:58:28Z</time></trkpt>
<trkpt lat="43.0359220000" lon="0.2544570000"><ele>534</ele><time>2026-03-23T11:58:30Z</time></trkpt>
<trkpt lat="43.0359220000" lon="0.2544870000"><ele>534</ele><time>2026-03-23T11:58:33Z</time></trkpt>
<trkpt lat="43.0359400000" lon="0.2544970000"><ele>534</ele><time>2026-03-23T11:58:35Z</time></trkpt>
<trkpt lat="43.0359700000" lon="0.2545000000"><ele>533</ele><time>2026-03-23T11:58:38Z</time></trkpt>
<trkpt lat="43.0359950000" lon="0.2544820000"><ele>533</ele><time>2026-03-23T11:58:40Z</time></trkpt>
<trkpt lat="43.0360170000" lon="0.2544620000"><ele>533</ele><time>2026-03-23T11:58:42Z</time></trkpt>
<trkpt lat="43.0360320000" lon="0.2544370000"><ele>532</ele><time>2026-03-23T11:58:44Z</time></trkpt>
<trkpt lat="43.0360500000" lon="0.2544070000"><ele>532</ele><time>2026-03-23T11:58:46Z</time></trkpt>
<trkpt lat="43.0360620000" lon="0.2543870000"><ele>531</ele><time>2026-03-23T11:58:48Z</time></trkpt>
<trkpt lat="43.0360800000" lon="0.2543680000"><ele>531</ele><time>2026-03-23T11:58:50Z</time></trkpt>
<trkpt lat="43.0360970000" lon="0.2543470000"><ele>530</ele><time>2026-03-23T11:58:52Z</time></trkpt>
<trkpt lat="43.0361180000" lon="0.2543400000"><ele>530</ele><time>2026-03-23T11:58:54Z</time></trkpt>
<trkpt lat="43.0361400000" lon="0.2543370000"><ele>530</ele><time>2026-03-23T11:58:56Z</time></trkpt>
<trkpt lat="43.0361650000" lon="0.2543270000"><ele>529</ele><time>2026-03-23T11:58:59Z</time></trkpt>
<trkpt lat="43.0361850000" lon="0.2543350000"><ele>529</ele><time>2026-03-23T11:59:01Z</time></trkpt>
<trkpt lat="43.0362100000" lon="0.2543400000"><ele>528</ele><time>2026-03-23T11:59:03Z</time></trkpt>
<trkpt lat="43.0362370000" lon="0.2543420000"><ele>528</ele><time>2026-03-23T11:59:05Z</time></trkpt>
<trkpt lat="43.0362670000" lon="0.2543420000"><ele>528</ele><time>2026-03-23T11:59:07Z</time></trkpt>
<trkpt lat="43.0362900000" lon="0.2543450000"><ele>527</ele><time>2026-03-23T11:59:09Z</time></trkpt>
<trkpt lat="43.0363170000" lon="0.2543520000"><ele>527</ele><time>2026-03-23T11:59:11Z</time></trkpt>
<trkpt lat="43.0363370000" lon="0.2543520000"><ele>527</ele><time>2026-03-23T11:59:13Z</time></trkpt>
<trkpt lat="43.0363670000" lon="0.2543470000"><ele>526</ele><time>2026-03-23T11:59:15Z</time></trkpt>
<trkpt lat="43.0363920000" lon="0.2543500000"><ele>526</ele><time>2026-03-23T11:59:17Z</time></trkpt>
<trkpt lat="43.0364170000" lon="0.2543570000"><ele>526</ele><time>2026-03-23T11:59:19Z</time></trkpt>
<trkpt lat="43.0364370000" lon="0.2543620000"><ele>525</ele><time>2026-03-23T11:59:21Z</time></trkpt>
<trkpt lat="43.0364620000" lon="0.2543750000"><ele>525</ele><time>2026-03-23T11:59:23Z</time></trkpt>
<trkpt lat="43.0364820000" lon="0.2543820000"><ele>525</ele><time>2026-03-23T11:59:25Z</time></trkpt>
<trkpt lat="43.0365020000" lon="0.2543970000"><ele>525</ele><time>2026-03-23T11:59:27Z</time></trkpt>
<trkpt lat="43.0365270000" lon="0.2544120000"><ele>524</ele><time>2026-03-23T11:59:29Z</time></trkpt>
<trkpt lat="43.0365520000" lon="0.2544220000"><ele>524</ele><time>2026-03-23T11:59:31Z</time></trkpt>
<trkpt lat="43.0365750000" lon="0.2544320000"><ele>524</ele><time>2026-03-23T11:59:33Z</time></trkpt>
<trkpt lat="43.0365970000" lon="0.2544370000"><ele>524</ele><time>2026-03-23T11:59:35Z</time></trkpt>
<trkpt lat="43.0366170000" lon="0.2544370000"><ele>524</ele><time>2026-03-23T11:59:37Z</time></trkpt>
<trkpt lat="43.0366380000" lon="0.2544320000"><ele>524</ele><time>2026-03-23T11:59:39Z</time></trkpt>
<trkpt lat="43.0366620000" lon="0.2544320000"><ele>524</ele><time>2026-03-23T11:59:41Z</time></trkpt>
<trkpt lat="43.0366820000" lon="0.2544270000"><ele>524</ele><time>2026-03-23T11:59:43Z</time></trkpt>
<trkpt lat="43.0367020000" lon="0.2544180000"><ele>523</ele><time>2026-03-23T11:59:45Z</time></trkpt>
<trkpt lat="43.0367220000" lon="0.2544120000"><ele>523</ele><time>2026-03-23T11:59:47Z</time></trkpt>
<trkpt lat="43.0367420000" lon="0.2544020000"><ele>523</ele><time>2026-03-23T11:59:49Z</time></trkpt>
<trkpt lat="43.0367620000" lon="0.2543900000"><ele>523</ele><time>2026-03-23T11:59:51Z</time></trkpt>
<trkpt lat="43.0367850000" lon="0.2543770000"><ele>523</ele><time>2026-03-23T11:59:53Z</time></trkpt>
<trkpt lat="43.0368070000" lon="0.2543620000"><ele>523</ele><time>2026-03-23T11:59:55Z</time></trkpt>
<trkpt lat="43.0368270000" lon="0.2543500000"><ele>522</ele><time>2026-03-23T11:59:57Z</time></trkpt>
<trkpt lat="43.0368420000" lon="0.2543320000"><ele>522</ele><time>2026-03-23T11:59:59Z</time></trkpt>
<trkpt lat="43.0368650000" lon="0.2543250000"><ele>522</ele><time>2026-03-23T12:00:01Z</time></trkpt>
<trkpt lat="43.0368900000" lon="0.2543220000"><ele>522</ele><time>2026-03-23T12:00:03Z</time></trkpt>
<trkpt lat="43.0369120000" lon="0.2543120000"><ele>522</ele><time>2026-03-23T12:00:05Z</time></trkpt>
<trkpt lat="43.0369270000" lon="0.2542950000"><ele>521</ele><time>2026-03-23T12:00:07Z</time></trkpt>
<trkpt lat="43.0369470000" lon="0.2542820000"><ele>521</ele><time>2026-03-23T12:00:09Z</time></trkpt>
<trkpt lat="43.0369700000" lon="0.2542800000"><ele>521</ele><time>2026-03-23T12:00:11Z</time></trkpt>
<trkpt lat="43.0369920000" lon="0.2542620000"><ele>521</ele><time>2026-03-23T12:00:14Z</time></trkpt>
<trkpt lat="43.0370150000" lon="0.2542450000"><ele>520</ele><time>2026-03-23T12:00:16Z</time></trkpt>
<trkpt lat="43.0370420000" lon="0.2542270000"><ele>520</ele><time>2026-03-23T12:00:18Z</time></trkpt>
<trkpt lat="43.0370570000" lon="0.2542170000"><ele>520</ele><time>2026-03-23T12:00:19Z</time></trkpt>
<trkpt lat="43.0370870000" lon="0.2542070000"><ele>520</ele><time>2026-03-23T12:00:21Z</time></trkpt>
<trkpt lat="43.0371150000" lon="0.2542120000"><ele>520</ele><time>2026-03-23T12:00:23Z</time></trkpt>
<trkpt lat="43.0371420000" lon="0.2542100000"><ele>520</ele><time>2026-03-23T12:00:25Z</time></trkpt>
<trkpt lat="43.0371670000" lon="0.2542070000"><ele>519</ele><time>2026-03-23T12:00:27Z</time></trkpt>
<trkpt lat="43.0371970000" lon="0.2542120000"><ele>519</ele><time>2026-03-23T12:00:29Z</time></trkpt>
<trkpt lat="43.0372220000" lon="0.2542220000"><ele>519</ele><time>2026-03-23T12:00:31Z</time></trkpt>
<trkpt lat="43.0372470000" lon="0.2542220000"><ele>519</ele><time>2026-03-23T12:00:33Z</time></trkpt>
<trkpt lat="43.0372670000" lon="0.2542220000"><ele>519</ele><time>2026-03-23T12:00:35Z</time></trkpt>
<trkpt lat="43.0372870000" lon="0.2542320000"><ele>519</ele><time>2026-03-23T12:00:37Z</time></trkpt>
<trkpt lat="43.0373100000" lon="0.2542550000"><ele>518</ele><time>2026-03-23T12:00:39Z</time></trkpt>
<trkpt lat="43.0373270000" lon="0.2542820000"><ele>518</ele><time>2026-03-23T12:00:41Z</time></trkpt>
<trkpt lat="43.0373470000" lon="0.2543000000"><ele>518</ele><time>2026-03-23T12:00:43Z</time></trkpt>
<trkpt lat="43.0373620000" lon="0.2543180000"><ele>517</ele><time>2026-03-23T12:00:45Z</time></trkpt>
<trkpt lat="43.0373750000" lon="0.2543420000"><ele>517</ele><time>2026-03-23T12:00:47Z</time></trkpt>
<trkpt lat="43.0373900000" lon="0.2543670000"><ele>517</ele><time>2026-03-23T12:00:49Z</time></trkpt>
<trkpt lat="43.0374070000" lon="0.2543920000"><ele>516</ele><time>2026-03-23T12:00:51Z</time></trkpt>
<trkpt lat="43.0374170000" lon="0.2544150000"><ele>515</ele><time>2026-03-23T12:01:07Z</time></trkpt>
<trkpt lat="43.0374270000" lon="0.2544370000"><ele>514</ele><time>2026-03-23T12:01:11Z</time></trkpt>
<trkpt lat="43.0374420000" lon="0.2544770000"><ele>514</ele><time>2026-03-23T12:01:13Z</time></trkpt>
<trkpt lat="43.0374600000" lon="0.2545200000"><ele>514</ele><time>2026-03-23T12:01:15Z</time></trkpt>
<trkpt lat="43.0374820000" lon="0.2545520000"><ele>513</ele><time>2026-03-23T12:01:17Z</time></trkpt>
<trkpt lat="43.0374970000" lon="0.2545750000"><ele>513</ele><time>2026-03-23T12:01:19Z</time></trkpt>
<trkpt lat="43.0375170000" lon="0.2545970000"><ele>513</ele><time>2026-03-23T12:01:21Z</time></trkpt>
<trkpt lat="43.0375370000" lon="0.2546220000"><ele>513</ele><time>2026-03-23T12:01:23Z</time></trkpt>
<trkpt lat="43.0375650000" lon="0.2546470000"><ele>512</ele><time>2026-03-23T12:01:25Z</time></trkpt>
<trkpt lat="43.0375820000" lon="0.2546700000"><ele>512</ele><time>2026-03-23T12:01:27Z</time></trkpt>
<trkpt lat="43.0375950000" lon="0.2546950000"><ele>512</ele><time>2026-03-23T12:01:29Z</time></trkpt>
<trkpt lat="43.0376120000" lon="0.2547200000"><ele>511</ele><time>2026-03-23T12:01:31Z</time></trkpt>
<trkpt lat="43.0376400000" lon="0.2547420000"><ele>511</ele><time>2026-03-23T12:01:33Z</time></trkpt>
<trkpt lat="43.0376570000" lon="0.2547570000"><ele>511</ele><time>2026-03-23T12:01:34Z</time></trkpt>
<trkpt lat="43.0376720000" lon="0.2547820000"><ele>511</ele><time>2026-03-23T12:01:36Z</time></trkpt>
<trkpt lat="43.0376870000" lon="0.2548070000"><ele>511</ele><time>2026-03-23T12:01:38Z</time></trkpt>
<trkpt lat="43.0377020000" lon="0.2548300000"><ele>510</ele><time>2026-03-23T12:01:40Z</time></trkpt>
<trkpt lat="43.0377150000" lon="0.2548520000"><ele>510</ele><time>2026-03-23T12:01:42Z</time></trkpt>
<trkpt lat="43.0377270000" lon="0.2548770000"><ele>510</ele><time>2026-03-23T12:01:44Z</time></trkpt>
<trkpt lat="43.0377370000" lon="0.2549020000"><ele>510</ele><time>2026-03-23T12:01:46Z</time></trkpt>
<trkpt lat="43.0377470000" lon="0.2549270000"><ele>510</ele><time>2026-03-23T12:01:48Z</time></trkpt>
<trkpt lat="43.0377570000" lon="0.2549550000"><ele>509</ele><time>2026-03-23T12:01:50Z</time></trkpt>
<trkpt lat="43.0377700000" lon="0.2549820000"><ele>509</ele><time>2026-03-23T12:01:52Z</time></trkpt>
<trkpt lat="43.0377770000" lon="0.2550070000"><ele>509</ele><time>2026-03-23T12:01:54Z</time></trkpt>
<trkpt lat="43.0377700000" lon="0.2550370000"><ele>509</ele><time>2026-03-23T12:02:14Z</time></trkpt>
<trkpt lat="43.0377770000" lon="0.2550720000"><ele>509</ele><time>2026-03-23T12:02:16Z</time></trkpt>
<trkpt lat="43.0377900000" lon="0.2551100000"><ele>509</ele><time>2026-03-23T12:02:18Z</time></trkpt>
<trkpt lat="43.0377970000" lon="0.2551470000"><ele>509</ele><time>2026-03-23T12:02:20Z</time></trkpt>
<trkpt lat="43.0378070000" lon="0.2551770000"><ele>509</ele><time>2026-03-23T12:02:22Z</time></trkpt>
<trkpt lat="43.0378120000" lon="0.2552120000"><ele>508</ele><time>2026-03-23T12:02:24Z</time></trkpt>
<trkpt lat="43.0378170000" lon="0.2552450000"><ele>508</ele><time>2026-03-23T12:02:26Z</time></trkpt>
<trkpt lat="43.0378200000" lon="0.2552800000"><ele>508</ele><time>2026-03-23T12:02:28Z</time></trkpt>
<trkpt lat="43.0378270000" lon="0.2553150000"><ele>508</ele><time>2026-03-23T12:02:30Z</time></trkpt>
<trkpt lat="43.0378350000" lon="0.2553500000"><ele>508</ele><time>2026-03-23T12:02:32Z</time></trkpt>
<trkpt lat="43.0378370000" lon="0.2553820000"><ele>508</ele><time>2026-03-23T12:02:34Z</time></trkpt>
<trkpt lat="43.0378400000" lon="0.2554120000"><ele>508</ele><time>2026-03-23T12:02:36Z</time></trkpt>
<trkpt lat="43.0378420000" lon="0.2554450000"><ele>508</ele><time>2026-03-23T12:02:38Z</time></trkpt>
<trkpt lat="43.0378470000" lon="0.2554750000"><ele>508</ele><time>2026-03-23T12:02:40Z</time></trkpt>
<trkpt lat="43.0378520000" lon="0.2555070000"><ele>508</ele><time>2026-03-23T12:02:42Z</time></trkpt>
<trkpt lat="43.0378620000" lon="0.2555370000"><ele>508</ele><time>2026-03-23T12:02:44Z</time></trkpt>
<trkpt lat="43.0378820000" lon="0.2555670000"><ele>507</ele><time>2026-03-23T12:02:46Z</time></trkpt>
<trkpt lat="43.0379020000" lon="0.2556000000"><ele>507</ele><time>2026-03-23T12:02:48Z</time></trkpt>
<trkpt lat="43.0379150000" lon="0.2556270000"><ele>507</ele><time>2026-03-23T12:02:50Z</time></trkpt>
<trkpt lat="43.0379250000" lon="0.2556570000"><ele>507</ele><time>2026-03-23T12:02:52Z</time></trkpt>
<trkpt lat="43.0379370000" lon="0.2556870000"><ele>507</ele><time>2026-03-23T12:02:54Z</time></trkpt>
<trkpt lat="43.0379620000" lon="0.2557170000"><ele>507</ele><time>2026-03-23T12:02:56Z</time></trkpt>
<trkpt lat="43.0379920000" lon="0.2557420000"><ele>507</ele><time>2026-03-23T12:02:58Z</time></trkpt>
<trkpt lat="43.0380170000" lon="0.2557620000"><ele>507</ele><time>2026-03-23T12:03:00Z</time></trkpt>
<trkpt lat="43.0380420000" lon="0.2557770000"><ele>507</ele><time>2026-03-23T12:03:02Z</time></trkpt>
<trkpt lat="43.0380650000" lon="0.2557850000"><ele>507</ele><time>2026-03-23T12:03:04Z</time></trkpt>
<trkpt lat="43.0380870000" lon="0.2557900000"><ele>506</ele><time>2026-03-23T12:03:06Z</time></trkpt>
<trkpt lat="43.0381070000" lon="0.2557950000"><ele>506</ele><time>2026-03-23T12:03:08Z</time></trkpt>
<trkpt lat="43.0381270000" lon="0.2557970000"><ele>506</ele><time>2026-03-23T12:03:10Z</time></trkpt>
<trkpt lat="43.0381470000" lon="0.2557950000"><ele>506</ele><time>2026-03-23T12:03:12Z</time></trkpt>
<trkpt lat="43.0381670000" lon="0.2557950000"><ele>506</ele><time>2026-03-23T12:03:14Z</time></trkpt>
<trkpt lat="43.0381920000" lon="0.2557920000"><ele>506</ele><time>2026-03-23T12:03:16Z</time></trkpt>
<trkpt lat="43.0382120000" lon="0.2557820000"><ele>506</ele><time>2026-03-23T12:03:18Z</time></trkpt>
<trkpt lat="43.0382400000" lon="0.2557700000"><ele>505</ele><time>2026-03-23T12:03:21Z</time></trkpt>
<trkpt lat="43.0382620000" lon="0.2557620000"><ele>505</ele><time>2026-03-23T12:03:23Z</time></trkpt>
<trkpt lat="43.0382770000" lon="0.2557420000"><ele>506</ele><time>2026-03-23T12:03:44Z</time></trkpt>
<trkpt lat="43.0383020000" lon="0.2557320000"><ele>505</ele><time>2026-03-23T12:03:46Z</time></trkpt>
<trkpt lat="43.0383320000" lon="0.2557220000"><ele>505</ele><time>2026-03-23T12:03:48Z</time></trkpt>
<trkpt lat="43.0383620000" lon="0.2557050000"><ele>504</ele><time>2026-03-23T12:03:50Z</time></trkpt>
<trkpt lat="43.0383870000" lon="0.2556870000"><ele>504</ele><time>2026-03-23T12:03:52Z</time></trkpt>
<trkpt lat="43.0384120000" lon="0.2556800000"><ele>504</ele><time>2026-03-23T12:03:54Z</time></trkpt>
<trkpt lat="43.0384320000" lon="0.2556670000"><ele>504</ele><time>2026-03-23T12:03:56Z</time></trkpt>
<trkpt lat="43.0384550000" lon="0.2556600000"><ele>504</ele><time>2026-03-23T12:03:58Z</time></trkpt>
<trkpt lat="43.0384750000" lon="0.2556500000"><ele>504</ele><time>2026-03-23T12:04:00Z</time></trkpt>
<trkpt lat="43.0384920000" lon="0.2556450000"><ele>504</ele><time>2026-03-23T12:04:02Z</time></trkpt>
<trkpt lat="43.0385120000" lon="0.2556350000"><ele>504</ele><time>2026-03-23T12:04:04Z</time></trkpt>
<trkpt lat="43.0385320000" lon="0.2556270000"><ele>504</ele><time>2026-03-23T12:04:06Z</time></trkpt>
<trkpt lat="43.0385570000" lon="0.2556100000"><ele>504</ele><time>2026-03-23T12:04:08Z</time></trkpt>
<trkpt lat="43.0385870000" lon="0.2555870000"><ele>504</ele><time>2026-03-23T12:04:10Z</time></trkpt>
<trkpt lat="43.0386120000" lon="0.2555700000"><ele>503</ele><time>2026-03-23T12:04:12Z</time></trkpt>
<trkpt lat="43.0386350000" lon="0.2555530000"><ele>503</ele><time>2026-03-23T12:04:14Z</time></trkpt>
<trkpt lat="43.0386600000" lon="0.2555470000"><ele>503</ele><time>2026-03-23T12:04:16Z</time></trkpt>
<trkpt lat="43.0386820000" lon="0.2555400000"><ele>503</ele><time>2026-03-23T12:04:18Z</time></trkpt>
<trkpt lat="43.0387070000" lon="0.2555320000"><ele>503</ele><time>2026-03-23T12:04:20Z</time></trkpt>
<trkpt lat="43.0387270000" lon="0.2555280000"><ele>503</ele><time>2026-03-23T12:04:22Z</time></trkpt>
<trkpt lat="43.0387500000" lon="0.2555220000"><ele>502</ele><time>2026-03-23T12:04:24Z</time></trkpt>
<trkpt lat="43.0387720000" lon="0.2555170000"><ele>502</ele><time>2026-03-23T12:04:26Z</time></trkpt>
<trkpt lat="43.0387970000" lon="0.2555120000"><ele>502</ele><time>2026-03-23T12:04:28Z</time></trkpt>
<trkpt lat="43.0388170000" lon="0.2555070000"><ele>502</ele><time>2026-03-23T12:04:30Z</time></trkpt>
<trkpt lat="43.0388400000" lon="0.2555020000"><ele>502</ele><time>2026-03-23T12:04:32Z</time></trkpt>
<trkpt lat="43.0388620000" lon="0.2555000000"><ele>501</ele><time>2026-03-23T12:04:34Z</time></trkpt>
<trkpt lat="43.0388820000" lon="0.2554950000"><ele>501</ele><time>2026-03-23T12:04:36Z</time></trkpt>
<trkpt lat="43.0389070000" lon="0.2554920000"><ele>501</ele><time>2026-03-23T12:04:38Z</time></trkpt>
<trkpt lat="43.0389300000" lon="0.2554920000"><ele>501</ele><time>2026-03-23T12:04:40Z</time></trkpt>
<trkpt lat="43.0389570000" lon="0.2554950000"><ele>500</ele><time>2026-03-23T12:04:42Z</time></trkpt>
<trkpt lat="43.0389820000" lon="0.2554950000"><ele>500</ele><time>2026-03-23T12:04:44Z</time></trkpt>
<trkpt lat="43.0390070000" lon="0.2554920000"><ele>500</ele><time>2026-03-23T12:04:46Z</time></trkpt>
<trkpt lat="43.0390320000" lon="0.2554950000"><ele>500</ele><time>2026-03-23T12:04:48Z</time></trkpt>
<trkpt lat="43.0390570000" lon="0.2554970000"><ele>500</ele><time>2026-03-23T12:04:50Z</time></trkpt>
<trkpt lat="43.0390800000" lon="0.2554950000"><ele>500</ele><time>2026-03-23T12:04:52Z</time></trkpt>
<trkpt lat="43.0391020000" lon="0.2554920000"><ele>499</ele><time>2026-03-23T12:04:54Z</time></trkpt>
<trkpt lat="43.0391270000" lon="0.2554950000"><ele>499</ele><time>2026-03-23T12:04:56Z</time></trkpt>
<trkpt lat="43.0391470000" lon="0.2554970000"><ele>499</ele><time>2026-03-23T12:04:58Z</time></trkpt>
<trkpt lat="43.0391670000" lon="0.2555000000"><ele>499</ele><time>2026-03-23T12:05:00Z</time></trkpt>
<trkpt lat="43.0391870000" lon="0.2555050000"><ele>499</ele><time>2026-03-23T12:05:02Z</time></trkpt>
<trkpt lat="43.0392120000" lon="0.2555070000"><ele>499</ele><time>2026-03-23T12:05:04Z</time></trkpt>
<trkpt lat="43.0392320000" lon="0.2555070000"><ele>498</ele><time>2026-03-23T12:05:06Z</time></trkpt>
<trkpt lat="43.0392550000" lon="0.2555120000"><ele>498</ele><time>2026-03-23T12:05:08Z</time></trkpt>
<trkpt lat="43.0392750000" lon="0.2555100000"><ele>498</ele><time>2026-03-23T12:05:10Z</time></trkpt>
<trkpt lat="43.0392980000" lon="0.2555070000"><ele>498</ele><time>2026-03-23T12:05:13Z</time></trkpt>
<trkpt lat="43.0393170000" lon="0.2555050000"><ele>497</ele><time>2026-03-23T12:05:15Z</time></trkpt>
<trkpt lat="43.0393400000" lon="0.2555070000"><ele>497</ele><time>2026-03-23T12:05:17Z</time></trkpt>
<trkpt lat="43.0393650000" lon="0.2555050000"><ele>497</ele><time>2026-03-23T12:05:19Z</time></trkpt>
<trkpt lat="43.0393900000" lon="0.2554970000"><ele>496</ele><time>2026-03-23T12:05:21Z</time></trkpt>
<trkpt lat="43.0394120000" lon="0.2554820000"><ele>496</ele><time>2026-03-23T12:05:23Z</time></trkpt>
<trkpt lat="43.0394350000" lon="0.2554720000"><ele>495</ele><time>2026-03-23T12:05:25Z</time></trkpt>
<trkpt lat="43.0394530000" lon="0.2554670000"><ele>495</ele><time>2026-03-23T12:05:27Z</time></trkpt>
<trkpt lat="43.0394720000" lon="0.2554570000"><ele>495</ele><time>2026-03-23T12:05:29Z</time></trkpt>
<trkpt lat="43.0394920000" lon="0.2554470000"><ele>494</ele><time>2026-03-23T12:05:31Z</time></trkpt>
<trkpt lat="43.0395120000" lon="0.2554370000"><ele>494</ele><time>2026-03-23T12:05:33Z</time></trkpt>
<trkpt lat="43.0395320000" lon="0.2554270000"><ele>494</ele><time>2026-03-23T12:05:35Z</time></trkpt>
<trkpt lat="43.0395520000" lon="0.2554150000"><ele>494</ele><time>2026-03-23T12:05:37Z</time></trkpt>
<trkpt lat="43.0395750000" lon="0.2554000000"><ele>493</ele><time>2026-03-23T12:05:39Z</time></trkpt>
<trkpt lat="43.0395920000" lon="0.2553830000"><ele>493</ele><time>2026-03-23T12:05:41Z</time></trkpt>
<trkpt lat="43.0396150000" lon="0.2553720000"><ele>493</ele><time>2026-03-23T12:05:43Z</time></trkpt>
<trkpt lat="43.0396350000" lon="0.2553600000"><ele>492</ele><time>2026-03-23T12:05:45Z</time></trkpt>
<trkpt lat="43.0396550000" lon="0.2553470000"><ele>492</ele><time>2026-03-23T12:05:47Z</time></trkpt>
<trkpt lat="43.0396750000" lon="0.2553330000"><ele>492</ele><time>2026-03-23T12:05:49Z</time></trkpt>
<trkpt lat="43.0396970000" lon="0.2553270000"><ele>491</ele><time>2026-03-23T12:05:51Z</time></trkpt>
<trkpt lat="43.0397120000" lon="0.2553150000"><ele>491</ele><time>2026-03-23T12:05:53Z</time></trkpt>
<trkpt lat="43.0397320000" lon="0.2553070000"><ele>491</ele><time>2026-03-23T12:05:55Z</time></trkpt>
<trkpt lat="43.0397520000" lon="0.2553070000"><ele>490</ele><time>2026-03-23T12:05:57Z</time></trkpt>
<trkpt lat="43.0397720000" lon="0.2552970000"><ele>490</ele><time>2026-03-23T12:05:59Z</time></trkpt>
<trkpt lat="43.0397970000" lon="0.2552820000"><ele>490</ele><time>2026-03-23T12:06:02Z</time></trkpt>
<trkpt lat="43.0398170000" lon="0.2552720000"><ele>489</ele><time>2026-03-23T12:06:04Z</time></trkpt>
<trkpt lat="43.0398320000" lon="0.2552620000"><ele>489</ele><time>2026-03-23T12:06:06Z</time></trkpt>
<trkpt lat="43.0398500000" lon="0.2552480000"><ele>489</ele><time>2026-03-23T12:06:08Z</time></trkpt>
<trkpt lat="43.0398670000" lon="0.2552370000"><ele>488</ele><time>2026-03-23T12:06:10Z</time></trkpt>
<trkpt lat="43.0398870000" lon="0.2552250000"><ele>488</ele><time>2026-03-23T12:06:12Z</time></trkpt>
<trkpt lat="43.0399020000" lon="0.2552150000"><ele>488</ele><time>2026-03-23T12:06:14Z</time></trkpt>
<trkpt lat="43.0399220000" lon="0.2551980000"><ele>487</ele><time>2026-03-23T12:06:16Z</time></trkpt>
<trkpt lat="43.0399370000" lon="0.2551870000"><ele>487</ele><time>2026-03-23T12:06:18Z</time></trkpt>
<trkpt lat="43.0399570000" lon="0.2551720000"><ele>487</ele><time>2026-03-23T12:06:20Z</time></trkpt>
<trkpt lat="43.0399730000" lon="0.2551580000"><ele>486</ele><time>2026-03-23T12:06:22Z</time></trkpt>
<trkpt lat="43.0399950000" lon="0.2551520000"><ele>486</ele><time>2026-03-23T12:06:24Z</time></trkpt>
<trkpt lat="43.0400120000" lon="0.2551470000"><ele>485</ele><time>2026-03-23T12:06:26Z</time></trkpt>
<trkpt lat="43.0400400000" lon="0.2551320000"><ele>485</ele><time>2026-03-23T12:06:29Z</time></trkpt>
<trkpt lat="43.0400580000" lon="0.2551200000"><ele>484</ele><time>2026-03-23T12:06:31Z</time></trkpt>
<trkpt lat="43.0400820000" lon="0.2551050000"><ele>484</ele><time>2026-03-23T12:06:33Z</time></trkpt>
<trkpt lat="43.0401020000" lon="0.2550850000"><ele>484</ele><time>2026-03-23T12:06:35Z</time></trkpt>
<trkpt lat="43.0401220000" lon="0.2550670000"><ele>484</ele><time>2026-03-23T12:06:37Z</time></trkpt>
<trkpt lat="43.0401420000" lon="0.2550620000"><ele>483</ele><time>2026-03-23T12:06:39Z</time></trkpt>
<trkpt lat="43.0401700000" lon="0.2550620000"><ele>482</ele><time>2026-03-23T12:06:50Z</time></trkpt>
<trkpt lat="43.0401900000" lon="0.2550570000"><ele>482</ele><time>2026-03-23T12:06:52Z</time></trkpt>
<trkpt lat="43.0402050000" lon="0.2550770000"><ele>482</ele><time>2026-03-23T12:06:54Z</time></trkpt>
<trkpt lat="43.0402070000" lon="0.2551120000"><ele>481</ele><time>2026-03-23T12:06:59Z</time></trkpt>
<trkpt lat="43.0402150000" lon="0.2551370000"><ele>481</ele><time>2026-03-23T12:07:03Z</time></trkpt>
<trkpt lat="43.0402320000" lon="0.2551380000"><ele>481</ele><time>2026-03-23T12:08:05Z</time></trkpt>
<trkpt lat="43.0402420000" lon="0.2551130000"><ele>481</ele><time>2026-03-23T12:08:54Z</time></trkpt>
<trkpt lat="43.0402550000" lon="0.2550900000"><ele>481</ele><time>2026-03-23T12:08:56Z</time></trkpt>
<trkpt lat="43.0402720000" lon="0.2550770000"><ele>481</ele><time>2026-03-23T12:08:58Z</time></trkpt>
<trkpt lat="43.0402920000" lon="0.2550720000"><ele>481</ele><time>2026-03-23T12:09:00Z</time></trkpt>
<trkpt lat="43.0403020000" lon="0.2551020000"><ele>480</ele><time>2026-03-23T12:10:46Z</time></trkpt>
<trkpt lat="43.0403250000" lon="0.2551100000"><ele>480</ele><time>2026-03-23T12:10:50Z</time></trkpt>
<trkpt lat="43.0403470000" lon="0.2550950000"><ele>480</ele><time>2026-03-23T12:10:52Z</time></trkpt>
<trkpt lat="43.0403520000" lon="0.2550670000"><ele>480</ele><time>2026-03-23T12:10:54Z</time></trkpt>
<trkpt lat="43.0403620000" lon="0.2550470000"><ele>480</ele><time>2026-03-23T12:10:56Z</time></trkpt>
<trkpt lat="43.0403770000" lon="0.2550220000"><ele>480</ele><time>2026-03-23T12:10:59Z</time></trkpt>
<trkpt lat="43.0403920000" lon="0.2550070000"><ele>480</ele><time>2026-03-23T12:11:06Z</time></trkpt>
<trkpt lat="43.0403970000" lon="0.2549820000"><ele>480</ele><time>2026-03-23T12:11:33Z</time></trkpt>
<trkpt lat="43.0403870000" lon="0.2549620000"><ele>480</ele><time>2026-03-23T12:11:36Z</time></trkpt>
<trkpt lat="43.0403700000" lon="0.2549720000"><ele>479</ele><time>2026-03-23T12:12:05Z</time></trkpt>
<trkpt lat="43.0403530000" lon="0.2549870000"><ele>479</ele><time>2026-03-23T12:12:09Z</time></trkpt>
<trkpt lat="43.0403750000" lon="0.2549820000"><ele>479</ele><time>2026-03-23T12:12:22Z</time></trkpt>
<trkpt lat="43.0403970000" lon="0.2549770000"><ele>479</ele><time>2026-03-23T12:12:24Z</time></trkpt>
<trkpt lat="43.0404250000" lon="0.2549750000"><ele>479</ele><time>2026-03-23T12:12:26Z</time></trkpt>
<trkpt lat="43.0404500000" lon="0.2549780000"><ele>479</ele><time>2026-03-23T12:12:28Z</time></trkpt>
<trkpt lat="43.0404720000" lon="0.2549870000"><ele>479</ele><time>2026-03-23T12:12:30Z</time></trkpt>
<trkpt lat="43.0404920000" lon="0.2549970000"><ele>479</ele><time>2026-03-23T12:12:32Z</time></trkpt>
<trkpt lat="43.0405150000" lon="0.2550100000"><ele>479</ele><time>2026-03-23T12:12:34Z</time></trkpt>
<trkpt lat="43.0405320000" lon="0.2550270000"><ele>479</ele><time>2026-03-23T12:12:36Z</time></trkpt>
<trkpt lat="43.0405520000" lon="0.2550420000"><ele>479</ele><time>2026-03-23T12:12:38Z</time></trkpt>
<trkpt lat="43.0405600000" lon="0.2550670000"><ele>479</ele><time>2026-03-23T12:12:40Z</time></trkpt>
<trkpt lat="43.0405780000" lon="0.2550820000"><ele>479</ele><time>2026-03-23T12:12:42Z</time></trkpt>
<trkpt lat="43.0405950000" lon="0.2551050000"><ele>479</ele><time>2026-03-23T12:12:44Z</time></trkpt>
<trkpt lat="43.0406170000" lon="0.2551270000"><ele>478</ele><time>2026-03-23T12:12:46Z</time></trkpt>
<trkpt lat="43.0406370000" lon="0.2551480000"><ele>478</ele><time>2026-03-23T12:12:48Z</time></trkpt>
<trkpt lat="43.0406620000" lon="0.2551720000"><ele>478</ele><time>2026-03-23T12:12:50Z</time></trkpt>
<trkpt lat="43.0406770000" lon="0.2551920000"><ele>478</ele><time>2026-03-23T12:12:52Z</time></trkpt>
<trkpt lat="43.0406970000" lon="0.2552170000"><ele>478</ele><time>2026-03-23T12:12:54Z</time></trkpt>
<trkpt lat="43.0407120000" lon="0.2552370000"><ele>478</ele><time>2026-03-23T12:12:56Z</time></trkpt>
<trkpt lat="43.0407270000" lon="0.2552600000"><ele>478</ele><time>2026-03-23T12:12:58Z</time></trkpt>
<trkpt lat="43.0407420000" lon="0.2552820000"><ele>478</ele><time>2026-03-23T12:13:00Z</time></trkpt>
<trkpt lat="43.0407570000" lon="0.2553020000"><ele>478</ele><time>2026-03-23T12:13:02Z</time></trkpt>
<trkpt lat="43.0407750000" lon="0.2553220000"><ele>478</ele><time>2026-03-23T12:13:04Z</time></trkpt>
<trkpt lat="43.0407970000" lon="0.2553420000"><ele>478</ele><time>2026-03-23T12:13:06Z</time></trkpt>
<trkpt lat="43.0408180000" lon="0.2553670000"><ele>478</ele><time>2026-03-23T12:13:08Z</time></trkpt>
<trkpt lat="43.0408420000" lon="0.2553870000"><ele>478</ele><time>2026-03-23T12:13:10Z</time></trkpt>
<trkpt lat="43.0408620000" lon="0.2554070000"><ele>478</ele><time>2026-03-23T12:13:12Z</time></trkpt>
<trkpt lat="43.0408820000" lon="0.2554320000"><ele>478</ele><time>2026-03-23T12:13:14Z</time></trkpt>
<trkpt lat="43.0408970000" lon="0.2554570000"><ele>478</ele><time>2026-03-23T12:13:16Z</time></trkpt>
<trkpt lat="43.0409100000" lon="0.2554820000"><ele>478</ele><time>2026-03-23T12:13:18Z</time></trkpt>
<trkpt lat="43.0409220000" lon="0.2555070000"><ele>478</ele><time>2026-03-23T12:13:20Z</time></trkpt>
<trkpt lat="43.0409370000" lon="0.2555320000"><ele>478</ele><time>2026-03-23T12:13:22Z</time></trkpt>
<trkpt lat="43.0409550000" lon="0.2555520000"><ele>478</ele><time>2026-03-23T12:13:24Z</time></trkpt>
<trkpt lat="43.0409700000" lon="0.2555720000"><ele>478</ele><time>2026-03-23T12:13:26Z</time></trkpt>
<trkpt lat="43.0409870000" lon="0.2556000000"><ele>478</ele><time>2026-03-23T12:13:28Z</time></trkpt>
<trkpt lat="43.0410020000" lon="0.2556220000"><ele>478</ele><time>2026-03-23T12:13:30Z</time></trkpt>
<trkpt lat="43.0410100000" lon="0.2556470000"><ele>478</ele><time>2026-03-23T12:13:32Z</time></trkpt>
<trkpt lat="43.0410170000" lon="0.2556720000"><ele>478</ele><time>2026-03-23T12:13:34Z</time></trkpt>
<trkpt lat="43.0410250000" lon="0.2556970000"><ele>478</ele><time>2026-03-23T12:13:36Z</time></trkpt>
<trkpt lat="43.0410220000" lon="0.2557250000"><ele>478</ele><time>2026-03-23T12:13:39Z</time></trkpt>
<trkpt lat="43.0410250000" lon="0.2556970000"><ele>478</ele><time>2026-03-23T12:14:31Z</time></trkpt>
<trkpt lat="43.0410550000" lon="0.2556950000"><ele>478</ele><time>2026-03-23T12:14:33Z</time></trkpt>
<trkpt lat="43.0410820000" lon="0.2557170000"><ele>478</ele><time>2026-03-23T12:14:35Z</time></trkpt>
<trkpt lat="43.0410900000" lon="0.2557470000"><ele>478</ele><time>2026-03-23T12:14:37Z</time></trkpt>
<trkpt lat="43.0410900000" lon="0.2557850000"><ele>478</ele><time>2026-03-23T12:14:40Z</time></trkpt>
<trkpt lat="43.0410950000" lon="0.2558080000"><ele>478</ele><time>2026-03-23T12:15:04Z</time></trkpt>
<trkpt lat="43.0410920000" lon="0.2558370000"><ele>478</ele><time>2026-03-23T12:15:06Z</time></trkpt>
<trkpt lat="43.0410970000" lon="0.2558720000"><ele>477</ele><time>2026-03-23T12:15:08Z</time></trkpt>
<trkpt lat="43.0411050000" lon="0.2559100000"><ele>477</ele><time>2026-03-23T12:15:10Z</time></trkpt>
<trkpt lat="43.0411120000" lon="0.2559420000"><ele>477</ele><time>2026-03-23T12:15:13Z</time></trkpt>
<trkpt lat="43.0411270000" lon="0.2559600000"><ele>477</ele><time>2026-03-23T12:15:23Z</time></trkpt>
<trkpt lat="43.0411420000" lon="0.2559780000"><ele>478</ele><time>2026-03-23T12:15:25Z</time></trkpt>
<trkpt lat="43.0411620000" lon="0.2560020000"><ele>477</ele><time>2026-03-23T12:15:27Z</time></trkpt>
<trkpt lat="43.0411470000" lon="0.2560170000"><ele>477</ele><time>2026-03-23T12:15:33Z</time></trkpt>
<trkpt lat="43.0411450000" lon="0.2560470000"><ele>478</ele><time>2026-03-23T12:15:55Z</time></trkpt>
<trkpt lat="43.0411220000" lon="0.2560670000"><ele>477</ele><time>2026-03-23T12:15:57Z</time></trkpt>
<trkpt lat="43.0411070000" lon="0.2560770000"><ele>478</ele><time>2026-03-23T12:16:01Z</time></trkpt>
<trkpt lat="43.0410870000" lon="0.2560870000"><ele>478</ele><time>2026-03-23T12:16:05Z</time></trkpt>
<trkpt lat="43.0410700000" lon="0.2561070000"><ele>478</ele><time>2026-03-23T12:16:07Z</time></trkpt>
<trkpt lat="43.0410470000" lon="0.2561220000"><ele>478</ele><time>2026-03-23T12:16:09Z</time></trkpt>
<trkpt lat="43.0410250000" lon="0.2561370000"><ele>478</ele><time>2026-03-23T12:16:11Z</time></trkpt>
<trkpt lat="43.0410170000" lon="0.2561670000"><ele>478</ele><time>2026-03-23T12:16:13Z</time></trkpt>
<trkpt lat="43.0410020000" lon="0.2561950000"><ele>478</ele><time>2026-03-23T12:16:15Z</time></trkpt>
<trkpt lat="43.0409900000" lon="0.2562170000"><ele>478</ele><time>2026-03-23T12:16:30Z</time></trkpt>
<trkpt lat="43.0409670000" lon="0.2562320000"><ele>478</ele><time>2026-03-23T12:16:32Z</time></trkpt>
<trkpt lat="43.0409570000" lon="0.2562570000"><ele>478</ele><time>2026-03-23T12:17:41Z</time></trkpt>
<trkpt lat="43.0409320000" lon="0.2562680000"><ele>478</ele><time>2026-03-23T12:17:43Z</time></trkpt>
<trkpt lat="43.0409070000" lon="0.2562850000"><ele>478</ele><time>2026-03-23T12:17:45Z</time></trkpt>
<trkpt lat="43.0408870000" lon="0.2563070000"><ele>478</ele><time>2026-03-23T12:17:47Z</time></trkpt>
<trkpt lat="43.0408700000" lon="0.2563270000"><ele>478</ele><time>2026-03-23T12:17:49Z</time></trkpt>
<trkpt lat="43.0408570000" lon="0.2563450000"><ele>479</ele><time>2026-03-23T12:18:13Z</time></trkpt>
<trkpt lat="43.0408270000" lon="0.2563720000"><ele>479</ele><time>2026-03-23T12:18:15Z</time></trkpt>
<trkpt lat="43.0408020000" lon="0.2563970000"><ele>479</ele><time>2026-03-23T12:18:17Z</time></trkpt>
<trkpt lat="43.0407800000" lon="0.2564220000"><ele>479</ele><time>2026-03-23T12:18:19Z</time></trkpt>
<trkpt lat="43.0407620000" lon="0.2564430000"><ele>479</ele><time>2026-03-23T12:18:21Z</time></trkpt>
<trkpt lat="43.0407450000" lon="0.2564620000"><ele>479</ele><time>2026-03-23T12:18:23Z</time></trkpt>
<trkpt lat="43.0407270000" lon="0.2564750000"><ele>479</ele><time>2026-03-23T12:18:25Z</time></trkpt>
<trkpt lat="43.0407070000" lon="0.2564870000"><ele>479</ele><time>2026-03-23T12:18:27Z</time></trkpt>
<trkpt lat="43.0406870000" lon="0.2565000000"><ele>479</ele><time>2026-03-23T12:18:29Z</time></trkpt>
<trkpt lat="43.0406670000" lon="0.2565120000"><ele>479</ele><time>2026-03-23T12:18:31Z</time></trkpt>
<trkpt lat="43.0406470000" lon="0.2565070000"><ele>479</ele><time>2026-03-23T12:18:35Z</time></trkpt>
<trkpt lat="43.0406300000" lon="0.2565200000"><ele>479</ele><time>2026-03-23T12:18:43Z</time></trkpt>
<trkpt lat="43.0406100000" lon="0.2565420000"><ele>479</ele><time>2026-03-23T12:18:45Z</time></trkpt>
<trkpt lat="43.0405870000" lon="0.2565670000"><ele>479</ele><time>2026-03-23T12:18:47Z</time></trkpt>
<trkpt lat="43.0405670000" lon="0.2565850000"><ele>479</ele><time>2026-03-23T12:18:49Z</time></trkpt>
<trkpt lat="43.0405470000" lon="0.2566050000"><ele>480</ele><time>2026-03-23T12:18:51Z</time></trkpt>
<trkpt lat="43.0405270000" lon="0.2566250000"><ele>480</ele><time>2026-03-23T12:18:53Z</time></trkpt>
<trkpt lat="43.0405020000" lon="0.2566450000"><ele>480</ele><time>2026-03-23T12:18:55Z</time></trkpt>
<trkpt lat="43.0404850000" lon="0.2566620000"><ele>480</ele><time>2026-03-23T12:18:57Z</time></trkpt>
<trkpt lat="43.0404670000" lon="0.2566820000"><ele>479</ele><time>2026-03-23T12:18:59Z</time></trkpt>
<trkpt lat="43.0404520000" lon="0.2566970000"><ele>479</ele><time>2026-03-23T12:19:01Z</time></trkpt>
<trkpt lat="43.0404350000" lon="0.2567120000"><ele>479</ele><time>2026-03-23T12:19:03Z</time></trkpt>
<trkpt lat="43.0404150000" lon="0.2567270000"><ele>479</ele><time>2026-03-23T12:19:05Z</time></trkpt>
<trkpt lat="43.0403970000" lon="0.2567470000"><ele>480</ele><time>2026-03-23T12:19:07Z</time></trkpt>
<trkpt lat="43.0403770000" lon="0.2567650000"><ele>480</ele><time>2026-03-23T12:19:09Z</time></trkpt>
<trkpt lat="43.0403570000" lon="0.2567850000"><ele>480</ele><time>2026-03-23T12:19:11Z</time></trkpt>
<trkpt lat="43.0403350000" lon="0.2568020000"><ele>480</ele><time>2026-03-23T12:19:13Z</time></trkpt>
<trkpt lat="43.0403120000" lon="0.2568170000"><ele>480</ele><time>2026-03-23T12:19:15Z</time></trkpt>
<trkpt lat="43.0402950000" lon="0.2568280000"><ele>480</ele><time>2026-03-23T12:19:17Z</time></trkpt>
<trkpt lat="43.0402700000" lon="0.2568470000"><ele>480</ele><time>2026-03-23T12:19:19Z</time></trkpt>
<trkpt lat="43.0402470000" lon="0.2568580000"><ele>481</ele><time>2026-03-23T12:19:21Z</time></trkpt>
<trkpt lat="43.0402270000" lon="0.2568770000"><ele>481</ele><time>2026-03-23T12:19:23Z</time></trkpt>
<trkpt lat="43.0402050000" lon="0.2568950000"><ele>481</ele><time>2026-03-23T12:19:25Z</time></trkpt>
<trkpt lat="43.0401920000" lon="0.2569220000"><ele>481</ele><time>2026-03-23T12:19:27Z</time></trkpt>
<trkpt lat="43.0401800000" lon="0.2569470000"><ele>481</ele><time>2026-03-23T12:19:29Z</time></trkpt>
<trkpt lat="43.0401570000" lon="0.2569670000"><ele>482</ele><time>2026-03-23T12:19:31Z</time></trkpt>
<trkpt lat="43.0401370000" lon="0.2569820000"><ele>482</ele><time>2026-03-23T12:19:33Z</time></trkpt>
<trkpt lat="43.0401120000" lon="0.2569970000"><ele>482</ele><time>2026-03-23T12:19:35Z</time></trkpt>
<trkpt lat="43.0400920000" lon="0.2570100000"><ele>482</ele><time>2026-03-23T12:19:37Z</time></trkpt>
<trkpt lat="43.0400720000" lon="0.2570320000"><ele>482</ele><time>2026-03-23T12:19:39Z</time></trkpt>
<trkpt lat="43.0400570000" lon="0.2570570000"><ele>482</ele><time>2026-03-23T12:19:41Z</time></trkpt>
<trkpt lat="43.0400350000" lon="0.2570820000"><ele>482</ele><time>2026-03-23T12:19:43Z</time></trkpt>
<trkpt lat="43.0400200000" lon="0.2571020000"><ele>482</ele><time>2026-03-23T12:19:45Z</time></trkpt>
<trkpt lat="43.0400050000" lon="0.2571320000"><ele>482</ele><time>2026-03-23T12:19:47Z</time></trkpt>
<trkpt lat="43.0399850000" lon="0.2571550000"><ele>482</ele><time>2026-03-23T12:19:49Z</time></trkpt>
<trkpt lat="43.0399670000" lon="0.2571770000"><ele>482</ele><time>2026-03-23T12:19:51Z</time></trkpt>
<trkpt lat="43.0399450000" lon="0.2572020000"><ele>482</ele><time>2026-03-23T12:19:53Z</time></trkpt>
<trkpt lat="43.0399270000" lon="0.2572270000"><ele>482</ele><time>2026-03-23T12:19:55Z</time></trkpt>
<trkpt lat="43.0399070000" lon="0.2572550000"><ele>482</ele><time>2026-03-23T12:19:58Z</time></trkpt>
<trkpt lat="43.0398920000" lon="0.2572730000"><ele>483</ele><time>2026-03-23T12:20:00Z</time></trkpt>
<trkpt lat="43.0398720000" lon="0.2572970000"><ele>483</ele><time>2026-03-23T12:20:02Z</time></trkpt>
<trkpt lat="43.0398520000" lon="0.2573250000"><ele>483</ele><time>2026-03-23T12:20:05Z</time></trkpt>
<trkpt lat="43.0398370000" lon="0.2573400000"><ele>483</ele><time>2026-03-23T12:20:07Z</time></trkpt>
<trkpt lat="43.0398200000" lon="0.2573580000"><ele>483</ele><time>2026-03-23T12:20:09Z</time></trkpt>
<trkpt lat="43.0398070000" lon="0.2573830000"><ele>484</ele><time>2026-03-23T12:20:12Z</time></trkpt>
<trkpt lat="43.0397970000" lon="0.2573520000"><ele>483</ele><time>2026-03-23T12:20:47Z</time></trkpt>
<trkpt lat="43.0398020000" lon="0.2573170000"><ele>484</ele><time>2026-03-23T12:20:50Z</time></trkpt>
<trkpt lat="43.0398200000" lon="0.2573320000"><ele>483</ele><time>2026-03-23T12:24:36Z</time></trkpt>
<trkpt lat="43.0398370000" lon="0.2573470000"><ele>483</ele><time>2026-03-23T12:24:38Z</time></trkpt>
<trkpt lat="43.0398270000" lon="0.2573750000"><ele>484</ele><time>2026-03-23T12:24:42Z</time></trkpt>
<trkpt lat="43.0398100000" lon="0.2573870000"><ele>484</ele><time>2026-03-23T12:25:09Z</time></trkpt>
<trkpt lat="43.0398070000" lon="0.2574250000"><ele>483</ele><time>2026-03-23T12:25:13Z</time></trkpt>
<trkpt lat="43.0398100000" lon="0.2574600000"><ele>484</ele><time>2026-03-23T12:25:15Z</time></trkpt>
<trkpt lat="43.0398170000" lon="0.2574900000"><ele>484</ele><time>2026-03-23T12:25:17Z</time></trkpt>
<trkpt lat="43.0398220000" lon="0.2575130000"><ele>484</ele><time>2026-03-23T12:25:19Z</time></trkpt>
<trkpt lat="43.0398300000" lon="0.2575370000"><ele>484</ele><time>2026-03-23T12:25:21Z</time></trkpt>
<trkpt lat="43.0398330000" lon="0.2575670000"><ele>485</ele><time>2026-03-23T12:25:27Z</time></trkpt>
<trkpt lat="43.0398420000" lon="0.2575970000"><ele>485</ele><time>2026-03-23T12:25:29Z</time></trkpt>
<trkpt lat="43.0398550000" lon="0.2576300000"><ele>485</ele><time>2026-03-23T12:25:31Z</time></trkpt>
<trkpt lat="43.0398670000" lon="0.2576570000"><ele>486</ele><time>2026-03-23T12:25:33Z</time></trkpt>
<trkpt lat="43.0398770000" lon="0.2576800000"><ele>486</ele><time>2026-03-23T12:25:35Z</time></trkpt>
<trkpt lat="43.0398950000" lon="0.2576970000"><ele>486</ele><time>2026-03-23T12:25:37Z</time></trkpt>
<trkpt lat="43.0399200000" lon="0.2577220000"><ele>486</ele><time>2026-03-23T12:25:40Z</time></trkpt>
<trkpt lat="43.0399370000" lon="0.2577370000"><ele>486</ele><time>2026-03-23T12:25:42Z</time></trkpt>
<trkpt lat="43.0399520000" lon="0.2577600000"><ele>487</ele><time>2026-03-23T12:25:44Z</time></trkpt>
<trkpt lat="43.0399700000" lon="0.2577820000"><ele>487</ele><time>2026-03-23T12:25:46Z</time></trkpt>
<trkpt lat="43.0399900000" lon="0.2577920000"><ele>487</ele><time>2026-03-23T12:25:48Z</time></trkpt>
<trkpt lat="43.0400100000" lon="0.2577870000"><ele>488</ele><time>2026-03-23T12:25:50Z</time></trkpt>
<trkpt lat="43.0400370000" lon="0.2577820000"><ele>488</ele><time>2026-03-23T12:25:53Z</time></trkpt>
<trkpt lat="43.0400620000" lon="0.2577520000"><ele>488</ele><time>2026-03-23T12:25:55Z</time></trkpt>
<trkpt lat="43.0400800000" lon="0.2577270000"><ele>488</ele><time>2026-03-23T12:25:56Z</time></trkpt>
<trkpt lat="43.0400920000" lon="0.2577050000"><ele>489</ele><time>2026-03-23T12:25:58Z</time></trkpt>
<trkpt lat="43.0401050000" lon="0.2576770000"><ele>489</ele><time>2026-03-23T12:26:00Z</time></trkpt>
<trkpt lat="43.0401220000" lon="0.2576520000"><ele>489</ele><time>2026-03-23T12:26:02Z</time></trkpt>
<trkpt lat="43.0401370000" lon="0.2576300000"><ele>489</ele><time>2026-03-23T12:26:04Z</time></trkpt>
<trkpt lat="43.0401470000" lon="0.2576100000"><ele>490</ele><time>2026-03-23T12:26:06Z</time></trkpt>
<trkpt lat="43.0401620000" lon="0.2575870000"><ele>490</ele><time>2026-03-23T12:26:08Z</time></trkpt>
<trkpt lat="43.0401750000" lon="0.2575670000"><ele>490</ele><time>2026-03-23T12:26:10Z</time></trkpt>
<trkpt lat="43.0401870000" lon="0.2575470000"><ele>490</ele><time>2026-03-23T12:26:12Z</time></trkpt>
<trkpt lat="43.0402020000" lon="0.2575220000"><ele>491</ele><time>2026-03-23T12:26:15Z</time></trkpt>
<trkpt lat="43.0402120000" lon="0.2574970000"><ele>491</ele><time>2026-03-23T12:26:17Z</time></trkpt>
<trkpt lat="43.0402170000" lon="0.2574670000"><ele>491</ele><time>2026-03-23T12:26:20Z</time></trkpt>
<trkpt lat="43.0402370000" lon="0.2574750000"><ele>491</ele><time>2026-03-23T12:26:26Z</time></trkpt>
<trkpt lat="43.0402550000" lon="0.2574570000"><ele>491</ele><time>2026-03-23T12:26:28Z</time></trkpt>
<trkpt lat="43.0402670000" lon="0.2574420000"><ele>491</ele><time>2026-03-23T12:26:30Z</time></trkpt>
<trkpt lat="43.0402820000" lon="0.2574100000"><ele>491</ele><time>2026-03-23T12:26:33Z</time></trkpt>
<trkpt lat="43.0402970000" lon="0.2573920000"><ele>492</ele><time>2026-03-23T12:26:35Z</time></trkpt>
<trkpt lat="43.0403100000" lon="0.2573770000"><ele>492</ele><time>2026-03-23T12:26:37Z</time></trkpt>
<trkpt lat="43.0403300000" lon="0.2573550000"><ele>492</ele><time>2026-03-23T12:26:40Z</time></trkpt>
<trkpt lat="43.0403450000" lon="0.2573370000"><ele>493</ele><time>2026-03-23T12:26:42Z</time></trkpt>
<trkpt lat="43.0403620000" lon="0.2573170000"><ele>493</ele><time>2026-03-23T12:26:44Z</time></trkpt>
<trkpt lat="43.0403820000" lon="0.2573000000"><ele>493</ele><time>2026-03-23T12:26:47Z</time></trkpt>
<trkpt lat="43.0404000000" lon="0.2572900000"><ele>493</ele><time>2026-03-23T12:26:49Z</time></trkpt>
<trkpt lat="43.0404170000" lon="0.2572800000"><ele>493</ele><time>2026-03-23T12:26:51Z</time></trkpt>
<trkpt lat="43.0404420000" lon="0.2572620000"><ele>494</ele><time>2026-03-23T12:26:54Z</time></trkpt>
<trkpt lat="43.0404620000" lon="0.2572520000"><ele>494</ele><time>2026-03-23T12:26:57Z</time></trkpt>
<trkpt lat="43.0404850000" lon="0.2572570000"><ele>494</ele><time>2026-03-23T12:27:00Z</time></trkpt>
<trkpt lat="43.0405070000" lon="0.2572670000"><ele>495</ele><time>2026-03-23T12:27:03Z</time></trkpt>
<trkpt lat="43.0405270000" lon="0.2572720000"><ele>495</ele><time>2026-03-23T12:27:05Z</time></trkpt>
<trkpt lat="43.0405470000" lon="0.2572650000"><ele>495</ele><time>2026-03-23T12:27:07Z</time></trkpt>
<trkpt lat="43.0405670000" lon="0.2572370000"><ele>496</ele><time>2026-03-23T12:27:09Z</time></trkpt>
<trkpt lat="43.0405770000" lon="0.2572150000"><ele>496</ele><time>2026-03-23T12:27:11Z</time></trkpt>
<trkpt lat="43.0405780000" lon="0.2571870000"><ele>496</ele><time>2026-03-23T12:27:15Z</time></trkpt>
<trkpt lat="43.0406020000" lon="0.2571820000"><ele>496</ele><time>2026-03-23T12:27:32Z</time></trkpt>
<trkpt lat="43.0406320000" lon="0.2571800000"><ele>496</ele><time>2026-03-23T12:27:34Z</time></trkpt>
<trkpt lat="43.0406570000" lon="0.2571750000"><ele>496</ele><time>2026-03-23T12:27:36Z</time></trkpt>
<trkpt lat="43.0406820000" lon="0.2571700000"><ele>497</ele><time>2026-03-23T12:27:38Z</time></trkpt>
<trkpt lat="43.0407000000" lon="0.2571620000"><ele>497</ele><time>2026-03-23T12:27:40Z</time></trkpt>
<trkpt lat="43.0407250000" lon="0.2571520000"><ele>497</ele><time>2026-03-23T12:27:43Z</time></trkpt>
<trkpt lat="43.0407420000" lon="0.2571380000"><ele>497</ele><time>2026-03-23T12:27:45Z</time></trkpt>
<trkpt lat="43.0407670000" lon="0.2571270000"><ele>498</ele><time>2026-03-23T12:27:48Z</time></trkpt>
<trkpt lat="43.0407820000" lon="0.2571120000"><ele>498</ele><time>2026-03-23T12:27:50Z</time></trkpt>
<trkpt lat="43.0408000000" lon="0.2570970000"><ele>498</ele><time>2026-03-23T12:27:52Z</time></trkpt>
<trkpt lat="43.0408170000" lon="0.2570770000"><ele>498</ele><time>2026-03-23T12:27:54Z</time></trkpt>
<trkpt lat="43.0408320000" lon="0.2570600000"><ele>498</ele><time>2026-03-23T12:27:56Z</time></trkpt>
<trkpt lat="43.0408550000" lon="0.2570300000"><ele>499</ele><time>2026-03-23T12:27:58Z</time></trkpt>
<trkpt lat="43.0408750000" lon="0.2570070000"><ele>499</ele><time>2026-03-23T12:28:00Z</time></trkpt>
<trkpt lat="43.0408920000" lon="0.2569920000"><ele>499</ele><time>2026-03-23T12:28:02Z</time></trkpt>
<trkpt lat="43.0409070000" lon="0.2569670000"><ele>499</ele><time>2026-03-23T12:28:04Z</time></trkpt>
<trkpt lat="43.0409150000" lon="0.2569370000"><ele>500</ele><time>2026-03-23T12:28:05Z</time></trkpt>
<trkpt lat="43.0409320000" lon="0.2569220000"><ele>500</ele><time>2026-03-23T12:28:09Z</time></trkpt>
<trkpt lat="43.0409500000" lon="0.2569120000"><ele>500</ele><time>2026-03-23T12:28:11Z</time></trkpt>
<trkpt lat="43.0409670000" lon="0.2569070000"><ele>500</ele><time>2026-03-23T12:28:13Z</time></trkpt>
<trkpt lat="43.0409870000" lon="0.2569020000"><ele>501</ele><time>2026-03-23T12:28:15Z</time></trkpt>
<trkpt lat="43.0410070000" lon="0.2568950000"><ele>501</ele><time>2026-03-23T12:28:17Z</time></trkpt>
<trkpt lat="43.0410320000" lon="0.2568870000"><ele>501</ele><time>2026-03-23T12:28:20Z</time></trkpt>
<trkpt lat="43.0410550000" lon="0.2568670000"><ele>501</ele><time>2026-03-23T12:28:22Z</time></trkpt>
<trkpt lat="43.0410750000" lon="0.2568500000"><ele>502</ele><time>2026-03-23T12:28:24Z</time></trkpt>
<trkpt lat="43.0410970000" lon="0.2568350000"><ele>502</ele><time>2026-03-23T12:28:26Z</time></trkpt>
<trkpt lat="43.0411170000" lon="0.2568250000"><ele>502</ele><time>2026-03-23T12:28:28Z</time></trkpt>
<trkpt lat="43.0411370000" lon="0.2568180000"><ele>502</ele><time>2026-03-23T12:28:30Z</time></trkpt>
<trkpt lat="43.0411570000" lon="0.2568120000"><ele>502</ele><time>2026-03-23T12:28:32Z</time></trkpt>
<trkpt lat="43.0411770000" lon="0.2568020000"><ele>502</ele><time>2026-03-23T12:28:34Z</time></trkpt>
<trkpt lat="43.0411970000" lon="0.2567900000"><ele>503</ele><time>2026-03-23T12:28:36Z</time></trkpt>
<trkpt lat="43.0412150000" lon="0.2567850000"><ele>503</ele><time>2026-03-23T12:28:38Z</time></trkpt>
<trkpt lat="43.0412420000" lon="0.2567820000"><ele>503</ele><time>2026-03-23T12:28:41Z</time></trkpt>
<trkpt lat="43.0412620000" lon="0.2567770000"><ele>503</ele><time>2026-03-23T12:28:43Z</time></trkpt>
<trkpt lat="43.0412820000" lon="0.2567620000"><ele>503</ele><time>2026-03-23T12:28:45Z</time></trkpt>
<trkpt lat="43.0413000000" lon="0.2567620000"><ele>504</ele><time>2026-03-23T12:28:47Z</time></trkpt>
<trkpt lat="43.0413170000" lon="0.2567670000"><ele>504</ele><time>2026-03-23T12:28:49Z</time></trkpt>
<trkpt lat="43.0413380000" lon="0.2567670000"><ele>504</ele><time>2026-03-23T12:28:51Z</time></trkpt>
<trkpt lat="43.0413600000" lon="0.2567620000"><ele>504</ele><time>2026-03-23T12:28:53Z</time></trkpt>
<trkpt lat="43.0413870000" lon="0.2567570000"><ele>504</ele><time>2026-03-23T12:28:56Z</time></trkpt>
<trkpt lat="43.0414070000" lon="0.2567550000"><ele>505</ele><time>2026-03-23T12:28:58Z</time></trkpt>
<trkpt lat="43.0414320000" lon="0.2567570000"><ele>505</ele><time>2026-03-23T12:29:00Z</time></trkpt>
<trkpt lat="43.0414500000" lon="0.2567520000"><ele>505</ele><time>2026-03-23T12:29:02Z</time></trkpt>
<trkpt lat="43.0414700000" lon="0.2567500000"><ele>505</ele><time>2026-03-23T12:29:04Z</time></trkpt>
<trkpt lat="43.0414920000" lon="0.2567520000"><ele>505</ele><time>2026-03-23T12:29:06Z</time></trkpt>
<trkpt lat="43.0415150000" lon="0.2567620000"><ele>506</ele><time>2026-03-23T12:29:08Z</time></trkpt>
<trkpt lat="43.0415320000" lon="0.2567650000"><ele>506</ele><time>2026-03-23T12:29:10Z</time></trkpt>
<trkpt lat="43.0415520000" lon="0.2567770000"><ele>506</ele><time>2026-03-23T12:29:12Z</time></trkpt>
<trkpt lat="43.0415750000" lon="0.2567870000"><ele>506</ele><time>2026-03-23T12:29:14Z</time></trkpt>
<trkpt lat="43.0415920000" lon="0.2567920000"><ele>506</ele><time>2026-03-23T12:29:16Z</time></trkpt>
<trkpt lat="43.0416120000" lon="0.2567950000"><ele>507</ele><time>2026-03-23T12:29:18Z</time></trkpt>
<trkpt lat="43.0416320000" lon="0.2568020000"><ele>507</ele><time>2026-03-23T12:29:20Z</time></trkpt>
<trkpt lat="43.0416550000" lon="0.2568050000"><ele>507</ele><time>2026-03-23T12:29:22Z</time></trkpt>
<trkpt lat="43.0416750000" lon="0.2568080000"><ele>507</ele><time>2026-03-23T12:29:24Z</time></trkpt>
<trkpt lat="43.0416950000" lon="0.2568180000"><ele>508</ele><time>2026-03-23T12:29:26Z</time></trkpt>
<trkpt lat="43.0417180000" lon="0.2568350000"><ele>508</ele><time>2026-03-23T12:29:29Z</time></trkpt>
<trkpt lat="43.0417370000" lon="0.2568450000"><ele>508</ele><time>2026-03-23T12:29:31Z</time></trkpt>
<trkpt lat="43.0417570000" lon="0.2568500000"><ele>509</ele><time>2026-03-23T12:29:33Z</time></trkpt>
<trkpt lat="43.0417770000" lon="0.2568400000"><ele>509</ele><time>2026-03-23T12:29:35Z</time></trkpt>
<trkpt lat="43.0418000000" lon="0.2568370000"><ele>509</ele><time>2026-03-23T12:29:37Z</time></trkpt>
<trkpt lat="43.0418220000" lon="0.2568320000"><ele>510</ele><time>2026-03-23T12:29:48Z</time></trkpt>
<trkpt lat="43.0418520000" lon="0.2568250000"><ele>510</ele><time>2026-03-23T12:29:50Z</time></trkpt>
<trkpt lat="43.0418820000" lon="0.2568250000"><ele>510</ele><time>2026-03-23T12:29:52Z</time></trkpt>
<trkpt lat="43.0419020000" lon="0.2568280000"><ele>510</ele><time>2026-03-23T12:29:54Z</time></trkpt>
<trkpt lat="43.0419300000" lon="0.2568420000"><ele>510</ele><time>2026-03-23T12:29:57Z</time></trkpt>
<trkpt lat="43.0419500000" lon="0.2568500000"><ele>510</ele><time>2026-03-23T12:29:59Z</time></trkpt>
<trkpt lat="43.0419700000" lon="0.2568570000"><ele>510</ele><time>2026-03-23T12:30:01Z</time></trkpt>
<trkpt lat="43.0419920000" lon="0.2568520000"><ele>511</ele><time>2026-03-23T12:30:20Z</time></trkpt>
<trkpt lat="43.0420220000" lon="0.2568550000"><ele>511</ele><time>2026-03-23T12:30:22Z</time></trkpt>
<trkpt lat="43.0420570000" lon="0.2568620000"><ele>511</ele><time>2026-03-23T12:30:24Z</time></trkpt>
<trkpt lat="43.0420850000" lon="0.2568680000"><ele>511</ele><time>2026-03-23T12:30:26Z</time></trkpt>
<trkpt lat="43.0421070000" lon="0.2568800000"><ele>511</ele><time>2026-03-23T12:30:28Z</time></trkpt>
<trkpt lat="43.0421270000" lon="0.2568820000"><ele>511</ele><time>2026-03-23T12:30:30Z</time></trkpt>
<trkpt lat="43.0421520000" lon="0.2568870000"><ele>511</ele><time>2026-03-23T12:30:32Z</time></trkpt>
<trkpt lat="43.0421720000" lon="0.2568920000"><ele>511</ele><time>2026-03-23T12:30:34Z</time></trkpt>
<trkpt lat="43.0421920000" lon="0.2569000000"><ele>511</ele><time>2026-03-23T12:30:36Z</time></trkpt>
<trkpt lat="43.0422170000" lon="0.2569070000"><ele>511</ele><time>2026-03-23T12:30:38Z</time></trkpt>
<trkpt lat="43.0422400000" lon="0.2569150000"><ele>512</ele><time>2026-03-23T12:30:40Z</time></trkpt>
<trkpt lat="43.0422620000" lon="0.2569220000"><ele>512</ele><time>2026-03-23T12:30:42Z</time></trkpt>
<trkpt lat="43.0422820000" lon="0.2569370000"><ele>512</ele><time>2026-03-23T12:30:44Z</time></trkpt>
<trkpt lat="43.0423050000" lon="0.2569470000"><ele>512</ele><time>2026-03-23T12:30:46Z</time></trkpt>
<trkpt lat="43.0423230000" lon="0.2569570000"><ele>512</ele><time>2026-03-23T12:30:48Z</time></trkpt>
<trkpt lat="43.0423420000" lon="0.2569700000"><ele>512</ele><time>2026-03-23T12:30:50Z</time></trkpt>
<trkpt lat="43.0423600000" lon="0.2569820000"><ele>512</ele><time>2026-03-23T12:30:52Z</time></trkpt>
<trkpt lat="43.0423770000" lon="0.2569970000"><ele>512</ele><time>2026-03-23T12:30:54Z</time></trkpt>
<trkpt lat="43.0423950000" lon="0.2570120000"><ele>512</ele><time>2026-03-23T12:30:56Z</time></trkpt>
<trkpt lat="43.0424120000" lon="0.2570250000"><ele>512</ele><time>2026-03-23T12:30:58Z</time></trkpt>
<trkpt lat="43.0424370000" lon="0.2570400000"><ele>512</ele><time>2026-03-23T12:31:00Z</time></trkpt>
<trkpt lat="43.0424620000" lon="0.2570570000"><ele>512</ele><time>2026-03-23T12:31:02Z</time></trkpt>
<trkpt lat="43.0424820000" lon="0.2570780000"><ele>512</ele><time>2026-03-23T12:31:04Z</time></trkpt>
<trkpt lat="43.0424970000" lon="0.2570970000"><ele>512</ele><time>2026-03-23T12:31:06Z</time></trkpt>
<trkpt lat="43.0425170000" lon="0.2571150000"><ele>512</ele><time>2026-03-23T12:31:09Z</time></trkpt>
<trkpt lat="43.0425350000" lon="0.2571370000"><ele>512</ele><time>2026-03-23T12:31:13Z</time></trkpt>
<trkpt lat="43.0425520000" lon="0.2571620000"><ele>512</ele><time>2026-03-23T12:31:16Z</time></trkpt>
<trkpt lat="43.0425670000" lon="0.2571800000"><ele>512</ele><time>2026-03-23T12:31:18Z</time></trkpt>
<trkpt lat="43.0425820000" lon="0.2571970000"><ele>513</ele><time>2026-03-23T12:31:20Z</time></trkpt>
<trkpt lat="43.0425950000" lon="0.2572170000"><ele>513</ele><time>2026-03-23T12:31:22Z</time></trkpt>
<trkpt lat="43.0426120000" lon="0.2572330000"><ele>513</ele><time>2026-03-23T12:31:24Z</time></trkpt>
<trkpt lat="43.0426320000" lon="0.2572470000"><ele>514</ele><time>2026-03-23T12:32:01Z</time></trkpt>
<trkpt lat="43.0426520000" lon="0.2572650000"><ele>515</ele><time>2026-03-23T12:32:03Z</time></trkpt>
<trkpt lat="43.0426770000" lon="0.2572920000"><ele>515</ele><time>2026-03-23T12:32:05Z</time></trkpt>
<trkpt lat="43.0426970000" lon="0.2573170000"><ele>515</ele><time>2026-03-23T12:32:07Z</time></trkpt>
<trkpt lat="43.0427100000" lon="0.2573370000"><ele>515</ele><time>2026-03-23T12:32:09Z</time></trkpt>
<trkpt lat="43.0427270000" lon="0.2573670000"><ele>515</ele><time>2026-03-23T12:32:12Z</time></trkpt>
<trkpt lat="43.0427450000" lon="0.2573830000"><ele>515</ele><time>2026-03-23T12:32:14Z</time></trkpt>
<trkpt lat="43.0427570000" lon="0.2574070000"><ele>516</ele><time>2026-03-23T12:32:16Z</time></trkpt>
<trkpt lat="43.0427670000" lon="0.2574270000"><ele>516</ele><time>2026-03-23T12:32:18Z</time></trkpt>
<trkpt lat="43.0427770000" lon="0.2574620000"><ele>516</ele><time>2026-03-23T12:32:21Z</time></trkpt>
<trkpt lat="43.0427920000" lon="0.2574920000"><ele>516</ele><time>2026-03-23T12:32:24Z</time></trkpt>
<trkpt lat="43.0427970000" lon="0.2575170000"><ele>517</ele><time>2026-03-23T12:32:26Z</time></trkpt>
<trkpt lat="43.0428070000" lon="0.2575470000"><ele>517</ele><time>2026-03-23T12:32:56Z</time></trkpt>
<trkpt lat="43.0428050000" lon="0.2575850000"><ele>517</ele><time>2026-03-23T12:32:58Z</time></trkpt>
<trkpt lat="43.0428020000" lon="0.2576120000"><ele>518</ele><time>2026-03-23T12:32:59Z</time></trkpt>
<trkpt lat="43.0428050000" lon="0.2576370000"><ele>517</ele><time>2026-03-23T12:33:00Z</time></trkpt>
<trkpt lat="43.0428070000" lon="0.2576770000"><ele>517</ele><time>2026-03-23T12:33:02Z</time></trkpt>
<trkpt lat="43.0428120000" lon="0.2577100000"><ele>518</ele><time>2026-03-23T12:33:04Z</time></trkpt>
<trkpt lat="43.0428150000" lon="0.2577370000"><ele>518</ele><time>2026-03-23T12:33:06Z</time></trkpt>
<trkpt lat="43.0428170000" lon="0.2577620000"><ele>518</ele><time>2026-03-23T12:33:08Z</time></trkpt>
<trkpt lat="43.0428170000" lon="0.2577900000"><ele>518</ele><time>2026-03-23T12:33:10Z</time></trkpt>
<trkpt lat="43.0428250000" lon="0.2578150000"><ele>519</ele><time>2026-03-23T12:33:13Z</time></trkpt>
<trkpt lat="43.0428220000" lon="0.2578400000"><ele>519</ele><time>2026-03-23T12:33:19Z</time></trkpt>
<trkpt lat="43.0428120000" lon="0.2578620000"><ele>519</ele><time>2026-03-23T12:33:21Z</time></trkpt>
<trkpt lat="43.0428050000" lon="0.2578900000"><ele>519</ele><time>2026-03-23T12:33:23Z</time></trkpt>
<trkpt lat="43.0428070000" lon="0.2579150000"><ele>519</ele><time>2026-03-23T12:33:25Z</time></trkpt>
<trkpt lat="43.0428170000" lon="0.2579370000"><ele>520</ele><time>2026-03-23T12:33:27Z</time></trkpt>
<trkpt lat="43.0428270000" lon="0.2579670000"><ele>520</ele><time>2026-03-23T12:33:30Z</time></trkpt>
<trkpt lat="43.0428320000" lon="0.2579950000"><ele>520</ele><time>2026-03-23T12:33:33Z</time></trkpt>
<trkpt lat="43.0428370000" lon="0.2580220000"><ele>521</ele><time>2026-03-23T12:33:35Z</time></trkpt>
<trkpt lat="43.0428470000" lon="0.2580530000"><ele>521</ele><time>2026-03-23T12:33:37Z</time></trkpt>
<trkpt lat="43.0428550000" lon="0.2580770000"><ele>521</ele><time>2026-03-23T12:33:39Z</time></trkpt>
<trkpt lat="43.0428550000" lon="0.2581020000"><ele>521</ele><time>2026-03-23T12:33:41Z</time></trkpt>
<trkpt lat="43.0428570000" lon="0.2581420000"><ele>522</ele><time>2026-03-23T12:33:44Z</time></trkpt>
<trkpt lat="43.0428620000" lon="0.2581720000"><ele>522</ele><time>2026-03-23T12:33:47Z</time></trkpt>
<trkpt lat="43.0428620000" lon="0.2582050000"><ele>522</ele><time>2026-03-23T12:33:50Z</time></trkpt>
<trkpt lat="43.0428570000" lon="0.2582300000"><ele>522</ele><time>2026-03-23T12:33:53Z</time></trkpt>
<trkpt lat="43.0428620000" lon="0.2582580000"><ele>523</ele><time>2026-03-23T12:33:55Z</time></trkpt>
<trkpt lat="43.0428580000" lon="0.2582850000"><ele>523</ele><time>2026-03-23T12:33:57Z</time></trkpt>
<trkpt lat="43.0428470000" lon="0.2583070000"><ele>523</ele><time>2026-03-23T12:34:00Z</time></trkpt>
<trkpt lat="43.0428450000" lon="0.2583370000"><ele>523</ele><time>2026-03-23T12:34:02Z</time></trkpt>
<trkpt lat="43.0428420000" lon="0.2583650000"><ele>523</ele><time>2026-03-23T12:34:04Z</time></trkpt>
<trkpt lat="43.0428420000" lon="0.2584000000"><ele>523</ele><time>2026-03-23T12:34:07Z</time></trkpt>
<trkpt lat="43.0428320000" lon="0.2584270000"><ele>524</ele><time>2026-03-23T12:34:10Z</time></trkpt>
<trkpt lat="43.0428200000" lon="0.2584600000"><ele>524</ele><time>2026-03-23T12:34:14Z</time></trkpt>
<trkpt lat="43.0428020000" lon="0.2584780000"><ele>524</ele><time>2026-03-23T12:34:17Z</time></trkpt>
<trkpt lat="43.0427850000" lon="0.2584920000"><ele>525</ele><time>2026-03-23T12:34:20Z</time></trkpt>
<trkpt lat="43.0427820000" lon="0.2585170000"><ele>525</ele><time>2026-03-23T12:34:23Z</time></trkpt>
<trkpt lat="43.0427800000" lon="0.2585500000"><ele>526</ele><time>2026-03-23T12:34:26Z</time></trkpt>
<trkpt lat="43.0427720000" lon="0.2585820000"><ele>526</ele><time>2026-03-23T12:34:29Z</time></trkpt>
<trkpt lat="43.0427720000" lon="0.2586100000"><ele>527</ele><time>2026-03-23T12:34:33Z</time></trkpt>
<trkpt lat="43.0427670000" lon="0.2586350000"><ele>527</ele><time>2026-03-23T12:34:37Z</time></trkpt>
<trkpt lat="43.0427600000" lon="0.2586630000"><ele>528</ele><time>2026-03-23T12:34:40Z</time></trkpt>
<trkpt lat="43.0427600000" lon="0.2587000000"><ele>528</ele><time>2026-03-23T12:34:43Z</time></trkpt>
<trkpt lat="43.0427570000" lon="0.2587300000"><ele>528</ele><time>2026-03-23T12:34:45Z</time></trkpt>
<trkpt lat="43.0427520000" lon="0.2587580000"><ele>529</ele><time>2026-03-23T12:34:49Z</time></trkpt>
<trkpt lat="43.0427570000" lon="0.2587870000"><ele>529</ele><time>2026-03-23T12:34:52Z</time></trkpt>
<trkpt lat="43.0427270000" lon="0.2587770000"><ele>530</ele><time>2026-03-23T12:35:58Z</time></trkpt>
<trkpt lat="43.0427000000" lon="0.2587580000"><ele>530</ele><time>2026-03-23T12:36:00Z</time></trkpt>
<trkpt lat="43.0426770000" lon="0.2587470000"><ele>530</ele><time>2026-03-23T12:36:02Z</time></trkpt>
<trkpt lat="43.0427020000" lon="0.2587620000"><ele>530</ele><time>2026-03-23T12:36:09Z</time></trkpt>
<trkpt lat="43.0427120000" lon="0.2587870000"><ele>530</ele><time>2026-03-23T12:36:11Z</time></trkpt>
<trkpt lat="43.0427200000" lon="0.2588220000"><ele>531</ele><time>2026-03-23T12:36:19Z</time></trkpt>
<trkpt lat="43.0427220000" lon="0.2588520000"><ele>531</ele><time>2026-03-23T12:36:21Z</time></trkpt>
<trkpt lat="43.0427250000" lon="0.2588830000"><ele>531</ele><time>2026-03-23T12:36:23Z</time></trkpt>
<trkpt lat="43.0427030000" lon="0.2589120000"><ele>532</ele><time>2026-03-23T12:36:29Z</time></trkpt>
<trkpt lat="43.0426800000" lon="0.2589250000"><ele>533</ele><time>2026-03-23T12:36:31Z</time></trkpt>
<trkpt lat="43.0426620000" lon="0.2589570000"><ele>539</ele><time>2026-03-23T12:37:10Z</time></trkpt>
<trkpt lat="43.0426500000" lon="0.2589970000"><ele>539</ele><time>2026-03-23T12:37:11Z</time></trkpt>
<trkpt lat="43.0426320000" lon="0.2590450000"><ele>539</ele><time>2026-03-23T12:37:12Z</time></trkpt>
<trkpt lat="43.0426120000" lon="0.2590920000"><ele>539</ele><time>2026-03-23T12:37:13Z</time></trkpt>
<trkpt lat="43.0425970000" lon="0.2591270000"><ele>539</ele><time>2026-03-23T12:37:14Z</time></trkpt>
<trkpt lat="43.0425920000" lon="0.2591550000"><ele>540</ele><time>2026-03-23T12:37:15Z</time></trkpt>
<trkpt lat="43.0425850000" lon="0.2591870000"><ele>540</ele><time>2026-03-23T12:37:18Z</time></trkpt>
<trkpt lat="43.0425870000" lon="0.2592130000"><ele>541</ele><time>2026-03-23T12:37:23Z</time></trkpt>
<trkpt lat="43.0425770000" lon="0.2592370000"><ele>541</ele><time>2026-03-23T12:37:25Z</time></trkpt>
<trkpt lat="43.0425620000" lon="0.2592650000"><ele>544</ele><time>2026-03-23T12:37:40Z</time></trkpt>
<trkpt lat="43.0425470000" lon="0.2593050000"><ele>544</ele><time>2026-03-23T12:37:42Z</time></trkpt>
<trkpt lat="43.0425220000" lon="0.2593420000"><ele>544</ele><time>2026-03-23T12:37:44Z</time></trkpt>
<trkpt lat="43.0425070000" lon="0.2593570000"><ele>544</ele><time>2026-03-23T12:37:45Z</time></trkpt>
<trkpt lat="43.0424920000" lon="0.2593820000"><ele>545</ele><time>2026-03-23T12:37:47Z</time></trkpt>
<trkpt lat="43.0424850000" lon="0.2594070000"><ele>545</ele><time>2026-03-23T12:37:50Z</time></trkpt>
<trkpt lat="43.0424820000" lon="0.2594350000"><ele>545</ele><time>2026-03-23T12:37:53Z</time></trkpt>
<trkpt lat="43.0424850000" lon="0.2594620000"><ele>546</ele><time>2026-03-23T12:37:58Z</time></trkpt>
<trkpt lat="43.0424870000" lon="0.2594870000"><ele>546</ele><time>2026-03-23T12:38:02Z</time></trkpt>
<trkpt lat="43.0424820000" lon="0.2595150000"><ele>547</ele><time>2026-03-23T12:38:05Z</time></trkpt>
<trkpt lat="43.0424550000" lon="0.2595370000"><ele>548</ele><time>2026-03-23T12:38:08Z</time></trkpt>
<trkpt lat="43.0424420000" lon="0.2595530000"><ele>548</ele><time>2026-03-23T12:38:10Z</time></trkpt>
<trkpt lat="43.0424270000" lon="0.2595720000"><ele>548</ele><time>2026-03-23T12:38:12Z</time></trkpt>
<trkpt lat="43.0424170000" lon="0.2595970000"><ele>549</ele><time>2026-03-23T12:38:15Z</time></trkpt>
<trkpt lat="43.0424050000" lon="0.2596170000"><ele>549</ele><time>2026-03-23T12:38:17Z</time></trkpt>
<trkpt lat="43.0424000000" lon="0.2596420000"><ele>549</ele><time>2026-03-23T12:38:20Z</time></trkpt>
<trkpt lat="43.0423900000" lon="0.2596670000"><ele>550</ele><time>2026-03-23T12:38:24Z</time></trkpt>
<trkpt lat="43.0423700000" lon="0.2596800000"><ele>550</ele><time>2026-03-23T12:38:27Z</time></trkpt>
<trkpt lat="43.0423520000" lon="0.2597020000"><ele>551</ele><time>2026-03-23T12:38:30Z</time></trkpt>
<trkpt lat="43.0423500000" lon="0.2597270000"><ele>551</ele><time>2026-03-23T12:38:32Z</time></trkpt>
<trkpt lat="43.0423550000" lon="0.2597570000"><ele>551</ele><time>2026-03-23T12:38:35Z</time></trkpt>
<trkpt lat="43.0423470000" lon="0.2597900000"><ele>552</ele><time>2026-03-23T12:38:38Z</time></trkpt>
<trkpt lat="43.0423400000" lon="0.2598220000"><ele>552</ele><time>2026-03-23T12:38:41Z</time></trkpt>
<trkpt lat="43.0423300000" lon="0.2598420000"><ele>552</ele><time>2026-03-23T12:38:43Z</time></trkpt>
<trkpt lat="43.0423200000" lon="0.2598670000"><ele>553</ele><time>2026-03-23T12:38:46Z</time></trkpt>
<trkpt lat="43.0423200000" lon="0.2598920000"><ele>553</ele><time>2026-03-23T12:38:49Z</time></trkpt>
<trkpt lat="43.0423100000" lon="0.2599250000"><ele>554</ele><time>2026-03-23T12:38:53Z</time></trkpt>
<trkpt lat="43.0423020000" lon="0.2599500000"><ele>554</ele><time>2026-03-23T12:38:56Z</time></trkpt>
<trkpt lat="43.0422900000" lon="0.2599720000"><ele>555</ele><time>2026-03-23T12:38:59Z</time></trkpt>
<trkpt lat="43.0422800000" lon="0.2600020000"><ele>555</ele><time>2026-03-23T12:39:02Z</time></trkpt>
<trkpt lat="43.0422670000" lon="0.2600300000"><ele>555</ele><time>2026-03-23T12:39:05Z</time></trkpt>
<trkpt lat="43.0422620000" lon="0.2600530000"><ele>556</ele><time>2026-03-23T12:39:08Z</time></trkpt>
<trkpt lat="43.0422570000" lon="0.2600870000"><ele>556</ele><time>2026-03-23T12:39:11Z</time></trkpt>
<trkpt lat="43.0422400000" lon="0.2601030000"><ele>556</ele><time>2026-03-23T12:39:13Z</time></trkpt>
<trkpt lat="43.0422270000" lon="0.2601320000"><ele>557</ele><time>2026-03-23T12:39:16Z</time></trkpt>
<trkpt lat="43.0422200000" lon="0.2601670000"><ele>557</ele><time>2026-03-23T12:39:19Z</time></trkpt>
<trkpt lat="43.0422250000" lon="0.2601970000"><ele>557</ele><time>2026-03-23T12:39:22Z</time></trkpt>
<trkpt lat="43.0422220000" lon="0.2602270000"><ele>558</ele><time>2026-03-23T12:39:25Z</time></trkpt>
<trkpt lat="43.0422100000" lon="0.2602570000"><ele>558</ele><time>2026-03-23T12:39:28Z</time></trkpt>
<trkpt lat="43.0422070000" lon="0.2602870000"><ele>558</ele><time>2026-03-23T12:39:31Z</time></trkpt>
<trkpt lat="43.0422070000" lon="0.2603150000"><ele>559</ele><time>2026-03-23T12:39:35Z</time></trkpt>
<trkpt lat="43.0422000000" lon="0.2603420000"><ele>559</ele><time>2026-03-23T12:39:38Z</time></trkpt>
<trkpt lat="43.0422020000" lon="0.2603670000"><ele>560</ele><time>2026-03-23T12:39:42Z</time></trkpt>
<trkpt lat="43.0421870000" lon="0.2603800000"><ele>560</ele><time>2026-03-23T12:39:46Z</time></trkpt>
<trkpt lat="43.0421720000" lon="0.2603970000"><ele>560</ele><time>2026-03-23T12:40:18Z</time></trkpt>
<trkpt lat="43.0421600000" lon="0.2604280000"><ele>560</ele><time>2026-03-23T12:40:22Z</time></trkpt>
<trkpt lat="43.0421600000" lon="0.2604650000"><ele>561</ele><time>2026-03-23T12:40:25Z</time></trkpt>
<trkpt lat="43.0421620000" lon="0.2604970000"><ele>562</ele><time>2026-03-23T12:40:32Z</time></trkpt>
<trkpt lat="43.0421570000" lon="0.2605370000"><ele>562</ele><time>2026-03-23T12:40:35Z</time></trkpt>
<trkpt lat="43.0421470000" lon="0.2605770000"><ele>563</ele><time>2026-03-23T12:40:37Z</time></trkpt>
<trkpt lat="43.0421350000" lon="0.2606020000"><ele>563</ele><time>2026-03-23T12:40:39Z</time></trkpt>
<trkpt lat="43.0421320000" lon="0.2606370000"><ele>564</ele><time>2026-03-23T12:40:42Z</time></trkpt>
<trkpt lat="43.0421250000" lon="0.2606600000"><ele>564</ele><time>2026-03-23T12:40:45Z</time></trkpt>
<trkpt lat="43.0421220000" lon="0.2606920000"><ele>565</ele><time>2026-03-23T12:40:48Z</time></trkpt>
<trkpt lat="43.0421250000" lon="0.2607250000"><ele>565</ele><time>2026-03-23T12:40:51Z</time></trkpt>
<trkpt lat="43.0421350000" lon="0.2607570000"><ele>566</ele><time>2026-03-23T12:40:54Z</time></trkpt>
<trkpt lat="43.0421270000" lon="0.2607920000"><ele>566</ele><time>2026-03-23T12:40:57Z</time></trkpt>
<trkpt lat="43.0421220000" lon="0.2608170000"><ele>567</ele><time>2026-03-23T12:41:01Z</time></trkpt>
<trkpt lat="43.0421120000" lon="0.2608420000"><ele>567</ele><time>2026-03-23T12:41:04Z</time></trkpt>
<trkpt lat="43.0421020000" lon="0.2608670000"><ele>568</ele><time>2026-03-23T12:41:07Z</time></trkpt>
<trkpt lat="43.0420950000" lon="0.2609000000"><ele>568</ele><time>2026-03-23T12:41:11Z</time></trkpt>
<trkpt lat="43.0420970000" lon="0.2609270000"><ele>569</ele><time>2026-03-23T12:41:14Z</time></trkpt>
<trkpt lat="43.0420980000" lon="0.2609570000"><ele>569</ele><time>2026-03-23T12:41:17Z</time></trkpt>
<trkpt lat="43.0420980000" lon="0.2609870000"><ele>570</ele><time>2026-03-23T12:41:20Z</time></trkpt>
<trkpt lat="43.0420970000" lon="0.2610150000"><ele>571</ele><time>2026-03-23T12:41:23Z</time></trkpt>
<trkpt lat="43.0420970000" lon="0.2610420000"><ele>571</ele><time>2026-03-23T12:41:26Z</time></trkpt>
<trkpt lat="43.0420980000" lon="0.2610750000"><ele>572</ele><time>2026-03-23T12:41:30Z</time></trkpt>
<trkpt lat="43.0420980000" lon="0.2611020000"><ele>572</ele><time>2026-03-23T12:41:34Z</time></trkpt>
<trkpt lat="43.0420750000" lon="0.2611020000"><ele>573</ele><time>2026-03-23T12:41:38Z</time></trkpt>
<trkpt lat="43.0420520000" lon="0.2610970000"><ele>573</ele><time>2026-03-23T12:41:40Z</time></trkpt>
<trkpt lat="43.0420400000" lon="0.2610650000"><ele>574</ele><time>2026-03-23T12:41:58Z</time></trkpt>
<trkpt lat="43.0420370000" lon="0.2610370000"><ele>574</ele><time>2026-03-23T12:42:00Z</time></trkpt>
<trkpt lat="43.0420320000" lon="0.2610020000"><ele>574</ele><time>2026-03-23T12:42:02Z</time></trkpt>
<trkpt lat="43.0420280000" lon="0.2609620000"><ele>574</ele><time>2026-03-23T12:42:04Z</time></trkpt>
<trkpt lat="43.0420220000" lon="0.2609220000"><ele>574</ele><time>2026-03-23T12:42:06Z</time></trkpt>
<trkpt lat="43.0420250000" lon="0.2608830000"><ele>574</ele><time>2026-03-23T12:42:08Z</time></trkpt>
<trkpt lat="43.0420200000" lon="0.2608500000"><ele>574</ele><time>2026-03-23T12:42:10Z</time></trkpt>
<trkpt lat="43.0420120000" lon="0.2608170000"><ele>575</ele><time>2026-03-23T12:42:12Z</time></trkpt>
<trkpt lat="43.0420020000" lon="0.2607900000"><ele>575</ele><time>2026-03-23T12:42:14Z</time></trkpt>
<trkpt lat="43.0419970000" lon="0.2607550000"><ele>575</ele><time>2026-03-23T12:42:17Z</time></trkpt>
<trkpt lat="43.0419870000" lon="0.2607220000"><ele>575</ele><time>2026-03-23T12:42:19Z</time></trkpt>
<trkpt lat="43.0419800000" lon="0.2606920000"><ele>575</ele><time>2026-03-23T12:42:21Z</time></trkpt>
<trkpt lat="43.0419770000" lon="0.2606630000"><ele>575</ele><time>2026-03-23T12:42:23Z</time></trkpt>
<trkpt lat="43.0419700000" lon="0.2606370000"><ele>575</ele><time>2026-03-23T12:42:25Z</time></trkpt>
<trkpt lat="43.0419620000" lon="0.2606100000"><ele>575</ele><time>2026-03-23T12:42:27Z</time></trkpt>
<trkpt lat="43.0419570000" lon="0.2605820000"><ele>575</ele><time>2026-03-23T12:42:29Z</time></trkpt>
<trkpt lat="43.0419520000" lon="0.2605520000"><ele>575</ele><time>2026-03-23T12:42:31Z</time></trkpt>
<trkpt lat="43.0419430000" lon="0.2605180000"><ele>575</ele><time>2026-03-23T12:42:33Z</time></trkpt>
<trkpt lat="43.0419370000" lon="0.2604870000"><ele>576</ele><time>2026-03-23T12:42:35Z</time></trkpt>
<trkpt lat="43.0419320000" lon="0.2604550000"><ele>576</ele><time>2026-03-23T12:42:37Z</time></trkpt>
<trkpt lat="43.0419370000" lon="0.2604170000"><ele>576</ele><time>2026-03-23T12:42:39Z</time></trkpt>
<trkpt lat="43.0419320000" lon="0.2603870000"><ele>576</ele><time>2026-03-23T12:42:41Z</time></trkpt>
<trkpt lat="43.0419270000" lon="0.2603570000"><ele>576</ele><time>2026-03-23T12:42:43Z</time></trkpt>
<trkpt lat="43.0419270000" lon="0.2603270000"><ele>576</ele><time>2026-03-23T12:42:45Z</time></trkpt>
<trkpt lat="43.0419220000" lon="0.2603000000"><ele>577</ele><time>2026-03-23T12:42:47Z</time></trkpt>
<trkpt lat="43.0419250000" lon="0.2602670000"><ele>577</ele><time>2026-03-23T12:42:49Z</time></trkpt>
<trkpt lat="43.0419250000" lon="0.2602370000"><ele>577</ele><time>2026-03-23T12:42:51Z</time></trkpt>
<trkpt lat="43.0419250000" lon="0.2602070000"><ele>577</ele><time>2026-03-23T12:42:53Z</time></trkpt>
<trkpt lat="43.0419200000" lon="0.2601800000"><ele>577</ele><time>2026-03-23T12:42:55Z</time></trkpt>
<trkpt lat="43.0419220000" lon="0.2601480000"><ele>577</ele><time>2026-03-23T12:42:57Z</time></trkpt>
<trkpt lat="43.0419200000" lon="0.2601150000"><ele>577</ele><time>2026-03-23T12:42:59Z</time></trkpt>
<trkpt lat="43.0419200000" lon="0.2600820000"><ele>577</ele><time>2026-03-23T12:43:01Z</time></trkpt>
<trkpt lat="43.0419220000" lon="0.2600520000"><ele>577</ele><time>2026-03-23T12:43:03Z</time></trkpt>
<trkpt lat="43.0419270000" lon="0.2600250000"><ele>577</ele><time>2026-03-23T12:43:05Z</time></trkpt>
<trkpt lat="43.0419300000" lon="0.2599970000"><ele>577</ele><time>2026-03-23T12:43:07Z</time></trkpt>
<trkpt lat="43.0419320000" lon="0.2599680000"><ele>577</ele><time>2026-03-23T12:43:09Z</time></trkpt>
<trkpt lat="43.0419420000" lon="0.2599370000"><ele>578</ele><time>2026-03-23T12:43:11Z</time></trkpt>
<trkpt lat="43.0419430000" lon="0.2599070000"><ele>578</ele><time>2026-03-23T12:43:13Z</time></trkpt>
<trkpt lat="43.0419420000" lon="0.2598720000"><ele>578</ele><time>2026-03-23T12:43:15Z</time></trkpt>
<trkpt lat="43.0419370000" lon="0.2598320000"><ele>578</ele><time>2026-03-23T12:43:17Z</time></trkpt>
<trkpt lat="43.0419350000" lon="0.2598000000"><ele>578</ele><time>2026-03-23T12:43:19Z</time></trkpt>
<trkpt lat="43.0419370000" lon="0.2597670000"><ele>578</ele><time>2026-03-23T12:43:21Z</time></trkpt>
<trkpt lat="43.0419370000" lon="0.2597320000"><ele>579</ele><time>2026-03-23T12:43:23Z</time></trkpt>
<trkpt lat="43.0419350000" lon="0.2596970000"><ele>579</ele><time>2026-03-23T12:43:25Z</time></trkpt>
<trkpt lat="43.0419350000" lon="0.2596670000"><ele>579</ele><time>2026-03-23T12:43:27Z</time></trkpt>
<trkpt lat="43.0419350000" lon="0.2596370000"><ele>579</ele><time>2026-03-23T12:43:29Z</time></trkpt>
<trkpt lat="43.0419370000" lon="0.2596020000"><ele>579</ele><time>2026-03-23T12:43:31Z</time></trkpt>
<trkpt lat="43.0419320000" lon="0.2595720000"><ele>579</ele><time>2026-03-23T12:43:33Z</time></trkpt>
<trkpt lat="43.0419220000" lon="0.2595400000"><ele>579</ele><time>2026-03-23T12:43:35Z</time></trkpt>
<trkpt lat="43.0419170000" lon="0.2595120000"><ele>579</ele><time>2026-03-23T12:43:37Z</time></trkpt>
<trkpt lat="43.0419120000" lon="0.2594820000"><ele>579</ele><time>2026-03-23T12:43:39Z</time></trkpt>
<trkpt lat="43.0418920000" lon="0.2594620000"><ele>580</ele><time>2026-03-23T12:43:55Z</time></trkpt>
<trkpt lat="43.0418820000" lon="0.2594320000"><ele>580</ele><time>2026-03-23T12:43:57Z</time></trkpt>
<trkpt lat="43.0418720000" lon="0.2593920000"><ele>580</ele><time>2026-03-23T12:43:59Z</time></trkpt>
<trkpt lat="43.0418670000" lon="0.2593620000"><ele>580</ele><time>2026-03-23T12:44:01Z</time></trkpt>
<trkpt lat="43.0418670000" lon="0.2593370000"><ele>580</ele><time>2026-03-23T12:44:03Z</time></trkpt>
<trkpt lat="43.0418570000" lon="0.2593020000"><ele>580</ele><time>2026-03-23T12:44:11Z</time></trkpt>
<trkpt lat="43.0418500000" lon="0.2592670000"><ele>580</ele><time>2026-03-23T12:44:13Z</time></trkpt>
<trkpt lat="43.0418400000" lon="0.2592330000"><ele>580</ele><time>2026-03-23T12:44:15Z</time></trkpt>
<trkpt lat="43.0418320000" lon="0.2592070000"><ele>581</ele><time>2026-03-23T12:44:17Z</time></trkpt>
<trkpt lat="43.0418220000" lon="0.2591830000"><ele>581</ele><time>2026-03-23T12:44:19Z</time></trkpt>
<trkpt lat="43.0418120000" lon="0.2591620000"><ele>581</ele><time>2026-03-23T12:44:21Z</time></trkpt>
<trkpt lat="43.0418020000" lon="0.2591420000"><ele>581</ele><time>2026-03-23T12:44:23Z</time></trkpt>
<trkpt lat="43.0417870000" lon="0.2591220000"><ele>581</ele><time>2026-03-23T12:44:25Z</time></trkpt>
<trkpt lat="43.0417750000" lon="0.2591020000"><ele>581</ele><time>2026-03-23T12:44:27Z</time></trkpt>
<trkpt lat="43.0417550000" lon="0.2590820000"><ele>581</ele><time>2026-03-23T12:44:29Z</time></trkpt>
<trkpt lat="43.0417300000" lon="0.2590720000"><ele>581</ele><time>2026-03-23T12:44:32Z</time></trkpt>
<trkpt lat="43.0417050000" lon="0.2590570000"><ele>581</ele><time>2026-03-23T12:44:35Z</time></trkpt>
<trkpt lat="43.0416850000" lon="0.2590550000"><ele>582</ele><time>2026-03-23T12:44:38Z</time></trkpt>
<trkpt lat="43.0416650000" lon="0.2590520000"><ele>582</ele><time>2026-03-23T12:45:06Z</time></trkpt>
</trkseg>
</trk>
</gpx>